GFSSGP_500_temp_000.txt.gz
Temp
-11 -10 -10 -11 -11 -11 -10 -11 -11 -10 -10 -9 -9 -10 -10 -10 -11 -11 -11 -12 -12 -13 -12 -13 -13 -13 -13 -13 -13 -14 -14 -14 -14 -14 -14 -14 -14 -14 -14 -14 -14 -14 -15 -15 -14 -14 -14 -14 -14
-12 -11 -12 -12 -11 -10 -11 -11 -11 -10 -9 -10 -10 -11 -9 -10 -11 -11 -12 -12 -12 -13 -13 -13 -13 -13 -13 -13 -13 -13 -13 -13 -13 -13 -14 -14 -14 -14 -14 -14 -14 -14 -14 -14 -14 -14 -14 -14 -14
-12 -11 -12 -11 -11 -12 -12 -12 -11 -10 -11 -10 -11 -11 -11 -11 -11 -12 -12 -13 -13 -13 -13 -13 -13 -13 -13 -13 -13 -13 -13 -13 -13 -13 -14 -13 -13 -14 -14 -14 -14 -14 -14 -14 -14 -14 -14 -14 -14
-11 -11 -11 -11 -12 -13 -12 -12 -10 -12 -11 -11 -12 -12 -12 -11 -12 -12 -12 -13 -13 -13 -13 -13 -13 -13 -13 -13 -13 -13 -13 -13 -13 -13 -13 -13 -13 -13 -14 -14 -14 -14 -14 -14 -14 -14 -14 -14 -14
-12 -12 -11 -12 -13 -13 -12 -11 -12 -11 -11 -12 -13 -12 -11 -12 -12 -12 -13 -13 -13 -13 -13 -13 -13 -13 -13 -13 -13 -13 -13 -13 -13 -13 -13 -13 -13 -13 -13 -13 -13 -13 -13 -13 -14 -14 -14 -14 -14
-12 -12 -13 -13 -13 -13 -12 -12 -13 -13 -13 -13 -13 -12 -12 -12 -13 -13 -13 -13 -13 -13 -13 -13 -13 -13 -13 -13 -13 -13 -13 -13 -13 -13 -13 -13 -13 -13 -13 -13 -13 -13 -13 -13 -13 -14 -14 -14 -14
-13 -13 -13 -13 -13 -13 -12 -13 -14 -14 -13 -13 -13 -12 -13 -13 -13 -13 -13 -13 -13 -13 -13 -13 -13 -13 -13 -13 -12 -12 -13 -13 -13 -13 -13 -13 -13 -13 -14 -14 -14 -14 -14 -14 -14 -14 -14 -14 -14
-13 -12 -13 -13 -13 -14 -13 -14 -13 -14 -13 -13 -13 -12 -13 -13 -12 -12 -13 -13 -13 -13 -13 -13 -13 -13 -13 -13 -12 -13 -13 -13 -13 -13 -13 -13 -13 -13 -14 -14 -14 -14 -15 -14 -15 -15 -15 -15 -14
-13 -14 -14 -14 -15 -13 -14 -14 -13 -13 -13 -14 -13 -13 -13 -13 -13 -13 -13 -13 -12 -13 -13 -13 -13 -13 -13 -12 -13 -13 -13 -13 -13 -13 -13 -14 -14 -14 -14 -14 -14 -15 -15 -15 -15 -15 -15 -15 -15
-14 -14 -14 -14 -15 -15 -14 -14 -14 -14 -13 -13 -13 -13 -13 -13 -13 -13 -13 -13 -13 -13 -13 -12 -12 -13 -13 -12 -13 -13 -13 -13 -13 -14 -14 -14 -14 -14 -14 -14 -14 -14 -14 -14 -15 -15 -15 -15 -15
-15 -15 -14 -14 -15 -15 -14 -14 -14 -14 -14 -14 -14 -13 -13 -13 -13 -13 -13 -13 -12 -12 -12 -12 -12 -12 -13 -13 -13 -13 -13 -13 -14 -14 -14 -14 -14 -14 -14 -14 -15 -15 -15 -15 -15 -15 -15 -15 -15
-16 -15 -15 -14 -14 -14 -13 -13 -14 -14 -13 -13 -13 -13 -13 -13 -13 -13 -13 -12 -12 -12 -12 -13 -13 -13 -13 -14 -14 -14 -14 -14 -14 -15 -15 -15 -15 -15 -15 -15 -15 -15 -15 -14 -14 -14 -14 -14 -14
-16 -15 -14 -14 -13 -13 -13 -13 -13 -13 -13 -13 -13 -13 -13 -13 -13 -12 -12 -12 -13 -13 -12 -13 -13 -13 -13 -13 -14 -14 -15 -14 -15 -15 -15 -15 -15 -15 -15 -15 -15 -15 -15 -14 -14 -14 -14 -14 -14
-14 -14 -13 -13 -13 -13 -13 -13 -13 -13 -13 -13 -13 -13 -13 -13 -12 -13 -13 -13 -13 -13 -12 -12 -13 -14 -14 -14 -15 -15 -15 -15 -15 -15 -15 -15 -15 -15 -15 -15 -15 -15 -15 -15 -14 -14 -15 -15 -14
-14 -13 -13 -13 -13 -13 -13 -13 -13 -13 -13 -13 -13 -13 -13 -13 -13 -13 -13 -14 -13 -13 -13 -14 -14 -15 -14 -15 -15 -15 -15 -15 -15 -15 -15 -15 -15 -15 -15 -15 -15 -15 -14 -14 -14 -14 -14 -14 -14
-13 -13 -14 -14 -14 -13 -13 -14 -13 -13 -13 -13 -13 -13 -13 -13 -13 -13 -14 -14 -13 -13 -13 -15 -14 -15 -14 -15 -15 -15 -15 -15 -15 -15 -15 -15 -16 -15 -16 -15 -15 -15 -15 -15 -15 -15 -15 -14 -14
-13 -14 -15 -14 -14 -13 -13 -14 -14 -13 -13 -13 -14 -14 -13 -14 -13 -14 -13 -14 -14 -14 -13 -14 -13 -14 -14 -16 -16 -16 -16 -16 -16 -16 -16 -16 -17 -16 -16 -15 -15 -15 -15 -15 -15 -15 -15 -15 -15
-14 -14 -15 -14 -13 -13 -13 -14 -14 -13 -14 -14 -14 -14 -14 -14 -14 -14 -13 -14 -14 -15 -14 -15 -12 -14 -15 -16 -16 -16 -16 -16 -17 -17 -17 -17 -17 -17 -16 -16 -16 -15 -15 -16 -16 -15 -15 -15 -15
-14 -14 -14 -15 -13 -13 -13 -14 -13 -13 -13 -13 -13 -14 -14 -14 -14 -14 -14 -15 -15 -15 -16 -15 -15 -16 -16 -16 -16 -17 -17 -17 -17 -17 -17 -17 -16 -18 -16 -16 -16 -16 -16 -17 -17 -16 -16 -16 -16
-14 -14 -14 -14 -13 -13 -14 -14 -13 -13 -14 -13 -13 -14 -14 -14 -14 -14 -14 -15 -16 -16 -16 -16 -15 -16 -16 -17 -16 -17 -18 -18 -17 -17 -17 -17 -18 -18 -18 -18 -17 -17 -19 -19 -19 -19 -18 -18 -18
-14 -14 -13 -14 -13 -13 -14 -15 -14 -13 -14 -14 -14 -14 -14 -14 -15 -14 -15 -15 -16 -16 -17 -17 -17 -17 -17 -17 -17 -18 -17 -17 -17 -17 -18 -17 -18 -18 -18 -18 -18 -18 -19 -19 -19 -19 -20 -19 -19
-14 -14 -14 -14 -14 -14 -14 -15 -15 -14 -13 -13 -14 -14 -15 -14 -14 -14 -15 -16 -16 -17 -17 -17 -17 -17 -18 -18 -17 -17 -17 -17 -17 -18 -18 -18 -18 -18 -18 -18 -18 -19 -19 -20 -20 -20 -20 -20 -20
-14 -14 -14 -14 -13 -14 -14 -14 -15 -15 -15 -14 -14 -14 -15 -15 -15 -15 -15 -16 -16 -16 -17 -17 -17 -17 -17 -17 -17 -17 -17 -17 -18 -17 -18 -18 -18 -18 -19 -19 -19 -20 -20 -21 -21 -21 -22 -22 -22
-14 -14 -14 -14 -14 -14 -14 -15 -15 -15 -15 -14 -14 -15 -15 -15 -15 -16 -16 -16 -16 -16 -17 -17 -18 -17 -17 -17 -17 -18 -18 -17 -17 -17 -18 -18 -19 -19 -20 -20 -21 -21 -21 -21 -21 -22 -23 -23 -23
-14 -14 -14 -14 -15 -15 -15 -15 -16 -15 -14 -15 -15 -15 -15 -16 -16 -16 -16 -16 -16 -16 -17 -17 -17 -18 -18 -17 -17 -17 -17 -17 -18 -18 -19 -19 -19 -20 -21 -21 -22 -22 -22 -23 -23 -23 -23 -23 -24
-15 -15 -15 -15 -15 -15 -15 -15 -16 -15 -16 -16 -16 -17 -16 -16 -16 -16 -16 -16 -16 -17 -17 -17 -17 -17 -17 -18 -17 -17 -18 -18 -19 -19 -20 -20 -21 -22 -22 -22 -22 -23 -24 -24 -24 -24 -24 -25 -26
-15 -15 -15 -15 -15 -15 -15 -16 -16 -16 -16 -16 -16 -16 -16 -16 -16 -17 -17 -16 -17 -17 -17 -17 -17 -17 -18 -18 -18 -18 -19 -19 -19 -19 -20 -21 -22 -23 -23 -24 -24 -24 -25 -25 -25 -26 -26 -26 -28
-15 -15 -15 -15 -15 -15 -16 -17 -17 -17 -16 -16 -17 -17 -16 -16 -17 -17 -17 -17 -17 -16 -16 -17 -17 -17 -17 -18 -18 -18 -19 -19 -20 -21 -22 -22 -23 -24 -24 -24 -25 -25 -26 -26 -27 -28 -29 -30 -30
-14 -14 -15 -15 -16 -16 -16 -17 -17 -17 -18 -17 -18 -17 -17 -18 -18 -18 -17 -17 -17 -17 -17 -17 -17 -18 -18 -18 -19 -20 -20 -21 -22 -22 -23 -23 -24 -25 -25 -26 -27 -27 -28 -29 -29 -30 -31 -31 -31
-15 -15 -15 -15 -16 -16 -16 -16 -17 -17 -17 -18 -18 -17 -17 -18 -17 -17 -17 -17 -17 -17 -18 -18 -18 -18 -19 -19 -20 -21 -21 -22 -23 -24 -24 -25 -26 -26 -27 -28 -28 -29 -30 -30 -31 -31 -31 -31 -31

GFSSGP_500_temp_003.txt.gz
Temp
-13 -13 -11 -11 -12 -11 -11 -10 -10 -10 -11 -10 -9 -10 -10 -10 -9 -9 -10 -11 -12 -12 -13 -13 -13 -13 -13 -13 -13 -13 -13 -13 -13 -13 -13 -12 -13 -13 -13 -13 -13 -13 -13 -14 -14 -14 -14 -14 -14
-14 -13 -12 -12 -12 -12 -12 -10 -10 -10 -9 -11 -10 -10 -10 -10 -10 -10 -11 -12 -12 -12 -13 -13 -13 -13 -13 -13 -13 -13 -13 -13 -12 -12 -13 -12 -13 -13 -13 -13 -13 -13 -13 -13 -14 -14 -14 -14 -14
-12 -14 -13 -13 -14 -13 -13 -12 -11 -11 -12 -11 -11 -9 -9 -11 -12 -12 -11 -13 -13 -13 -13 -13 -13 -13 -13 -13 -13 -13 -12 -12 -12 -12 -12 -13 -13 -13 -13 -13 -13 -13 -13 -13 -13 -13 -13 -14 -14
-14 -14 -13 -13 -14 -13 -12 -11 -12 -12 -12 -11 -10 -10 -10 -11 -12 -12 -12 -13 -14 -13 -13 -13 -13 -12 -12 -12 -12 -12 -12 -12 -12 -12 -13 -13 -13 -13 -13 -13 -13 -13 -13 -13 -13 -13 -13 -13 -14
-14 -13 -14 -14 -13 -12 -13 -12 -12 -12 -12 -11 -10 -11 -11 -12 -12 -13 -13 -13 -13 -13 -13 -12 -12 -12 -12 -12 -12 -12 -12 -13 -13 -13 -13 -13 -13 -13 -13 -13 -13 -13 -13 -13 -13 -13 -13 -14 -13
-14 -14 -14 -14 -12 -12 -13 -12 -13 -12 -12 -12 -11 -12 -13 -13 -13 -13 -13 -13 -13 -13 -12 -12 -12 -12 -12 -12 -12 -12 -13 -13 -13 -13 -13 -13 -13 -13 -13 -14 -14 -14 -14 -14 -14 -14 -14 -14 -14
-13 -14 -14 -14 -13 -13 -12 -13 -13 -12 -12 -12 -11 -12 -13 -13 -13 -13 -13 -13 -12 -12 -12 -12 -12 -12 -12 -12 -12 -13 -13 -13 -13 -13 -13 -13 -13 -13 -13 -14 -14 -14 -14 -14 -14 -14 -14 -14 -14
-14 -13 -13 -13 -13 -13 -13 -13 -12 -12 -12 -13 -12 -13 -13 -13 -13 -13 -13 -12 -12 -12 -12 -12 -12 -12 -12 -12 -12 -13 -13 -13 -13 -13 -13 -13 -14 -14 -14 -14 -14 -14 -14 -15 -14 -14 -14 -14 -14
-14 -13 -13 -13 -13 -13 -14 -13 -13 -13 -13 -14 -13 -14 -14 -13 -13 -12 -12 -12 -12 -12 -12 -12 -12 -12 -12 -12 -13 -12 -13 -13 -13 -13 -14 -14 -14 -14 -15 -15 -15 -14 -14 -14 -14 -14 -15 -14 -14
-14 -13 -14 -14 -14 -15 -15 -13 -14 -13 -14 -13 -13 -14 -14 -13 -12 -12 -12 -12 -12 -12 -13 -13 -12 -13 -13 -13 -13 -13 -13 -13 -14 -14 -14 -14 -14 -15 -14 -14 -14 -14 -15 -15 -15 -15 -14 -14 -14
-15 -15 -15 -15 -14 -14 -14 -13 -14 -14 -14 -14 -14 -14 -13 -13 -12 -12 -12 -12 -12 -12 -13 -12 -12 -12 -13 -13 -13 -13 -14 -14 -14 -14 -14 -14 -14 -14 -14 -14 -14 -15 -14 -15 -15 -15 -14 -14 -14
-15 -15 -15 -15 -15 -14 -14 -14 -14 -14 -14 -14 -13 -13 -13 -13 -13 -12 -12 -13 -13 -13 -12 -12 -13 -13 -13 -13 -13 -14 -14 -14 -14 -15 -14 -14 -14 -14 -15 -14 -14 -14 -14 -14 -14 -14 -14 -14 -14
-15 -14 -14 -15 -14 -14 -14 -14 -14 -14 -14 -13 -13 -13 -13 -13 -13 -12 -12 -13 -13 -13 -13 -14 -14 -14 -14 -14 -14 -13 -14 -14 -14 -15 -15 -15 -15 -15 -15 -15 -15 -15 -14 -14 -14 -14 -14 -14 -14
-14 -14 -14 -14 -14 -13 -13 -14 -14 -14 -14 -13 -13 -13 -13 -13 -13 -13 -13 -12 -12 -12 -12 -13 -14 -14 -14 -15 -14 -15 -14 -15 -15 -15 -15 -15 -15 -15 -15 -15 -15 -15 -15 -15 -14 -14 -14 -14 -14
-14 -14 -14 -14 -14 -14 -14 -14 -13 -13 -13 -14 -14 -13 -13 -12 -12 -12 -13 -13 -13 -13 -12 -13 -13 -14 -15 -16 -15 -16 -16 -16 -15 -15 -15 -16 -15 -16 -16 -16 -16 -15 -15 -15 -14 -14 -14 -14 -14
-14 -13 -14 -14 -14 -14 -14 -13 -13 -14 -13 -14 -13 -13 -13 -13 -12 -12 -13 -14 -14 -13 -13 -13 -14 -15 -14 -16 -16 -16 -16 -16 -16 -16 -16 -15 -15 -16 -16 -16 -16 -16 -15 -14 -14 -14 -14 -14 -14
-15 -15 -15 -15 -14 -14 -14 -13 -13 -13 -14 -14 -13 -13 -13 -13 -12 -12 -13 -14 -15 -14 -14 -14 -14 -15 -15 -15 -16 -16 -17 -16 -17 -17 -17 -17 -17 -16 -16 -16 -16 -16 -15 -15 -15 -15 -15 -15 -15
-15 -15 -15 -15 -14 -14 -15 -15 -15 -12 -13 -14 -14 -14 -13 -13 -13 -13 -14 -14 -14 -15 -15 -14 -15 -15 -16 -16 -17 -16 -17 -17 -17 -17 -18 -17 -17 -16 -17 -16 -16 -16 -17 -16 -16 -16 -16 -16 -15
-15 -15 -15 -15 -13 -14 -14 -14 -14 -13 -13 -14 -14 -14 -14 -14 -14 -14 -14 -14 -15 -15 -15 -15 -15 -15 -16 -16 -17 -16 -17 -17 -17 -17 -17 -17 -17 -17 -17 -17 -17 -16 -17 -17 -17 -17 -17 -17 -17
-15 -14 -14 -14 -13 -14 -14 -14 -14 -13 -14 -14 -14 -14 -14 -14 -14 -15 -15 -15 -15 -16 -16 -16 -16 -17 -16 -16 -17 -17 -18 -17 -17 -17 -17 -17 -17 -16 -16 -16 -16 -17 -17 -17 -17 -17 -17 -18 -18
-14 -14 -14 -14 -14 -14 -14 -14 -14 -14 -13 -14 -14 -14 -14 -15 -15 -15 -16 -16 -16 -16 -16 -17 -17 -17 -16 -17 -17 -18 -18 -17 -17 -17 -17 -17 -17 -17 -17 -17 -18 -17 -17 -18 -18 -18 -19 -19 -19
-14 -14 -14 -14 -14 -14 -14 -15 -15 -14 -14 -13 -14 -14 -14 -14 -15 -15 -16 -16 -16 -16 -16 -16 -17 -17 -17 -17 -18 -18 -17 -17 -17 -17 -17 -17 -18 -18 -18 -18 -19 -19 -19 -19 -19 -19 -20 -20 -20
-14 -14 -14 -14 -14 -14 -14 -15 -15 -15 -15 -14 -15 -15 -15 -15 -15 -15 -16 -16 -16 -16 -16 -16 -17 -17 -17 -17 -17 -17 -17 -17 -17 -18 -18 -18 -18 -18 -18 -19 -19 -19 -19 -20 -21 -21 -21 -22 -22
-14 -14 -14 -14 -14 -14 -15 -15 -15 -15 -15 -14 -15 -15 -15 -15 -15 -16 -16 -16 -16 -16 -16 -16 -17 -17 -17 -17 -17 -17 -18 -17 -17 -18 -18 -18 -18 -19 -19 -19 -20 -20 -21 -21 -22 -22 -23 -23 -23
-14 -14 -14 -14 -14 -14 -15 -15 -16 -15 -15 -15 -15 -16 -16 -16 -16 -16 -16 -16 -16 -16 -16 -17 -17 -17 -17 -16 -17 -17 -17 -17 -17 -18 -18 -18 -19 -19 -20 -20 -21 -21 -22 -23 -23 -24 -24 -24 -24
-14 -14 -14 -15 -15 -15 -15 -15 -16 -16 -16 -16 -16 -16 -17 -17 -17 -17 -17 -17 -16 -17 -18 -18 -18 -18 -18 -18 -18 -18 -17 -17 -18 -18 -19 -20 -20 -21 -22 -22 -23 -23 -23 -24 -24 -25 -25 -25 -25
-14 -15 -15 -15 -15 -15 -16 -16 -17 -16 -16 -16 -16 -17 -17 -17 -17 -17 -17 -16 -16 -16 -16 -17 -16 -16 -17 -17 -17 -18 -18 -18 -19 -20 -21 -22 -22 -23 -23 -23 -24 -24 -25 -26 -26 -26 -27 -28 -28
-14 -15 -15 -15 -15 -15 -16 -17 -16 -16 -16 -16 -17 -17 -17 -17 -18 -18 -17 -17 -17 -17 -17 -17 -17 -17 -17 -18 -18 -18 -19 -20 -20 -21 -22 -23 -23 -23 -23 -24 -25 -26 -27 -28 -29 -29 -30 -30 -31
-14 -14 -15 -15 -15 -16 -16 -17 -17 -17 -17 -17 -17 -18 -17 -17 -17 -17 -17 -17 -17 -18 -18 -17 -17 -18 -18 -18 -19 -20 -20 -21 -21 -22 -23 -23 -24 -25 -26 -27 -28 -29 -29 -30 -30 -31 -31 -31 -32
-14 -15 -15 -15 -15 -15 -16 -17 -17 -17 -17 -17 -18 -17 -17 -18 -18 -17 -18 -18 -18 -18 -17 -18 -18 -18 -19 -19 -20 -20 -21 -22 -22 -23 -23 -24 -26 -27 -28 -30 -30 -30 -31 -31 -31 -32 -32 -32 -32

GFSSGP_500_temp_006.txt.gz
Temp
-11 -10 -13 -13 -13 -14 -13 -12 -11 -11 -10 -11 -11 -11 -10 -10 -10 -11 -10 -11 -11 -11 -12 -13 -13 -13 -13 -13 -13 -13 -13 -13 -12 -12 -12 -12 -12 -12 -12 -13 -13 -13 -13 -13 -13 -13 -13 -13 -13
-11 -12 -14 -12 -13 -13 -13 -12 -11 -11 -10 -11 -11 -11 -10 -10 -10 -11 -11 -11 -12 -12 -12 -13 -13 -13 -13 -13 -13 -13 -13 -12 -12 -12 -12 -12 -12 -12 -13 -13 -13 -13 -13 -13 -13 -13 -13 -13 -13
-11 -13 -14 -13 -13 -13 -13 -12 -11 -10 -10 -10 -12 -11 -10 -11 -11 -11 -12 -12 -13 -12 -13 -13 -13 -13 -12 -12 -12 -12 -12 -12 -12 -12 -12 -13 -13 -13 -13 -13 -13 -13 -13 -13 -13 -13 -13 -14 -14
-11 -13 -14 -14 -13 -13 -13 -12 -12 -11 -11 -11 -11 -11 -11 -11 -11 -12 -12 -12 -13 -13 -13 -13 -13 -12 -12 -12 -12 -12 -12 -12 -13 -13 -13 -13 -13 -13 -13 -13 -13 -13 -13 -14 -14 -14 -14 -14 -14
-13 -13 -15 -14 -13 -13 -13 -13 -13 -11 -12 -12 -11 -11 -12 -11 -11 -12 -12 -13 -13 -13 -13 -13 -12 -12 -12 -12 -12 -12 -12 -13 -13 -13 -13 -13 -13 -13 -13 -13 -13 -14 -14 -14 -14 -14 -14 -14 -14
-14 -14 -14 -14 -13 -12 -13 -12 -12 -12 -12 -11 -12 -12 -11 -11 -12 -12 -13 -13 -13 -13 -13 -12 -12 -12 -12 -12 -12 -13 -13 -13 -13 -13 -13 -13 -13 -13 -13 -14 -14 -14 -14 -14 -14 -14 -14 -14 -14
-15 -14 -14 -14 -13 -12 -12 -12 -13 -11 -12 -12 -13 -13 -12 -12 -13 -13 -13 -13 -13 -13 -13 -12 -12 -12 -12 -13 -13 -13 -13 -13 -13 -13 -13 -13 -13 -14 -14 -14 -14 -14 -14 -14 -14 -14 -14 -14 -14
-14 -14 -14 -14 -13 -13 -12 -12 -13 -12 -12 -12 -13 -13 -13 -13 -13 -13 -13 -13 -13 -13 -12 -13 -13 -13 -13 -13 -13 -13 -13 -13 -13 -14 -14 -14 -14 -14 -14 -14 -14 -14 -14 -14 -15 -15 -14 -14 -14
-15 -15 -15 -14 -14 -14 -12 -13 -14 -13 -12 -13 -13 -14 -13 -13 -13 -13 -13 -13 -13 -13 -12 -13 -13 -13 -13 -13 -13 -13 -13 -14 -14 -14 -14 -14 -14 -14 -14 -14 -14 -14 -14 -14 -14 -14 -14 -14 -14
-14 -14 -14 -13 -13 -13 -14 -15 -15 -14 -14 -13 -13 -13 -13 -13 -13 -13 -13 -13 -13 -13 -13 -13 -13 -13 -13 -13 -13 -14 -14 -14 -14 -14 -14 -15 -15 -14 -14 -14 -14 -14 -14 -14 -15 -15 -14 -14 -14
-16 -14 -14 -14 -14 -14 -15 -15 -14 -14 -13 -13 -14 -13 -13 -13 -13 -13 -12 -13 -13 -13 -14 -13 -14 -13 -13 -13 -14 -14 -14 -13 -14 -14 -14 -15 -15 -15 -15 -15 -15 -14 -15 -14 -14 -14 -15 -15 -15
-15 -16 -16 -14 -15 -15 -15 -14 -14 -14 -14 -14 -14 -14 -13 -13 -13 -13 -13 -13 -12 -13 -13 -13 -13 -13 -13 -13 -13 -14 -14 -14 -15 -15 -15 -15 -15 -15 -15 -15 -14 -14 -15 -14 -15 -14 -15 -15 -15
-16 -16 -16 -16 -15 -14 -14 -14 -14 -14 -14 -13 -14 -13 -13 -13 -13 -13 -13 -13 -13 -13 -13 -13 -14 -14 -14 -14 -14 -15 -14 -14 -15 -15 -15 -15 -15 -15 -15 -15 -14 -14 -14 -14 -14 -14 -14 -14 -14
-16 -14 -15 -15 -15 -14 -14 -14 -14 -14 -13 -13 -13 -13 -14 -13 -13 -13 -13 -13 -13 -13 -14 -14 -14 -14 -14 -14 -14 -15 -15 -15 -15 -16 -16 -15 -16 -16 -15 -15 -15 -15 -15 -15 -15 -15 -14 -14 -14
-14 -15 -14 -15 -15 -14 -14 -14 -14 -14 -13 -13 -13 -13 -13 -13 -13 -13 -13 -13 -13 -13 -13 -14 -14 -14 -15 -15 -15 -15 -15 -15 -15 -16 -16 -17 -16 -16 -16 -17 -16 -16 -16 -16 -15 -15 -14 -14 -14
-14 -14 -14 -14 -14 -14 -14 -14 -14 -14 -13 -13 -13 -13 -13 -13 -12 -13 -13 -14 -14 -14 -14 -14 -15 -15 -15 -15 -15 -15 -16 -16 -16 -16 -16 -16 -17 -16 -16 -16 -16 -16 -16 -16 -16 -15 -15 -15 -15
-15 -14 -14 -14 -15 -15 -14 -14 -14 -13 -13 -13 -13 -13 -13 -13 -13 -13 -13 -14 -14 -14 -14 -14 -15 -15 -15 -16 -16 -16 -17 -17 -17 -17 -17 -17 -17 -17 -16 -16 -16 -16 -15 -16 -16 -15 -15 -15 -15
-15 -14 -14 -15 -15 -15 -15 -14 -13 -13 -13 -14 -14 -14 -14 -14 -14 -14 -14 -14 -14 -14 -15 -16 -15 -15 -16 -16 -16 -17 -17 -16 -17 -17 -17 -18 -17 -17 -17 -17 -16 -16 -17 -17 -17 -16 -16 -16 -16
-16 -16 -15 -15 -15 -15 -16 -15 -14 -13 -13 -14 -14 -14 -14 -14 -15 -15 -15 -15 -16 -16 -16 -16 -16 -17 -16 -16 -16 -16 -16 -16 -17 -17 -18 -17 -17 -17 -17 -17 -18 -17 -17 -17 -16 -16 -16 -16 -16
-15 -15 -15 -15 -15 -15 -15 -15 -14 -14 -14 -14 -14 -15 -15 -15 -15 -15 -16 -16 -17 -16 -16 -16 -16 -16 -15 -16 -16 -16 -17 -17 -17 -18 -18 -18 -17 -17 -18 -17 -17 -17 -18 -18 -17 -17 -17 -18 -18
-15 -15 -15 -15 -15 -15 -15 -15 -14 -14 -14 -14 -14 -15 -15 -15 -15 -17 -16 -17 -16 -16 -16 -16 -16 -16 -16 -17 -17 -17 -17 -17 -17 -18 -18 -17 -18 -18 -18 -18 -18 -18 -18 -18 -18 -18 -18 -19 -19
-15 -15 -15 -15 -15 -15 -15 -15 -14 -14 -14 -14 -15 -15 -15 -15 -16 -16 -16 -17 -16 -16 -16 -16 -16 -17 -17 -17 -17 -17 -17 -18 -18 -18 -18 -18 -18 -18 -18 -19 -19 -18 -18 -19 -19 -19 -20 -20 -20
-14 -15 -15 -14 -14 -14 -15 -15 -15 -15 -14 -15 -15 -15 -16 -16 -16 -16 -17 -17 -17 -17 -17 -17 -17 -17 -17 -17 -17 -18 -18 -18 -18 -18 -18 -18 -19 -18 -18 -18 -19 -19 -19 -20 -21 -21 -21 -21 -22
-14 -14 -14 -14 -14 -14 -15 -15 -15 -15 -15 -15 -15 -16 -16 -16 -16 -16 -17 -17 -17 -17 -17 -18 -17 -17 -17 -18 -17 -17 -17 -17 -18 -18 -18 -18 -18 -19 -19 -19 -20 -20 -21 -22 -22 -23 -23 -23 -23
-14 -14 -14 -14 -14 -15 -15 -16 -16 -16 -16 -16 -16 -16 -15 -15 -16 -17 -16 -17 -17 -17 -17 -18 -18 -18 -18 -17 -17 -17 -17 -17 -18 -18 -18 -18 -18 -19 -20 -21 -21 -22 -23 -23 -23 -24 -24 -25 -25
-14 -14 -14 -14 -15 -15 -15 -15 -15 -16 -16 -16 -15 -15 -16 -16 -16 -16 -17 -17 -17 -17 -17 -17 -17 -17 -17 -17 -17 -17 -17 -17 -17 -18 -19 -19 -20 -20 -21 -22 -22 -23 -23 -24 -24 -25 -25 -26 -27
-14 -14 -14 -15 -15 -15 -15 -15 -15 -15 -15 -15 -17 -16 -16 -16 -16 -17 -17 -17 -17 -17 -17 -17 -17 -17 -17 -17 -17 -17 -18 -18 -19 -19 -19 -20 -21 -22 -23 -23 -23 -23 -24 -25 -26 -28 -29 -29 -30
-14 -14 -14 -15 -15 -15 -15 -15 -15 -15 -16 -16 -16 -16 -17 -17 -17 -18 -17 -17 -17 -17 -17 -17 -17 -17 -17 -17 -18 -18 -19 -19 -19 -20 -20 -21 -22 -23 -23 -24 -24 -26 -28 -30 -30 -30 -31 -31 -31
-14 -14 -14 -14 -14 -15 -15 -15 -15 -15 -15 -16 -16 -17 -17 -17 -18 -17 -17 -17 -17 -18 -18 -18 -18 -18 -18 -19 -18 -19 -19 -20 -20 -20 -21 -22 -23 -24 -25 -26 -27 -30 -31 -31 -31 -32 -32 -32 -32
-14 -14 -14 -14 -14 -15 -15 -15 -15 -15 -15 -16 -17 -17 -17 -18 -18 -18 -18 -18 -18 -18 -18 -18 -18 -18 -18 -18 -19 -19 -19 -20 -21 -21 -22 -23 -24 -25 -27 -29 -30 -31 -31 -31 -32 -32 -33 -33 -32

GFSSGP_500_temp_009.txt.gz
Temp
-11 -10 -10 -11 -12 -14 -13 -12 -11 -11 -10 -10 -10 -10 -11 -11 -11 -10 -11 -11 -11 -11 -12 -13 -13 -12 -13 -13 -13 -13 -13 -13 -12 -12 -12 -12 -13 -13 -13 -13 -13 -13 -13 -13 -13 -13 -13 -13 -13
-12 -11 -11 -13 -13 -14 -13 -12 -12 -12 -11 -10 -10 -11 -11 -10 -11 -11 -11 -11 -11 -12 -13 -13 -13 -12 -13 -13 -13 -13 -13 -12 -12 -12 -12 -13 -13 -13 -13 -13 -13 -13 -13 -13 -13 -13 -13 -13 -13
-12 -13 -11 -12 -14 -14 -13 -12 -12 -12 -12 -11 -10 -11 -10 -11 -11 -12 -11 -11 -12 -12 -13 -13 -12 -13 -13 -13 -12 -12 -12 -12 -12 -12 -13 -13 -13 -13 -13 -13 -13 -13 -13 -13 -13 -13 -13 -13 -13
-13 -13 -12 -13 -15 -14 -14 -13 -13 -12 -11 -11 -11 -11 -12 -11 -12 -12 -12 -12 -12 -13 -13 -12 -13 -13 -12 -12 -12 -12 -12 -12 -12 -13 -13 -13 -13 -13 -13 -13 -14 -14 -14 -14 -14 -14 -14 -14 -14
-13 -13 -13 -13 -14 -14 -14 -12 -12 -12 -11 -11 -11 -12 -12 -12 -12 -12 -12 -12 -13 -13 -12 -13 -13 -12 -12 -12 -12 -12 -13 -13 -13 -13 -13 -13 -13 -13 -14 -14 -14 -14 -14 -14 -14 -14 -14 -14 -14
-13 -14 -13 -15 -13 -14 -14 -13 -12 -13 -12 -12 -13 -14 -13 -13 -12 -12 -12 -12 -13 -13 -13 -13 -13 -12 -12 -13 -13 -13 -13 -13 -13 -13 -13 -13 -14 -14 -14 -14 -14 -14 -14 -14 -14 -14 -14 -14 -14
-14 -14 -15 -15 -13 -14 -13 -13 -13 -12 -13 -14 -14 -14 -13 -13 -13 -12 -13 -13 -13 -13 -13 -13 -13 -13 -13 -13 -13 -13 -13 -13 -13 -13 -13 -14 -14 -14 -14 -14 -14 -15 -15 -15 -14 -14 -14 -14 -14
-14 -15 -15 -13 -14 -13 -13 -12 -12 -13 -13 -14 -13 -13 -13 -13 -13 -13 -13 -13 -13 -13 -13 -13 -13 -13 -13 -13 -13 -13 -13 -13 -13 -13 -14 -14 -14 -14 -14 -14 -14 -14 -14 -14 -15 -14 -14 -14 -14
-15 -15 -15 -14 -14 -12 -12 -12 -13 -14 -15 -14 -13 -14 -13 -13 -13 -13 -13 -13 -13 -13 -13 -13 -13 -13 -13 -13 -13 -13 -13 -13 -13 -13 -14 -14 -15 -14 -15 -15 -15 -15 -14 -14 -14 -14 -14 -14 -14
-15 -15 -15 -14 -14 -14 -13 -13 -13 -14 -15 -14 -13 -14 -13 -13 -13 -13 -13 -13 -13 -13 -13 -13 -13 -13 -13 -13 -13 -13 -13 -14 -14 -14 -15 -15 -15 -15 -14 -15 -15 -15 -15 -15 -15 -15 -15 -15 -15
-15 -15 -15 -14 -14 -14 -14 -14 -15 -14 -14 -14 -13 -13 -13 -13 -13 -13 -13 -13 -13 -13 -13 -13 -13 -13 -13 -13 -14 -14 -14 -14 -14 -15 -15 -15 -15 -14 -15 -15 -15 -15 -15 -15 -15 -15 -15 -15 -15
-15 -15 -15 -15 -15 -13 -14 -15 -15 -14 -14 -14 -14 -14 -14 -13 -13 -13 -13 -13 -13 -13 -13 -13 -14 -14 -13 -14 -14 -14 -14 -15 -15 -15 -15 -15 -15 -15 -15 -15 -15 -15 -15 -15 -15 -15 -15 -15 -15
-16 -16 -16 -16 -16 -15 -15 -15 -14 -14 -14 -14 -14 -14 -13 -13 -13 -13 -13 -13 -13 -13 -14 -14 -14 -14 -14 -14 -14 -15 -15 -15 -16 -16 -16 -15 -15 -15 -14 -15 -15 -15 -15 -15 -15 -15 -15 -15 -15
-15 -15 -15 -14 -15 -15 -15 -14 -14 -14 -14 -14 -14 -14 -13 -13 -13 -13 -13 -13 -14 -14 -14 -14 -15 -15 -14 -15 -15 -15 -15 -15 -15 -15 -15 -15 -14 -14 -15 -15 -15 -15 -16 -15 -15 -15 -15 -15 -15
-15 -15 -15 -15 -15 -15 -14 -14 -14 -14 -14 -14 -14 -14 -14 -13 -13 -13 -13 -14 -14 -14 -14 -14 -14 -14 -14 -15 -15 -15 -15 -15 -15 -15 -16 -14 -15 -15 -16 -16 -16 -16 -16 -16 -16 -16 -16 -16 -16
-15 -15 -15 -15 -15 -14 -14 -14 -14 -15 -14 -13 -13 -13 -13 -13 -14 -14 -14 -14 -14 -14 -14 -14 -14 -14 -14 -15 -15 -15 -16 -15 -15 -15 -16 -17 -17 -16 -16 -16 -16 -16 -16 -16 -16 -16 -16 -16 -16
-15 -15 -15 -15 -15 -15 -15 -15 -15 -15 -14 -13 -13 -13 -14 -14 -14 -13 -13 -14 -14 -14 -13 -14 -14 -14 -15 -15 -15 -16 -16 -15 -16 -16 -17 -17 -16 -17 -16 -16 -17 -17 -16 -16 -16 -16 -16 -16 -16
-16 -15 -15 -15 -15 -15 -14 -14 -14 -14 -14 -14 -14 -14 -14 -14 -14 -14 -14 -14 -14 -14 -14 -15 -15 -15 -15 -16 -16 -16 -16 -17 -17 -17 -17 -17 -17 -17 -17 -17 -17 -16 -16 -16 -16 -16 -16 -17 -17
-15 -15 -15 -16 -16 -15 -14 -14 -14 -14 -14 -14 -14 -14 -15 -15 -15 -15 -15 -15 -15 -15 -15 -15 -15 -15 -16 -16 -16 -16 -17 -17 -17 -17 -17 -17 -17 -17 -17 -17 -17 -17 -17 -17 -17 -17 -17 -18 -18
-15 -15 -15 -15 -15 -15 -14 -14 -14 -14 -14 -14 -14 -15 -15 -15 -15 -16 -16 -17 -17 -16 -15 -16 -16 -15 -16 -16 -17 -17 -17 -17 -17 -17 -18 -17 -17 -17 -17 -18 -17 -18 -18 -18 -18 -18 -19 -19 -19
-16 -16 -16 -15 -15 -15 -15 -14 -14 -14 -14 -14 -15 -15 -15 -16 -15 -16 -16 -16 -16 -17 -17 -17 -17 -17 -17 -17 -17 -17 -17 -18 -18 -18 -17 -17 -17 -18 -18 -18 -18 -18 -19 -19 -19 -19 -19 -20 -20
-16 -16 -16 -15 -15 -15 -15 -15 -15 -15 -15 -15 -15 -16 -16 -15 -16 -15 -16 -16 -16 -17 -17 -17 -17 -17 -17 -17 -17 -18 -18 -18 -18 -18 -18 -18 -18 -18 -19 -19 -19 -19 -19 -19 -19 -20 -20 -20 -21
-15 -15 -15 -15 -15 -15 -15 -15 -15 -15 -15 -15 -16 -16 -16 -15 -16 -16 -16 -17 -17 -17 -17 -17 -17 -17 -17 -18 -18 -18 -18 -18 -18 -18 -18 -19 -19 -19 -19 -19 -19 -19 -19 -20 -20 -21 -22 -22 -23
-15 -15 -15 -15 -15 -15 -15 -15 -15 -15 -16 -16 -16 -16 -16 -16 -16 -16 -16 -16 -17 -17 -17 -17 -18 -18 -18 -18 -18 -18 -18 -18 -18 -18 -18 -18 -18 -19 -19 -19 -19 -20 -20 -21 -22 -22 -23 -23 -24
-15 -15 -15 -15 -15 -15 -15 -15 -14 -15 -15 -16 -16 -16 -16 -16 -16 -17 -16 -17 -18 -17 -18 -18 -18 -18 -18 -18 -19 -18 -18 -18 -17 -18 -18 -18 -18 -18 -19 -20 -20 -21 -22 -22 -23 -23 -23 -24 -25
-15 -15 -15 -15 -15 -14 -15 -15 -15 -15 -15 -15 -15 -16 -16 -16 -16 -17 -17 -17 -18 -18 -18 -17 -17 -17 -17 -17 -17 -17 -17 -17 -17 -18 -18 -18 -19 -19 -20 -21 -22 -22 -23 -22 -23 -24 -24 -26 -29
-14 -14 -14 -15 -15 -14 -14 -14 -15 -15 -15 -15 -16 -16 -17 -17 -17 -17 -17 -17 -17 -17 -18 -18 -18 -18 -18 -17 -17 -17 -17 -18 -18 -18 -19 -20 -20 -20 -21 -21 -22 -23 -24 -24 -25 -27 -29 -30 -30
-14 -14 -14 -15 -14 -14 -14 -14 -14 -14 -14 -15 -15 -15 -16 -17 -17 -17 -17 -17 -17 -17 -18 -18 -18 -18 -18 -18 -18 -18 -18 -18 -18 -19 -19 -20 -20 -20 -21 -22 -23 -24 -25 -27 -30 -30 -31 -31 -32
-14 -14 -14 -14 -14 -14 -14 -14 -14 -14 -14 -14 -15 -15 -15 -16 -16 -16 -17 -17 -18 -18 -18 -18 -18 -18 -18 -18 -18 -18 -18 -18 -19 -19 -19 -20 -21 -22 -23 -23 -24 -26 -28 -30 -31 -32 -32 -32 -32
-15 -14 -14 -14 -14 -14 -14 -14 -14 -15 -15 -15 -15 -15 -16 -16 -16 -16 -17 -18 -19 -19 -19 -19 -19 -19 -19 -19 -18 -18 -19 -19 -19 -20 -20 -21 -22 -23 -24 -24 -27 -29 -30 -31 -32 -33 -32 -33 -32

GFSSGP_500_temp_012.txt.gz
Temp
-13 -12 -11 -10 -10 -10 -10 -11 -12 -12 -11 -12 -12 -12 -10 -11 -11 -10 -10 -11 -12 -12 -12 -12 -12 -12 -12 -12 -13 -13 -13 -13 -13 -12 -13 -13 -13 -13 -13 -13 -13 -13 -13 -13 -13 -13 -13 -13 -13
-13 -12 -11 -11 -10 -10 -10 -12 -13 -12 -12 -11 -11 -11 -10 -10 -10 -10 -10 -11 -12 -12 -12 -12 -12 -12 -12 -12 -13 -13 -13 -13 -12 -12 -13 -13 -13 -13 -13 -13 -13 -13 -13 -13 -13 -13 -14 -14 -14
-13 -13 -11 -12 -12 -11 -11 -13 -12 -12 -12 -12 -12 -10 -10 -10 -11 -10 -12 -12 -12 -12 -12 -12 -12 -13 -13 -13 -13 -13 -12 -12 -12 -12 -13 -13 -13 -13 -13 -13 -13 -13 -13 -14 -14 -14 -14 -14 -14
-13 -12 -13 -13 -14 -13 -11 -12 -11 -11 -11 -12 -12 -11 -11 -10 -11 -12 -12 -12 -12 -12 -13 -13 -13 -13 -13 -13 -13 -12 -12 -12 -12 -13 -13 -13 -13 -13 -13 -13 -13 -13 -13 -14 -14 -14 -14 -14 -14
-13 -13 -13 -14 -14 -12 -12 -13 -12 -12 -12 -11 -11 -11 -11 -11 -11 -12 -13 -13 -13 -13 -13 -13 -13 -13 -13 -13 -12 -12 -12 -12 -13 -13 -13 -13 -13 -13 -13 -14 -14 -14 -14 -14 -14 -14 -14 -14 -14
-14 -14 -14 -14 -14 -14 -14 -14 -13 -13 -13 -12 -12 -11 -11 -13 -12 -13 -13 -13 -12 -13 -13 -13 -13 -13 -13 -13 -12 -12 -12 -13 -13 -13 -13 -13 -13 -13 -14 -14 -14 -14 -14 -14 -15 -14 -14 -14 -14
-14 -14 -15 -15 -15 -14 -14 -14 -14 -13 -13 -13 -13 -12 -13 -14 -13 -14 -13 -13 -13 -13 -14 -14 -14 -13 -13 -12 -12 -12 -13 -13 -13 -13 -13 -14 -14 -14 -14 -14 -14 -14 -15 -15 -14 -14 -14 -14 -14
-14 -14 -15 -14 -14 -13 -14 -14 -13 -13 -13 -13 -14 -14 -14 -13 -13 -13 -13 -13 -13 -14 -14 -14 -13 -13 -12 -13 -13 -13 -13 -13 -13 -13 -14 -14 -14 -14 -14 -15 -15 -15 -14 -14 -14 -14 -14 -14 -14
-15 -15 -15 -16 -15 -14 -13 -14 -13 -13 -13 -15 -14 -14 -14 -13 -13 -13 -13 -14 -14 -14 -13 -13 -13 -13 -13 -13 -13 -13 -13 -14 -14 -14 -14 -15 -14 -14 -14 -15 -15 -14 -15 -15 -15 -15 -15 -14 -14
-15 -15 -15 -15 -15 -14 -14 -13 -14 -15 -16 -14 -14 -14 -14 -14 -13 -14 -14 -14 -13 -13 -13 -13 -13 -14 -13 -13 -13 -14 -14 -14 -15 -15 -15 -15 -15 -15 -15 -15 -15 -15 -16 -16 -16 -15 -15 -15 -15
-15 -15 -15 -15 -15 -14 -14 -14 -16 -15 -15 -14 -14 -14 -14 -14 -13 -14 -14 -13 -13 -13 -14 -14 -14 -13 -13 -13 -14 -14 -14 -15 -15 -15 -15 -15 -15 -15 -15 -15 -16 -16 -16 -15 -15 -15 -15 -15 -16
-16 -15 -15 -15 -15 -14 -14 -16 -16 -15 -14 -14 -14 -14 -14 -14 -14 -13 -13 -13 -13 -13 -13 -13 -13 -13 -13 -14 -14 -14 -15 -15 -15 -16 -16 -16 -16 -15 -16 -15 -15 -15 -15 -15 -15 -15 -16 -16 -16
-16 -15 -15 -15 -15 -16 -15 -15 -15 -15 -15 -15 -14 -14 -14 -14 -13 -13 -13 -13 -13 -14 -13 -13 -13 -14 -14 -14 -14 -15 -15 -15 -15 -16 -16 -16 -16 -16 -15 -15 -15 -15 -15 -15 -16 -16 -16 -16 -16
-16 -16 -15 -16 -16 -15 -15 -15 -15 -15 -15 -15 -14 -14 -14 -14 -14 -13 -14 -14 -13 -13 -13 -14 -14 -14 -14 -14 -14 -15 -15 -15 -16 -16 -16 -16 -16 -16 -16 -15 -15 -16 -16 -16 -16 -16 -16 -16 -16
-16 -15 -15 -15 -15 -15 -16 -15 -15 -15 -15 -15 -15 -15 -14 -14 -14 -14 -14 -14 -14 -14 -14 -14 -15 -14 -15 -14 -15 -16 -15 -15 -16 -16 -16 -16 -16 -16 -15 -15 -16 -16 -16 -16 -16 -16 -16 -16 -16
-16 -16 -15 -15 -15 -15 -15 -15 -15 -15 -15 -15 -15 -14 -14 -14 -14 -14 -14 -15 -14 -15 -15 -15 -14 -14 -14 -14 -15 -15 -16 -16 -16 -16 -16 -16 -16 -16 -16 -16 -16 -17 -16 -16 -16 -16 -16 -16 -16
-16 -16 -15 -15 -15 -15 -15 -15 -15 -15 -15 -15 -14 -14 -14 -14 -14 -14 -14 -14 -14 -14 -14 -14 -14 -14 -14 -15 -15 -16 -17 -16 -17 -17 -17 -17 -17 -16 -17 -17 -16 -16 -17 -16 -17 -17 -17 -17 -17
-15 -16 -15 -15 -15 -14 -14 -15 -15 -15 -15 -15 -14 -14 -14 -14 -14 -14 -14 -14 -14 -14 -14 -14 -15 -14 -15 -15 -17 -17 -17 -16 -17 -17 -17 -17 -17 -17 -17 -17 -17 -17 -17 -17 -17 -18 -18 -17 -17
-16 -16 -16 -16 -15 -15 -15 -15 -15 -15 -15 -14 -14 -14 -14 -15 -15 -15 -14 -14 -14 -15 -15 -15 -15 -16 -16 -16 -16 -16 -16 -17 -17 -17 -17 -17 -17 -17 -17 -17 -17 -17 -17 -17 -18 -18 -18 -18 -18
-15 -15 -15 -15 -15 -15 -15 -15 -14 -14 -14 -14 -14 -15 -15 -16 -15 -15 -15 -15 -15 -15 -15 -15 -16 -16 -16 -16 -16 -16 -17 -17 -17 -18 -18 -17 -17 -17 -17 -17 -17 -17 -18 -18 -18 -18 -19 -19 -19
-16 -15 -15 -16 -16 -15 -15 -15 -14 -14 -14 -14 -14 -15 -15 -15 -15 -16 -16 -16 -16 -16 -16 -16 -16 -16 -17 -17 -17 -18 -18 -18 -18 -18 -17 -17 -17 -17 -18 -18 -19 -19 -19 -19 -19 -19 -19 -19 -19
-15 -16 -15 -16 -16 -16 -16 -15 -15 -15 -14 -15 -15 -15 -15 -15 -16 -16 -16 -16 -16 -17 -16 -17 -17 -17 -17 -17 -18 -18 -18 -18 -18 -18 -18 -18 -18 -19 -20 -20 -19 -19 -19 -19 -19 -19 -19 -19 -20
-15 -15 -15 -16 -16 -16 -16 -15 -15 -14 -15 -15 -15 -15 -16 -16 -16 -16 -16 -16 -16 -17 -17 -17 -16 -17 -17 -18 -18 -18 -18 -18 -19 -19 -20 -20 -19 -18 -18 -18 -18 -18 -18 -19 -19 -19 -20 -20 -21
-15 -15 -15 -15 -15 -15 -15 -15 -14 -15 -15 -15 -16 -16 -16 -16 -16 -16 -17 -16 -16 -16 -16 -17 -18 -18 -18 -18 -18 -19 -19 -19 -19 -19 -18 -18 -18 -18 -18 -18 -18 -18 -19 -19 -20 -21 -22 -22 -23
-15 -15 -15 -15 -15 -15 -15 -15 -14 -15 -15 -16 -16 -16 -16 -16 -16 -16 -17 -16 -16 -17 -17 -18 -18 -18 -18 -18 -18 -18 -18 -18 -18 -18 -17 -18 -18 -18 -18 -18 -19 -19 -20 -20 -22 -23 -23 -23 -24
-15 -15 -15 -15 -15 -15 -15 -14 -14 -15 -15 -15 -16 -16 -16 -16 -16 -16 -17 -17 -16 -17 -17 -17 -18 -18 -18 -17 -18 -18 -18 -18 -18 -18 -18 -18 -18 -18 -19 -19 -20 -20 -21 -22 -23 -24 -24 -27 -27
-15 -15 -15 -15 -15 -15 -14 -14 -14 -15 -15 -15 -15 -15 -15 -15 -16 -16 -16 -17 -17 -17 -17 -17 -18 -18 -18 -18 -18 -18 -18 -18 -18 -18 -18 -18 -19 -19 -19 -20 -20 -21 -22 -23 -24 -25 -26 -27 -30
-15 -15 -15 -15 -14 -14 -14 -14 -14 -14 -14 -14 -15 -15 -15 -15 -15 -15 -16 -16 -16 -17 -17 -18 -18 -18 -18 -18 -19 -19 -18 -18 -18 -18 -19 -19 -19 -20 -20 -20 -21 -22 -24 -24 -25 -27 -29 -31 -32
-15 -15 -15 -15 -14 -14 -14 -14 -14 -14 -14 -14 -15 -15 -15 -15 -15 -16 -16 -16 -16 -17 -17 -18 -18 -19 -19 -19 -19 -19 -19 -19 -19 -19 -19 -20 -20 -20 -21 -22 -23 -24 -25 -26 -28 -30 -31 -32 -32
-15 -15 -15 -15 -15 -14 -14 -14 -14 -14 -14 -15 -15 -15 -15 -15 -15 -16 -16 -16 -17 -17 -18 -18 -18 -19 -19 -19 -19 -19 -19 -19 -19 -19 -20 -20 -20 -21 -22 -23 -24 -26 -26 -28 -30 -31 -32 -33 -33

GFSSGP_500_temp_015.txt.gz
Temp
-12 -12 -11 -11 -11 -10 -10 -10 -9 -10 -11 -11 -11 -11 -11 -11 -10 -10 -11 -11 -11 -11 -12 -12 -12 -12 -12 -12 -12 -13 -13 -13 -12 -12 -12 -12 -12 -12 -13 -13 -13 -13 -13 -13 -13 -13 -13 -13 -13
-13 -12 -13 -12 -12 -11 -11 -10 -10 -9 -9 -10 -12 -12 -12 -11 -11 -11 -11 -11 -11 -12 -13 -13 -12 -12 -12 -13 -13 -13 -13 -12 -12 -12 -12 -12 -12 -13 -13 -13 -13 -13 -13 -13 -13 -13 -14 -14 -14
-13 -13 -13 -12 -12 -12 -11 -11 -10 -10 -11 -11 -10 -10 -12 -11 -11 -11 -10 -10 -11 -12 -13 -13 -13 -12 -13 -13 -13 -13 -13 -12 -12 -12 -12 -13 -13 -13 -13 -13 -13 -13 -13 -13 -13 -14 -14 -14 -14
-14 -13 -13 -13 -13 -13 -12 -11 -12 -12 -12 -11 -11 -10 -10 -10 -10 -10 -10 -12 -12 -13 -13 -13 -13 -13 -13 -13 -13 -13 -12 -12 -12 -12 -13 -13 -13 -13 -13 -13 -13 -13 -13 -14 -14 -14 -14 -14 -14
-14 -14 -13 -13 -13 -13 -13 -13 -13 -12 -12 -12 -12 -12 -12 -11 -11 -11 -12 -14 -14 -14 -14 -14 -14 -14 -14 -13 -13 -13 -13 -12 -12 -13 -13 -13 -13 -13 -13 -13 -13 -14 -14 -14 -14 -14 -14 -14 -14
-14 -14 -14 -14 -13 -14 -15 -15 -13 -13 -13 -12 -12 -12 -11 -11 -11 -13 -14 -14 -14 -14 -14 -14 -14 -14 -14 -13 -13 -13 -13 -13 -13 -13 -13 -13 -13 -13 -13 -13 -14 -14 -14 -14 -14 -14 -14 -14 -14
-14 -14 -14 -14 -14 -15 -15 -14 -14 -14 -13 -12 -12 -13 -12 -12 -13 -15 -15 -14 -14 -14 -14 -14 -14 -14 -13 -13 -13 -13 -13 -13 -13 -13 -13 -13 -13 -14 -14 -14 -14 -14 -14 -14 -14 -14 -14 -14 -14
-14 -14 -14 -15 -14 -15 -15 -13 -14 -13 -14 -13 -12 -13 -14 -14 -14 -14 -13 -14 -14 -14 -14 -14 -14 -14 -14 -14 -14 -14 -13 -13 -13 -13 -14 -14 -14 -14 -15 -15 -15 -14 -15 -15 -14 -14 -14 -14 -14
-14 -15 -15 -15 -15 -15 -14 -14 -14 -13 -13 -13 -13 -14 -14 -14 -14 -13 -13 -14 -14 -14 -14 -14 -14 -14 -14 -14 -13 -13 -13 -13 -14 -14 -14 -14 -14 -14 -15 -15 -15 -15 -15 -15 -15 -15 -15 -15 -15
-15 -15 -15 -16 -15 -15 -14 -13 -14 -13 -15 -15 -14 -14 -14 -14 -14 -14 -14 -14 -14 -14 -14 -14 -14 -14 -14 -14 -13 -14 -13 -14 -13 -14 -14 -15 -15 -16 -16 -15 -15 -15 -15 -16 -16 -15 -15 -15 -15
-15 -15 -15 -16 -15 -15 -14 -14 -15 -15 -15 -15 -14 -14 -15 -15 -14 -14 -14 -14 -14 -14 -14 -14 -14 -13 -14 -14 -14 -14 -14 -14 -14 -15 -15 -15 -15 -15 -15 -15 -15 -15 -15 -15 -16 -16 -16 -16 -16
-16 -16 -16 -16 -16 -15 -15 -16 -16 -15 -15 -15 -15 -15 -15 -15 -14 -14 -14 -14 -14 -14 -14 -14 -13 -13 -14 -14 -14 -14 -14 -14 -14 -15 -15 -15 -15 -15 -15 -15 -15 -15 -15 -15 -15 -16 -16 -16 -16
-16 -16 -16 -15 -15 -16 -16 -16 -16 -15 -15 -15 -15 -15 -15 -15 -14 -14 -14 -14 -14 -14 -13 -14 -14 -15 -14 -14 -14 -14 -15 -15 -15 -15 -15 -15 -15 -15 -16 -16 -16 -16 -15 -15 -16 -16 -16 -16 -16
-16 -16 -16 -16 -17 -16 -16 -16 -16 -16 -15 -15 -15 -15 -15 -15 -15 -15 -14 -14 -14 -14 -14 -14 -14 -15 -15 -15 -15 -15 -16 -16 -15 -15 -15 -15 -16 -16 -17 -16 -16 -16 -16 -16 -16 -16 -16 -16 -16
-16 -16 -15 -16 -16 -16 -16 -16 -16 -15 -15 -15 -15 -15 -15 -15 -15 -14 -14 -14 -14 -14 -14 -15 -15 -15 -15 -15 -15 -15 -15 -15 -15 -15 -16 -16 -16 -17 -16 -17 -16 -16 -16 -16 -16 -16 -16 -16 -16
-16 -16 -15 -15 -16 -16 -16 -16 -16 -15 -15 -16 -15 -15 -15 -15 -15 -15 -14 -14 -14 -14 -14 -15 -15 -15 -14 -15 -15 -15 -15 -15 -16 -16 -16 -16 -16 -17 -17 -17 -17 -17 -16 -17 -17 -17 -16 -16 -16
-16 -15 -16 -16 -16 -16 -16 -15 -15 -15 -15 -16 -15 -15 -15 -15 -15 -15 -15 -14 -14 -15 -15 -15 -15 -15 -15 -15 -15 -16 -17 -16 -17 -16 -16 -17 -17 -17 -17 -17 -17 -17 -17 -17 -17 -17 -17 -17 -17
-16 -16 -15 -16 -15 -15 -15 -15 -16 -16 -16 -16 -15 -15 -15 -15 -15 -15 -15 -15 -15 -15 -15 -15 -15 -15 -15 -15 -16 -16 -16 -16 -16 -17 -17 -17 -18 -18 -18 -17 -17 -17 -17 -17 -17 -17 -17 -17 -17
-16 -16 -16 -15 -15 -15 -15 -15 -16 -16 -16 -16 -15 -15 -15 -15 -15 -15 -15 -15 -15 -15 -15 -15 -15 -16 -15 -15 -16 -16 -16 -16 -17 -17 -17 -18 -18 -18 -18 -18 -18 -18 -17 -17 -17 -17 -18 -18 -18
-16 -16 -16 -16 -16 -15 -16 -16 -15 -15 -15 -15 -15 -15 -15 -15 -15 -15 -15 -16 -15 -15 -15 -15 -15 -15 -15 -16 -16 -16 -16 -17 -17 -18 -18 -18 -18 -18 -18 -18 -18 -18 -18 -18 -18 -19 -19 -19 -19
-16 -17 -16 -16 -16 -16 -16 -15 -15 -15 -15 -15 -15 -15 -15 -15 -15 -15 -16 -15 -15 -15 -16 -16 -15 -16 -16 -17 -16 -17 -17 -18 -18 -18 -18 -18 -18 -18 -18 -18 -18 -19 -19 -19 -18 -18 -19 -19 -19
-16 -17 -16 -16 -16 -16 -16 -15 -15 -15 -15 -15 -15 -15 -15 -15 -15 -16 -16 -16 -16 -16 -16 -16 -17 -17 -17 -16 -16 -17 -17 -18 -18 -18 -18 -19 -19 -19 -19 -19 -19 -18 -18 -18 -18 -18 -18 -19 -19
-16 -16 -16 -16 -16 -15 -15 -15 -15 -15 -15 -15 -15 -15 -15 -15 -16 -16 -16 -16 -15 -16 -17 -16 -17 -17 -16 -17 -18 -18 -18 -19 -19 -19 -19 -19 -19 -18 -18 -18 -18 -18 -18 -18 -18 -19 -19 -19 -20
-16 -16 -16 -16 -15 -15 -15 -15 -14 -15 -15 -15 -15 -15 -15 -16 -17 -16 -16 -16 -16 -16 -16 -16 -16 -16 -17 -17 -18 -18 -19 -19 -18 -18 -18 -18 -18 -18 -18 -18 -18 -18 -18 -19 -19 -19 -20 -21 -22
-16 -16 -15 -15 -15 -15 -15 -15 -15 -15 -15 -15 -15 -15 -16 -16 -16 -16 -16 -16 -16 -16 -16 -16 -16 -16 -17 -17 -18 -18 -18 -18 -18 -18 -18 -18 -18 -18 -18 -18 -18 -18 -19 -19 -20 -21 -22 -23 -23
-15 -15 -15 -15 -15 -15 -15 -14 -15 -15 -15 -15 -14 -14 -15 -15 -15 -15 -15 -15 -15 -16 -16 -16 -16 -17 -17 -17 -17 -18 -18 -18 -19 -18 -18 -19 -19 -19 -19 -19 -19 -20 -20 -20 -21 -22 -23 -24 -25
-15 -15 -15 -15 -15 -15 -14 -14 -14 -14 -14 -14 -14 -14 -15 -15 -15 -15 -15 -15 -16 -16 -16 -16 -16 -17 -17 -17 -18 -18 -18 -18 -19 -19 -19 -19 -19 -19 -19 -20 -20 -20 -21 -21 -22 -24 -24 -26 -27
-15 -15 -15 -15 -15 -14 -14 -14 -14 -14 -15 -15 -15 -15 -15 -15 -15 -15 -15 -16 -16 -16 -16 -16 -17 -17 -17 -18 -18 -18 -19 -20 -20 -20 -20 -19 -19 -19 -20 -20 -20 -21 -22 -22 -23 -25 -26 -27 -29
-15 -15 -15 -15 -15 -14 -14 -15 -15 -15 -15 -15 -15 -15 -15 -15 -15 -15 -15 -16 -16 -16 -16 -16 -17 -18 -18 -18 -19 -19 -20 -20 -20 -19 -19 -20 -20 -20 -20 -21 -21 -22 -23 -24 -25 -26 -28 -30 -31
-15 -15 -15 -15 -15 -15 -15 -15 -15 -15 -15 -15 -15 -15 -15 -15 -15 -15 -15 -15 -16 -16 -16 -16 -18 -18 -19 -19 -20 -20 -20 -20 -20 -20 -20 -20 -20 -21 -21 -21 -22 -23 -24 -26 -27 -29 -30 -31 -32

GFSSGP_500_temp_018.txt.gz
Temp
-12 -12 -11 -10 -11 -11 -11 -11 -10 -10 -10 -9 -9 -9 -10 -11 -11 -10 -10 -11 -11 -11 -11 -12 -12 -12 -12 -12 -12 -13 -12 -13 -12 -12 -12 -12 -12 -12 -12 -12 -12 -12 -13 -13 -13 -13 -13 -14 -14
-13 -12 -11 -11 -11 -12 -13 -11 -10 -10 -10 -10 -10 -10 -11 -11 -11 -11 -11 -11 -11 -11 -11 -13 -13 -13 -13 -13 -13 -13 -13 -13 -12 -12 -12 -12 -12 -12 -12 -12 -12 -12 -13 -13 -13 -13 -13 -13 -14
-13 -13 -12 -12 -12 -13 -14 -11 -10 -11 -10 -12 -12 -11 -12 -12 -12 -12 -12 -12 -11 -11 -11 -13 -13 -13 -13 -13 -13 -13 -13 -13 -12 -12 -12 -12 -12 -12 -12 -12 -12 -13 -13 -13 -13 -13 -13 -14 -14
-13 -13 -13 -13 -13 -12 -12 -11 -12 -11 -11 -11 -11 -11 -11 -12 -10 -11 -10 -11 -11 -10 -12 -13 -14 -14 -14 -14 -13 -13 -13 -13 -12 -12 -13 -13 -13 -13 -12 -13 -13 -13 -13 -13 -13 -13 -14 -14 -13
-14 -14 -13 -14 -13 -13 -13 -12 -13 -13 -12 -12 -12 -11 -11 -11 -10 -10 -10 -10 -10 -11 -12 -13 -15 -15 -14 -14 -14 -14 -14 -13 -13 -13 -13 -13 -13 -13 -13 -13 -13 -13 -13 -13 -13 -13 -13 -14 -14
-14 -14 -14 -15 -14 -14 -14 -13 -14 -13 -12 -13 -13 -12 -12 -12 -11 -10 -11 -10 -11 -13 -15 -14 -15 -15 -14 -14 -14 -14 -14 -14 -13 -13 -13 -13 -13 -13 -13 -13 -13 -13 -13 -13 -14 -14 -14 -14 -14
-14 -14 -14 -15 -14 -14 -14 -14 -14 -12 -14 -13 -12 -12 -12 -12 -12 -11 -11 -13 -14 -15 -15 -15 -15 -15 -15 -14 -14 -14 -14 -14 -13 -13 -13 -13 -13 -13 -13 -13 -14 -14 -14 -14 -14 -14 -14 -14 -14
-15 -14 -14 -14 -15 -14 -15 -14 -13 -13 -13 -13 -13 -13 -13 -14 -14 -14 -14 -15 -15 -15 -15 -15 -15 -15 -15 -14 -14 -14 -14 -13 -13 -13 -13 -13 -13 -14 -14 -14 -14 -15 -14 -14 -14 -14 -14 -14 -14
-15 -14 -15 -15 -15 -15 -15 -14 -14 -13 -13 -13 -14 -16 -15 -15 -15 -14 -15 -15 -15 -15 -15 -15 -15 -15 -14 -14 -14 -14 -13 -13 -13 -13 -14 -14 -14 -14 -14 -14 -15 -15 -15 -14 -14 -14 -14 -14 -15
-15 -15 -15 -15 -15 -15 -14 -14 -13 -14 -14 -13 -16 -15 -15 -14 -14 -14 -15 -15 -14 -15 -15 -15 -14 -14 -14 -13 -13 -13 -13 -13 -14 -14 -14 -14 -14 -15 -15 -15 -15 -15 -15 -15 -14 -15 -15 -15 -15
-15 -15 -15 -15 -15 -15 -15 -14 -14 -14 -15 -17 -15 -15 -15 -15 -15 -14 -15 -15 -15 -15 -15 -14 -14 -13 -13 -13 -14 -14 -14 -14 -14 -14 -14 -15 -15 -15 -15 -15 -15 -15 -15 -15 -15 -15 -15 -16 -15
-15 -15 -15 -15 -16 -16 -15 -16 -16 -16 -16 -17 -15 -15 -15 -15 -15 -15 -15 -15 -14 -14 -14 -14 -14 -14 -14 -15 -15 -15 -14 -14 -15 -15 -15 -16 -16 -16 -15 -15 -15 -15 -15 -15 -16 -15 -16 -15 -16
-15 -16 -15 -15 -15 -16 -16 -16 -16 -16 -15 -15 -15 -15 -15 -15 -15 -15 -15 -15 -14 -14 -14 -15 -14 -15 -15 -14 -14 -14 -15 -15 -15 -16 -16 -16 -16 -15 -16 -16 -16 -16 -16 -16 -16 -16 -16 -16 -16
-16 -16 -15 -16 -17 -16 -16 -16 -16 -15 -15 -15 -15 -15 -15 -15 -15 -15 -15 -15 -14 -14 -14 -14 -14 -15 -15 -15 -15 -15 -15 -15 -16 -15 -15 -15 -15 -15 -16 -17 -16 -17 -16 -16 -16 -16 -16 -16 -16
-16 -15 -16 -16 -16 -16 -16 -15 -15 -15 -15 -15 -15 -15 -15 -15 -15 -15 -15 -15 -14 -14 -14 -14 -15 -15 -15 -15 -15 -14 -14 -16 -16 -16 -16 -16 -16 -17 -17 -17 -17 -17 -16 -17 -17 -17 -16 -17 -17
-16 -17 -17 -16 -16 -16 -16 -16 -15 -15 -16 -15 -15 -15 -15 -15 -15 -15 -15 -15 -15 -15 -15 -15 -15 -15 -15 -15 -15 -14 -15 -15 -15 -16 -16 -16 -17 -17 -16 -17 -17 -17 -17 -17 -17 -17 -17 -17 -17
-17 -16 -16 -16 -16 -16 -16 -16 -16 -16 -16 -16 -16 -16 -15 -15 -15 -15 -15 -15 -15 -15 -15 -15 -15 -15 -15 -15 -15 -15 -16 -16 -16 -16 -16 -16 -17 -17 -17 -17 -17 -18 -18 -18 -18 -17 -17 -17 -17
-17 -16 -16 -16 -16 -16 -16 -16 -16 -16 -16 -16 -16 -16 -15 -15 -15 -15 -15 -15 -15 -15 -15 -15 -15 -15 -15 -15 -15 -15 -15 -15 -16 -17 -17 -17 -18 -18 -18 -18 -18 -18 -18 -18 -18 -18 -17 -17 -17
-16 -16 -16 -16 -16 -16 -16 -17 -16 -16 -16 -16 -16 -16 -15 -15 -15 -15 -15 -15 -15 -15 -15 -15 -15 -15 -16 -16 -16 -15 -15 -16 -16 -17 -17 -17 -18 -18 -18 -18 -18 -17 -17 -17 -17 -18 -18 -18 -18
-16 -16 -17 -17 -16 -16 -16 -16 -16 -16 -16 -16 -15 -15 -15 -15 -15 -15 -15 -15 -15 -15 -15 -15 -16 -16 -15 -15 -15 -15 -16 -16 -16 -17 -17 -18 -18 -18 -18 -18 -19 -19 -19 -19 -19 -19 -19 -19 -18
-17 -17 -17 -16 -16 -16 -16 -16 -15 -15 -15 -15 -15 -15 -15 -15 -15 -15 -15 -16 -16 -16 -15 -15 -15 -15 -15 -15 -16 -17 -17 -16 -17 -17 -17 -18 -18 -18 -19 -19 -19 -19 -19 -19 -19 -19 -18 -19 -19
-16 -16 -17 -16 -16 -16 -16 -15 -15 -15 -15 -15 -15 -15 -15 -15 -15 -16 -16 -16 -16 -16 -15 -15 -15 -15 -15 -16 -16 -16 -16 -17 -18 -18 -19 -19 -19 -19 -19 -19 -19 -19 -19 -19 -18 -18 -19 -19 -19
-17 -16 -16 -16 -16 -16 -15 -15 -15 -15 -15 -15 -15 -15 -15 -15 -16 -16 -16 -16 -16 -15 -15 -15 -15 -15 -16 -16 -15 -16 -17 -17 -18 -18 -19 -19 -19 -19 -19 -19 -19 -19 -19 -19 -19 -19 -19 -19 -20
-17 -16 -16 -16 -16 -16 -15 -15 -15 -15 -15 -15 -15 -15 -15 -16 -16 -16 -16 -15 -15 -15 -15 -15 -15 -15 -15 -15 -16 -16 -17 -17 -17 -18 -18 -18 -19 -19 -19 -19 -19 -19 -19 -19 -19 -19 -20 -20 -20
-16 -16 -16 -16 -15 -15 -15 -15 -15 -15 -15 -15 -15 -15 -15 -15 -15 -15 -15 -14 -15 -15 -15 -15 -15 -15 -15 -16 -16 -16 -17 -17 -18 -18 -18 -19 -19 -20 -20 -19 -19 -19 -19 -19 -19 -20 -20 -21 -21
-16 -16 -16 -16 -15 -15 -15 -14 -15 -15 -15 -14 -14 -15 -15 -14 -15 -15 -15 -15 -15 -15 -15 -15 -15 -15 -16 -16 -16 -17 -17 -17 -18 -19 -19 -19 -19 -19 -19 -19 -19 -19 -20 -20 -20 -21 -21 -22 -23
-16 -16 -16 -15 -15 -15 -15 -15 -15 -14 -14 -14 -14 -14 -14 -15 -15 -15 -15 -15 -15 -15 -15 -15 -16 -16 -16 -17 -17 -18 -18 -18 -19 -18 -19 -20 -19 -19 -19 -19 -20 -20 -20 -21 -21 -22 -22 -23 -23
-15 -15 -15 -15 -15 -15 -15 -15 -14 -14 -14 -14 -14 -14 -15 -15 -15 -15 -15 -15 -15 -15 -15 -16 -16 -16 -16 -17 -18 -18 -18 -19 -19 -20 -20 -20 -20 -20 -20 -20 -20 -21 -21 -22 -22 -23 -23 -24 -27
-15 -15 -15 -15 -15 -15 -15 -15 -14 -14 -14 -14 -14 -15 -15 -15 -15 -15 -15 -15 -15 -15 -16 -16 -16 -16 -17 -17 -18 -18 -18 -19 -20 -20 -20 -20 -20 -20 -20 -21 -21 -21 -22 -22 -23 -23 -25 -27 -29
-15 -15 -15 -15 -15 -15 -15 -15 -15 -15 -15 -15 -15 -15 -15 -15 -15 -15 -15 -15 -16 -16 -16 -16 -16 -17 -17 -18 -18 -18 -19 -20 -20 -20 -20 -20 -20 -20 -21 -21 -21 -22 -22 -23 -23 -25 -28 -29 -30

GFSSGP_500_temp_021.txt.gz
Temp
-12 -12 -12 -11 -11 -11 -11 -12 -12 -12 -9 -9 -10 -10 -10 -10 -10 -10 -9 -10 -11 -11 -11 -11 -11 -12 -12 -12 -12 -11 -12 -12 -12 -12 -12 -12 -12 -12 -12 -12 -12 -12 -12 -12 -13 -13 -13 -13 -13
-13 -13 -13 -12 -11 -13 -12 -12 -13 -11 -11 -10 -10 -10 -10 -10 -10 -11 -11 -10 -11 -12 -12 -12 -12 -12 -12 -12 -12 -12 -12 -12 -13 -12 -12 -12 -12 -12 -12 -12 -12 -12 -13 -13 -13 -13 -13 -13 -13
-14 -13 -12 -12 -12 -13 -12 -12 -10 -10 -11 -10 -10 -10 -10 -10 -9 -11 -11 -11 -11 -11 -11 -11 -11 -13 -13 -13 -13 -12 -13 -13 -13 -12 -12 -12 -12 -12 -12 -12 -12 -12 -13 -13 -13 -13 -13 -13 -13
-14 -14 -13 -13 -14 -13 -14 -12 -11 -10 -11 -11 -11 -11 -11 -11 -11 -10 -11 -11 -10 -10 -10 -11 -12 -14 -14 -13 -13 -13 -13 -13 -13 -12 -12 -12 -12 -12 -12 -12 -13 -12 -13 -13 -13 -13 -13 -13 -13
-15 -14 -14 -14 -14 -14 -13 -12 -10 -11 -11 -11 -11 -11 -11 -11 -11 -10 -11 -10 -11 -10 -10 -11 -13 -14 -14 -14 -14 -14 -13 -13 -13 -12 -12 -12 -12 -12 -12 -12 -13 -13 -13 -13 -13 -13 -13 -13 -13
-15 -15 -15 -14 -14 -14 -14 -11 -12 -12 -11 -12 -12 -11 -11 -11 -11 -11 -10 -11 -10 -9 -10 -12 -13 -14 -13 -14 -15 -14 -14 -14 -13 -12 -12 -12 -12 -12 -12 -13 -13 -13 -13 -14 -13 -14 -14 -14 -14
-15 -15 -15 -14 -13 -14 -14 -13 -11 -13 -12 -12 -12 -12 -11 -11 -11 -10 -10 -10 -10 -10 -10 -13 -14 -14 -15 -15 -14 -14 -14 -14 -13 -13 -12 -12 -12 -12 -13 -13 -13 -13 -13 -14 -14 -14 -14 -14 -14
-15 -15 -15 -15 -14 -13 -13 -13 -13 -11 -12 -13 -12 -13 -12 -11 -10 -10 -10 -10 -10 -9 -12 -15 -15 -16 -15 -15 -14 -14 -14 -13 -13 -12 -12 -12 -12 -12 -13 -13 -14 -14 -13 -14 -14 -14 -14 -14 -14
-15 -15 -15 -14 -13 -12 -13 -13 -12 -12 -12 -12 -13 -12 -12 -12 -12 -11 -11 -11 -11 -12 -14 -16 -15 -15 -14 -14 -14 -14 -13 -13 -13 -13 -13 -13 -13 -13 -13 -14 -14 -14 -14 -14 -14 -14 -14 -14 -14
-15 -15 -15 -14 -13 -13 -14 -13 -13 -13 -13 -13 -13 -13 -14 -14 -13 -12 -13 -14 -14 -15 -15 -15 -15 -15 -14 -14 -14 -14 -14 -13 -14 -14 -14 -14 -14 -14 -15 -14 -14 -14 -14 -14 -14 -14 -14 -15 -14
-15 -15 -15 -14 -14 -13 -13 -14 -13 -12 -12 -13 -13 -14 -14 -14 -13 -14 -14 -14 -14 -14 -14 -14 -14 -14 -14 -14 -14 -14 -14 -14 -14 -15 -15 -15 -15 -15 -15 -15 -15 -15 -16 -15 -14 -14 -14 -15 -15
-15 -15 -14 -14 -13 -14 -14 -14 -14 -12 -12 -16 -14 -15 -15 -14 -14 -14 -14 -14 -14 -14 -14 -14 -14 -14 -14 -14 -14 -14 -14 -15 -15 -15 -15 -16 -16 -16 -15 -15 -15 -16 -16 -15 -15 -15 -15 -15 -15
-16 -16 -15 -15 -15 -15 -15 -14 -14 -13 -16 -15 -15 -15 -15 -15 -15 -15 -15 -14 -14 -14 -14 -14 -14 -14 -14 -14 -14 -15 -14 -15 -15 -15 -16 -16 -15 -15 -15 -15 -16 -16 -16 -16 -15 -16 -16 -16 -16
-16 -15 -15 -15 -15 -14 -15 -15 -13 -15 -15 -15 -15 -15 -15 -15 -15 -15 -14 -14 -14 -15 -14 -14 -14 -14 -15 -15 -15 -15 -14 -14 -15 -16 -15 -16 -15 -16 -16 -16 -16 -16 -16 -16 -16 -16 -17 -16 -16
-15 -15 -16 -16 -15 -16 -16 -15 -15 -15 -15 -15 -15 -15 -15 -15 -15 -15 -14 -15 -15 -15 -14 -14 -14 -15 -15 -15 -15 -14 -14 -15 -15 -15 -15 -15 -15 -16 -16 -16 -15 -16 -17 -17 -17 -17 -18 -18 -17
-16 -15 -16 -16 -16 -16 -16 -16 -15 -15 -15 -15 -15 -15 -15 -15 -15 -15 -15 -15 -15 -15 -15 -15 -15 -15 -15 -15 -15 -14 -14 -15 -15 -15 -16 -16 -16 -16 -16 -17 -17 -17 -18 -18 -18 -17 -17 -18 -18
-16 -16 -16 -16 -16 -16 -16 -16 -15 -15 -15 -16 -15 -15 -15 -15 -15 -15 -15 -15 -15 -15 -15 -15 -15 -15 -15 -15 -15 -14 -15 -15 -16 -16 -16 -16 -16 -17 -17 -17 -17 -17 -18 -18 -18 -18 -18 -17 -17
-17 -16 -16 -16 -16 -16 -16 -16 -16 -16 -16 -16 -16 -16 -15 -15 -15 -15 -15 -15 -15 -15 -15 -15 -15 -15 -15 -15 -15 -15 -15 -15 -15 -16 -16 -16 -17 -17 -17 -18 -19 -18 -18 -18 -18 -18 -18 -18 -18
-16 -16 -16 -16 -16 -16 -17 -16 -15 -16 -16 -16 -16 -16 -16 -15 -15 -15 -15 -15 -15 -15 -15 -15 -15 -15 -15 -15 -15 -15 -15 -15 -15 -15 -16 -17 -17 -18 -18 -18 -18 -18 -19 -19 -19 -19 -19 -19 -19
-16 -16 -16 -16 -16 -16 -16 -16 -16 -16 -16 -16 -16 -16 -16 -16 -16 -16 -16 -16 -16 -16 -15 -15 -15 -15 -15 -15 -15 -15 -15 -15 -15 -16 -16 -16 -17 -17 -18 -19 -19 -19 -19 -20 -19 -19 -19 -19 -19
-16 -16 -16 -16 -16 -16 -16 -15 -16 -16 -16 -16 -16 -16 -16 -16 -16 -16 -16 -16 -16 -16 -16 -15 -16 -15 -15 -15 -15 -15 -15 -15 -15 -16 -16 -16 -17 -18 -18 -19 -19 -19 -19 -19 -19 -19 -19 -19 -19
-16 -16 -16 -16 -16 -16 -16 -15 -15 -15 -15 -16 -16 -16 -16 -16 -16 -16 -16 -16 -16 -16 -15 -15 -15 -15 -15 -15 -15 -15 -15 -15 -15 -16 -16 -16 -17 -18 -18 -18 -19 -19 -19 -19 -19 -19 -19 -19 -19
-16 -16 -16 -16 -15 -15 -15 -15 -15 -15 -15 -15 -15 -16 -16 -16 -16 -15 -16 -16 -15 -15 -15 -15 -15 -15 -15 -15 -15 -15 -15 -15 -15 -16 -17 -17 -17 -18 -18 -18 -19 -19 -20 -20 -19 -19 -19 -19 -19
-16 -16 -16 -16 -16 -16 -15 -15 -15 -15 -15 -15 -15 -15 -15 -15 -15 -15 -16 -15 -15 -14 -15 -15 -14 -14 -15 -15 -15 -15 -15 -16 -16 -16 -17 -17 -18 -18 -18 -19 -19 -19 -20 -20 -19 -19 -19 -20 -20
-17 -17 -16 -16 -15 -16 -15 -15 -15 -15 -15 -15 -15 -15 -15 -15 -15 -15 -15 -14 -14 -14 -14 -15 -15 -15 -15 -15 -15 -15 -16 -16 -17 -18 -18 -18 -18 -19 -19 -19 -19 -20 -20 -20 -20 -20 -20 -21 -21
-16 -16 -16 -16 -16 -15 -15 -15 -15 -15 -15 -15 -14 -14 -14 -15 -15 -14 -14 -14 -14 -14 -15 -15 -15 -15 -15 -15 -16 -16 -16 -17 -18 -18 -18 -18 -19 -19 -19 -20 -20 -20 -20 -20 -20 -21 -21 -21 -21
-17 -16 -16 -16 -16 -15 -15 -16 -15 -15 -14 -14 -14 -14 -14 -14 -14 -14 -14 -14 -14 -14 -15 -15 -15 -15 -15 -16 -16 -16 -17 -17 -18 -18 -18 -19 -19 -19 -20 -20 -20 -20 -21 -21 -21 -21 -22 -22 -23
-16 -15 -16 -16 -16 -15 -15 -15 -15 -15 -14 -14 -14 -14 -14 -14 -14 -14 -14 -14 -15 -15 -15 -15 -15 -16 -16 -16 -17 -17 -17 -18 -18 -18 -19 -19 -19 -20 -20 -21 -21 -21 -21 -21 -22 -22 -23 -23 -23
-15 -15 -15 -16 -16 -15 -15 -15 -15 -15 -14 -14 -14 -14 -14 -14 -14 -15 -15 -15 -15 -15 -15 -15 -16 -16 -16 -17 -17 -17 -18 -18 -19 -19 -19 -20 -20 -20 -21 -21 -21 -22 -22 -22 -22 -23 -23 -23 -25
-15 -15 -15 -15 -15 -15 -15 -15 -15 -15 -14 -14 -15 -15 -15 -15 -15 -15 -15 -15 -15 -16 -16 -16 -16 -16 -17 -17 -17 -18 -19 -19 -19 -19 -20 -20 -20 -21 -21 -21 -22 -22 -22 -22 -23 -23 -23 -24 -27

GFSSGP_500_temp_024.txt.gz
Temp
-12 -12 -12 -12 -11 -10 -10 -9 -10 -12 -9 -9 -9 -10 -10 -10 -10 -10 -9 -8 -9 -9 -10 -11 -11 -12 -11 -11 -11 -12 -11 -11 -11 -11 -11 -12 -12 -12 -12 -12 -12 -12 -12 -12 -12 -13 -13 -13 -13
-12 -13 -13 -13 -11 -11 -10 -12 -11 -10 -10 -9 -9 -9 -10 -10 -10 -10 -9 -9 -9 -9 -10 -11 -12 -12 -12 -12 -12 -12 -12 -11 -11 -12 -12 -12 -12 -12 -12 -12 -12 -12 -12 -12 -13 -13 -13 -13 -13
-13 -13 -13 -13 -12 -12 -13 -12 -12 -10 -10 -9 -10 -9 -10 -9 -10 -10 -9 -9 -9 -10 -11 -11 -11 -11 -12 -12 -12 -13 -12 -12 -12 -13 -13 -12 -12 -12 -12 -12 -12 -12 -12 -12 -13 -13 -13 -13 -13
-14 -15 -14 -13 -12 -13 -13 -11 -10 -9 -10 -11 -10 -10 -10 -10 -10 -9 -9 -9 -10 -9 -10 -11 -11 -11 -11 -12 -13 -14 -13 -13 -13 -13 -13 -12 -12 -12 -12 -12 -12 -12 -12 -13 -13 -13 -13 -13 -13
-15 -15 -14 -13 -13 -13 -13 -12 -11 -10 -11 -12 -11 -10 -11 -10 -10 -9 -9 -10 -10 -10 -10 -10 -11 -11 -11 -12 -13 -14 -14 -13 -13 -13 -12 -12 -12 -12 -12 -12 -12 -12 -13 -13 -13 -13 -13 -13 -13
-15 -15 -15 -14 -13 -13 -14 -12 -11 -11 -11 -12 -13 -11 -10 -11 -10 -10 -10 -10 -11 -11 -11 -10 -12 -12 -12 -13 -14 -14 -15 -14 -13 -13 -12 -12 -11 -12 -12 -12 -12 -13 -13 -13 -13 -13 -14 -13 -13
-15 -15 -15 -14 -14 -13 -13 -11 -11 -12 -12 -13 -12 -11 -10 -10 -10 -10 -10 -10 -10 -10 -10 -10 -12 -12 -13 -14 -14 -16 -14 -13 -13 -12 -12 -12 -12 -12 -12 -13 -13 -13 -13 -13 -13 -13 -13 -13 -13
-15 -15 -15 -15 -14 -14 -12 -13 -13 -12 -12 -13 -11 -11 -10 -11 -10 -10 -10 -10 -10 -10 -10 -10 -12 -13 -13 -16 -16 -15 -14 -13 -13 -13 -12 -12 -12 -13 -13 -13 -13 -13 -13 -14 -14 -14 -13 -13 -13
-16 -15 -14 -14 -14 -14 -13 -11 -12 -12 -12 -11 -11 -10 -11 -12 -11 -11 -10 -10 -11 -10 -10 -11 -12 -14 -15 -15 -14 -14 -13 -13 -13 -13 -12 -13 -13 -13 -14 -14 -13 -14 -15 -15 -15 -15 -14 -14 -14
-16 -15 -14 -15 -15 -14 -14 -14 -13 -13 -12 -11 -11 -11 -11 -12 -11 -11 -10 -11 -11 -11 -12 -13 -14 -15 -15 -14 -13 -13 -13 -13 -14 -14 -13 -13 -13 -14 -14 -14 -15 -15 -16 -16 -15 -15 -15 -14 -14
-16 -15 -16 -15 -14 -14 -13 -13 -13 -13 -12 -11 -11 -14 -13 -12 -11 -11 -11 -11 -12 -13 -14 -14 -14 -14 -14 -14 -14 -14 -14 -14 -14 -14 -14 -14 -14 -15 -16 -15 -16 -15 -16 -16 -15 -15 -15 -14 -14
-16 -16 -16 -15 -14 -14 -13 -13 -13 -13 -13 -13 -13 -15 -13 -12 -12 -12 -13 -14 -14 -14 -14 -14 -14 -14 -14 -14 -14 -14 -14 -14 -14 -15 -15 -15 -16 -16 -16 -15 -16 -15 -15 -15 -15 -14 -15 -15 -15
-16 -16 -16 -15 -15 -14 -14 -14 -13 -13 -13 -13 -13 -14 -14 -14 -14 -14 -14 -14 -14 -14 -14 -15 -15 -14 -14 -14 -14 -14 -14 -14 -15 -15 -16 -16 -15 -16 -15 -15 -16 -15 -15 -14 -14 -14 -15 -16 -16
-16 -15 -14 -15 -15 -14 -14 -14 -14 -12 -13 -14 -14 -15 -15 -14 -14 -14 -14 -14 -14 -15 -15 -15 -15 -15 -15 -15 -15 -15 -15 -15 -16 -16 -16 -15 -16 -15 -15 -15 -14 -15 -15 -16 -16 -16 -16 -16 -16
-16 -15 -15 -15 -15 -15 -14 -14 -15 -15 -15 -15 -15 -14 -14 -14 -14 -14 -14 -14 -14 -14 -14 -15 -15 -15 -15 -15 -15 -15 -15 -14 -15 -16 -16 -16 -15 -15 -15 -15 -15 -16 -16 -16 -17 -17 -17 -17 -17
-15 -15 -15 -15 -15 -15 -15 -16 -16 -15 -15 -15 -14 -14 -15 -14 -14 -14 -14 -14 -14 -14 -15 -15 -15 -14 -14 -15 -15 -15 -15 -14 -15 -15 -15 -16 -16 -15 -15 -15 -16 -16 -16 -17 -17 -17 -18 -18 -18
-15 -15 -16 -16 -16 -16 -15 -15 -15 -15 -15 -15 -15 -15 -15 -15 -15 -14 -14 -14 -14 -14 -14 -14 -15 -15 -15 -15 -15 -15 -15 -15 -15 -15 -15 -15 -15 -15 -15 -16 -16 -16 -17 -18 -18 -18 -18 -18 -18
-16 -16 -16 -16 -15 -15 -16 -15 -15 -15 -15 -15 -14 -15 -15 -15 -15 -15 -14 -15 -14 -14 -15 -15 -15 -15 -15 -14 -15 -15 -15 -14 -14 -14 -14 -15 -14 -15 -15 -16 -17 -17 -17 -17 -18 -18 -19 -20 -19
-16 -16 -16 -16 -15 -15 -16 -16 -15 -15 -15 -15 -15 -15 -15 -14 -15 -15 -15 -15 -15 -15 -15 -15 -15 -15 -15 -15 -15 -15 -15 -14 -14 -14 -14 -14 -14 -15 -15 -16 -16 -17 -17 -18 -18 -19 -19 -19 -19
-16 -15 -16 -16 -15 -15 -16 -16 -15 -15 -15 -15 -15 -15 -15 -15 -15 -15 -16 -15 -15 -15 -15 -15 -15 -15 -15 -15 -15 -15 -14 -14 -14 -14 -14 -15 -15 -15 -16 -17 -17 -18 -18 -19 -19 -18 -18 -19 -19
-16 -16 -16 -16 -15 -15 -16 -16 -16 -15 -15 -15 -15 -15 -15 -15 -15 -15 -15 -15 -15 -15 -15 -15 -15 -15 -15 -15 -15 -14 -14 -14 -14 -14 -15 -15 -15 -16 -16 -17 -17 -18 -18 -18 -18 -19 -19 -19 -20
-16 -15 -16 -15 -15 -15 -16 -15 -15 -15 -15 -15 -15 -15 -14 -15 -15 -15 -15 -15 -15 -16 -15 -15 -15 -15 -14 -14 -14 -14 -14 -14 -15 -15 -15 -15 -16 -16 -17 -17 -18 -18 -18 -19 -19 -19 -20 -20 -20
-16 -16 -15 -16 -16 -16 -15 -16 -15 -15 -14 -15 -16 -16 -15 -15 -15 -15 -15 -15 -15 -15 -15 -15 -14 -14 -14 -15 -15 -14 -15 -15 -15 -15 -15 -16 -16 -17 -17 -18 -18 -18 -18 -18 -19 -20 -20 -20 -20
-16 -16 -15 -16 -16 -15 -15 -15 -15 -15 -15 -15 -16 -16 -15 -15 -15 -15 -15 -15 -15 -15 -15 -14 -14 -14 -15 -15 -15 -15 -15 -15 -15 -16 -16 -17 -17 -17 -18 -18 -18 -19 -19 -19 -20 -20 -20 -20 -21
-15 -16 -16 -15 -16 -16 -15 -15 -15 -15 -14 -15 -14 -15 -15 -15 -14 -15 -15 -15 -14 -14 -14 -14 -14 -14 -15 -15 -15 -15 -15 -16 -16 -16 -17 -17 -17 -18 -18 -18 -19 -19 -19 -20 -20 -21 -21 -21 -21
-16 -16 -16 -15 -15 -15 -15 -15 -15 -15 -15 -15 -15 -14 -15 -14 -14 -14 -14 -14 -14 -14 -14 -14 -15 -15 -15 -15 -15 -16 -16 -16 -16 -17 -17 -17 -18 -18 -19 -19 -19 -19 -20 -20 -21 -21 -21 -22 -22
-16 -16 -16 -16 -16 -15 -15 -15 -15 -14 -15 -15 -14 -14 -14 -14 -14 -14 -14 -14 -14 -14 -15 -15 -15 -15 -15 -15 -16 -16 -16 -17 -17 -17 -18 -18 -18 -19 -19 -19 -19 -20 -20 -20 -21 -22 -22 -22 -22
-16 -15 -15 -15 -15 -15 -15 -15 -15 -15 -15 -15 -14 -14 -14 -14 -14 -14 -14 -14 -15 -15 -15 -15 -15 -15 -16 -16 -16 -17 -17 -17 -17 -18 -18 -19 -20 -20 -20 -20 -20 -20 -21 -21 -21 -22 -22 -22 -22
-15 -16 -15 -15 -16 -15 -15 -16 -16 -15 -15 -15 -14 -14 -14 -14 -14 -14 -15 -15 -15 -15 -15 -16 -16 -16 -16 -17 -17 -17 -17 -18 -18 -18 -19 -19 -20 -20 -20 -20 -20 -21 -21 -21 -22 -22 -22 -23 -23
-15 -15 -15 -15 -15 -15 -15 -15 -15 -15 -15 -15 -15 -15 -14 -14 -15 -15 -15 -15 -15 -15 -16 -16 -16 -17 -17 -17 -17 -18 -18 -18 -18 -19 -19 -19 -20 -20 -20 -20 -20 -21 -21 -21 -22 -22 -22 -23 -23

GFSSGP_500_temp_027.txt.gz
Temp
-13 -14 -13 -12 -11 -10 -10 -11 -12 -12 -11 -10 -11 -11 -10 -11 -12 -11 -9 -10 -9 -10 -9 -9 -10 -11 -11 -12 -12 -12 -12 -12 -12 -11 -11 -11 -12 -12 -12 -12 -12 -12 -12 -12 -12 -12 -12 -12 -12
-13 -14 -14 -12 -11 -10 -11 -12 -12 -11 -10 -10 -11 -10 -10 -10 -11 -11 -9 -10 -10 -10 -10 -10 -10 -11 -12 -12 -12 -12 -12 -12 -12 -12 -12 -12 -12 -12 -12 -12 -12 -12 -12 -12 -12 -12 -12 -12 -12
-14 -13 -13 -12 -11 -11 -13 -13 -12 -12 -11 -10 -11 -11 -10 -11 -11 -11 -10 -9 -10 -11 -11 -10 -11 -10 -11 -12 -12 -12 -12 -13 -13 -12 -13 -12 -12 -12 -12 -12 -12 -12 -12 -12 -12 -13 -12 -13 -13
-14 -13 -13 -12 -12 -13 -13 -12 -11 -10 -10 -11 -12 -12 -11 -10 -11 -11 -10 -10 -11 -10 -11 -10 -10 -10 -10 -11 -11 -12 -12 -12 -13 -13 -13 -12 -12 -12 -12 -12 -12 -12 -12 -12 -12 -13 -13 -12 -13
-14 -14 -14 -13 -13 -13 -13 -13 -12 -12 -12 -12 -11 -12 -11 -10 -10 -11 -10 -10 -10 -10 -10 -10 -11 -11 -11 -11 -12 -12 -13 -13 -14 -13 -13 -13 -12 -12 -12 -12 -12 -12 -12 -12 -13 -13 -13 -13 -13
-15 -14 -14 -14 -14 -14 -13 -12 -12 -12 -13 -12 -11 -12 -11 -11 -10 -11 -11 -10 -8 -10 -10 -10 -10 -11 -12 -11 -12 -13 -13 -14 -14 -13 -13 -13 -12 -12 -12 -12 -12 -12 -13 -13 -13 -13 -13 -13 -14
-15 -15 -15 -14 -15 -15 -14 -13 -14 -14 -13 -12 -12 -11 -11 -11 -11 -11 -11 -11 -9 -10 -10 -10 -10 -11 -12 -12 -13 -13 -13 -15 -15 -14 -13 -13 -13 -12 -12 -13 -13 -13 -13 -13 -14 -14 -14 -14 -14
-16 -15 -15 -14 -15 -15 -15 -14 -14 -13 -12 -13 -12 -11 -12 -12 -12 -11 -11 -11 -11 -10 -10 -10 -11 -11 -12 -12 -13 -15 -16 -16 -15 -13 -13 -13 -13 -13 -13 -13 -13 -13 -13 -14 -14 -14 -14 -14 -14
-16 -15 -15 -15 -15 -15 -15 -14 -12 -13 -13 -11 -11 -12 -12 -12 -12 -11 -11 -11 -11 -11 -11 -11 -12 -12 -12 -13 -14 -15 -15 -14 -14 -13 -13 -13 -13 -13 -13 -14 -14 -14 -14 -15 -14 -14 -15 -14 -15
-16 -15 -16 -15 -16 -15 -15 -14 -13 -13 -13 -12 -12 -12 -11 -11 -11 -11 -12 -11 -11 -10 -11 -12 -12 -14 -14 -14 -14 -14 -14 -14 -13 -13 -13 -13 -14 -13 -14 -14 -14 -14 -14 -15 -14 -14 -14 -14 -14
-16 -16 -16 -15 -15 -15 -14 -14 -13 -13 -12 -13 -13 -13 -12 -12 -11 -12 -12 -11 -11 -12 -12 -12 -14 -14 -14 -14 -14 -14 -14 -14 -14 -14 -14 -14 -13 -14 -15 -14 -14 -14 -14 -13 -14 -14 -14 -15 -15
-16 -16 -16 -16 -15 -14 -14 -14 -14 -14 -14 -12 -13 -12 -12 -12 -12 -12 -12 -14 -13 -14 -14 -14 -14 -13 -14 -14 -14 -14 -14 -14 -14 -14 -14 -14 -14 -14 -15 -14 -14 -15 -15 -14 -15 -15 -15 -14 -15
-16 -16 -16 -16 -15 -14 -14 -14 -13 -14 -13 -13 -13 -12 -12 -13 -12 -12 -13 -14 -14 -14 -14 -13 -13 -14 -14 -14 -14 -14 -14 -15 -14 -15 -14 -14 -14 -14 -14 -14 -15 -14 -15 -15 -14 -14 -15 -16 -16
-17 -16 -16 -16 -14 -14 -14 -13 -14 -14 -14 -13 -13 -13 -13 -13 -13 -13 -13 -13 -13 -13 -13 -14 -14 -14 -14 -14 -14 -14 -14 -15 -15 -15 -14 -15 -15 -15 -15 -15 -15 -15 -15 -15 -16 -15 -16 -17 -17
-16 -17 -16 -16 -15 -14 -15 -14 -14 -15 -14 -13 -13 -14 -14 -14 -13 -13 -14 -14 -13 -14 -14 -14 -14 -14 -14 -14 -14 -15 -15 -15 -14 -14 -14 -15 -15 -15 -15 -15 -15 -15 -15 -16 -16 -16 -16 -16 -17
-16 -16 -15 -16 -15 -15 -14 -15 -14 -14 -15 -14 -14 -14 -14 -14 -14 -14 -13 -14 -14 -14 -14 -14 -14 -14 -14 -15 -15 -15 -15 -15 -15 -15 -15 -15 -15 -15 -15 -15 -15 -16 -16 -16 -16 -17 -17 -17 -17
-16 -16 -16 -16 -16 -16 -16 -15 -15 -14 -14 -15 -14 -14 -14 -14 -14 -14 -14 -14 -14 -14 -14 -14 -14 -15 -15 -15 -15 -15 -15 -15 -15 -15 -15 -14 -15 -15 -15 -15 -15 -16 -16 -16 -17 -17 -17 -17 -17
-16 -16 -15 -16 -16 -16 -15 -15 -15 -14 -14 -14 -15 -14 -15 -15 -15 -14 -14 -14 -14 -15 -15 -15 -15 -15 -15 -15 -15 -15 -15 -15 -15 -15 -15 -14 -15 -15 -15 -15 -16 -16 -17 -17 -17 -17 -17 -17 -18
-15 -16 -16 -15 -16 -15 -15 -14 -15 -15 -15 -14 -15 -14 -14 -14 -14 -14 -14 -13 -14 -15 -15 -15 -15 -15 -15 -15 -15 -15 -15 -15 -15 -14 -15 -15 -15 -15 -15 -16 -16 -17 -17 -17 -17 -17 -17 -18 -18
-15 -16 -16 -15 -15 -16 -16 -15 -15 -16 -16 -15 -15 -14 -14 -14 -14 -14 -13 -13 -13 -14 -15 -15 -15 -15 -15 -15 -15 -15 -14 -14 -14 -15 -15 -15 -15 -15 -16 -16 -16 -16 -17 -17 -18 -18 -18 -18 -18
-16 -16 -16 -16 -16 -16 -16 -16 -16 -16 -16 -15 -15 -14 -14 -14 -14 -14 -14 -13 -14 -14 -14 -15 -15 -15 -15 -15 -15 -14 -14 -14 -15 -15 -15 -15 -15 -16 -16 -16 -17 -17 -17 -18 -18 -18 -18 -18 -19
-16 -16 -15 -15 -16 -16 -16 -16 -16 -16 -16 -15 -16 -15 -15 -14 -14 -15 -15 -15 -14 -15 -15 -16 -16 -15 -15 -14 -14 -14 -14 -14 -15 -15 -15 -15 -16 -16 -16 -17 -17 -17 -18 -18 -18 -19 -19 -19 -19
-16 -16 -15 -15 -15 -15 -16 -16 -15 -16 -15 -15 -15 -16 -15 -14 -14 -15 -15 -15 -15 -15 -15 -15 -15 -15 -14 -14 -14 -14 -15 -15 -15 -15 -15 -16 -16 -16 -16 -17 -17 -18 -18 -18 -19 -19 -19 -19 -20
-16 -16 -15 -16 -15 -16 -15 -16 -15 -15 -15 -14 -15 -15 -15 -15 -15 -15 -15 -15 -15 -15 -15 -15 -15 -14 -14 -15 -15 -15 -15 -15 -15 -16 -16 -16 -16 -17 -17 -17 -18 -18 -19 -19 -19 -20 -20 -19 -20
-16 -15 -16 -16 -16 -15 -16 -15 -15 -15 -16 -15 -15 -15 -15 -15 -15 -14 -15 -15 -15 -15 -14 -14 -14 -15 -15 -15 -15 -15 -15 -16 -16 -16 -16 -17 -17 -17 -18 -18 -18 -19 -19 -19 -20 -20 -20 -20 -20
-16 -16 -16 -16 -15 -15 -15 -15 -15 -15 -15 -15 -15 -15 -15 -14 -14 -15 -14 -14 -15 -15 -15 -14 -15 -15 -15 -15 -15 -16 -16 -16 -16 -17 -17 -17 -18 -18 -18 -19 -19 -20 -20 -20 -20 -20 -20 -21 -21
-17 -16 -16 -16 -16 -15 -15 -16 -16 -15 -15 -15 -15 -15 -14 -14 -14 -15 -14 -14 -15 -15 -15 -15 -15 -15 -15 -16 -16 -16 -16 -17 -17 -17 -18 -18 -19 -19 -19 -19 -19 -20 -20 -20 -20 -21 -21 -21 -22
-17 -16 -16 -16 -15 -15 -15 -16 -15 -15 -16 -16 -15 -15 -15 -15 -15 -15 -14 -15 -15 -15 -15 -15 -15 -15 -16 -16 -17 -17 -17 -17 -18 -18 -19 -19 -19 -19 -19 -20 -20 -20 -20 -20 -21 -21 -21 -21 -21
-16 -16 -16 -16 -16 -15 -15 -16 -16 -16 -16 -15 -15 -15 -15 -15 -15 -14 -14 -15 -15 -15 -15 -15 -15 -16 -16 -17 -17 -17 -18 -18 -18 -19 -19 -19 -19 -20 -20 -20 -20 -20 -20 -20 -20 -21 -21 -21 -22
-16 -16 -16 -15 -16 -15 -15 -15 -16 -16 -16 -16 -16 -15 -15 -14 -14 -14 -15 -15 -15 -15 -16 -16 -16 -16 -17 -17 -18 -18 -18 -18 -19 -19 -19 -19 -19 -19 -19 -20 -20 -20 -20 -21 -21 -21 -22 -22 -22

GFSSGP_500_temp_030.txt.gz
Temp
-13 -12 -12 -12 -12 -11 -11 -12 -12 -12 -12 -11 -11 -11 -12 -11 -12 -10 -11 -11 -11 -11 -11 -11 -10 -10 -10 -10 -10 -11 -12 -12 -12 -12 -12 -13 -12 -12 -12 -12 -12 -12 -12 -12 -12 -12 -12 -12 -12
-13 -12 -12 -11 -12 -12 -13 -13 -13 -12 -11 -11 -11 -11 -11 -12 -12 -11 -11 -11 -11 -11 -11 -11 -10 -10 -11 -10 -10 -11 -12 -12 -12 -12 -12 -13 -13 -13 -12 -12 -12 -12 -12 -12 -12 -12 -12 -12 -12
-13 -13 -12 -11 -12 -12 -14 -14 -13 -12 -11 -11 -11 -11 -11 -12 -12 -12 -11 -11 -11 -11 -11 -11 -11 -11 -11 -10 -10 -11 -11 -11 -12 -12 -13 -14 -14 -13 -12 -12 -12 -12 -12 -12 -12 -12 -12 -12 -12
-13 -13 -12 -12 -12 -14 -15 -14 -13 -12 -11 -12 -12 -12 -12 -11 -11 -11 -11 -11 -11 -11 -11 -11 -12 -11 -11 -10 -11 -11 -11 -11 -12 -12 -13 -14 -14 -13 -13 -13 -12 -12 -12 -12 -13 -13 -13 -13 -13
-14 -14 -13 -13 -14 -15 -13 -14 -13 -12 -12 -13 -12 -12 -11 -11 -11 -10 -11 -11 -11 -11 -11 -11 -11 -12 -11 -10 -11 -11 -11 -12 -12 -13 -15 -15 -14 -13 -13 -13 -12 -12 -13 -13 -13 -13 -13 -13 -13
-14 -14 -14 -15 -15 -14 -14 -13 -13 -12 -12 -13 -12 -12 -11 -11 -12 -11 -11 -11 -11 -11 -11 -11 -11 -11 -11 -11 -11 -11 -12 -12 -13 -14 -14 -14 -14 -13 -13 -13 -12 -12 -12 -12 -12 -13 -13 -13 -14
-15 -15 -15 -15 -16 -14 -14 -13 -14 -13 -13 -12 -12 -11 -11 -11 -11 -11 -11 -11 -11 -11 -10 -11 -11 -11 -11 -11 -12 -12 -12 -13 -15 -14 -14 -13 -13 -13 -13 -13 -12 -12 -12 -12 -13 -14 -14 -14 -14
-16 -16 -15 -16 -15 -14 -14 -14 -14 -13 -12 -12 -12 -12 -12 -12 -11 -12 -12 -11 -10 -10 -11 -11 -10 -11 -11 -12 -12 -13 -13 -16 -15 -14 -14 -14 -14 -13 -13 -13 -12 -13 -13 -13 -13 -14 -14 -14 -13
-17 -16 -16 -16 -15 -14 -15 -14 -14 -14 -13 -13 -13 -13 -12 -12 -12 -12 -12 -12 -11 -11 -11 -11 -11 -12 -12 -12 -12 -13 -14 -15 -15 -16 -15 -14 -14 -13 -13 -13 -13 -13 -13 -13 -14 -14 -14 -14 -14
-17 -16 -16 -16 -16 -15 -14 -14 -15 -14 -13 -13 -13 -13 -12 -12 -12 -12 -12 -12 -12 -11 -11 -11 -11 -12 -12 -13 -14 -16 -16 -15 -14 -14 -14 -13 -13 -14 -14 -14 -14 -13 -13 -13 -13 -14 -14 -15 -15
-16 -16 -16 -16 -16 -15 -14 -14 -14 -13 -14 -13 -13 -12 -13 -12 -12 -12 -11 -13 -12 -11 -12 -12 -12 -13 -15 -16 -16 -14 -14 -14 -14 -14 -14 -13 -14 -14 -14 -14 -14 -14 -14 -14 -14 -14 -14 -14 -14
-17 -17 -16 -16 -15 -14 -14 -14 -13 -14 -14 -13 -13 -12 -11 -12 -12 -13 -13 -12 -12 -12 -12 -12 -14 -15 -14 -14 -14 -14 -14 -14 -14 -14 -14 -14 -13 -13 -13 -14 -14 -14 -14 -14 -14 -14 -14 -14 -14
-17 -17 -16 -15 -15 -14 -14 -14 -14 -14 -13 -13 -13 -12 -12 -12 -12 -15 -14 -13 -13 -14 -14 -14 -15 -15 -15 -14 -13 -13 -14 -14 -14 -15 -14 -14 -14 -14 -14 -15 -14 -14 -14 -14 -14 -14 -14 -14 -14
-17 -16 -16 -16 -15 -14 -15 -15 -14 -13 -13 -12 -13 -13 -12 -13 -15 -14 -14 -13 -14 -14 -14 -14 -14 -14 -14 -14 -14 -14 -14 -14 -15 -15 -15 -15 -15 -14 -15 -14 -14 -14 -14 -14 -14 -14 -15 -15 -15
-17 -17 -16 -15 -16 -15 -14 -15 -14 -14 -14 -13 -13 -14 -14 -14 -14 -14 -14 -14 -14 -14 -14 -14 -14 -14 -14 -14 -15 -15 -15 -15 -15 -15 -15 -15 -15 -15 -15 -14 -14 -15 -15 -15 -15 -15 -15 -16 -16
-17 -16 -17 -16 -16 -15 -15 -15 -15 -15 -15 -15 -15 -14 -14 -15 -15 -15 -14 -14 -14 -14 -14 -14 -14 -14 -15 -15 -15 -15 -15 -15 -15 -15 -15 -15 -15 -15 -14 -15 -15 -15 -15 -16 -16 -16 -16 -16 -17
-16 -16 -16 -16 -16 -16 -15 -15 -15 -15 -15 -15 -15 -14 -15 -15 -15 -15 -15 -14 -14 -14 -14 -14 -15 -15 -15 -15 -15 -15 -15 -15 -15 -15 -15 -15 -15 -15 -15 -15 -15 -16 -16 -16 -16 -17 -17 -17 -18
-16 -16 -16 -16 -16 -16 -16 -15 -15 -15 -15 -15 -15 -15 -15 -14 -14 -15 -15 -15 -15 -15 -15 -15 -14 -15 -15 -15 -15 -15 -15 -15 -15 -15 -15 -15 -15 -15 -15 -15 -16 -16 -16 -17 -17 -17 -18 -18 -18
-16 -16 -16 -16 -16 -16 -16 -15 -16 -15 -15 -15 -15 -15 -15 -15 -14 -14 -14 -15 -15 -15 -15 -15 -15 -16 -15 -16 -16 -15 -15 -15 -15 -15 -15 -15 -15 -15 -16 -16 -16 -16 -17 -17 -17 -18 -18 -18 -18
-16 -16 -16 -16 -16 -16 -16 -16 -16 -15 -15 -15 -15 -15 -15 -15 -14 -14 -14 -15 -15 -16 -15 -16 -15 -15 -16 -15 -15 -15 -15 -15 -15 -15 -15 -15 -15 -16 -16 -16 -17 -17 -17 -17 -17 -18 -18 -18 -18
-16 -15 -15 -16 -16 -16 -16 -16 -15 -15 -15 -15 -14 -15 -15 -15 -14 -14 -14 -14 -15 -15 -15 -15 -16 -16 -15 -15 -15 -15 -15 -15 -15 -15 -15 -16 -16 -16 -16 -17 -17 -17 -17 -17 -18 -18 -18 -19 -19
-15 -15 -15 -16 -17 -16 -16 -16 -15 -15 -15 -15 -15 -14 -14 -15 -15 -14 -14 -14 -14 -15 -15 -15 -15 -16 -15 -15 -15 -15 -15 -15 -15 -16 -16 -16 -16 -16 -17 -17 -17 -17 -17 -18 -18 -19 -19 -19 -19
-15 -16 -16 -16 -16 -16 -16 -16 -16 -16 -15 -15 -15 -15 -14 -14 -14 -14 -15 -15 -15 -15 -15 -16 -15 -15 -15 -15 -15 -15 -16 -16 -16 -16 -16 -16 -16 -16 -17 -17 -17 -17 -18 -18 -19 -19 -19 -19 -19
-15 -16 -15 -15 -16 -15 -16 -15 -15 -16 -15 -15 -16 -15 -14 -14 -14 -14 -14 -15 -15 -15 -15 -15 -15 -15 -15 -15 -15 -15 -16 -15 -15 -16 -16 -16 -16 -17 -17 -17 -18 -18 -18 -19 -19 -19 -19 -19 -19
-16 -16 -16 -16 -16 -16 -16 -15 -15 -15 -15 -15 -15 -15 -15 -14 -14 -14 -15 -15 -15 -15 -15 -15 -15 -15 -15 -15 -15 -15 -15 -15 -16 -16 -16 -16 -17 -17 -18 -18 -18 -19 -19 -19 -19 -19 -19 -19 -20
-16 -16 -16 -16 -15 -16 -15 -15 -16 -15 -15 -15 -15 -15 -15 -15 -15 -15 -15 -15 -15 -15 -15 -15 -15 -15 -15 -15 -16 -15 -15 -16 -16 -16 -17 -17 -17 -18 -18 -18 -19 -19 -19 -19 -20 -19 -20 -20 -20
-16 -16 -16 -16 -16 -15 -15 -16 -15 -15 -15 -15 -15 -15 -15 -15 -15 -15 -15 -15 -15 -15 -15 -15 -16 -16 -16 -15 -15 -16 -16 -16 -17 -17 -17 -18 -18 -19 -19 -19 -20 -19 -19 -20 -20 -20 -20 -20 -20
-16 -17 -17 -17 -16 -15 -16 -15 -15 -15 -15 -15 -15 -15 -15 -15 -15 -15 -15 -15 -15 -15 -16 -16 -16 -16 -16 -16 -16 -16 -17 -17 -17 -17 -18 -18 -19 -19 -19 -19 -19 -20 -20 -19 -20 -20 -20 -21 -22
-16 -16 -17 -17 -16 -15 -15 -16 -15 -16 -16 -15 -15 -15 -15 -15 -15 -15 -15 -15 -16 -15 -15 -15 -15 -16 -16 -17 -17 -17 -17 -18 -18 -18 -19 -19 -19 -20 -20 -20 -20 -19 -20 -20 -20 -21 -21 -22 -22
-16 -16 -16 -17 -16 -16 -15 -15 -16 -16 -16 -16 -15 -15 -15 -15 -15 -15 -16 -15 -15 -15 -15 -16 -16 -17 -17 -17 -18 -18 -18 -18 -18 -18 -19 -19 -19 -20 -19 -19 -19 -20 -20 -20 -20 -21 -21 -22 -22

GFSSGP_500_temp_033.txt.gz
Temp
-12 -13 -13 -12 -12 -11 -11 -12 -14 -13 -13 -12 -12 -12 -12 -11 -11 -11 -11 -11 -11 -11 -11 -11 -11 -11 -11 -11 -11 -11 -11 -11 -10 -11 -12 -12 -12 -12 -13 -12 -12 -12 -12 -12 -12 -12 -12 -12 -12
-13 -13 -13 -13 -12 -12 -13 -15 -14 -13 -12 -12 -12 -12 -12 -12 -11 -11 -11 -11 -11 -11 -12 -12 -11 -11 -11 -11 -11 -11 -11 -10 -11 -12 -12 -12 -12 -13 -13 -13 -12 -12 -12 -12 -12 -12 -12 -12 -12
-13 -13 -14 -13 -13 -14 -15 -15 -13 -13 -13 -13 -13 -13 -12 -12 -12 -12 -12 -11 -12 -12 -12 -12 -11 -11 -11 -11 -11 -11 -11 -11 -12 -12 -12 -12 -13 -14 -14 -13 -13 -12 -12 -12 -13 -12 -12 -12 -12
-14 -14 -14 -14 -15 -16 -15 -14 -14 -13 -13 -12 -12 -12 -12 -12 -12 -12 -12 -12 -11 -11 -12 -12 -11 -11 -12 -12 -12 -11 -11 -12 -12 -12 -12 -12 -14 -15 -15 -14 -13 -12 -12 -13 -13 -12 -12 -12 -12
-14 -15 -15 -15 -16 -15 -15 -14 -13 -13 -13 -13 -13 -13 -12 -12 -12 -12 -12 -12 -11 -11 -11 -11 -11 -11 -11 -12 -11 -11 -12 -12 -11 -11 -12 -14 -15 -15 -15 -14 -13 -13 -13 -13 -13 -13 -12 -12 -12
-15 -15 -15 -16 -15 -15 -15 -14 -13 -13 -13 -13 -13 -12 -12 -12 -11 -12 -11 -11 -12 -12 -11 -11 -11 -11 -11 -12 -11 -11 -12 -12 -11 -12 -13 -15 -15 -15 -14 -13 -13 -13 -13 -13 -13 -13 -12 -12 -12
-16 -16 -16 -15 -16 -16 -15 -15 -14 -13 -13 -13 -13 -13 -12 -12 -12 -11 -10 -11 -11 -11 -11 -10 -11 -11 -10 -10 -11 -11 -11 -11 -12 -13 -16 -15 -15 -14 -14 -14 -13 -13 -13 -13 -13 -13 -13 -13 -14
-16 -16 -16 -16 -16 -16 -15 -15 -15 -14 -13 -13 -13 -13 -13 -12 -12 -12 -11 -11 -11 -11 -12 -10 -11 -10 -11 -11 -11 -11 -12 -13 -16 -16 -15 -15 -14 -14 -14 -13 -13 -13 -13 -13 -13 -14 -14 -14 -14
-16 -16 -16 -17 -16 -16 -16 -15 -14 -13 -13 -13 -13 -12 -13 -13 -12 -12 -12 -11 -11 -11 -11 -11 -11 -11 -11 -11 -12 -13 -12 -15 -17 -16 -15 -15 -14 -14 -14 -13 -13 -13 -13 -13 -14 -14 -14 -14 -14
-17 -16 -17 -17 -17 -16 -16 -15 -13 -13 -13 -13 -13 -12 -13 -12 -12 -12 -12 -12 -12 -12 -11 -11 -12 -12 -12 -12 -13 -12 -15 -16 -15 -15 -15 -14 -14 -14 -13 -13 -14 -14 -14 -13 -14 -14 -14 -14 -14
-17 -16 -17 -17 -16 -16 -15 -14 -13 -13 -13 -13 -13 -13 -12 -13 -13 -12 -13 -12 -12 -12 -12 -11 -11 -12 -12 -12 -13 -17 -16 -15 -16 -15 -15 -14 -14 -14 -14 -14 -15 -15 -14 -14 -14 -14 -14 -14 -14
-17 -17 -17 -17 -16 -16 -14 -13 -13 -13 -13 -13 -13 -13 -13 -12 -12 -12 -13 -12 -12 -12 -12 -12 -13 -14 -15 -15 -16 -16 -16 -15 -15 -15 -15 -14 -14 -14 -14 -14 -14 -14 -14 -14 -14 -14 -14 -14 -14
-17 -17 -17 -16 -16 -15 -14 -14 -14 -14 -13 -13 -13 -13 -13 -12 -13 -13 -13 -12 -12 -13 -13 -13 -15 -16 -16 -16 -16 -16 -16 -15 -15 -15 -15 -14 -14 -14 -15 -15 -14 -14 -14 -14 -14 -14 -14 -14 -15
-17 -17 -16 -16 -15 -14 -14 -15 -15 -14 -14 -13 -14 -13 -13 -13 -12 -13 -14 -15 -14 -14 -14 -14 -15 -15 -16 -15 -15 -14 -14 -14 -15 -15 -15 -15 -14 -14 -14 -14 -14 -14 -15 -15 -15 -15 -15 -15 -15
-17 -17 -16 -16 -15 -15 -15 -15 -16 -15 -15 -15 -15 -15 -15 -15 -14 -14 -15 -15 -14 -15 -14 -15 -15 -14 -14 -14 -14 -15 -15 -15 -15 -15 -15 -15 -15 -14 -14 -14 -15 -15 -15 -15 -15 -15 -15 -16 -16
-17 -17 -16 -16 -15 -15 -15 -16 -16 -15 -15 -15 -15 -15 -15 -14 -14 -14 -15 -14 -14 -14 -14 -14 -14 -14 -14 -15 -15 -15 -15 -15 -15 -15 -15 -15 -15 -15 -15 -15 -15 -15 -15 -15 -15 -15 -16 -16 -16
-17 -16 -16 -16 -15 -16 -16 -16 -16 -15 -15 -15 -15 -15 -15 -15 -14 -14 -14 -15 -14 -14 -14 -15 -15 -14 -14 -15 -15 -15 -16 -16 -15 -15 -15 -15 -14 -14 -15 -15 -15 -15 -15 -16 -16 -16 -16 -17 -17
-16 -16 -16 -16 -15 -16 -16 -16 -16 -16 -16 -16 -15 -15 -15 -15 -14 -14 -14 -14 -14 -14 -15 -15 -15 -15 -16 -16 -16 -16 -16 -15 -15 -15 -14 -14 -15 -15 -15 -15 -15 -16 -16 -16 -16 -17 -17 -17 -18
-16 -16 -16 -16 -16 -15 -16 -16 -16 -16 -16 -16 -16 -16 -15 -15 -15 -15 -15 -15 -15 -15 -15 -15 -15 -15 -15 -16 -16 -15 -15 -15 -15 -15 -15 -15 -15 -15 -15 -16 -16 -16 -16 -16 -17 -17 -18 -18 -18
-16 -16 -16 -16 -16 -16 -16 -16 -15 -15 -16 -15 -15 -15 -15 -15 -15 -15 -15 -15 -15 -15 -15 -15 -15 -15 -16 -16 -15 -15 -15 -15 -15 -15 -15 -15 -15 -15 -16 -16 -16 -16 -17 -17 -18 -18 -19 -19 -19
-16 -16 -16 -16 -16 -16 -16 -16 -16 -15 -15 -15 -15 -15 -15 -15 -15 -15 -16 -16 -16 -16 -16 -16 -16 -16 -16 -16 -15 -15 -15 -15 -15 -15 -15 -15 -16 -16 -16 -16 -17 -17 -17 -18 -18 -19 -19 -19 -19
-16 -16 -16 -16 -16 -17 -16 -15 -16 -16 -15 -15 -15 -15 -15 -15 -15 -15 -15 -16 -16 -16 -16 -16 -16 -16 -16 -16 -15 -15 -16 -16 -15 -15 -16 -16 -16 -16 -16 -17 -17 -17 -18 -18 -19 -19 -19 -19 -19
-16 -16 -16 -16 -16 -17 -16 -16 -15 -14 -14 -15 -14 -15 -15 -15 -15 -15 -16 -16 -16 -16 -16 -16 -16 -15 -16 -16 -15 -16 -16 -15 -15 -15 -16 -16 -16 -16 -17 -17 -17 -18 -18 -18 -19 -19 -19 -19 -19
-16 -15 -16 -16 -16 -16 -16 -16 -16 -15 -15 -14 -15 -14 -14 -15 -15 -15 -16 -16 -16 -15 -15 -15 -15 -16 -16 -15 -16 -16 -16 -15 -16 -16 -16 -16 -16 -16 -17 -17 -18 -18 -19 -19 -19 -19 -19 -19 -19
-15 -15 -15 -16 -16 -15 -16 -15 -15 -16 -15 -14 -15 -14 -14 -14 -15 -15 -15 -15 -15 -15 -15 -15 -15 -16 -16 -16 -15 -16 -16 -16 -16 -16 -16 -16 -17 -17 -18 -18 -18 -19 -19 -19 -19 -19 -19 -20 -20
-16 -15 -15 -15 -15 -15 -16 -15 -15 -15 -16 -15 -15 -15 -15 -15 -15 -14 -15 -15 -15 -15 -15 -15 -16 -16 -15 -15 -16 -16 -16 -16 -16 -17 -17 -17 -17 -18 -18 -18 -19 -20 -19 -19 -19 -19 -20 -19 -19
-16 -16 -16 -16 -15 -15 -16 -16 -15 -15 -16 -15 -15 -15 -15 -15 -15 -15 -15 -15 -15 -15 -15 -16 -16 -16 -16 -16 -16 -16 -16 -16 -16 -16 -17 -17 -17 -18 -19 -19 -19 -19 -19 -19 -19 -19 -19 -20 -20
-16 -16 -16 -16 -16 -16 -16 -16 -16 -16 -15 -15 -15 -15 -15 -15 -15 -15 -15 -15 -15 -15 -15 -16 -16 -16 -16 -16 -16 -16 -16 -16 -16 -16 -17 -17 -18 -19 -19 -19 -19 -19 -20 -20 -20 -20 -20 -21 -22
-16 -16 -16 -16 -17 -16 -16 -16 -16 -15 -15 -15 -15 -15 -15 -15 -15 -15 -15 -15 -15 -16 -16 -16 -16 -16 -16 -16 -16 -16 -16 -17 -17 -17 -17 -18 -18 -19 -19 -19 -19 -20 -20 -20 -20 -20 -21 -21 -22
-16 -16 -16 -16 -16 -16 -16 -15 -16 -15 -15 -15 -15 -15 -16 -16 -16 -15 -15 -15 -16 -16 -16 -16 -16 -16 -16 -16 -16 -16 -17 -17 -17 -17 -18 -18 -19 -19 -19 -19 -19 -20 -20 -21 -21 -21 -22 -22 -23

GFSSGP_500_temp_036.txt.gz
Temp
-14 -13 -13 -13 -13 -12 -12 -13 -14 -14 -13 -12 -13 -13 -13 -12 -11 -11 -11 -11 -12 -11 -11 -11 -11 -11 -11 -12 -11 -12 -11 -12 -11 -11 -11 -11 -11 -12 -12 -12 -12 -12 -12 -12 -12 -12 -12 -12 -12
-14 -14 -13 -13 -13 -13 -13 -15 -15 -14 -13 -13 -13 -13 -13 -12 -12 -12 -11 -11 -11 -11 -11 -12 -12 -12 -12 -12 -12 -12 -11 -12 -12 -11 -11 -11 -11 -12 -12 -12 -13 -13 -12 -12 -12 -12 -12 -12 -12
-15 -14 -14 -14 -14 -14 -15 -15 -15 -14 -13 -13 -13 -13 -13 -13 -12 -12 -11 -11 -11 -12 -12 -12 -12 -12 -12 -12 -12 -11 -11 -12 -12 -11 -12 -12 -12 -12 -12 -13 -13 -13 -13 -13 -13 -13 -12 -12 -12
-15 -15 -14 -14 -15 -15 -15 -15 -15 -14 -13 -13 -13 -13 -13 -12 -13 -12 -12 -11 -11 -12 -12 -12 -12 -12 -12 -12 -12 -12 -12 -12 -12 -12 -12 -12 -12 -13 -13 -14 -14 -13 -13 -13 -13 -13 -13 -12 -12
-15 -15 -15 -15 -15 -16 -15 -15 -15 -14 -13 -13 -13 -13 -13 -13 -12 -12 -11 -12 -12 -12 -12 -12 -11 -11 -11 -11 -12 -12 -12 -12 -12 -12 -12 -12 -13 -14 -15 -15 -15 -14 -13 -13 -13 -13 -12 -12 -12
-16 -16 -16 -15 -15 -16 -15 -15 -15 -14 -14 -14 -14 -13 -13 -13 -13 -12 -12 -12 -12 -12 -11 -12 -11 -11 -11 -11 -12 -12 -12 -12 -12 -12 -12 -13 -13 -15 -16 -15 -14 -14 -14 -13 -13 -13 -13 -12 -12
-16 -16 -16 -16 -16 -16 -16 -15 -16 -15 -15 -14 -14 -13 -13 -13 -13 -13 -12 -12 -12 -12 -12 -12 -11 -11 -11 -11 -12 -12 -12 -12 -12 -13 -13 -14 -15 -16 -15 -15 -14 -14 -14 -13 -13 -13 -13 -12 -12
-16 -17 -17 -17 -17 -17 -16 -16 -16 -16 -15 -15 -14 -13 -13 -13 -13 -12 -12 -12 -12 -12 -12 -12 -10 -11 -12 -11 -11 -11 -11 -11 -13 -13 -13 -15 -16 -15 -15 -14 -14 -14 -14 -13 -13 -13 -13 -13 -13
-16 -17 -17 -17 -17 -17 -16 -16 -15 -15 -15 -14 -14 -13 -13 -13 -12 -12 -12 -12 -12 -12 -10 -11 -11 -11 -11 -11 -11 -11 -12 -12 -13 -14 -16 -16 -16 -15 -15 -14 -14 -14 -14 -13 -13 -13 -13 -13 -14
-17 -17 -17 -17 -17 -17 -16 -16 -15 -15 -14 -14 -13 -13 -13 -12 -12 -12 -12 -11 -12 -12 -12 -11 -11 -11 -12 -11 -11 -12 -13 -13 -14 -15 -17 -16 -15 -15 -14 -14 -14 -14 -14 -14 -14 -14 -14 -14 -14
-17 -17 -18 -17 -17 -16 -16 -15 -15 -15 -14 -14 -13 -13 -13 -12 -12 -12 -12 -11 -12 -12 -12 -12 -12 -12 -12 -12 -13 -13 -14 -16 -16 -16 -15 -15 -15 -14 -14 -14 -15 -15 -15 -14 -14 -14 -14 -14 -14
-18 -17 -17 -17 -17 -16 -16 -15 -15 -14 -14 -14 -14 -13 -13 -13 -12 -13 -12 -12 -12 -12 -12 -12 -12 -12 -12 -13 -13 -15 -16 -16 -16 -16 -15 -15 -15 -15 -14 -15 -15 -15 -15 -14 -14 -14 -14 -14 -15
-18 -18 -17 -17 -17 -16 -15 -15 -15 -14 -13 -13 -13 -13 -13 -12 -12 -13 -12 -12 -12 -13 -13 -12 -12 -12 -13 -16 -16 -15 -15 -15 -15 -15 -15 -15 -15 -14 -14 -14 -15 -15 -14 -14 -14 -14 -15 -15 -15
-17 -17 -17 -17 -16 -16 -15 -15 -15 -15 -15 -14 -13 -13 -13 -13 -14 -14 -15 -14 -13 -14 -14 -15 -14 -14 -15 -15 -15 -15 -15 -15 -15 -15 -15 -15 -14 -14 -14 -14 -14 -15 -14 -15 -15 -15 -15 -15 -15
-17 -17 -17 -16 -16 -16 -16 -15 -16 -16 -16 -15 -14 -14 -15 -16 -15 -15 -14 -14 -14 -15 -15 -16 -16 -16 -16 -16 -16 -15 -16 -15 -15 -15 -14 -15 -14 -14 -14 -15 -15 -15 -15 -15 -15 -15 -15 -15 -15
-17 -17 -17 -16 -16 -15 -16 -15 -16 -16 -15 -15 -15 -15 -16 -15 -14 -14 -15 -15 -15 -15 -15 -15 -15 -15 -15 -15 -15 -14 -15 -15 -15 -15 -15 -15 -15 -15 -15 -15 -15 -15 -15 -15 -15 -15 -15 -16 -16
-17 -17 -17 -17 -16 -15 -16 -16 -16 -16 -15 -15 -15 -15 -15 -15 -15 -15 -15 -15 -15 -15 -15 -15 -15 -15 -15 -15 -15 -14 -15 -15 -15 -15 -15 -15 -15 -15 -15 -15 -15 -15 -15 -15 -15 -16 -16 -16 -16
-17 -16 -16 -16 -16 -16 -16 -16 -16 -16 -16 -15 -15 -15 -15 -15 -15 -15 -15 -15 -15 -15 -15 -15 -15 -15 -15 -15 -15 -14 -15 -14 -15 -15 -15 -15 -15 -15 -15 -15 -15 -15 -15 -16 -16 -16 -16 -17 -17
-17 -17 -16 -16 -16 -15 -16 -16 -15 -16 -16 -16 -15 -15 -15 -15 -15 -15 -15 -15 -15 -15 -15 -15 -15 -15 -15 -15 -15 -14 -15 -15 -15 -15 -15 -15 -15 -15 -15 -15 -15 -15 -16 -16 -16 -17 -17 -17 -18
-17 -17 -16 -16 -16 -16 -16 -16 -16 -15 -16 -16 -16 -16 -15 -15 -15 -15 -15 -15 -15 -15 -15 -15 -16 -15 -15 -15 -15 -15 -15 -15 -15 -15 -15 -15 -15 -15 -15 -15 -16 -16 -16 -17 -17 -18 -18 -19 -19
-16 -16 -17 -16 -16 -16 -16 -16 -16 -15 -16 -16 -16 -16 -16 -16 -15 -15 -15 -15 -15 -15 -15 -15 -15 -15 -15 -15 -15 -15 -15 -15 -15 -15 -15 -15 -15 -15 -16 -16 -16 -17 -17 -18 -18 -18 -19 -19 -20
-16 -16 -16 -16 -16 -16 -16 -16 -16 -16 -15 -15 -15 -16 -16 -16 -16 -15 -15 -16 -16 -16 -16 -15 -15 -16 -15 -15 -15 -15 -15 -15 -15 -15 -15 -16 -16 -16 -16 -16 -17 -17 -18 -18 -18 -19 -19 -19 -20
-16 -15 -15 -15 -15 -15 -15 -16 -16 -15 -15 -15 -15 -15 -16 -16 -16 -16 -16 -16 -16 -16 -15 -15 -15 -15 -16 -15 -15 -15 -16 -16 -16 -16 -16 -16 -16 -16 -16 -17 -17 -18 -18 -19 -19 -19 -19 -20 -20
-15 -15 -15 -15 -15 -15 -15 -15 -15 -15 -16 -15 -15 -15 -15 -15 -15 -15 -16 -16 -17 -17 -16 -16 -16 -16 -16 -15 -15 -16 -16 -16 -16 -16 -16 -16 -17 -17 -17 -18 -18 -19 -19 -19 -20 -20 -20 -19 -20
-15 -15 -15 -15 -16 -15 -15 -14 -15 -16 -15 -15 -15 -14 -15 -15 -15 -15 -15 -16 -16 -16 -16 -16 -15 -15 -16 -16 -16 -16 -16 -16 -16 -16 -16 -17 -17 -18 -18 -18 -19 -19 -19 -19 -19 -19 -19 -20 -19
-15 -15 -15 -15 -15 -15 -15 -15 -15 -15 -15 -15 -15 -15 -15 -15 -15 -15 -15 -15 -15 -15 -15 -16 -16 -15 -15 -16 -16 -16 -16 -16 -16 -17 -17 -17 -17 -18 -18 -18 -18 -18 -19 -19 -19 -19 -20 -20 -19
-15 -15 -16 -16 -15 -15 -15 -15 -15 -15 -16 -15 -15 -15 -15 -15 -15 -15 -15 -15 -15 -15 -15 -15 -16 -16 -16 -16 -16 -16 -16 -16 -16 -17 -17 -17 -17 -18 -18 -18 -18 -19 -19 -19 -20 -20 -20 -20 -20
-15 -16 -16 -15 -15 -15 -15 -15 -16 -16 -16 -16 -15 -16 -15 -15 -15 -15 -15 -15 -15 -15 -15 -15 -15 -15 -16 -16 -16 -16 -16 -16 -16 -17 -17 -17 -18 -18 -18 -18 -18 -19 -19 -20 -20 -20 -20 -20 -21
-16 -16 -16 -16 -15 -15 -15 -15 -16 -16 -16 -16 -16 -16 -16 -16 -15 -15 -16 -15 -15 -15 -16 -15 -15 -16 -16 -16 -16 -16 -16 -16 -16 -16 -17 -17 -17 -17 -18 -18 -19 -19 -20 -20 -20 -20 -20 -21 -22
-16 -16 -16 -16 -15 -16 -16 -15 -16 -16 -16 -16 -16 -16 -16 -16 -16 -16 -16 -16 -16 -16 -16 -16 -16 -16 -16 -16 -16 -16 -16 -16 -17 -16 -17 -17 -17 -18 -18 -19 -19 -20 -20 -20 -21 -21 -21 -22 -22

GFSSGP_500_temp_039.txt.gz
Temp
-15 -15 -14 -14 -14 -13 -13 -14 -15 -15 -13 -13 -13 -12 -13 -12 -12 -12 -12 -12 -12 -12 -12 -11 -11 -11 -11 -11 -12 -12 -12 -11 -11 -11 -10 -11 -11 -11 -11 -12 -12 -12 -12 -12 -12 -12 -13 -12 -12
-15 -15 -14 -14 -14 -13 -14 -15 -14 -14 -14 -13 -13 -13 -12 -13 -12 -12 -12 -12 -12 -11 -11 -12 -11 -11 -12 -12 -12 -12 -12 -11 -11 -11 -11 -11 -12 -12 -12 -13 -13 -13 -12 -13 -13 -13 -13 -12 -12
-15 -15 -15 -14 -14 -14 -15 -15 -15 -14 -14 -14 -14 -13 -13 -13 -13 -13 -12 -12 -12 -11 -11 -12 -12 -12 -12 -12 -11 -11 -11 -11 -11 -11 -12 -11 -12 -12 -12 -13 -13 -13 -13 -13 -13 -13 -13 -12 -12
-15 -15 -15 -15 -15 -15 -16 -15 -15 -15 -14 -14 -14 -13 -13 -13 -13 -13 -12 -13 -12 -12 -12 -12 -12 -12 -11 -11 -11 -11 -11 -11 -11 -12 -12 -12 -12 -12 -12 -13 -13 -14 -13 -13 -13 -13 -13 -13 -13
-16 -16 -16 -15 -16 -17 -17 -16 -15 -15 -15 -15 -14 -13 -13 -13 -13 -13 -12 -12 -12 -12 -12 -12 -11 -11 -11 -10 -10 -11 -11 -11 -12 -12 -12 -12 -12 -12 -13 -13 -14 -14 -14 -14 -13 -13 -13 -13 -13
-16 -16 -16 -16 -16 -17 -17 -16 -16 -15 -15 -14 -14 -14 -14 -13 -13 -13 -13 -12 -12 -12 -12 -12 -12 -11 -11 -11 -11 -11 -12 -12 -12 -11 -12 -12 -12 -13 -13 -15 -15 -15 -14 -14 -13 -13 -13 -13 -13
-16 -16 -17 -17 -17 -17 -17 -16 -16 -16 -15 -15 -15 -15 -14 -13 -13 -13 -13 -13 -13 -13 -13 -13 -12 -11 -11 -11 -11 -11 -12 -11 -11 -12 -12 -12 -13 -14 -15 -15 -15 -15 -14 -14 -14 -13 -13 -13 -13
-17 -17 -17 -18 -18 -17 -17 -16 -16 -16 -15 -15 -15 -14 -14 -14 -14 -13 -13 -13 -13 -12 -12 -12 -12 -12 -12 -11 -11 -12 -12 -10 -11 -12 -13 -13 -15 -16 -15 -15 -15 -14 -14 -14 -13 -13 -13 -13 -13
-17 -18 -18 -18 -18 -17 -17 -16 -16 -16 -15 -15 -15 -14 -14 -13 -13 -13 -13 -12 -12 -12 -12 -12 -12 -12 -12 -11 -11 -12 -12 -11 -11 -13 -14 -15 -17 -16 -16 -15 -14 -14 -14 -13 -14 -13 -14 -14 -14
-18 -18 -18 -18 -17 -17 -17 -16 -16 -15 -15 -15 -14 -14 -13 -13 -13 -12 -13 -13 -12 -12 -12 -13 -10 -10 -11 -11 -11 -11 -12 -12 -13 -14 -16 -16 -16 -16 -15 -15 -14 -14 -14 -14 -14 -14 -14 -14 -14
-18 -18 -18 -17 -17 -16 -16 -16 -16 -15 -15 -14 -14 -13 -13 -13 -12 -12 -13 -13 -12 -12 -12 -12 -13 -11 -11 -11 -12 -12 -12 -13 -14 -15 -16 -16 -16 -15 -15 -14 -14 -14 -14 -14 -14 -14 -14 -14 -14
-18 -18 -17 -17 -17 -16 -16 -15 -15 -15 -14 -14 -14 -13 -13 -13 -13 -13 -13 -13 -12 -12 -12 -12 -13 -12 -12 -12 -12 -12 -13 -15 -16 -16 -16 -16 -15 -15 -14 -14 -14 -15 -14 -15 -15 -14 -14 -14 -14
-18 -18 -17 -17 -16 -16 -16 -16 -15 -15 -14 -13 -13 -13 -13 -13 -13 -13 -13 -13 -12 -12 -12 -12 -12 -12 -12 -12 -12 -14 -15 -16 -15 -15 -16 -16 -16 -15 -15 -14 -14 -15 -15 -14 -14 -14 -14 -15 -15
-18 -17 -17 -16 -16 -16 -16 -15 -15 -15 -15 -15 -13 -13 -13 -13 -13 -13 -12 -13 -13 -13 -13 -13 -13 -12 -12 -14 -14 -15 -15 -15 -15 -15 -15 -15 -15 -15 -15 -15 -15 -14 -14 -14 -14 -15 -15 -15 -15
-17 -17 -17 -17 -16 -16 -16 -16 -14 -15 -16 -15 -14 -15 -15 -15 -14 -14 -14 -14 -14 -14 -14 -14 -14 -14 -15 -15 -14 -15 -15 -15 -15 -15 -15 -15 -15 -14 -15 -14 -14 -14 -14 -15 -15 -15 -15 -15 -15
-17 -17 -17 -17 -16 -16 -16 -15 -16 -17 -16 -15 -15 -16 -16 -16 -16 -14 -14 -14 -14 -15 -16 -15 -15 -15 -15 -15 -15 -15 -15 -15 -15 -15 -15 -15 -15 -14 -14 -14 -15 -15 -15 -15 -15 -15 -15 -15 -16
-17 -18 -17 -16 -17 -16 -16 -16 -16 -16 -15 -15 -15 -16 -15 -15 -15 -14 -14 -14 -15 -15 -15 -16 -15 -16 -16 -16 -16 -15 -15 -15 -15 -15 -15 -15 -15 -14 -14 -15 -15 -15 -15 -15 -15 -16 -16 -16 -16
-17 -17 -17 -17 -16 -16 -16 -16 -16 -16 -15 -15 -15 -15 -15 -15 -15 -15 -15 -15 -16 -16 -15 -15 -15 -15 -15 -15 -15 -15 -15 -15 -15 -15 -15 -15 -15 -15 -15 -15 -15 -15 -15 -15 -16 -16 -16 -16 -16
-17 -17 -17 -17 -16 -16 -16 -16 -17 -16 -16 -16 -16 -15 -15 -15 -15 -16 -16 -16 -16 -16 -15 -15 -15 -15 -15 -15 -15 -15 -15 -15 -15 -15 -15 -15 -15 -15 -15 -15 -15 -15 -16 -16 -16 -16 -16 -16 -16
-17 -17 -17 -17 -16 -17 -16 -17 -17 -16 -16 -16 -16 -16 -16 -16 -16 -16 -16 -16 -16 -16 -15 -15 -15 -16 -16 -15 -15 -15 -15 -15 -15 -15 -15 -15 -15 -15 -15 -15 -15 -16 -16 -16 -17 -17 -17 -17 -17
-16 -17 -17 -16 -16 -16 -16 -16 -16 -16 -16 -16 -17 -16 -16 -16 -16 -16 -16 -16 -16 -16 -16 -16 -16 -15 -16 -16 -16 -16 -15 -15 -15 -15 -15 -15 -15 -15 -16 -16 -16 -16 -17 -17 -17 -17 -17 -17 -18
-16 -15 -16 -16 -16 -16 -16 -16 -16 -16 -16 -16 -16 -17 -16 -16 -16 -16 -15 -15 -16 -16 -16 -16 -16 -16 -16 -16 -16 -15 -15 -15 -15 -15 -15 -15 -15 -15 -16 -16 -16 -17 -17 -17 -17 -18 -18 -19 -19
-16 -15 -15 -16 -16 -16 -16 -16 -15 -15 -16 -16 -16 -16 -16 -16 -16 -16 -16 -16 -16 -15 -15 -15 -15 -16 -16 -16 -16 -16 -15 -15 -15 -15 -15 -15 -15 -15 -15 -16 -16 -16 -17 -17 -18 -18 -19 -19 -18
-15 -15 -15 -15 -15 -15 -15 -15 -15 -16 -16 -16 -16 -16 -16 -16 -16 -16 -16 -16 -16 -15 -15 -15 -15 -15 -16 -16 -15 -16 -16 -15 -15 -15 -16 -16 -16 -16 -16 -17 -17 -17 -17 -18 -18 -18 -18 -19 -19
-15 -15 -15 -15 -15 -15 -15 -15 -15 -16 -15 -15 -15 -16 -16 -16 -15 -15 -15 -16 -16 -16 -16 -15 -16 -15 -15 -15 -15 -16 -16 -16 -16 -16 -16 -16 -16 -17 -17 -17 -17 -17 -18 -18 -18 -19 -19 -19 -19
-16 -15 -15 -15 -15 -15 -15 -15 -16 -16 -15 -15 -15 -15 -15 -16 -16 -16 -16 -16 -16 -16 -16 -15 -16 -16 -15 -14 -15 -16 -16 -16 -16 -15 -16 -16 -16 -17 -17 -17 -17 -18 -18 -18 -19 -20 -20 -20 -20
-16 -15 -15 -15 -15 -15 -15 -15 -15 -15 -16 -15 -15 -15 -15 -15 -15 -15 -15 -15 -15 -16 -16 -16 -16 -16 -15 -16 -16 -16 -16 -16 -15 -16 -16 -16 -16 -17 -17 -17 -17 -18 -18 -19 -19 -20 -19 -20 -20
-16 -16 -16 -15 -15 -15 -14 -15 -16 -16 -16 -16 -16 -16 -16 -16 -16 -15 -15 -16 -15 -16 -16 -16 -16 -16 -16 -16 -16 -16 -16 -16 -16 -16 -16 -17 -17 -17 -17 -17 -18 -19 -19 -19 -20 -20 -21 -21 -20
-16 -16 -16 -16 -15 -15 -14 -15 -15 -16 -16 -16 -16 -16 -16 -16 -16 -16 -15 -15 -16 -16 -16 -16 -16 -16 -16 -16 -16 -16 -16 -16 -16 -16 -16 -17 -17 -17 -17 -18 -18 -19 -19 -20 -20 -21 -20 -20 -21
-16 -16 -16 -16 -16 -16 -15 -14 -15 -16 -16 -16 -16 -16 -16 -16 -16 -16 -16 -16 -16 -16 -16 -16 -16 -16 -16 -16 -16 -16 -16 -16 -16 -17 -16 -17 -17 -17 -18 -18 -18 -19 -19 -20 -21 -21 -21 -21 -21

GFSSGP_500_temp_042.txt.gz
Temp
-15 -15 -15 -15 -15 -14 -15 -15 -15 -14 -14 -14 -13 -13 -14 -14 -13 -12 -12 -12 -12 -11 -11 -11 -11 -10 -10 -11 -10 -11 -11 -11 -10 -10 -10 -10 -11 -11 -11 -11 -11 -11 -12 -12 -12 -12 -12 -12 -12
-15 -15 -15 -15 -15 -16 -16 -16 -15 -15 -14 -14 -14 -13 -13 -13 -13 -12 -12 -12 -12 -12 -11 -11 -11 -11 -11 -11 -11 -11 -11 -10 -11 -10 -10 -10 -11 -11 -11 -11 -12 -12 -12 -12 -12 -12 -12 -12 -12
-15 -15 -15 -15 -15 -15 -16 -16 -15 -15 -15 -15 -14 -13 -13 -13 -13 -13 -13 -11 -12 -12 -11 -11 -11 -12 -11 -11 -11 -11 -11 -10 -10 -11 -11 -12 -12 -12 -12 -12 -12 -12 -12 -12 -12 -12 -13 -13 -13
-15 -15 -15 -15 -15 -15 -16 -16 -16 -16 -15 -15 -14 -14 -14 -14 -13 -13 -13 -13 -12 -12 -12 -12 -12 -12 -12 -12 -11 -11 -10 -10 -10 -11 -12 -12 -12 -12 -12 -12 -12 -12 -13 -13 -13 -13 -13 -13 -13
-16 -16 -16 -15 -16 -15 -15 -15 -16 -16 -16 -15 -15 -14 -14 -14 -13 -14 -13 -12 -12 -12 -12 -12 -12 -12 -11 -11 -10 -10 -10 -10 -11 -11 -12 -12 -12 -12 -13 -12 -13 -13 -13 -14 -13 -14 -13 -13 -13
-16 -16 -16 -17 -16 -16 -16 -16 -16 -16 -16 -15 -15 -14 -14 -14 -14 -13 -13 -12 -12 -12 -12 -12 -12 -11 -11 -10 -11 -11 -11 -11 -12 -12 -12 -12 -12 -12 -13 -13 -13 -14 -14 -14 -14 -14 -13 -13 -13
-16 -16 -17 -16 -16 -17 -17 -17 -17 -17 -16 -15 -15 -14 -14 -14 -14 -13 -13 -13 -13 -12 -12 -12 -12 -12 -11 -11 -11 -11 -12 -12 -12 -12 -12 -12 -12 -13 -13 -14 -15 -15 -15 -15 -14 -14 -13 -13 -13
-16 -17 -17 -17 -18 -16 -17 -17 -16 -16 -16 -16 -15 -14 -14 -14 -13 -13 -13 -13 -13 -13 -10 -12 -12 -12 -11 -11 -11 -11 -12 -11 -12 -12 -12 -12 -13 -13 -13 -14 -15 -15 -14 -14 -14 -13 -13 -14 -13
-17 -17 -18 -18 -18 -17 -17 -16 -16 -16 -16 -15 -15 -14 -14 -14 -13 -14 -13 -13 -13 -13 -13 -12 -11 -12 -11 -11 -11 -11 -12 -11 -12 -11 -12 -12 -13 -14 -14 -15 -15 -15 -14 -14 -14 -14 -14 -14 -13
-17 -18 -18 -18 -17 -17 -17 -16 -16 -16 -16 -15 -15 -14 -14 -14 -14 -13 -13 -13 -12 -13 -13 -13 -12 -11 -11 -11 -10 -11 -11 -11 -11 -11 -12 -13 -14 -15 -15 -15 -15 -14 -14 -14 -14 -14 -14 -14 -14
-17 -17 -17 -17 -17 -17 -16 -16 -16 -15 -15 -15 -14 -14 -14 -14 -13 -13 -12 -12 -12 -13 -13 -12 -12 -11 -11 -11 -11 -11 -12 -11 -12 -13 -12 -13 -14 -15 -15 -15 -15 -14 -14 -14 -15 -15 -14 -14 -14
-18 -17 -17 -17 -17 -16 -16 -16 -16 -15 -14 -14 -14 -14 -14 -13 -13 -13 -12 -12 -13 -13 -13 -12 -12 -12 -12 -13 -12 -11 -12 -13 -13 -13 -13 -15 -15 -15 -15 -15 -14 -14 -14 -14 -14 -15 -14 -14 -15
-18 -17 -17 -17 -16 -16 -16 -16 -15 -15 -15 -14 -14 -14 -14 -13 -13 -13 -13 -13 -12 -12 -12 -12 -12 -13 -13 -12 -12 -12 -12 -13 -14 -14 -15 -15 -15 -15 -15 -15 -14 -14 -14 -14 -14 -15 -15 -15 -15
-18 -17 -17 -17 -16 -16 -16 -16 -15 -16 -16 -15 -14 -14 -14 -14 -14 -14 -14 -14 -13 -12 -12 -12 -12 -13 -12 -12 -12 -12 -13 -14 -15 -15 -15 -16 -16 -15 -15 -14 -14 -14 -14 -15 -15 -15 -15 -15 -15
-18 -17 -17 -16 -16 -16 -16 -16 -16 -16 -16 -16 -15 -14 -14 -14 -14 -14 -14 -13 -13 -12 -12 -13 -13 -13 -13 -13 -13 -13 -14 -15 -15 -15 -15 -15 -15 -15 -14 -15 -15 -15 -15 -14 -14 -15 -15 -15 -15
-18 -17 -17 -17 -16 -16 -16 -16 -16 -16 -16 -16 -15 -16 -15 -15 -15 -14 -14 -14 -14 -13 -13 -13 -14 -14 -14 -15 -14 -15 -15 -15 -15 -15 -15 -15 -15 -15 -15 -15 -15 -14 -14 -15 -15 -15 -15 -15 -15
-17 -17 -17 -17 -17 -17 -16 -16 -16 -16 -16 -16 -15 -16 -17 -18 -17 -15 -15 -14 -14 -14 -14 -14 -14 -14 -14 -15 -15 -15 -15 -15 -15 -15 -15 -15 -15 -15 -15 -15 -14 -15 -15 -15 -15 -15 -15 -15 -15
-17 -17 -17 -17 -16 -16 -17 -16 -16 -16 -16 -16 -16 -16 -16 -16 -16 -15 -15 -15 -15 -15 -15 -15 -14 -15 -15 -15 -16 -16 -15 -15 -16 -16 -16 -15 -15 -15 -15 -15 -15 -15 -15 -15 -15 -15 -15 -15 -15
-16 -17 -17 -17 -16 -16 -17 -17 -17 -16 -16 -16 -16 -16 -16 -16 -16 -16 -16 -16 -16 -16 -15 -16 -15 -15 -15 -15 -15 -16 -16 -16 -16 -16 -16 -16 -16 -15 -15 -15 -15 -15 -16 -16 -15 -15 -16 -15 -16
-17 -17 -17 -16 -16 -16 -17 -17 -17 -16 -16 -16 -16 -16 -16 -15 -15 -16 -16 -16 -15 -15 -15 -15 -16 -16 -16 -16 -16 -16 -16 -16 -16 -16 -16 -16 -15 -15 -15 -15 -15 -16 -16 -15 -15 -15 -15 -16 -17
-17 -17 -16 -16 -16 -16 -16 -16 -16 -16 -16 -16 -16 -16 -16 -16 -16 -16 -16 -15 -15 -16 -16 -16 -16 -16 -16 -16 -16 -16 -16 -16 -16 -16 -15 -15 -16 -16 -16 -16 -16 -16 -16 -15 -16 -15 -16 -16 -17
-16 -16 -16 -16 -16 -17 -16 -15 -16 -16 -16 -16 -16 -16 -16 -16 -16 -16 -16 -16 -16 -16 -16 -16 -16 -16 -16 -16 -16 -16 -16 -16 -16 -16 -16 -16 -16 -16 -16 -16 -16 -16 -16 -15 -16 -16 -16 -17 -18
-15 -16 -16 -16 -16 -16 -16 -16 -16 -16 -16 -16 -16 -16 -16 -16 -16 -15 -16 -16 -16 -16 -16 -16 -16 -16 -16 -16 -16 -16 -16 -16 -16 -16 -16 -16 -16 -16 -16 -16 -16 -16 -15 -16 -16 -17 -17 -17 -18
-15 -15 -16 -16 -16 -16 -16 -16 -16 -16 -16 -16 -16 -16 -16 -15 -16 -16 -16 -16 -16 -16 -16 -16 -15 -15 -16 -16 -16 -16 -16 -15 -16 -16 -16 -16 -16 -16 -16 -16 -16 -16 -16 -17 -17 -17 -17 -18 -18
-15 -15 -17 -17 -16 -16 -15 -15 -16 -16 -16 -16 -16 -16 -16 -15 -16 -15 -15 -15 -16 -16 -15 -15 -15 -15 -16 -15 -15 -16 -15 -15 -16 -15 -16 -16 -16 -16 -16 -16 -16 -16 -17 -17 -17 -17 -18 -18 -18
-15 -15 -17 -17 -16 -17 -15 -15 -16 -15 -15 -15 -15 -15 -16 -16 -16 -16 -16 -16 -16 -15 -15 -16 -16 -16 -16 -15 -15 -16 -15 -15 -15 -16 -16 -16 -16 -16 -16 -16 -16 -16 -16 -17 -17 -18 -18 -18 -19
-15 -15 -15 -16 -16 -16 -16 -15 -15 -15 -15 -15 -15 -15 -15 -16 -16 -16 -16 -16 -16 -16 -16 -16 -16 -16 -16 -16 -16 -16 -16 -16 -16 -16 -16 -16 -16 -16 -16 -16 -17 -17 -17 -17 -18 -18 -18 -19 -19
-15 -15 -15 -15 -16 -16 -16 -15 -17 -15 -15 -15 -15 -15 -16 -16 -16 -16 -16 -16 -16 -16 -16 -16 -16 -16 -16 -16 -16 -17 -16 -16 -16 -16 -16 -16 -16 -16 -17 -17 -17 -17 -17 -17 -18 -18 -19 -20 -20
-15 -15 -15 -16 -15 -16 -16 -16 -15 -16 -16 -16 -16 -16 -16 -16 -16 -16 -16 -16 -16 -16 -16 -16 -16 -16 -16 -16 -16 -16 -16 -16 -16 -16 -16 -16 -16 -17 -17 -17 -17 -17 -18 -18 -18 -19 -20 -20 -20
-15 -16 -16 -16 -16 -16 -16 -15 -16 -15 -16 -16 -16 -16 -16 -16 -16 -16 -16 -16 -16 -16 -16 -16 -16 -16 -16 -16 -16 -16 -17 -17 -16 -16 -16 -16 -16 -17 -17 -17 -17 -18 -18 -19 -19 -20 -20 -21 -21

GFSSGP_500_temp_045.txt.gz
Temp
-13 -15 -15 -15 -15 -15 -15 -15 -14 -15 -14 -14 -13 -14 -12 -12 -13 -12 -10 -12 -12 -11 -12 -11 -11 -11 -11 -11 -10 -10 -10 -10 -10 -10 -10 -10 -10 -10 -10 -10 -11 -10 -10 -10 -11 -11 -12 -12 -12
-14 -15 -15 -15 -15 -16 -15 -15 -15 -15 -15 -13 -15 -13 -13 -14 -13 -13 -13 -13 -11 -11 -12 -12 -11 -11 -11 -11 -10 -10 -10 -11 -11 -10 -10 -10 -10 -11 -10 -11 -11 -11 -11 -11 -11 -12 -12 -12 -12
-15 -15 -15 -16 -16 -16 -15 -15 -15 -15 -14 -14 -14 -14 -14 -13 -13 -13 -13 -13 -12 -12 -11 -11 -11 -11 -11 -11 -11 -11 -11 -11 -11 -10 -11 -11 -11 -11 -11 -11 -11 -12 -11 -11 -12 -12 -13 -12 -12
-15 -15 -15 -15 -16 -16 -16 -16 -16 -15 -16 -15 -15 -16 -14 -13 -13 -13 -12 -12 -12 -12 -11 -11 -11 -12 -12 -11 -11 -11 -11 -11 -10 -10 -11 -12 -11 -11 -11 -11 -12 -12 -12 -12 -12 -13 -13 -13 -13
-16 -16 -16 -17 -16 -16 -17 -16 -16 -14 -15 -16 -15 -15 -13 -14 -13 -13 -13 -13 -12 -12 -12 -12 -12 -12 -12 -12 -12 -11 -11 -11 -10 -11 -11 -12 -12 -12 -12 -12 -12 -12 -12 -13 -13 -13 -14 -13 -13
-16 -16 -17 -16 -16 -17 -17 -16 -15 -16 -17 -16 -15 -14 -13 -13 -14 -14 -13 -13 -13 -12 -11 -12 -13 -12 -12 -12 -11 -11 -10 -11 -11 -11 -12 -12 -12 -12 -12 -12 -12 -12 -13 -14 -14 -14 -14 -13 -13
-15 -17 -17 -16 -16 -17 -15 -15 -16 -17 -17 -14 -15 -14 -14 -14 -14 -14 -13 -13 -13 -13 -13 -12 -12 -12 -12 -11 -11 -11 -11 -11 -11 -12 -12 -12 -12 -12 -12 -12 -13 -13 -13 -14 -14 -14 -14 -14 -13
-15 -16 -17 -16 -16 -16 -16 -16 -16 -16 -14 -13 -15 -15 -14 -13 -14 -14 -13 -13 -12 -13 -12 -13 -11 -12 -12 -12 -11 -11 -11 -11 -11 -11 -12 -12 -12 -12 -12 -12 -13 -14 -14 -15 -15 -14 -14 -14 -13
-16 -16 -16 -16 -16 -16 -17 -16 -16 -16 -15 -15 -15 -15 -14 -14 -14 -14 -13 -13 -13 -13 -13 -13 -12 -11 -12 -11 -11 -12 -11 -11 -11 -11 -11 -12 -12 -13 -12 -13 -14 -15 -15 -14 -14 -14 -14 -14 -13
-16 -16 -16 -17 -17 -17 -17 -17 -16 -15 -16 -16 -15 -14 -14 -14 -14 -14 -13 -13 -13 -13 -13 -12 -13 -12 -12 -12 -11 -12 -11 -11 -11 -11 -11 -11 -13 -13 -13 -15 -15 -15 -15 -14 -14 -14 -14 -14 -14
-17 -16 -17 -17 -16 -16 -16 -16 -15 -16 -16 -12 -15 -15 -14 -14 -14 -14 -13 -13 -13 -13 -13 -12 -13 -13 -12 -12 -12 -11 -11 -11 -11 -11 -12 -12 -12 -14 -15 -15 -15 -15 -14 -14 -15 -15 -15 -15 -14
-16 -17 -17 -17 -16 -16 -16 -15 -15 -16 -16 -15 -15 -14 -14 -14 -14 -14 -13 -13 -13 -13 -13 -12 -13 -13 -12 -12 -13 -12 -12 -12 -12 -11 -12 -13 -13 -15 -15 -15 -15 -14 -14 -14 -14 -15 -15 -14 -14
-16 -17 -16 -16 -16 -16 -16 -15 -15 -14 -15 -14 -14 -14 -14 -14 -14 -13 -13 -13 -13 -12 -12 -12 -13 -13 -12 -12 -12 -12 -12 -12 -12 -13 -13 -14 -16 -16 -15 -15 -14 -14 -14 -14 -15 -15 -15 -14 -14
-16 -15 -16 -16 -15 -15 -15 -15 -15 -14 -15 -15 -14 -14 -14 -14 -14 -14 -13 -13 -13 -12 -12 -13 -13 -12 -12 -13 -12 -12 -12 -13 -13 -13 -14 -16 -16 -15 -14 -15 -15 -15 -15 -15 -15 -15 -15 -15 -15
-15 -16 -16 -16 -15 -15 -15 -14 -15 -15 -15 -16 -16 -14 -14 -13 -14 -13 -13 -14 -13 -12 -13 -13 -13 -12 -12 -12 -12 -12 -13 -13 -13 -14 -15 -16 -15 -15 -15 -15 -15 -15 -15 -15 -15 -15 -15 -14 -14
-16 -16 -15 -16 -15 -15 -14 -14 -15 -15 -15 -16 -16 -15 -15 -14 -14 -13 -14 -14 -13 -13 -12 -13 -13 -13 -13 -12 -13 -13 -13 -14 -14 -15 -16 -15 -15 -15 -15 -15 -15 -15 -15 -15 -15 -15 -14 -15 -15
-16 -16 -15 -15 -15 -15 -16 -14 -14 -15 -15 -15 -15 -16 -16 -17 -15 -14 -14 -14 -14 -14 -14 -14 -13 -13 -14 -15 -14 -14 -14 -15 -15 -15 -15 -15 -15 -15 -15 -16 -15 -15 -15 -15 -15 -15 -15 -15 -14
-16 -16 -15 -15 -14 -15 -15 -15 -15 -15 -15 -15 -15 -16 -16 -16 -16 -16 -16 -15 -14 -14 -15 -15 -15 -15 -15 -14 -15 -15 -15 -15 -15 -15 -15 -15 -15 -15 -15 -16 -15 -15 -15 -15 -15 -15 -15 -15 -15
-16 -16 -16 -15 -16 -15 -16 -16 -15 -15 -15 -16 -15 -15 -15 -16 -17 -16 -15 -15 -14 -14 -14 -14 -14 -15 -15 -14 -15 -15 -15 -15 -16 -15 -15 -16 -16 -16 -16 -16 -15 -15 -15 -15 -15 -15 -15 -15 -15
-16 -17 -16 -16 -15 -15 -15 -15 -16 -15 -16 -16 -15 -15 -15 -15 -15 -15 -15 -15 -15 -15 -14 -14 -14 -15 -15 -15 -15 -15 -15 -15 -15 -15 -16 -16 -16 -16 -16 -16 -15 -15 -15 -16 -15 -15 -15 -15 -15
-16 -16 -15 -16 -15 -15 -15 -15 -16 -16 -16 -16 -16 -15 -15 -15 -16 -16 -15 -15 -15 -15 -15 -15 -15 -15 -15 -15 -15 -15 -15 -15 -15 -16 -16 -16 -16 -16 -16 -16 -16 -16 -16 -16 -15 -15 -15 -15 -15
-17 -16 -16 -16 -15 -16 -15 -15 -15 -15 -15 -16 -16 -16 -16 -15 -15 -15 -15 -15 -15 -15 -15 -15 -15 -15 -15 -15 -15 -15 -15 -15 -15 -16 -16 -16 -16 -16 -16 -16 -16 -16 -16 -16 -16 -15 -15 -15 -16
-16 -15 -15 -16 -17 -16 -16 -15 -15 -15 -16 -16 -16 -16 -16 -15 -15 -15 -15 -15 -15 -15 -15 -15 -15 -15 -15 -15 -15 -15 -15 -15 -15 -15 -15 -16 -16 -16 -16 -16 -16 -16 -16 -16 -16 -15 -16 -16 -16
-14 -15 -15 -15 -16 -16 -15 -15 -14 -15 -16 -16 -16 -16 -15 -15 -15 -15 -15 -15 -15 -15 -15 -15 -15 -15 -16 -16 -16 -16 -16 -16 -16 -16 -16 -16 -16 -16 -16 -16 -16 -16 -16 -16 -16 -16 -16 -16 -16
-15 -14 -16 -16 -16 -15 -15 -15 -15 -15 -15 -15 -16 -17 -16 -15 -15 -15 -16 -16 -16 -16 -15 -15 -15 -15 -15 -15 -15 -16 -16 -16 -16 -14 -15 -16 -16 -16 -16 -16 -16 -16 -16 -16 -16 -16 -17 -16 -17
-15 -16 -16 -15 -15 -15 -15 -15 -15 -15 -15 -15 -15 -16 -16 -16 -15 -15 -16 -16 -16 -16 -16 -16 -16 -16 -16 -15 -15 -16 -16 -16 -15 -15 -14 -15 -16 -16 -16 -16 -16 -16 -16 -16 -17 -17 -17 -17 -17
-16 -15 -16 -15 -15 -15 -15 -15 -15 -15 -15 -15 -15 -15 -15 -15 -15 -15 -16 -16 -16 -16 -16 -16 -16 -16 -16 -15 -16 -16 -17 -16 -16 -16 -16 -16 -16 -16 -16 -16 -16 -16 -17 -17 -17 -17 -17 -18 -18
-16 -16 -15 -15 -16 -15 -15 -15 -15 -15 -15 -15 -15 -15 -15 -16 -16 -16 -16 -16 -16 -16 -16 -16 -16 -16 -15 -16 -16 -16 -16 -16 -16 -16 -16 -16 -16 -16 -16 -16 -16 -16 -16 -17 -17 -17 -18 -18 -18
-15 -15 -15 -16 -16 -16 -16 -15 -15 -16 -16 -15 -15 -15 -16 -16 -16 -16 -16 -16 -16 -16 -16 -16 -16 -16 -16 -16 -16 -16 -16 -16 -16 -16 -16 -16 -16 -16 -16 -16 -16 -16 -16 -17 -17 -17 -18 -18 -19
-15 -16 -16 -17 -16 -16 -16 -15 -16 -16 -15 -15 -15 -15 -16 -16 -16 -16 -16 -16 -16 -16 -16 -16 -16 -16 -16 -16 -16 -16 -16 -16 -16 -16 -16 -16 -16 -16 -16 -16 -16 -16 -17 -18 -18 -18 -18 -20 -19

GFSSGP_500_temp_048.txt.gz
Temp
-10 -10 -11 -14 -14 -15 -14 -14 -15 -14 -15 -14 -14 -13 -14 -12 -14 -12 -12 -12 -11 -10 -12 -12 -12 -12 -12 -11 -11 -10 -10 -10 -10 -10 -10 -10 -10 -10 -10 -10 -10 -10 -10 -10 -10 -11 -11 -11 -11
-10 -11 -13 -15 -15 -16 -15 -15 -14 -14 -15 -14 -13 -14 -13 -13 -13 -13 -13 -13 -12 -12 -12 -12 -12 -12 -12 -11 -11 -11 -11 -11 -11 -10 -10 -10 -10 -10 -10 -10 -10 -10 -11 -11 -11 -11 -11 -12 -12
-11 -13 -14 -15 -15 -16 -15 -15 -15 -15 -15 -13 -13 -13 -12 -13 -12 -13 -14 -14 -13 -12 -12 -11 -12 -12 -12 -11 -12 -12 -11 -11 -11 -11 -10 -10 -10 -10 -10 -10 -11 -11 -11 -11 -11 -11 -11 -12 -12
-12 -14 -15 -15 -15 -16 -15 -15 -16 -15 -14 -13 -13 -13 -13 -13 -12 -12 -13 -13 -13 -12 -13 -12 -11 -11 -11 -11 -12 -12 -12 -12 -12 -11 -11 -10 -10 -11 -11 -11 -11 -11 -12 -12 -12 -12 -12 -12 -13
-14 -15 -15 -16 -16 -16 -15 -15 -16 -14 -13 -13 -13 -13 -14 -12 -14 -13 -13 -13 -12 -13 -12 -12 -10 -9 -11 -12 -12 -12 -12 -12 -11 -11 -11 -11 -11 -11 -11 -12 -12 -12 -12 -12 -12 -12 -13 -13 -13
-14 -15 -16 -16 -16 -16 -15 -14 -14 -13 -14 -14 -13 -13 -12 -12 -14 -13 -13 -12 -13 -12 -12 -11 -12 -12 -12 -12 -12 -12 -12 -11 -11 -11 -11 -11 -11 -11 -12 -12 -12 -12 -12 -12 -12 -13 -13 -14 -14
-15 -16 -16 -16 -16 -16 -15 -15 -13 -14 -15 -14 -13 -13 -13 -14 -14 -14 -13 -13 -13 -12 -12 -12 -12 -12 -12 -13 -13 -12 -12 -12 -12 -12 -11 -11 -11 -12 -12 -12 -12 -12 -12 -13 -13 -14 -14 -14 -14
-15 -15 -16 -16 -16 -15 -15 -15 -14 -16 -14 -12 -14 -13 -12 -14 -13 -14 -13 -13 -13 -12 -12 -12 -12 -12 -11 -12 -12 -12 -12 -12 -12 -11 -11 -11 -12 -12 -12 -11 -12 -12 -13 -14 -14 -15 -14 -14 -14
-15 -15 -16 -15 -16 -15 -15 -16 -16 -14 -16 -14 -13 -12 -15 -15 -14 -13 -13 -13 -14 -13 -13 -12 -11 -12 -13 -12 -12 -12 -12 -12 -11 -11 -11 -11 -11 -12 -12 -12 -12 -12 -14 -15 -15 -14 -14 -14 -14
-16 -16 -15 -16 -16 -15 -14 -15 -14 -14 -14 -14 -13 -14 -15 -15 -14 -13 -14 -13 -13 -13 -13 -13 -13 -13 -13 -13 -12 -12 -11 -11 -11 -12 -11 -11 -11 -11 -12 -12 -13 -14 -15 -15 -14 -14 -14 -14 -14
-16 -16 -16 -16 -15 -14 -14 -14 -14 -15 -14 -14 -14 -14 -15 -14 -14 -14 -13 -13 -13 -14 -13 -13 -13 -13 -13 -13 -12 -12 -12 -11 -11 -12 -11 -11 -11 -12 -13 -13 -14 -15 -15 -15 -15 -15 -15 -15 -14
-16 -15 -15 -14 -14 -14 -14 -14 -14 -13 -14 -13 -14 -14 -14 -14 -14 -14 -14 -13 -13 -13 -13 -14 -13 -13 -12 -13 -12 -12 -12 -12 -12 -12 -12 -12 -12 -13 -13 -15 -15 -15 -15 -15 -15 -15 -15 -15 -15
-16 -15 -14 -14 -15 -15 -15 -15 -13 -14 -14 -14 -14 -13 -13 -14 -14 -13 -13 -13 -13 -13 -13 -13 -13 -12 -12 -12 -12 -12 -12 -12 -12 -12 -12 -13 -13 -13 -13 -16 -15 -15 -15 -15 -15 -14 -15 -15 -14
-16 -14 -14 -15 -15 -15 -14 -14 -14 -14 -14 -13 -14 -14 -14 -13 -13 -13 -13 -13 -13 -13 -13 -12 -13 -12 -12 -11 -13 -12 -12 -12 -12 -12 -13 -14 -13 -14 -15 -15 -15 -15 -15 -15 -15 -15 -14 -14 -14
-14 -14 -14 -15 -15 -16 -15 -14 -14 -13 -13 -14 -14 -14 -13 -13 -12 -13 -13 -13 -13 -13 -13 -13 -13 -12 -13 -12 -13 -12 -12 -12 -13 -13 -13 -14 -13 -15 -15 -15 -15 -15 -15 -15 -15 -15 -14 -14 -15
-14 -15 -15 -15 -15 -13 -14 -14 -15 -14 -15 -14 -14 -14 -15 -13 -12 -13 -14 -13 -13 -12 -13 -13 -13 -13 -13 -13 -13 -13 -12 -12 -14 -14 -13 -14 -15 -15 -15 -15 -15 -15 -14 -15 -15 -15 -15 -15 -15
-15 -15 -15 -15 -15 -14 -14 -14 -14 -14 -16 -15 -15 -15 -15 -14 -13 -14 -14 -14 -13 -13 -12 -13 -13 -13 -13 -13 -13 -13 -13 -14 -14 -14 -14 -14 -15 -15 -15 -15 -15 -15 -15 -15 -15 -15 -15 -15 -14
-15 -15 -15 -15 -14 -15 -15 -14 -15 -13 -16 -15 -15 -15 -15 -15 -15 -15 -16 -15 -15 -14 -14 -14 -14 -13 -13 -13 -14 -14 -14 -14 -14 -15 -15 -15 -15 -15 -15 -15 -15 -15 -15 -15 -15 -15 -15 -15 -15
-16 -16 -15 -15 -14 -14 -15 -15 -15 -15 -14 -15 -15 -15 -15 -15 -15 -15 -15 -15 -15 -14 -14 -14 -15 -15 -15 -14 -14 -14 -15 -15 -14 -14 -14 -15 -15 -15 -15 -15 -15 -15 -15 -15 -15 -15 -15 -15 -15
-15 -15 -16 -15 -15 -14 -15 -15 -15 -15 -14 -14 -14 -15 -15 -15 -15 -16 -15 -15 -15 -14 -14 -15 -15 -14 -14 -14 -14 -14 -14 -14 -14 -15 -15 -15 -15 -15 -15 -15 -15 -15 -15 -15 -15 -15 -16 -16 -16
-14 -16 -16 -15 -15 -14 -14 -15 -15 -15 -15 -14 -14 -14 -15 -15 -15 -15 -15 -15 -15 -15 -15 -15 -15 -15 -15 -14 -15 -15 -15 -15 -15 -15 -15 -15 -15 -15 -15 -15 -15 -15 -15 -16 -16 -16 -16 -16 -16
-15 -15 -16 -15 -15 -15 -15 -15 -14 -15 -14 -14 -14 -15 -15 -15 -15 -15 -15 -14 -14 -14 -14 -14 -14 -14 -14 -15 -15 -15 -15 -15 -15 -15 -15 -15 -16 -16 -16 -16 -16 -16 -16 -16 -16 -16 -16 -16 -15
-15 -15 -15 -15 -15 -16 -15 -14 -15 -14 -15 -14 -15 -15 -15 -15 -15 -15 -15 -14 -14 -14 -14 -15 -15 -15 -15 -15 -15 -15 -15 -15 -16 -16 -17 -16 -16 -16 -16 -16 -16 -15 -16 -16 -16 -16 -16 -16 -16
-15 -14 -15 -15 -15 -14 -15 -15 -14 -14 -14 -15 -15 -15 -15 -14 -15 -15 -15 -15 -15 -15 -15 -15 -15 -15 -15 -15 -15 -15 -15 -15 -16 -16 -16 -16 -15 -17 -16 -16 -16 -16 -16 -16 -16 -16 -16 -16 -16
-14 -14 -14 -15 -15 -14 -15 -14 -14 -14 -15 -15 -15 -16 -16 -15 -14 -15 -15 -15 -15 -15 -15 -15 -15 -15 -15 -15 -16 -15 -15 -15 -16 -15 -16 -16 -15 -15 -16 -16 -16 -16 -16 -16 -16 -16 -16 -16 -16
-14 -14 -15 -15 -15 -14 -14 -14 -15 -14 -14 -14 -15 -15 -16 -15 -14 -15 -15 -15 -15 -15 -15 -15 -16 -16 -15 -15 -15 -16 -16 -17 -17 -16 -16 -16 -16 -16 -16 -16 -16 -16 -16 -16 -16 -16 -16 -16 -17
-14 -14 -14 -14 -14 -14 -14 -15 -15 -15 -14 -15 -14 -14 -15 -16 -16 -16 -15 -15 -14 -15 -15 -15 -15 -15 -15 -15 -16 -15 -16 -17 -16 -16 -15 -15 -16 -16 -16 -16 -16 -16 -16 -16 -16 -16 -17 -17 -17
-14 -15 -15 -15 -15 -15 -15 -15 -15 -15 -15 -14 -15 -15 -14 -14 -15 -15 -16 -16 -15 -15 -14 -15 -16 -15 -15 -15 -15 -16 -16 -16 -16 -16 -16 -15 -15 -16 -16 -16 -16 -16 -16 -16 -16 -16 -17 -17 -17
-14 -14 -15 -15 -16 -16 -14 -15 -14 -15 -16 -15 -15 -15 -15 -15 -14 -15 -16 -16 -17 -13 -14 -14 -15 -15 -16 -16 -16 -16 -15 -16 -16 -16 -16 -15 -16 -16 -16 -16 -16 -16 -16 -16 -16 -16 -16 -16 -17
-15 -15 -15 -15 -15 -15 -15 -15 -15 -15 -15 -16 -15 -15 -14 -15 -15 -15 -16 -16 -16 -16 -16 -15 -15 -16 -17 -16 -16 -17 -16 -16 -16 -16 -16 -16 -16 -16 -16 -16 -16 -16 -16 -16 -16 -16 -16 -17 -18

GFSSGP_500_temp_051.txt.gz
Temp
-9 -9 -9 -9 -10 -12 -14 -14 -14 -15 -16 -15 -15 -15 -14 -14 -14 -13 -13 -13 -12 -11 -10 -11 -12 -13 -12 -12 -11 -11 -11 -11 -10 -10 -10 -10 -10 -10 -10 -9 -10 -10 -10 -10 -10 -10 -10 -10 -10
-9 -9 -9 -10 -12 -14 -14 -14 -15 -16 -15 -15 -15 -14 -14 -14 -14 -13 -12 -13 -12 -12 -12 -11 -10 -13 -13 -12 -12 -12 -12 -12 -11 -11 -11 -11 -11 -10 -10 -10 -10 -11 -11 -11 -11 -11 -10 -10 -10
-10 -10 -11 -13 -14 -15 -15 -16 -16 -16 -15 -15 -15 -15 -14 -14 -14 -13 -13 -14 -13 -12 -12 -12 -12 -12 -13 -13 -12 -12 -12 -11 -12 -11 -12 -11 -11 -10 -10 -11 -11 -11 -11 -11 -11 -11 -11 -11 -11
-10 -10 -13 -14 -14 -15 -16 -16 -16 -16 -16 -15 -15 -15 -15 -14 -14 -14 -13 -13 -13 -13 -12 -12 -12 -12 -12 -12 -12 -12 -11 -12 -12 -12 -12 -11 -11 -10 -11 -11 -11 -11 -11 -11 -11 -11 -11 -11 -12
-10 -13 -14 -13 -15 -15 -16 -16 -16 -16 -15 -14 -15 -15 -13 -13 -13 -14 -13 -14 -14 -12 -13 -12 -12 -11 -11 -11 -12 -12 -12 -12 -12 -12 -11 -11 -11 -11 -11 -11 -11 -11 -12 -12 -12 -12 -12 -12 -12
-12 -13 -13 -15 -16 -16 -16 -15 -15 -15 -16 -14 -14 -14 -13 -14 -14 -14 -13 -13 -13 -12 -13 -13 -12 -12 -11 -10 -11 -12 -12 -12 -12 -11 -11 -12 -12 -12 -12 -11 -12 -12 -12 -12 -12 -12 -12 -13 -13
-12 -13 -14 -15 -16 -16 -16 -15 -15 -15 -14 -13 -14 -14 -13 -13 -14 -14 -13 -13 -13 -12 -12 -11 -11 -11 -11 -10 -11 -12 -12 -12 -11 -11 -11 -11 -12 -12 -12 -12 -12 -12 -12 -12 -12 -13 -13 -14 -14
-13 -13 -14 -15 -16 -16 -16 -15 -15 -14 -15 -14 -14 -14 -14 -14 -14 -14 -11 -13 -14 -13 -13 -12 -12 -12 -12 -11 -11 -12 -11 -11 -11 -11 -11 -12 -12 -12 -12 -13 -12 -12 -12 -12 -13 -13 -14 -14 -14
-13 -14 -14 -15 -16 -16 -16 -16 -15 -14 -14 -14 -15 -14 -14 -14 -14 -13 -12 -12 -14 -14 -13 -12 -12 -11 -11 -12 -11 -12 -12 -11 -10 -11 -11 -12 -12 -12 -12 -12 -12 -12 -12 -13 -13 -14 -14 -14 -14
-13 -14 -15 -16 -16 -16 -16 -16 -15 -14 -15 -15 -14 -14 -14 -14 -14 -14 -13 -13 -14 -14 -13 -13 -12 -12 -12 -12 -13 -12 -12 -12 -12 -12 -11 -11 -11 -12 -11 -12 -12 -12 -13 -14 -14 -14 -14 -14 -14
-13 -14 -15 -16 -16 -14 -15 -15 -15 -15 -15 -14 -14 -15 -13 -14 -13 -13 -14 -14 -14 -14 -14 -13 -13 -12 -13 -13 -13 -13 -12 -12 -12 -12 -12 -12 -12 -12 -11 -11 -13 -13 -14 -14 -14 -14 -14 -15 -14
-13 -15 -15 -15 -15 -15 -15 -14 -15 -15 -14 -14 -15 -15 -14 -14 -14 -13 -13 -14 -14 -14 -13 -13 -13 -13 -13 -13 -12 -13 -13 -12 -12 -12 -12 -11 -13 -12 -12 -13 -13 -13 -15 -15 -15 -14 -15 -15 -15
-14 -16 -15 -14 -15 -15 -14 -14 -15 -14 -15 -14 -15 -14 -14 -13 -14 -13 -13 -13 -14 -14 -13 -13 -12 -12 -13 -12 -12 -13 -12 -12 -12 -12 -12 -12 -12 -13 -13 -13 -13 -16 -15 -15 -15 -15 -15 -15 -15
-14 -14 -14 -15 -15 -15 -14 -15 -14 -14 -14 -14 -15 -15 -15 -13 -13 -13 -13 -13 -13 -13 -13 -13 -13 -13 -12 -12 -12 -13 -12 -12 -13 -13 -12 -13 -13 -14 -14 -13 -15 -17 -15 -15 -14 -14 -15 -15 -15
-13 -13 -14 -14 -15 -14 -15 -14 -15 -14 -14 -14 -15 -15 -15 -13 -13 -13 -13 -13 -13 -13 -13 -13 -13 -12 -12 -12 -12 -12 -13 -13 -13 -12 -13 -13 -13 -14 -15 -15 -16 -16 -15 -15 -15 -15 -15 -15 -14
-13 -14 -14 -14 -15 -15 -15 -15 -15 -14 -14 -14 -15 -15 -15 -13 -12 -13 -13 -13 -13 -13 -13 -13 -12 -12 -12 -12 -12 -12 -13 -13 -13 -13 -13 -14 -15 -15 -15 -15 -16 -15 -15 -15 -15 -15 -15 -15 -15
-14 -14 -15 -16 -15 -15 -15 -14 -14 -14 -14 -14 -15 -15 -15 -15 -14 -14 -14 -13 -13 -13 -12 -12 -12 -11 -12 -12 -12 -13 -13 -13 -13 -13 -14 -15 -15 -15 -15 -16 -15 -15 -15 -15 -15 -15 -15 -15 -15
-14 -15 -16 -15 -15 -15 -15 -14 -14 -14 -14 -14 -14 -15 -15 -15 -15 -15 -15 -14 -14 -12 -12 -12 -12 -13 -13 -12 -12 -12 -14 -14 -14 -15 -15 -15 -15 -15 -15 -15 -15 -15 -15 -15 -15 -15 -15 -15 -15
-13 -16 -16 -15 -15 -15 -15 -15 -14 -14 -15 -15 -14 -14 -15 -14 -14 -15 -15 -15 -14 -14 -14 -14 -14 -14 -15 -14 -14 -14 -14 -14 -14 -14 -14 -14 -15 -15 -15 -15 -15 -15 -16 -15 -15 -15 -15 -15 -15
-14 -14 -15 -16 -15 -15 -15 -15 -14 -14 -15 -15 -15 -14 -15 -15 -14 -14 -15 -14 -14 -14 -14 -14 -14 -15 -14 -14 -14 -14 -14 -14 -14 -14 -15 -15 -15 -15 -15 -15 -16 -16 -16 -16 -15 -15 -15 -15 -15
-14 -14 -15 -16 -16 -15 -15 -15 -15 -15 -14 -14 -15 -15 -15 -15 -15 -15 -14 -14 -14 -14 -14 -14 -14 -14 -14 -14 -14 -14 -15 -15 -15 -16 -16 -16 -16 -16 -16 -16 -16 -16 -16 -16 -16 -15 -15 -16 -16
-14 -14 -15 -15 -15 -16 -16 -15 -15 -15 -14 -14 -15 -15 -15 -14 -15 -14 -15 -14 -14 -14 -14 -14 -14 -14 -14 -15 -15 -15 -15 -15 -15 -15 -15 -15 -16 -16 -16 -16 -16 -16 -16 -16 -16 -16 -16 -16 -16
-14 -14 -15 -15 -15 -15 -15 -15 -15 -15 -14 -14 -14 -14 -14 -15 -15 -15 -15 -15 -15 -15 -15 -14 -14 -14 -15 -15 -15 -15 -15 -15 -15 -15 -15 -15 -15 -15 -15 -15 -15 -16 -16 -16 -16 -16 -16 -16 -16
-15 -14 -15 -14 -15 -14 -15 -15 -14 -14 -15 -14 -13 -14 -14 -15 -14 -14 -14 -15 -15 -15 -14 -14 -14 -14 -14 -14 -14 -14 -15 -15 -15 -15 -15 -15 -15 -16 -16 -15 -15 -16 -16 -16 -16 -16 -16 -16 -16
-15 -15 -14 -14 -14 -14 -15 -15 -14 -15 -14 -14 -14 -13 -13 -14 -14 -14 -14 -14 -14 -14 -14 -14 -14 -14 -14 -14 -14 -14 -14 -15 -15 -15 -15 -15 -16 -15 -16 -15 -15 -15 -16 -16 -16 -16 -16 -17 -17
-14 -14 -15 -15 -14 -14 -14 -14 -15 -14 -15 -15 -15 -14 -14 -13 -13 -13 -14 -14 -14 -14 -14 -14 -14 -14 -14 -15 -15 -15 -15 -15 -15 -15 -15 -15 -16 -16 -16 -15 -16 -16 -16 -16 -16 -16 -16 -16 -16
-14 -14 -15 -15 -14 -14 -14 -15 -15 -15 -14 -15 -15 -15 -15 -14 -13 -13 -13 -14 -14 -14 -14 -14 -14 -14 -15 -15 -15 -15 -15 -15 -16 -16 -16 -16 -16 -16 -16 -16 -16 -17 -16 -16 -16 -16 -16 -16 -16
-15 -15 -16 -16 -15 -15 -14 -15 -15 -15 -15 -15 -15 -14 -15 -14 -14 -14 -14 -13 -14 -15 -16 -16 -15 -15 -14 -14 -15 -16 -16 -15 -16 -16 -16 -16 -16 -17 -16 -17 -17 -16 -16 -16 -16 -16 -16 -16 -17
-15 -15 -15 -16 -16 -15 -15 -15 -15 -15 -15 -15 -14 -15 -15 -14 -15 -14 -14 -13 -13 -14 -15 -15 -15 -14 -15 -15 -15 -15 -16 -17 -16 -16 -16 -16 -17 -17 -16 -16 -16 -16 -16 -16 -16 -16 -16 -16 -17
-14 -15 -15 -15 -16 -16 -15 -15 -16 -15 -15 -15 -15 -15 -15 -14 -14 -14 -14 -14 -14 -14 -15 -15 -15 -15 -15 -15 -15 -16 -15 -15 -16 -15 -16 -16 -17 -17 -17 -17 -17 -17 -16 -16 -16 -16 -16 -17 -17

GFSSGP_500_temp_054.txt.gz
Temp
-10 -9 -9 -9 -9 -11 -12 -14 -15 -15 -16 -16 -15 -15 -16 -15 -14 -14 -14 -14 -13 -13 -12 -12 -10 -10 -11 -12 -12 -12 -12 -11 -11 -11 -10 -10 -10 -10 -10 -10 -10 -10 -10 -10 -10 -10 -10 -10 -10
-10 -10 -9 -9 -10 -12 -15 -15 -15 -15 -15 -15 -15 -15 -15 -15 -15 -14 -14 -14 -13 -13 -13 -13 -13 -12 -11 -12 -13 -12 -12 -12 -12 -11 -11 -11 -11 -11 -10 -10 -10 -10 -10 -11 -11 -10 -10 -10 -11
-10 -10 -9 -10 -13 -15 -15 -15 -15 -15 -15 -15 -15 -15 -15 -14 -14 -15 -14 -14 -14 -13 -12 -13 -13 -13 -12 -12 -13 -12 -12 -12 -11 -11 -12 -12 -11 -11 -11 -10 -11 -11 -11 -11 -11 -11 -11 -11 -11
-10 -9 -11 -13 -15 -15 -15 -14 -15 -16 -16 -16 -16 -14 -14 -14 -14 -14 -14 -14 -13 -14 -13 -12 -12 -12 -13 -12 -12 -13 -12 -11 -12 -12 -12 -11 -12 -12 -11 -11 -11 -11 -11 -11 -11 -11 -11 -12 -12
-10 -10 -12 -15 -15 -15 -15 -15 -16 -16 -16 -16 -15 -15 -15 -14 -14 -13 -14 -14 -13 -14 -13 -13 -13 -13 -12 -11 -10 -10 -12 -12 -12 -12 -12 -12 -12 -12 -11 -11 -11 -11 -12 -12 -12 -12 -12 -12 -12
-10 -12 -13 -14 -14 -14 -15 -16 -16 -16 -16 -15 -15 -14 -14 -14 -14 -13 -13 -13 -13 -13 -14 -14 -14 -13 -11 -10 -10 -11 -12 -13 -12 -12 -12 -12 -12 -12 -12 -11 -11 -12 -11 -12 -12 -12 -12 -12 -13
-11 -13 -14 -14 -14 -15 -16 -16 -16 -16 -16 -16 -15 -15 -14 -14 -13 -14 -13 -13 -14 -12 -13 -14 -13 -12 -11 -11 -11 -11 -11 -13 -12 -12 -12 -12 -12 -12 -12 -12 -12 -12 -12 -12 -12 -12 -12 -13 -14
-11 -14 -14 -14 -15 -16 -16 -15 -15 -16 -16 -15 -15 -14 -14 -14 -14 -13 -13 -13 -13 -12 -13 -13 -13 -13 -12 -12 -11 -11 -11 -11 -12 -12 -12 -12 -11 -12 -12 -12 -12 -12 -12 -12 -12 -12 -12 -12 -14
-13 -14 -14 -15 -15 -16 -16 -16 -15 -14 -15 -15 -14 -14 -14 -14 -14 -13 -13 -13 -11 -9 -12 -13 -13 -12 -12 -11 -11 -11 -11 -12 -12 -12 -12 -11 -12 -12 -12 -12 -12 -12 -12 -12 -12 -13 -13 -14 -14
-13 -14 -14 -15 -15 -15 -15 -15 -15 -14 -14 -14 -14 -13 -14 -14 -14 -13 -13 -13 -11 -13 -14 -13 -13 -12 -11 -11 -12 -12 -12 -12 -13 -13 -12 -12 -12 -12 -11 -12 -12 -12 -12 -12 -13 -14 -14 -14 -14
-13 -13 -14 -15 -16 -16 -15 -15 -14 -14 -13 -14 -14 -13 -13 -12 -13 -13 -13 -13 -13 -13 -13 -13 -12 -12 -12 -12 -12 -12 -13 -12 -12 -12 -12 -12 -13 -12 -12 -12 -12 -12 -12 -12 -14 -15 -14 -14 -14
-13 -13 -13 -15 -16 -15 -15 -15 -14 -14 -13 -13 -13 -13 -13 -13 -13 -13 -13 -13 -13 -13 -13 -13 -14 -13 -13 -13 -13 -13 -12 -13 -12 -12 -12 -12 -12 -12 -12 -13 -13 -13 -13 -13 -14 -15 -14 -14 -14
-12 -12 -12 -15 -15 -15 -15 -15 -14 -14 -13 -13 -13 -13 -13 -12 -12 -13 -12 -13 -13 -13 -13 -13 -13 -14 -14 -13 -13 -13 -12 -13 -12 -12 -12 -13 -12 -12 -12 -14 -14 -13 -13 -13 -15 -15 -15 -15 -15
-12 -12 -13 -15 -15 -15 -14 -14 -13 -14 -13 -14 -13 -13 -12 -12 -12 -12 -13 -13 -13 -13 -13 -13 -13 -13 -13 -13 -13 -12 -12 -13 -13 -13 -13 -13 -13 -12 -12 -13 -14 -14 -14 -15 -15 -15 -15 -15 -15
-12 -13 -14 -15 -15 -14 -14 -14 -15 -15 -14 -14 -13 -14 -12 -12 -12 -13 -13 -13 -13 -13 -13 -13 -13 -13 -14 -13 -13 -12 -12 -12 -13 -13 -13 -13 -13 -13 -14 -14 -15 -15 -16 -16 -15 -15 -15 -15 -15
-13 -14 -15 -15 -14 -14 -15 -15 -15 -14 -14 -14 -14 -14 -12 -13 -13 -13 -13 -13 -13 -13 -13 -13 -13 -13 -14 -13 -13 -12 -12 -13 -13 -13 -13 -13 -13 -14 -14 -15 -15 -16 -16 -16 -15 -15 -15 -15 -15
-13 -14 -15 -15 -14 -15 -15 -15 -15 -14 -14 -14 -14 -14 -14 -15 -14 -14 -13 -13 -12 -12 -13 -13 -13 -13 -13 -13 -13 -12 -12 -12 -12 -13 -13 -13 -13 -14 -16 -15 -16 -16 -16 -15 -15 -15 -15 -15 -15
-13 -14 -15 -14 -14 -15 -15 -15 -15 -15 -15 -14 -14 -14 -14 -15 -15 -15 -14 -14 -12 -12 -12 -12 -12 -13 -13 -12 -12 -12 -12 -11 -12 -13 -14 -12 -15 -16 -15 -16 -16 -15 -15 -15 -16 -16 -15 -16 -15
-13 -13 -14 -15 -16 -15 -15 -15 -15 -15 -15 -14 -14 -14 -14 -14 -14 -14 -14 -14 -14 -14 -14 -14 -14 -13 -12 -11 -11 -12 -12 -12 -13 -14 -13 -14 -15 -14 -15 -16 -16 -15 -16 -15 -15 -15 -15 -15 -15
-13 -13 -14 -15 -16 -16 -15 -15 -15 -14 -15 -15 -15 -14 -14 -14 -14 -14 -14 -14 -14 -14 -15 -14 -14 -14 -14 -13 -13 -14 -14 -14 -14 -14 -14 -15 -15 -15 -15 -16 -16 -16 -16 -16 -15 -15 -15 -16 -15
-13 -13 -14 -16 -16 -16 -15 -15 -16 -14 -15 -15 -15 -15 -14 -14 -15 -15 -14 -14 -14 -14 -14 -14 -14 -14 -14 -14 -14 -14 -13 -13 -14 -14 -14 -15 -15 -15 -15 -15 -15 -15 -15 -15 -15 -16 -15 -15 -15
-13 -12 -14 -15 -16 -16 -16 -15 -15 -14 -14 -15 -15 -15 -14 -14 -15 -15 -14 -14 -14 -14 -14 -14 -14 -14 -14 -14 -14 -14 -14 -14 -14 -14 -14 -15 -15 -15 -15 -15 -15 -15 -15 -15 -16 -16 -16 -16 -16
-13 -13 -14 -14 -14 -15 -15 -15 -15 -14 -14 -14 -15 -15 -15 -14 -15 -15 -14 -14 -14 -14 -14 -14 -14 -14 -14 -14 -14 -14 -14 -14 -15 -15 -15 -14 -15 -15 -16 -16 -16 -16 -16 -15 -15 -16 -16 -16 -16
-13 -13 -14 -14 -14 -14 -15 -15 -14 -14 -15 -14 -14 -15 -15 -14 -14 -15 -14 -14 -14 -14 -14 -14 -14 -14 -14 -14 -14 -14 -14 -14 -14 -14 -15 -15 -15 -15 -15 -15 -15 -15 -15 -15 -15 -16 -16 -16 -16
-13 -13 -14 -14 -14 -14 -14 -13 -14 -15 -14 -14 -14 -14 -14 -14 -14 -14 -15 -14 -14 -14 -14 -14 -15 -14 -14 -15 -15 -15 -15 -15 -15 -15 -15 -15 -15 -15 -15 -15 -15 -15 -15 -16 -16 -16 -16 -16 -16
-13 -14 -13 -14 -14 -15 -15 -14 -14 -14 -14 -14 -14 -14 -14 -14 -14 -14 -14 -14 -14 -14 -14 -15 -15 -15 -15 -15 -15 -15 -15 -16 -15 -16 -16 -15 -15 -15 -15 -15 -15 -16 -16 -16 -16 -16 -16 -17 -16
-14 -14 -14 -15 -14 -14 -15 -15 -15 -14 -15 -14 -14 -14 -14 -14 -14 -14 -14 -14 -14 -15 -15 -15 -15 -15 -15 -15 -15 -15 -15 -16 -15 -16 -15 -15 -15 -16 -16 -16 -16 -16 -16 -16 -16 -16 -16 -16 -16
-15 -15 -14 -15 -14 -14 -14 -15 -15 -15 -15 -15 -15 -14 -14 -14 -14 -14 -14 -14 -15 -15 -15 -15 -15 -15 -15 -14 -15 -15 -15 -15 -16 -16 -16 -16 -16 -16 -16 -16 -16 -16 -16 -16 -16 -16 -16 -16 -16
-15 -14 -14 -15 -14 -14 -14 -15 -15 -15 -15 -15 -15 -15 -15 -15 -14 -14 -14 -14 -14 -14 -14 -15 -15 -15 -15 -15 -16 -15 -15 -15 -15 -15 -16 -16 -15 -15 -16 -16 -16 -17 -17 -16 -17 -16 -16 -16 -16
-14 -14 -15 -15 -14 -13 -14 -14 -15 -15 -16 -15 -16 -15 -15 -14 -14 -14 -14 -14 -14 -14 -14 -15 -15 -15 -16 -15 -15 -16 -16 -15 -15 -15 -15 -16 -16 -16 -16 -16 -17 -17 -17 -17 -17 -16 -16 -16 -16

GFSSGP_500_temp_057.txt.gz
Temp
-10 -10 -10 -10 -10 -10 -11 -11 -12 -13 -15 -14 -15 -15 -15 -15 -15 -15 -15 -14 -14 -14 -14 -13 -13 -13 -13 -12 -12 -11 -11 -10 -12 -12 -12 -11 -10 -10 -10 -10 -10 -10 -10 -10 -10 -10 -10 -10 -10
-10 -11 -10 -10 -11 -11 -12 -13 -14 -15 -15 -16 -15 -15 -15 -15 -15 -15 -15 -15 -15 -14 -13 -13 -13 -13 -13 -11 -11 -12 -12 -11 -12 -12 -12 -11 -11 -11 -11 -11 -10 -10 -10 -11 -11 -11 -11 -10 -11
-11 -11 -10 -10 -11 -12 -14 -15 -15 -15 -15 -15 -15 -15 -15 -15 -15 -14 -14 -14 -14 -14 -14 -13 -14 -13 -13 -12 -12 -13 -12 -11 -12 -12 -12 -12 -12 -11 -11 -11 -11 -11 -11 -11 -11 -11 -11 -11 -11
-11 -11 -11 -11 -12 -13 -14 -15 -15 -14 -15 -16 -16 -16 -15 -15 -15 -15 -15 -15 -14 -14 -14 -14 -14 -13 -13 -13 -12 -12 -12 -11 -12 -12 -12 -12 -12 -12 -11 -11 -11 -11 -11 -11 -11 -11 -11 -12 -12
-11 -11 -12 -12 -13 -14 -14 -14 -14 -15 -15 -16 -16 -15 -15 -15 -15 -15 -15 -15 -14 -14 -13 -13 -13 -12 -12 -12 -12 -12 -11 -11 -10 -12 -12 -13 -12 -12 -12 -12 -12 -11 -11 -11 -12 -12 -12 -12 -12
-11 -11 -12 -13 -13 -14 -14 -14 -14 -15 -16 -16 -16 -15 -15 -14 -14 -14 -14 -15 -14 -14 -13 -13 -13 -13 -12 -13 -11 -11 -12 -12 -11 -12 -12 -13 -13 -12 -12 -12 -12 -11 -11 -11 -12 -12 -12 -12 -13
-12 -12 -12 -13 -14 -14 -13 -13 -14 -15 -15 -16 -16 -16 -15 -14 -13 -13 -13 -13 -13 -13 -13 -13 -13 -13 -13 -12 -12 -11 -11 -11 -12 -11 -12 -13 -13 -12 -12 -12 -12 -11 -12 -11 -12 -13 -13 -12 -13
-12 -12 -12 -14 -14 -14 -13 -12 -13 -13 -14 -14 -15 -14 -14 -14 -14 -13 -12 -13 -13 -13 -14 -12 -12 -12 -12 -11 -11 -12 -12 -12 -12 -12 -12 -12 -12 -12 -12 -12 -12 -12 -12 -12 -13 -13 -13 -12 -12
-12 -12 -13 -14 -14 -13 -13 -13 -13 -14 -14 -14 -14 -13 -14 -13 -13 -13 -13 -13 -13 -13 -13 -11 -12 -12 -12 -12 -12 -12 -12 -12 -12 -11 -12 -12 -12 -12 -12 -12 -12 -12 -12 -12 -12 -13 -13 -12 -13
-12 -12 -13 -13 -13 -13 -13 -13 -14 -14 -14 -13 -13 -13 -14 -14 -14 -13 -13 -12 -13 -12 -12 -12 -12 -12 -12 -12 -12 -12 -12 -12 -11 -12 -13 -12 -12 -13 -12 -13 -13 -12 -12 -13 -12 -12 -13 -13 -13
-12 -13 -13 -14 -13 -13 -13 -14 -14 -14 -14 -14 -14 -13 -13 -13 -13 -12 -13 -12 -12 -12 -12 -12 -12 -13 -13 -12 -12 -12 -11 -12 -12 -12 -12 -12 -12 -12 -13 -13 -12 -12 -12 -12 -12 -12 -13 -15 -15
-12 -13 -13 -14 -13 -13 -13 -14 -14 -14 -14 -14 -14 -13 -14 -13 -12 -12 -13 -13 -12 -12 -12 -12 -12 -12 -12 -12 -12 -12 -12 -12 -12 -12 -12 -12 -12 -12 -12 -13 -13 -12 -13 -13 -13 -13 -14 -16 -16
-12 -13 -13 -14 -14 -14 -14 -14 -14 -13 -14 -14 -13 -12 -13 -12 -11 -12 -12 -13 -13 -12 -12 -12 -12 -12 -13 -12 -13 -13 -14 -13 -12 -12 -12 -12 -12 -12 -12 -13 -13 -13 -13 -14 -14 -13 -14 -15 -14
-12 -13 -14 -13 -14 -14 -14 -14 -13 -13 -13 -14 -14 -12 -13 -11 -11 -12 -12 -13 -12 -12 -13 -13 -13 -13 -13 -12 -13 -13 -12 -12 -13 -12 -12 -11 -12 -13 -13 -13 -13 -14 -14 -14 -14 -14 -15 -14 -15
-13 -14 -14 -13 -14 -14 -14 -14 -14 -14 -14 -13 -14 -13 -13 -12 -11 -12 -12 -12 -13 -13 -11 -13 -13 -13 -13 -13 -12 -12 -12 -12 -12 -12 -12 -12 -13 -13 -14 -13 -14 -15 -15 -15 -15 -16 -15 -15 -15
-13 -14 -14 -14 -15 -14 -14 -14 -14 -15 -14 -14 -14 -14 -14 -12 -12 -12 -13 -13 -13 -13 -13 -14 -13 -13 -13 -14 -13 -12 -12 -12 -12 -12 -13 -13 -13 -12 -14 -14 -15 -15 -15 -16 -16 -16 -16 -15 -15
-13 -14 -14 -15 -14 -14 -15 -15 -14 -15 -14 -14 -14 -14 -14 -14 -13 -13 -13 -13 -13 -13 -13 -13 -13 -13 -13 -13 -13 -13 -12 -12 -12 -13 -13 -13 -13 -14 -14 -14 -15 -16 -16 -17 -16 -16 -15 -15 -15
-13 -13 -14 -15 -15 -15 -14 -14 -14 -15 -14 -14 -14 -14 -14 -14 -14 -14 -14 -13 -12 -12 -12 -12 -13 -13 -12 -13 -13 -13 -13 -13 -13 -13 -13 -13 -14 -14 -15 -15 -16 -16 -16 -16 -16 -15 -15 -15 -16
-13 -12 -13 -15 -15 -14 -14 -14 -14 -15 -14 -14 -14 -14 -14 -14 -14 -14 -14 -13 -12 -12 -13 -13 -13 -12 -13 -13 -13 -13 -14 -14 -13 -13 -14 -14 -14 -14 -15 -15 -16 -16 -16 -16 -15 -16 -15 -16 -15
-13 -12 -13 -15 -16 -15 -14 -15 -15 -14 -15 -14 -14 -14 -14 -14 -14 -14 -14 -14 -14 -14 -14 -14 -13 -13 -12 -13 -13 -14 -14 -14 -13 -13 -14 -14 -15 -15 -15 -16 -16 -15 -15 -15 -15 -15 -15 -15 -15
-13 -12 -14 -14 -15 -15 -14 -14 -14 -14 -15 -14 -14 -14 -14 -14 -14 -14 -14 -14 -14 -14 -14 -14 -14 -14 -14 -14 -14 -14 -14 -14 -14 -14 -14 -15 -15 -15 -15 -16 -16 -15 -16 -16 -16 -16 -16 -15 -15
-13 -14 -13 -14 -13 -14 -14 -13 -14 -14 -14 -14 -14 -14 -14 -14 -14 -14 -14 -14 -14 -14 -14 -14 -14 -14 -14 -14 -13 -14 -14 -14 -13 -14 -15 -15 -15 -15 -16 -16 -15 -15 -16 -16 -16 -16 -16 -15 -15
-14 -14 -13 -13 -13 -13 -14 -14 -14 -13 -14 -14 -14 -14 -14 -15 -15 -14 -14 -14 -14 -14 -14 -14 -14 -14 -14 -14 -14 -14 -14 -14 -14 -15 -15 -15 -15 -15 -16 -16 -16 -16 -15 -15 -16 -16 -16 -16 -15
-15 -14 -14 -13 -13 -12 -14 -14 -13 -13 -14 -15 -14 -14 -14 -14 -14 -14 -14 -14 -14 -14 -14 -14 -14 -14 -15 -15 -15 -14 -14 -14 -14 -15 -15 -15 -15 -16 -15 -16 -16 -16 -16 -16 -15 -16 -16 -16 -15
-13 -14 -13 -13 -12 -12 -15 -13 -13 -14 -14 -14 -14 -14 -14 -14 -14 -14 -14 -14 -14 -14 -15 -14 -14 -14 -14 -14 -14 -14 -14 -14 -15 -15 -15 -15 -15 -16 -16 -16 -16 -16 -16 -15 -15 -15 -16 -16 -15
-14 -15 -13 -13 -12 -13 -14 -13 -14 -14 -13 -14 -14 -14 -14 -14 -14 -14 -14 -14 -14 -14 -14 -14 -15 -15 -15 -15 -14 -14 -14 -14 -15 -15 -16 -16 -16 -15 -15 -16 -16 -16 -16 -16 -16 -16 -16 -16 -16
-14 -14 -14 -14 -13 -13 -14 -13 -14 -14 -14 -14 -15 -14 -14 -14 -14 -15 -14 -14 -14 -15 -15 -14 -14 -14 -15 -15 -14 -14 -14 -15 -15 -15 -15 -15 -15 -16 -16 -16 -16 -16 -16 -16 -16 -16 -16 -16 -16
-14 -15 -15 -14 -14 -13 -12 -13 -13 -14 -14 -14 -14 -14 -14 -15 -15 -15 -14 -14 -14 -15 -15 -15 -15 -15 -15 -15 -15 -15 -15 -14 -15 -15 -16 -16 -16 -16 -16 -16 -16 -16 -16 -16 -16 -16 -16 -16 -16
-15 -14 -14 -14 -14 -13 -12 -13 -14 -14 -14 -14 -14 -14 -14 -14 -15 -15 -14 -14 -14 -14 -15 -15 -16 -16 -15 -15 -15 -15 -16 -16 -16 -16 -16 -16 -16 -16 -15 -15 -16 -16 -16 -16 -16 -16 -16 -16 -16
-15 -15 -15 -15 -14 -13 -13 -12 -15 -15 -14 -14 -15 -15 -15 -14 -15 -15 -14 -14 -14 -14 -14 -14 -15 -15 -16 -15 -15 -15 -15 -16 -15 -15 -15 -15 -15 -15 -15 -15 -16 -16 -16 -16 -16 -16 -17 -17 -17

GFSSGP_500_temp_060.txt.gz
Temp
-11 -11 -11 -10 -10 -10 -10 -10 -11 -12 -13 -14 -14 -15 -16 -16 -16 -15 -15 -15 -15 -15 -15 -14 -13 -14 -13 -13 -13 -12 -12 -11 -12 -11 -11 -11 -11 -11 -11 -11 -11 -11 -11 -11 -10 -10 -10 -10 -10
-11 -11 -11 -11 -10 -10 -10 -11 -12 -13 -14 -14 -15 -15 -15 -15 -16 -15 -15 -15 -15 -15 -14 -14 -14 -14 -13 -13 -12 -12 -11 -11 -11 -12 -11 -11 -12 -11 -11 -11 -11 -11 -11 -11 -11 -11 -11 -10 -11
-11 -11 -11 -11 -10 -10 -11 -12 -13 -14 -14 -15 -15 -15 -15 -15 -15 -15 -16 -15 -15 -15 -15 -14 -14 -13 -13 -13 -13 -12 -12 -11 -11 -12 -12 -11 -11 -12 -12 -11 -11 -11 -11 -11 -11 -11 -11 -11 -11
-12 -12 -11 -11 -10 -11 -12 -12 -13 -14 -14 -14 -15 -15 -15 -15 -15 -15 -15 -15 -15 -15 -15 -14 -14 -14 -13 -13 -13 -12 -13 -12 -12 -11 -12 -12 -12 -12 -12 -12 -12 -12 -11 -11 -11 -11 -11 -11 -11
-12 -12 -12 -11 -11 -12 -12 -13 -14 -15 -14 -14 -14 -15 -15 -16 -15 -14 -15 -15 -14 -14 -14 -14 -14 -13 -13 -13 -12 -13 -13 -12 -11 -12 -11 -12 -12 -12 -12 -12 -12 -12 -12 -13 -12 -11 -11 -12 -12
-12 -12 -12 -11 -12 -12 -12 -13 -14 -14 -14 -14 -15 -14 -14 -14 -15 -15 -14 -14 -14 -15 -14 -14 -14 -13 -13 -13 -13 -13 -12 -11 -11 -12 -11 -11 -12 -12 -12 -12 -12 -12 -12 -12 -12 -12 -12 -12 -12
-12 -12 -12 -12 -12 -12 -13 -13 -13 -14 -14 -14 -14 -15 -15 -15 -15 -14 -14 -14 -14 -14 -14 -14 -14 -13 -13 -13 -13 -13 -12 -11 -11 -11 -12 -12 -12 -12 -13 -12 -12 -13 -13 -13 -13 -12 -12 -12 -12
-12 -12 -12 -12 -12 -12 -12 -13 -14 -13 -13 -13 -14 -13 -14 -14 -14 -14 -15 -14 -14 -14 -14 -14 -13 -13 -12 -12 -12 -13 -12 -12 -11 -11 -11 -12 -12 -12 -12 -12 -12 -13 -13 -13 -12 -12 -12 -13 -13
-12 -12 -12 -12 -12 -12 -13 -14 -14 -13 -13 -13 -13 -13 -13 -13 -13 -13 -14 -14 -14 -14 -14 -13 -13 -12 -12 -11 -12 -12 -12 -11 -11 -11 -12 -12 -12 -12 -12 -12 -12 -13 -13 -12 -12 -12 -12 -12 -13
-12 -12 -12 -12 -12 -12 -14 -14 -14 -13 -13 -13 -13 -13 -14 -14 -13 -13 -13 -13 -13 -12 -12 -12 -12 -12 -11 -11 -11 -12 -12 -12 -12 -11 -11 -12 -12 -11 -12 -12 -12 -13 -13 -12 -12 -13 -13 -13 -13
-12 -13 -12 -13 -12 -13 -15 -14 -13 -13 -14 -14 -13 -13 -13 -13 -13 -13 -13 -13 -13 -12 -12 -12 -12 -12 -11 -11 -12 -13 -12 -12 -12 -12 -12 -11 -12 -12 -12 -12 -13 -13 -12 -13 -13 -13 -13 -14 -13
-13 -13 -13 -13 -13 -13 -15 -14 -13 -13 -14 -13 -13 -13 -14 -14 -12 -12 -12 -12 -13 -12 -12 -12 -12 -12 -12 -11 -12 -13 -12 -12 -12 -12 -12 -12 -12 -12 -13 -12 -12 -13 -12 -13 -13 -13 -14 -14 -14
-13 -13 -13 -13 -13 -13 -15 -14 -13 -13 -13 -13 -14 -14 -14 -13 -12 -11 -12 -12 -12 -13 -12 -11 -12 -12 -12 -12 -12 -12 -12 -12 -12 -12 -12 -12 -12 -12 -12 -12 -13 -13 -13 -14 -13 -14 -14 -15 -16
-13 -13 -13 -13 -13 -13 -14 -14 -13 -13 -13 -13 -13 -13 -13 -14 -13 -11 -12 -12 -12 -12 -12 -12 -12 -12 -12 -12 -12 -12 -13 -12 -12 -13 -12 -12 -12 -12 -12 -13 -13 -13 -13 -13 -13 -14 -14 -16 -16
-14 -13 -13 -13 -13 -14 -14 -14 -14 -13 -14 -14 -13 -13 -13 -14 -14 -12 -12 -12 -13 -13 -13 -12 -13 -13 -13 -12 -13 -12 -13 -13 -13 -13 -13 -13 -13 -13 -12 -13 -13 -14 -13 -13 -14 -14 -15 -16 -17
-14 -14 -13 -13 -13 -14 -13 -14 -14 -14 -14 -14 -14 -13 -13 -14 -14 -14 -13 -12 -13 -13 -13 -13 -13 -13 -13 -13 -12 -12 -13 -13 -13 -13 -13 -13 -13 -13 -13 -13 -14 -14 -14 -14 -14 -15 -16 -17 -17
-14 -14 -13 -12 -13 -13 -14 -14 -14 -14 -14 -14 -14 -14 -14 -14 -14 -14 -14 -13 -13 -13 -13 -13 -13 -13 -13 -13 -13 -13 -13 -13 -13 -13 -13 -13 -13 -13 -13 -14 -14 -14 -14 -15 -15 -16 -17 -17 -17
-14 -14 -13 -12 -13 -14 -14 -14 -14 -14 -14 -14 -14 -14 -15 -15 -14 -14 -14 -13 -12 -12 -12 -13 -13 -13 -13 -13 -13 -13 -13 -13 -14 -14 -13 -13 -13 -14 -14 -14 -14 -15 -15 -16 -16 -17 -17 -17 -16
-13 -13 -13 -13 -14 -14 -15 -15 -15 -14 -14 -14 -14 -14 -14 -15 -15 -14 -14 -13 -13 -13 -13 -13 -13 -13 -13 -13 -13 -13 -14 -14 -14 -13 -13 -14 -13 -14 -14 -14 -15 -15 -16 -16 -16 -17 -17 -16 -17
-12 -13 -13 -14 -14 -13 -14 -15 -15 -14 -14 -14 -14 -14 -14 -14 -15 -14 -14 -14 -14 -14 -14 -13 -13 -13 -13 -13 -13 -12 -13 -13 -13 -13 -14 -14 -13 -14 -14 -14 -15 -16 -16 -16 -16 -16 -17 -16 -16
-13 -12 -13 -14 -14 -13 -13 -14 -15 -14 -14 -14 -14 -14 -14 -14 -14 -15 -14 -14 -14 -14 -15 -15 -14 -14 -13 -13 -13 -13 -13 -13 -13 -13 -14 -14 -14 -14 -15 -15 -16 -16 -16 -16 -16 -16 -15 -15 -15
-13 -14 -14 -14 -13 -13 -13 -13 -14 -14 -14 -14 -14 -14 -14 -14 -14 -14 -14 -14 -14 -14 -14 -14 -14 -14 -13 -13 -14 -13 -13 -14 -14 -14 -14 -14 -14 -15 -14 -15 -15 -16 -16 -16 -16 -16 -16 -16 -16
-14 -16 -15 -14 -13 -12 -13 -13 -14 -14 -14 -14 -14 -14 -14 -14 -14 -14 -14 -14 -14 -14 -14 -14 -14 -14 -14 -14 -14 -14 -14 -14 -13 -14 -14 -14 -14 -15 -15 -15 -15 -15 -16 -16 -16 -16 -16 -16 -16
-14 -14 -14 -14 -14 -12 -13 -13 -13 -14 -14 -13 -14 -14 -14 -15 -14 -14 -14 -14 -14 -14 -14 -14 -14 -14 -14 -14 -14 -14 -14 -15 -15 -15 -15 -15 -15 -15 -15 -15 -15 -16 -16 -16 -16 -16 -16 -16 -16
-13 -14 -14 -14 -13 -12 -14 -13 -13 -13 -14 -14 -13 -13 -13 -14 -15 -15 -14 -14 -14 -14 -14 -15 -15 -15 -14 -14 -14 -14 -14 -14 -15 -14 -15 -14 -15 -15 -15 -15 -16 -16 -16 -16 -16 -16 -16 -15 -15
-14 -14 -14 -14 -14 -14 -14 -13 -13 -13 -13 -14 -14 -13 -13 -14 -14 -15 -15 -15 -14 -15 -15 -15 -15 -15 -15 -14 -14 -14 -14 -14 -15 -15 -15 -15 -15 -15 -15 -15 -15 -16 -16 -16 -16 -16 -16 -15 -15
-15 -14 -14 -15 -15 -14 -14 -13 -13 -13 -14 -14 -14 -14 -14 -14 -14 -14 -14 -14 -15 -15 -15 -15 -15 -15 -15 -15 -14 -14 -14 -15 -15 -15 -15 -15 -15 -15 -15 -15 -16 -16 -16 -16 -16 -16 -16 -16 -16
-15 -15 -15 -14 -14 -13 -13 -13 -13 -14 -14 -14 -14 -14 -14 -14 -14 -14 -15 -15 -15 -15 -15 -15 -15 -15 -15 -15 -15 -15 -15 -15 -16 -15 -15 -15 -16 -16 -16 -16 -16 -16 -16 -16 -16 -16 -16 -16 -16
-15 -15 -14 -14 -14 -13 -13 -12 -14 -15 -14 -14 -14 -14 -14 -14 -14 -14 -14 -14 -15 -14 -15 -15 -15 -15 -16 -16 -16 -16 -15 -15 -15 -15 -15 -16 -16 -16 -16 -15 -16 -16 -15 -15 -16 -16 -16 -16 -16
-15 -15 -16 -16 -15 -14 -13 -12 -14 -15 -15 -14 -14 -14 -14 -15 -14 -15 -14 -14 -14 -15 -15 -15 -15 -15 -15 -15 -15 -15 -15 -15 -15 -15 -16 -16 -16 -16 -16 -16 -16 -16 -15 -16 -16 -16 -16 -16 -16

GFSSGP_500_temp_063.txt.gz
Temp
-10 -11 -11 -11 -11 -11 -10 -11 -11 -11 -11 -12 -12 -14 -14 -15 -16 -16 -16 -15 -15 -15 -15 -15 -15 -14 -13 -13 -12 -13 -13 -12 -11 -11 -11 -11 -10 -11 -10 -11 -11 -11 -11 -10 -10 -10 -10 -10 -10
-11 -11 -11 -11 -11 -11 -11 -11 -12 -11 -11 -12 -13 -14 -15 -15 -15 -15 -16 -16 -15 -15 -16 -15 -15 -15 -13 -13 -13 -13 -13 -12 -12 -11 -12 -12 -10 -10 -11 -11 -11 -11 -11 -11 -11 -11 -11 -11 -11
-11 -11 -11 -11 -11 -11 -11 -11 -12 -11 -12 -13 -14 -15 -15 -15 -15 -15 -15 -15 -15 -15 -15 -15 -14 -14 -14 -14 -13 -13 -13 -12 -12 -11 -12 -12 -10 -11 -11 -11 -11 -11 -11 -11 -11 -11 -11 -11 -11
-11 -12 -12 -12 -11 -11 -11 -12 -12 -12 -12 -13 -13 -14 -14 -14 -14 -15 -15 -15 -15 -15 -15 -14 -15 -14 -14 -13 -13 -14 -13 -12 -12 -12 -11 -12 -11 -11 -11 -11 -11 -11 -11 -11 -12 -12 -12 -12 -12
-12 -12 -12 -12 -11 -12 -12 -12 -12 -13 -13 -13 -13 -14 -14 -14 -14 -14 -15 -15 -15 -15 -15 -14 -14 -14 -14 -14 -14 -13 -12 -12 -12 -12 -12 -12 -12 -12 -11 -11 -11 -11 -12 -12 -12 -12 -12 -12 -12
-12 -12 -12 -12 -12 -12 -12 -13 -13 -14 -14 -13 -13 -14 -14 -14 -14 -14 -15 -15 -15 -15 -15 -14 -14 -15 -14 -13 -14 -13 -13 -13 -13 -12 -12 -12 -12 -12 -12 -11 -11 -12 -13 -12 -12 -12 -12 -12 -12
-12 -12 -12 -12 -12 -12 -12 -13 -14 -14 -14 -14 -13 -13 -13 -14 -14 -14 -14 -14 -15 -15 -15 -14 -14 -14 -14 -13 -13 -13 -14 -13 -12 -12 -12 -12 -12 -12 -11 -11 -12 -12 -12 -13 -12 -13 -13 -12 -13
-12 -12 -12 -12 -12 -12 -12 -14 -14 -14 -14 -14 -13 -12 -12 -13 -14 -14 -14 -14 -14 -15 -15 -15 -14 -14 -13 -13 -13 -13 -13 -12 -12 -11 -12 -12 -13 -12 -11 -11 -12 -12 -13 -12 -12 -13 -13 -12 -13
-12 -13 -13 -12 -12 -12 -13 -13 -14 -14 -14 -13 -13 -12 -12 -12 -13 -14 -14 -14 -14 -14 -14 -14 -14 -14 -13 -13 -13 -13 -12 -12 -12 -12 -12 -12 -12 -12 -12 -12 -12 -12 -13 -13 -12 -13 -12 -12 -13
-12 -13 -13 -12 -12 -12 -12 -12 -13 -14 -14 -14 -13 -13 -12 -12 -13 -14 -14 -13 -14 -13 -13 -13 -14 -13 -12 -12 -12 -12 -12 -12 -11 -11 -11 -11 -12 -12 -13 -12 -12 -12 -13 -13 -12 -13 -13 -13 -13
-12 -13 -13 -13 -12 -12 -13 -13 -13 -14 -14 -13 -13 -13 -13 -13 -13 -13 -13 -13 -13 -13 -13 -12 -12 -12 -12 -12 -12 -12 -11 -11 -12 -12 -11 -11 -12 -12 -13 -12 -12 -13 -13 -13 -13 -13 -13 -13 -14
-13 -13 -13 -13 -13 -12 -13 -13 -13 -14 -13 -12 -13 -13 -13 -13 -12 -12 -12 -12 -13 -13 -13 -12 -12 -12 -11 -12 -11 -12 -12 -12 -11 -12 -11 -12 -12 -12 -13 -13 -12 -13 -13 -13 -13 -13 -13 -13 -14
-13 -14 -13 -13 -13 -13 -13 -13 -14 -14 -14 -13 -13 -13 -13 -12 -13 -12 -12 -12 -13 -13 -13 -12 -12 -12 -12 -12 -12 -12 -12 -12 -12 -12 -12 -12 -12 -12 -12 -12 -13 -12 -13 -13 -13 -14 -13 -13 -14
-13 -13 -13 -13 -13 -13 -13 -13 -14 -14 -14 -13 -13 -14 -13 -13 -13 -13 -12 -12 -13 -13 -12 -12 -12 -12 -12 -12 -12 -12 -11 -12 -11 -12 -12 -12 -12 -12 -11 -12 -12 -13 -13 -13 -14 -13 -13 -14 -14
-13 -13 -13 -14 -13 -13 -13 -14 -14 -14 -14 -13 -13 -13 -13 -14 -14 -14 -13 -13 -12 -13 -13 -12 -12 -12 -12 -12 -12 -12 -12 -12 -13 -12 -12 -12 -12 -12 -12 -12 -13 -13 -13 -14 -14 -13 -14 -14 -15
-13 -13 -13 -13 -12 -13 -13 -14 -14 -14 -14 -14 -13 -13 -14 -14 -14 -14 -14 -13 -13 -12 -13 -12 -13 -13 -13 -12 -12 -13 -12 -12 -12 -13 -13 -13 -13 -12 -12 -12 -13 -13 -13 -14 -14 -14 -14 -14 -16
-14 -14 -13 -12 -12 -13 -13 -15 -14 -14 -14 -14 -14 -14 -14 -14 -14 -14 -14 -14 -13 -13 -13 -13 -13 -13 -13 -12 -13 -13 -13 -13 -13 -13 -13 -13 -13 -13 -13 -13 -13 -13 -14 -14 -14 -14 -15 -15 -16
-14 -13 -12 -12 -12 -13 -13 -14 -14 -15 -15 -14 -14 -14 -14 -14 -14 -14 -14 -14 -13 -12 -12 -12 -13 -14 -13 -13 -13 -13 -13 -13 -13 -13 -13 -14 -14 -13 -13 -13 -13 -13 -13 -14 -14 -15 -15 -16 -16
-13 -13 -12 -13 -13 -12 -13 -14 -15 -15 -15 -15 -14 -14 -14 -14 -14 -14 -14 -14 -13 -12 -13 -13 -13 -13 -13 -14 -13 -13 -13 -14 -13 -13 -14 -14 -13 -13 -13 -14 -14 -14 -14 -14 -15 -15 -16 -16 -17
-13 -13 -12 -13 -13 -12 -13 -13 -15 -15 -15 -15 -14 -13 -14 -14 -14 -14 -14 -14 -14 -13 -13 -13 -13 -13 -14 -14 -13 -13 -13 -14 -14 -14 -14 -14 -14 -14 -14 -14 -14 -14 -14 -15 -16 -16 -16 -16 -16
-13 -13 -13 -14 -14 -13 -12 -13 -14 -15 -16 -15 -14 -14 -14 -14 -14 -14 -14 -14 -14 -14 -14 -14 -14 -13 -13 -13 -14 -14 -14 -14 -14 -13 -14 -14 -14 -14 -14 -14 -14 -14 -15 -16 -16 -16 -16 -16 -16
-13 -14 -14 -13 -13 -13 -13 -12 -14 -14 -14 -15 -14 -14 -13 -14 -14 -14 -14 -14 -14 -14 -14 -14 -14 -14 -14 -13 -13 -13 -14 -14 -14 -14 -14 -14 -14 -14 -14 -14 -14 -15 -16 -16 -16 -16 -16 -15 -16
-13 -15 -14 -13 -13 -12 -13 -13 -14 -14 -14 -15 -14 -14 -13 -14 -14 -14 -15 -14 -14 -14 -14 -14 -14 -14 -13 -13 -14 -14 -14 -14 -14 -14 -14 -14 -14 -14 -14 -14 -15 -15 -15 -16 -16 -15 -15 -15 -16
-14 -14 -14 -13 -13 -12 -13 -13 -15 -14 -14 -14 -14 -14 -13 -13 -14 -14 -14 -14 -14 -14 -14 -14 -14 -14 -14 -14 -14 -13 -13 -14 -14 -14 -14 -14 -14 -14 -14 -14 -14 -15 -15 -16 -15 -15 -15 -15 -16
-14 -14 -14 -13 -13 -12 -14 -13 -14 -15 -14 -14 -14 -14 -14 -14 -13 -14 -14 -14 -14 -14 -14 -14 -14 -14 -14 -14 -14 -14 -14 -14 -14 -14 -14 -14 -14 -15 -15 -15 -15 -15 -15 -15 -15 -15 -15 -16 -16
-14 -14 -14 -14 -14 -14 -14 -12 -13 -14 -14 -14 -14 -14 -14 -14 -14 -14 -14 -14 -14 -14 -14 -14 -14 -14 -14 -14 -14 -14 -14 -14 -14 -14 -14 -14 -14 -14 -14 -14 -14 -15 -15 -15 -15 -15 -15 -16 -16
-15 -14 -14 -14 -14 -14 -13 -12 -13 -14 -14 -14 -14 -14 -14 -14 -14 -14 -14 -14 -14 -14 -14 -14 -14 -14 -14 -14 -15 -15 -14 -15 -15 -15 -15 -15 -15 -15 -15 -15 -15 -16 -15 -15 -15 -16 -16 -16 -16
-14 -15 -15 -14 -14 -13 -13 -13 -13 -14 -14 -14 -14 -14 -15 -14 -14 -14 -14 -14 -14 -14 -14 -14 -14 -15 -15 -15 -15 -15 -15 -15 -15 -15 -15 -15 -16 -15 -15 -16 -16 -16 -16 -15 -16 -16 -16 -16 -16
-15 -15 -14 -14 -13 -13 -13 -13 -14 -15 -14 -14 -15 -15 -15 -15 -14 -14 -15 -14 -14 -15 -15 -15 -15 -15 -15 -15 -15 -15 -15 -15 -16 -16 -16 -15 -16 -16 -16 -16 -16 -16 -16 -16 -16 -16 -16 -16 -16
-15 -16 -16 -16 -15 -15 -14 -13 -13 -15 -14 -14 -15 -15 -15 -15 -15 -15 -15 -15 -15 -15 -15 -15 -15 -15 -15 -15 -15 -15 -15 -15 -16 -16 -16 -16 -15 -16 -16 -16 -16 -16 -16 -16 -16 -15 -16 -16 -16

GFSSGP_500_temp_066.txt.gz
Temp
-10 -10 -10 -10 -10 -11 -11 -11 -11 -10 -11 -11 -11 -11 -12 -12 -13 -13 -13 -13 -13 -13 -13 -13 -14 -14 -14 -13 -12 -11 -11 -12 -12 -11 -11 -11 -11 -11 -11 -10 -9 -10 -10 -10 -10 -10 -10 -10 -10
-10 -10 -10 -10 -11 -11 -11 -11 -11 -11 -11 -11 -12 -12 -12 -13 -13 -13 -14 -14 -14 -15 -15 -15 -15 -15 -14 -14 -13 -14 -12 -13 -12 -11 -11 -11 -11 -11 -12 -10 -10 -9 -10 -10 -10 -11 -11 -11 -11
-11 -11 -10 -11 -11 -11 -12 -11 -11 -12 -12 -12 -12 -13 -13 -13 -13 -13 -14 -14 -15 -15 -15 -15 -15 -15 -14 -14 -14 -13 -13 -13 -12 -12 -11 -12 -11 -12 -12 -10 -9 -10 -10 -10 -10 -11 -12 -12 -12
-11 -11 -11 -11 -11 -11 -12 -11 -11 -12 -13 -12 -12 -12 -13 -14 -13 -14 -14 -14 -15 -15 -15 -15 -15 -15 -13 -15 -14 -14 -13 -13 -12 -12 -11 -12 -12 -12 -12 -11 -10 -10 -11 -11 -11 -11 -11 -12 -12
-11 -11 -11 -12 -12 -12 -12 -11 -11 -12 -13 -12 -12 -12 -13 -13 -13 -13 -14 -14 -14 -15 -15 -15 -15 -15 -14 -12 -13 -13 -14 -14 -13 -12 -12 -11 -12 -12 -12 -11 -11 -11 -11 -11 -11 -12 -12 -12 -12
-11 -11 -12 -12 -12 -12 -12 -12 -12 -13 -13 -13 -12 -13 -13 -13 -13 -13 -14 -14 -15 -15 -15 -15 -15 -15 -14 -13 -13 -14 -14 -13 -13 -12 -11 -12 -12 -12 -12 -12 -12 -11 -11 -11 -11 -12 -12 -12 -12
-11 -11 -12 -12 -12 -12 -12 -12 -13 -13 -13 -13 -13 -13 -14 -14 -13 -13 -13 -14 -14 -15 -14 -15 -15 -15 -14 -14 -13 -13 -13 -13 -13 -13 -12 -12 -12 -12 -12 -12 -12 -12 -12 -12 -11 -12 -12 -12 -12
-11 -12 -12 -12 -12 -12 -12 -12 -12 -12 -13 -13 -13 -13 -14 -13 -13 -13 -13 -14 -14 -15 -15 -14 -15 -14 -14 -14 -14 -13 -12 -13 -13 -13 -13 -12 -12 -11 -12 -13 -12 -12 -12 -11 -12 -12 -11 -12 -12
-12 -12 -12 -13 -12 -12 -12 -12 -12 -12 -13 -13 -13 -14 -13 -13 -13 -13 -13 -13 -14 -15 -14 -14 -14 -14 -14 -14 -14 -14 -13 -13 -12 -12 -12 -12 -12 -12 -12 -13 -13 -12 -12 -12 -12 -11 -12 -12 -12
-12 -12 -13 -12 -12 -13 -13 -12 -12 -13 -13 -13 -13 -13 -13 -13 -13 -13 -13 -12 -13 -14 -14 -14 -14 -13 -13 -14 -13 -13 -13 -12 -11 -12 -11 -12 -12 -12 -13 -13 -13 -12 -12 -12 -12 -11 -12 -12 -13
-12 -13 -13 -13 -12 -12 -13 -13 -12 -13 -13 -13 -13 -13 -13 -13 -13 -13 -12 -11 -12 -12 -13 -12 -13 -13 -13 -12 -12 -13 -12 -12 -12 -12 -12 -12 -12 -12 -12 -13 -13 -12 -12 -12 -12 -12 -12 -13 -13
-12 -13 -13 -13 -12 -12 -13 -12 -12 -13 -12 -13 -13 -13 -13 -12 -13 -13 -12 -11 -12 -12 -12 -12 -12 -12 -13 -12 -11 -12 -12 -12 -12 -12 -12 -12 -11 -12 -12 -12 -12 -12 -12 -12 -12 -12 -13 -13 -13
-12 -13 -13 -13 -13 -12 -13 -13 -13 -14 -13 -13 -13 -13 -13 -12 -13 -13 -12 -12 -12 -13 -12 -13 -12 -11 -11 -12 -11 -12 -12 -11 -12 -12 -12 -12 -11 -12 -12 -12 -13 -12 -12 -13 -12 -12 -13 -13 -13
-12 -13 -13 -13 -13 -12 -13 -13 -13 -13 -13 -14 -13 -13 -13 -13 -13 -13 -13 -13 -12 -13 -12 -13 -12 -11 -12 -12 -12 -12 -12 -12 -12 -12 -12 -12 -12 -12 -12 -12 -12 -12 -13 -12 -12 -13 -13 -13 -13
-12 -13 -13 -13 -13 -12 -13 -13 -14 -14 -14 -14 -13 -13 -13 -13 -13 -13 -14 -13 -13 -12 -13 -12 -12 -12 -12 -12 -12 -12 -12 -12 -12 -12 -12 -12 -12 -12 -11 -12 -12 -12 -13 -13 -13 -13 -13 -13 -13
-13 -13 -13 -14 -13 -12 -13 -13 -13 -14 -14 -14 -14 -14 -13 -13 -13 -13 -14 -14 -13 -13 -12 -13 -12 -12 -12 -12 -12 -12 -12 -12 -12 -12 -12 -12 -12 -12 -12 -12 -12 -12 -12 -13 -13 -14 -14 -14 -13
-13 -13 -13 -13 -12 -12 -13 -13 -13 -13 -14 -14 -14 -14 -14 -13 -13 -13 -14 -13 -13 -13 -12 -13 -13 -12 -12 -12 -12 -12 -12 -12 -12 -12 -12 -12 -12 -12 -12 -12 -12 -12 -13 -13 -13 -14 -13 -13 -14
-14 -14 -13 -13 -12 -12 -12 -13 -14 -13 -15 -15 -14 -14 -14 -13 -13 -13 -14 -13 -13 -12 -12 -12 -13 -12 -13 -12 -13 -13 -13 -13 -13 -13 -13 -13 -13 -13 -12 -12 -13 -13 -13 -13 -13 -13 -13 -14 -14
-14 -14 -13 -13 -13 -12 -12 -13 -14 -14 -15 -15 -15 -15 -14 -14 -13 -13 -14 -14 -13 -12 -12 -12 -13 -13 -13 -13 -13 -13 -13 -13 -13 -13 -13 -13 -13 -13 -13 -13 -13 -13 -13 -14 -13 -13 -13 -14 -15
-14 -13 -13 -13 -13 -13 -12 -12 -14 -14 -15 -15 -16 -15 -15 -14 -13 -13 -14 -14 -13 -13 -13 -13 -13 -13 -13 -13 -14 -13 -13 -13 -13 -13 -13 -14 -13 -13 -13 -13 -13 -14 -14 -14 -14 -13 -14 -15 -15
-14 -14 -14 -14 -13 -13 -12 -12 -13 -14 -14 -15 -15 -15 -15 -14 -13 -13 -13 -14 -14 -14 -14 -13 -13 -13 -13 -13 -13 -13 -13 -13 -13 -13 -13 -14 -14 -13 -13 -14 -14 -14 -13 -13 -14 -14 -15 -15 -15
-14 -14 -14 -14 -14 -13 -12 -11 -13 -14 -14 -14 -14 -14 -14 -14 -14 -13 -13 -13 -13 -14 -14 -14 -14 -13 -13 -13 -13 -13 -13 -13 -13 -14 -14 -14 -14 -14 -13 -14 -14 -14 -14 -14 -14 -15 -15 -15 -15
-14 -15 -14 -14 -13 -13 -13 -12 -13 -14 -13 -14 -14 -13 -14 -14 -14 -13 -14 -14 -14 -13 -14 -14 -14 -13 -13 -13 -13 -13 -13 -13 -13 -13 -13 -14 -14 -14 -14 -14 -14 -14 -14 -15 -15 -15 -15 -16 -15
-15 -15 -14 -14 -14 -13 -13 -13 -13 -13 -13 -13 -14 -13 -14 -14 -14 -14 -14 -14 -14 -14 -14 -14 -14 -14 -13 -13 -13 -13 -14 -14 -14 -13 -13 -13 -14 -14 -14 -14 -14 -14 -14 -15 -15 -15 -15 -15 -15
-15 -15 -14 -14 -13 -13 -13 -14 -13 -14 -14 -14 -14 -14 -14 -14 -14 -14 -14 -14 -14 -14 -14 -14 -14 -14 -14 -13 -13 -14 -14 -14 -14 -14 -13 -13 -14 -14 -14 -14 -14 -15 -15 -15 -15 -16 -16 -15 -16
-15 -14 -14 -14 -14 -14 -13 -13 -13 -14 -14 -14 -13 -14 -14 -14 -13 -13 -14 -14 -14 -14 -14 -14 -14 -14 -14 -14 -14 -14 -14 -14 -14 -14 -14 -14 -13 -14 -14 -14 -14 -14 -14 -14 -14 -15 -15 -15 -16
-14 -14 -15 -15 -14 -14 -14 -13 -13 -14 -14 -14 -14 -14 -14 -14 -14 -14 -14 -14 -14 -14 -14 -14 -14 -14 -14 -14 -14 -14 -14 -14 -14 -14 -14 -14 -14 -14 -14 -14 -14 -15 -15 -15 -15 -15 -15 -15 -15
-14 -15 -15 -14 -15 -14 -15 -13 -14 -15 -15 -14 -14 -14 -14 -14 -14 -14 -14 -14 -14 -14 -14 -14 -14 -14 -14 -14 -14 -14 -14 -14 -14 -14 -14 -14 -14 -15 -15 -14 -15 -15 -15 -15 -15 -15 -15 -15 -15
-14 -14 -15 -14 -15 -14 -16 -14 -14 -15 -15 -14 -14 -15 -14 -15 -14 -14 -14 -14 -14 -14 -15 -15 -15 -15 -14 -14 -14 -14 -14 -15 -15 -15 -15 -15 -15 -15 -14 -15 -15 -15 -15 -15 -15 -15 -16 -16 -16
-15 -15 -15 -15 -15 -15 -15 -16 -14 -15 -15 -15 -15 -15 -15 -15 -15 -15 -15 -15 -15 -15 -15 -15 -15 -15 -15 -15 -14 -14 -14 -15 -15 -15 -15 -15 -15 -15 -16 -15 -15 -15 -15 -16 -16 -16 -16 -16 -16

GFSSGP_500_temp_069.txt.gz
Temp
-10 -9 -10 -10 -10 -10 -11 -13 -11 -11 -11 -10 -10 -11 -11 -11 -11 -12 -12 -12 -12 -12 -12 -12 -12 -13 -13 -13 -12 -12 -12 -11 -11 -11 -11 -11 -11 -10 -10 -11 -10 -10 -9 -9 -9 -9 -9 -10 -10
-10 -10 -10 -10 -11 -12 -12 -13 -11 -11 -11 -11 -11 -11 -11 -11 -11 -12 -12 -12 -12 -13 -13 -13 -13 -14 -14 -13 -13 -13 -12 -12 -11 -12 -11 -12 -11 -11 -10 -10 -11 -11 -11 -10 -9 -10 -10 -10 -10
-10 -10 -10 -10 -11 -11 -12 -13 -12 -11 -11 -11 -12 -11 -11 -12 -11 -12 -12 -13 -13 -14 -14 -14 -15 -14 -15 -15 -14 -13 -13 -11 -13 -12 -12 -12 -11 -11 -11 -11 -11 -12 -10 -10 -10 -10 -10 -11 -11
-11 -11 -10 -11 -12 -13 -11 -12 -12 -11 -11 -11 -12 -12 -11 -11 -12 -12 -12 -13 -13 -13 -13 -14 -15 -14 -14 -13 -15 -14 -13 -12 -13 -13 -13 -12 -11 -11 -11 -11 -12 -11 -10 -10 -11 -10 -10 -11 -11
-11 -11 -11 -11 -11 -12 -11 -12 -12 -11 -11 -11 -11 -12 -13 -11 -12 -12 -12 -13 -13 -13 -14 -14 -15 -14 -15 -12 -13 -12 -15 -14 -13 -13 -13 -12 -11 -11 -11 -11 -11 -11 -11 -11 -11 -10 -11 -11 -11
-11 -11 -11 -12 -13 -14 -11 -12 -12 -11 -11 -12 -12 -12 -12 -12 -12 -12 -13 -13 -13 -13 -13 -13 -15 -14 -15 -15 -14 -12 -12 -14 -13 -13 -14 -13 -12 -12 -12 -12 -12 -11 -11 -11 -11 -11 -11 -11 -12
-11 -11 -11 -12 -12 -14 -12 -12 -12 -12 -12 -14 -12 -12 -13 -12 -12 -13 -13 -13 -13 -13 -13 -13 -14 -14 -14 -13 -13 -11 -11 -14 -13 -13 -12 -12 -12 -12 -12 -12 -12 -11 -11 -12 -11 -11 -11 -12 -12
-11 -11 -11 -12 -12 -12 -13 -12 -12 -12 -12 -12 -12 -13 -13 -12 -12 -13 -13 -13 -13 -13 -13 -13 -14 -14 -14 -13 -12 -12 -11 -14 -13 -12 -12 -12 -12 -12 -12 -12 -12 -12 -12 -12 -11 -11 -12 -12 -12
-11 -11 -11 -12 -14 -12 -13 -12 -12 -12 -12 -12 -12 -12 -12 -12 -13 -13 -13 -13 -12 -13 -13 -13 -14 -14 -13 -13 -12 -13 -12 -10 -13 -13 -13 -12 -12 -12 -11 -12 -11 -12 -12 -12 -12 -12 -12 -12 -11
-11 -12 -12 -13 -13 -13 -13 -12 -12 -12 -12 -13 -13 -12 -12 -13 -13 -13 -13 -12 -12 -12 -11 -13 -14 -13 -13 -13 -13 -12 -12 -12 -12 -13 -13 -13 -12 -12 -12 -11 -12 -12 -13 -12 -12 -12 -12 -12 -11
-12 -11 -13 -13 -13 -13 -13 -13 -13 -12 -12 -13 -12 -12 -12 -13 -13 -13 -12 -12 -12 -11 -11 -12 -12 -13 -13 -12 -12 -12 -12 -12 -12 -12 -12 -12 -12 -12 -12 -12 -12 -12 -13 -12 -12 -12 -12 -12 -12
-12 -12 -13 -13 -13 -12 -13 -13 -13 -13 -12 -12 -13 -13 -12 -13 -13 -13 -12 -12 -12 -11 -11 -12 -12 -12 -12 -12 -12 -12 -12 -12 -13 -11 -12 -12 -12 -12 -12 -12 -12 -13 -13 -13 -13 -12 -12 -12 -12
-12 -12 -13 -13 -13 -12 -12 -12 -12 -13 -12 -13 -13 -13 -12 -13 -13 -13 -12 -13 -12 -12 -12 -12 -12 -12 -11 -12 -11 -11 -12 -13 -12 -12 -12 -12 -12 -12 -12 -12 -12 -13 -13 -13 -13 -12 -12 -12 -12
-12 -13 -13 -13 -13 -12 -12 -12 -12 -13 -12 -13 -13 -13 -13 -13 -13 -13 -13 -13 -12 -12 -12 -12 -12 -12 -11 -11 -11 -11 -12 -12 -12 -12 -12 -12 -12 -12 -12 -12 -12 -12 -12 -13 -13 -12 -12 -12 -12
-13 -12 -13 -13 -13 -13 -12 -12 -13 -12 -12 -13 -13 -14 -13 -13 -13 -13 -13 -13 -13 -12 -12 -12 -12 -11 -11 -11 -11 -12 -12 -12 -12 -12 -12 -12 -12 -12 -12 -12 -12 -12 -12 -12 -13 -12 -13 -13 -13
-13 -13 -13 -13 -13 -13 -12 -13 -13 -12 -13 -13 -14 -14 -14 -13 -13 -13 -13 -13 -13 -12 -12 -11 -12 -12 -12 -12 -12 -12 -12 -12 -12 -12 -12 -12 -12 -12 -12 -12 -12 -12 -12 -12 -13 -13 -13 -13 -13
-13 -13 -13 -14 -13 -13 -12 -13 -14 -12 -12 -14 -14 -14 -14 -13 -13 -13 -13 -13 -13 -12 -12 -11 -12 -12 -12 -11 -11 -12 -12 -12 -12 -12 -12 -12 -12 -12 -12 -12 -11 -12 -12 -12 -12 -13 -13 -13 -13
-13 -13 -14 -14 -15 -12 -13 -13 -14 -13 -12 -14 -14 -14 -14 -13 -13 -13 -13 -13 -13 -12 -11 -11 -12 -12 -12 -12 -12 -12 -12 -12 -12 -12 -12 -12 -12 -12 -12 -12 -12 -12 -12 -12 -12 -13 -13 -13 -13
-14 -16 -15 -15 -15 -12 -13 -13 -14 -15 -14 -13 -14 -14 -13 -13 -13 -13 -13 -13 -12 -12 -12 -11 -12 -12 -12 -12 -12 -12 -12 -12 -12 -12 -12 -12 -13 -12 -12 -13 -12 -12 -12 -12 -12 -13 -13 -13 -13
-15 -15 -14 -15 -15 -13 -13 -12 -13 -14 -15 -14 -14 -14 -13 -13 -13 -13 -13 -13 -13 -12 -12 -12 -12 -13 -13 -13 -13 -13 -13 -13 -13 -13 -13 -13 -12 -13 -13 -13 -13 -13 -13 -13 -13 -13 -13 -13 -14
-14 -14 -14 -15 -16 -13 -13 -12 -13 -13 -13 -14 -13 -14 -13 -13 -13 -13 -13 -13 -13 -13 -12 -13 -13 -13 -13 -13 -13 -12 -13 -13 -13 -13 -13 -13 -13 -13 -13 -13 -13 -13 -13 -13 -13 -13 -14 -15 -14
-14 -14 -14 -14 -14 -13 -13 -13 -14 -15 -15 -14 -13 -13 -13 -13 -13 -13 -13 -12 -13 -13 -13 -13 -13 -13 -13 -13 -13 -13 -13 -13 -13 -12 -13 -13 -13 -14 -13 -13 -13 -13 -13 -14 -14 -13 -14 -15 -15
-14 -14 -14 -14 -14 -13 -13 -13 -14 -14 -15 -15 -13 -12 -13 -13 -13 -14 -13 -13 -13 -13 -13 -13 -13 -14 -14 -13 -13 -13 -13 -13 -13 -13 -13 -13 -13 -13 -13 -13 -14 -13 -14 -14 -14 -14 -14 -15 -15
-14 -14 -14 -14 -14 -13 -13 -13 -14 -14 -15 -14 -13 -12 -13 -14 -13 -14 -13 -13 -13 -13 -13 -13 -13 -13 -13 -13 -13 -12 -12 -13 -13 -13 -13 -13 -13 -13 -13 -14 -13 -14 -14 -14 -15 -15 -15 -15 -15
-14 -14 -15 -14 -14 -13 -14 -13 -13 -15 -14 -14 -12 -13 -13 -14 -14 -14 -13 -13 -13 -13 -14 -14 -13 -13 -13 -13 -13 -13 -14 -13 -14 -13 -14 -13 -14 -14 -13 -14 -14 -14 -14 -14 -15 -15 -15 -15 -15
-14 -14 -14 -14 -15 -13 -15 -14 -14 -14 -15 -13 -13 -13 -13 -13 -14 -14 -13 -13 -13 -13 -14 -14 -14 -13 -13 -13 -13 -13 -13 -13 -13 -14 -14 -14 -14 -14 -14 -14 -14 -14 -14 -15 -15 -15 -14 -15 -15
-14 -14 -14 -15 -15 -14 -14 -14 -14 -14 -14 -14 -14 -13 -13 -13 -14 -14 -13 -13 -13 -13 -13 -14 -14 -14 -14 -14 -13 -13 -13 -13 -13 -13 -13 -13 -13 -14 -14 -14 -14 -14 -14 -14 -14 -14 -15 -15 -15
-14 -15 -14 -15 -15 -15 -14 -15 -14 -14 -14 -15 -14 -14 -13 -13 -14 -14 -14 -14 -14 -14 -14 -14 -14 -14 -14 -14 -14 -14 -14 -14 -14 -14 -14 -14 -14 -14 -14 -14 -14 -14 -15 -15 -14 -15 -15 -15 -15
-14 -14 -14 -16 -15 -16 -15 -15 -14 -14 -14 -15 -15 -13 -14 -14 -14 -14 -14 -14 -14 -14 -14 -14 -14 -14 -14 -14 -14 -14 -14 -14 -14 -14 -14 -14 -14 -14 -14 -14 -14 -14 -14 -14 -14 -14 -15 -15 -15
-15 -15 -15 -15 -16 -15 -15 -14 -14 -15 -15 -14 -14 -15 -15 -14 -14 -14 -14 -14 -14 -14 -14 -15 -14 -14 -14 -14 -14 -14 -14 -14 -14 -14 -14 -14 -14 -14 -14 -14 -14 -14 -14 -14 -14 -14 -15 -15 -15

GFSSGP_500_temp_072.txt.gz
Temp
-10 -10 -9 -9 -9 -9 -10 -12 -12 -12 -11 -10 -10 -10 -10 -11 -11 -11 -10 -11 -11 -11 -11 -11 -11 -11 -11 -11 -12 -11 -12 -11 -12 -12 -11 -11 -11 -11 -11 -10 -10 -11 -10 -9 -9 -9 -9 -9 -9
-10 -10 -10 -9 -9 -10 -11 -12 -12 -12 -10 -11 -10 -10 -11 -11 -10 -10 -10 -12 -12 -11 -11 -11 -12 -12 -11 -12 -12 -12 -12 -13 -13 -12 -12 -11 -11 -11 -11 -10 -10 -10 -11 -10 -10 -10 -9 -9 -10
-10 -10 -10 -10 -10 -10 -11 -12 -13 -11 -12 -11 -10 -10 -10 -11 -10 -11 -11 -11 -11 -12 -11 -12 -12 -12 -13 -12 -13 -11 -14 -14 -13 -12 -12 -12 -12 -12 -11 -11 -11 -10 -11 -11 -10 -10 -10 -10 -10
-10 -10 -10 -10 -10 -11 -13 -13 -12 -12 -12 -11 -10 -11 -11 -10 -11 -11 -11 -11 -12 -12 -13 -13 -13 -13 -13 -14 -13 -14 -14 -14 -14 -13 -12 -12 -12 -12 -12 -12 -11 -11 -11 -11 -11 -10 -10 -11 -10
-10 -11 -10 -10 -10 -11 -13 -12 -12 -12 -12 -12 -11 -11 -11 -11 -11 -11 -11 -11 -12 -12 -12 -13 -13 -13 -13 -14 -14 -10 -13 -14 -14 -13 -13 -13 -12 -12 -12 -11 -12 -12 -11 -11 -11 -10 -11 -11 -11
-10 -11 -11 -10 -11 -13 -13 -13 -12 -12 -12 -11 -11 -10 -11 -11 -11 -12 -12 -11 -12 -12 -12 -12 -13 -13 -14 -14 -14 -10 -10 -11 -12 -13 -13 -13 -14 -13 -12 -11 -11 -11 -11 -11 -11 -11 -11 -11 -11
-10 -11 -11 -11 -11 -12 -13 -13 -11 -12 -12 -12 -12 -12 -12 -11 -11 -12 -12 -12 -13 -13 -13 -12 -13 -14 -14 -14 -13 -13 -12 -11 -11 -13 -12 -13 -13 -13 -12 -12 -11 -12 -12 -11 -11 -11 -12 -11 -11
-11 -11 -11 -11 -11 -12 -14 -14 -11 -12 -12 -12 -12 -12 -12 -11 -12 -12 -12 -12 -12 -12 -12 -12 -13 -13 -13 -14 -13 -13 -12 -12 -12 -12 -13 -12 -13 -13 -13 -12 -12 -12 -12 -12 -12 -12 -12 -11 -11
-11 -11 -11 -11 -12 -13 -14 -14 -12 -13 -12 -12 -12 -11 -11 -11 -12 -12 -12 -12 -12 -12 -12 -12 -12 -13 -13 -13 -13 -12 -12 -11 -10 -12 -14 -13 -12 -12 -12 -12 -12 -12 -12 -12 -12 -12 -12 -11 -11
-11 -11 -11 -12 -12 -14 -14 -14 -13 -13 -12 -12 -12 -12 -11 -12 -12 -12 -12 -12 -12 -11 -12 -12 -12 -13 -13 -13 -13 -12 -12 -11 -10 -12 -13 -12 -12 -13 -12 -12 -12 -11 -12 -12 -12 -12 -12 -12 -11
-11 -11 -12 -12 -13 -15 -13 -13 -13 -13 -13 -13 -13 -12 -12 -11 -12 -12 -12 -12 -12 -11 -11 -12 -13 -12 -12 -12 -12 -13 -12 -12 -11 -12 -12 -13 -13 -13 -13 -13 -12 -12 -12 -12 -12 -12 -12 -12 -12
-12 -12 -12 -12 -13 -12 -12 -13 -13 -13 -13 -13 -13 -12 -13 -12 -13 -12 -12 -12 -12 -12 -12 -13 -13 -12 -12 -12 -12 -13 -12 -12 -11 -11 -12 -12 -12 -13 -13 -12 -12 -12 -12 -13 -12 -12 -13 -12 -12
-12 -12 -12 -13 -13 -13 -13 -13 -13 -13 -13 -13 -12 -12 -12 -12 -13 -13 -12 -13 -12 -12 -12 -12 -12 -12 -12 -12 -12 -12 -12 -12 -11 -11 -12 -12 -12 -12 -12 -12 -12 -12 -12 -12 -12 -13 -13 -12 -12
-14 -13 -13 -13 -13 -13 -13 -12 -13 -13 -13 -12 -12 -12 -13 -13 -13 -13 -13 -13 -12 -12 -12 -12 -11 -12 -12 -11 -12 -12 -12 -12 -12 -12 -11 -12 -12 -12 -12 -12 -12 -12 -12 -12 -12 -13 -13 -13 -12
-14 -13 -12 -13 -13 -13 -13 -12 -12 -13 -12 -12 -12 -12 -13 -13 -13 -13 -13 -13 -12 -12 -12 -11 -11 -12 -12 -11 -12 -11 -11 -12 -12 -12 -12 -12 -12 -12 -12 -12 -12 -12 -12 -12 -13 -13 -13 -13 -13
-14 -14 -13 -13 -13 -13 -13 -12 -13 -13 -12 -12 -12 -12 -13 -13 -13 -13 -13 -13 -12 -12 -12 -11 -11 -11 -12 -11 -10 -11 -11 -11 -11 -12 -12 -12 -12 -12 -12 -12 -12 -12 -12 -12 -12 -13 -13 -13 -13
-14 -13 -13 -13 -13 -14 -13 -12 -13 -13 -12 -13 -13 -12 -13 -13 -13 -13 -13 -13 -12 -12 -11 -11 -10 -10 -11 -11 -11 -10 -10 -11 -11 -11 -12 -12 -12 -12 -12 -12 -12 -12 -12 -12 -12 -13 -13 -12 -13
-14 -14 -14 -13 -14 -14 -14 -13 -14 -13 -12 -12 -13 -13 -12 -13 -12 -13 -13 -13 -12 -12 -11 -11 -11 -11 -11 -11 -11 -11 -10 -10 -11 -11 -11 -12 -12 -12 -12 -12 -12 -12 -12 -12 -12 -12 -13 -13 -13
-15 -15 -15 -15 -14 -14 -14 -13 -13 -14 -13 -13 -12 -13 -13 -12 -13 -13 -12 -13 -12 -12 -11 -11 -11 -11 -11 -11 -11 -11 -11 -11 -11 -11 -12 -12 -12 -12 -12 -12 -12 -12 -12 -12 -12 -12 -12 -13 -13
-15 -15 -15 -15 -15 -15 -15 -13 -13 -13 -14 -14 -14 -12 -12 -12 -13 -13 -12 -13 -13 -12 -12 -12 -11 -12 -12 -11 -11 -11 -12 -12 -12 -12 -12 -12 -12 -12 -12 -13 -13 -12 -12 -13 -12 -12 -12 -13 -13
-15 -15 -15 -15 -15 -15 -14 -13 -13 -13 -13 -14 -15 -13 -14 -12 -13 -13 -12 -13 -13 -13 -12 -12 -12 -12 -12 -13 -12 -12 -12 -13 -13 -13 -12 -12 -12 -12 -12 -13 -13 -13 -13 -13 -13 -14 -13 -13 -13
-15 -15 -16 -15 -15 -15 -15 -14 -15 -14 -14 -13 -13 -12 -13 -13 -13 -13 -12 -13 -13 -13 -13 -13 -13 -12 -12 -13 -13 -12 -12 -12 -12 -12 -12 -12 -12 -12 -13 -13 -13 -13 -13 -13 -13 -14 -13 -13 -14
-14 -15 -15 -16 -15 -15 -14 -14 -13 -14 -14 -14 -14 -13 -11 -13 -13 -13 -12 -12 -13 -13 -13 -13 -13 -13 -13 -13 -13 -12 -12 -12 -12 -12 -13 -13 -12 -12 -12 -13 -13 -13 -13 -13 -14 -14 -14 -14 -15
-15 -15 -16 -16 -16 -14 -13 -13 -13 -14 -14 -14 -15 -14 -12 -13 -13 -13 -13 -12 -13 -13 -13 -13 -13 -13 -13 -13 -13 -13 -12 -12 -12 -13 -13 -13 -13 -13 -13 -13 -13 -13 -13 -14 -14 -14 -14 -14 -15
-14 -15 -16 -15 -14 -13 -13 -14 -13 -14 -14 -13 -13 -13 -13 -13 -13 -13 -13 -13 -13 -13 -13 -13 -13 -13 -13 -13 -13 -13 -12 -12 -13 -13 -13 -13 -13 -13 -14 -14 -13 -14 -14 -14 -14 -14 -14 -14 -15
-15 -15 -15 -16 -15 -13 -13 -13 -13 -14 -14 -14 -13 -13 -13 -12 -13 -13 -13 -13 -13 -13 -13 -13 -13 -13 -13 -13 -13 -13 -13 -13 -13 -13 -13 -13 -13 -14 -13 -14 -14 -14 -14 -14 -14 -14 -14 -15 -15
-15 -14 -14 -14 -14 -14 -13 -14 -14 -14 -13 -13 -13 -13 -13 -12 -13 -13 -13 -13 -13 -13 -13 -13 -13 -14 -13 -13 -13 -13 -13 -13 -13 -13 -13 -13 -13 -13 -13 -13 -14 -14 -14 -14 -15 -15 -15 -15 -15
-15 -15 -15 -15 -15 -14 -14 -14 -14 -14 -13 -14 -13 -13 -13 -12 -13 -13 -13 -13 -13 -13 -13 -14 -13 -14 -13 -13 -13 -13 -13 -13 -13 -13 -13 -13 -13 -13 -13 -13 -13 -13 -13 -13 -14 -14 -14 -15 -15
-16 -15 -15 -15 -15 -15 -14 -14 -13 -13 -15 -14 -14 -13 -12 -13 -13 -13 -13 -14 -13 -14 -14 -14 -14 -14 -14 -13 -13 -14 -14 -14 -14 -13 -13 -13 -13 -13 -13 -13 -13 -14 -14 -13 -13 -14 -14 -14 -15
-16 -15 -15 -15 -15 -15 -14 -14 -14 -14 -15 -15 -14 -14 -13 -13 -13 -13 -14 -14 -14 -14 -14 -14 -14 -14 -14 -14 -14 -14 -14 -14 -14 -14 -14 -14 -14 -14 -14 -14 -14 -14 -14 -13 -14 -14 -14 -14 -15

GFSSGP_500_temp_075.txt.gz
Temp
-9 -9 -9 -9 -9 -10 -10 -10 -9 -10 -11 -11 -10 -11 -11 -11 -10 -10 -10 -10 -11 -11 -11 -11 -11 -11 -11 -11 -11 -11 -11 -11 -11 -11 -11 -11 -11 -11 -10 -10 -10 -10 -11 -11 -10 -10 -9 -9 -9
-9 -9 -9 -9 -9 -10 -10 -10 -10 -12 -11 -11 -11 -12 -11 -10 -10 -10 -11 -12 -11 -11 -12 -12 -11 -12 -12 -11 -11 -11 -11 -11 -12 -12 -12 -12 -11 -11 -11 -11 -11 -11 -11 -11 -10 -10 -10 -10 -9
-9 -9 -9 -9 -9 -10 -11 -10 -12 -11 -10 -11 -12 -12 -11 -10 -9 -10 -11 -11 -11 -11 -12 -12 -12 -11 -12 -12 -12 -12 -12 -12 -12 -12 -12 -13 -12 -11 -11 -12 -11 -11 -11 -11 -11 -10 -10 -10 -10
-9 -9 -9 -9 -10 -10 -11 -11 -11 -11 -11 -12 -11 -11 -11 -10 -10 -11 -11 -12 -12 -12 -11 -12 -12 -11 -12 -12 -12 -12 -12 -12 -13 -13 -13 -13 -13 -11 -12 -12 -12 -12 -12 -11 -11 -11 -11 -10 -10
-9 -9 -9 -9 -10 -11 -11 -13 -13 -13 -12 -12 -12 -11 -11 -11 -10 -11 -11 -12 -12 -12 -11 -12 -12 -12 -12 -12 -12 -12 -12 -12 -13 -14 -13 -13 -12 -12 -12 -12 -12 -12 -12 -12 -11 -11 -11 -10 -11
-10 -10 -9 -10 -10 -11 -11 -11 -13 -14 -12 -12 -13 -12 -11 -10 -11 -11 -12 -12 -12 -11 -11 -12 -12 -12 -12 -12 -13 -12 -12 -11 -11 -11 -14 -13 -13 -12 -12 -12 -12 -12 -12 -12 -12 -11 -11 -11 -11
-11 -10 -10 -10 -10 -10 -11 -12 -14 -14 -12 -12 -12 -12 -11 -10 -11 -11 -12 -12 -13 -12 -11 -11 -11 -11 -12 -13 -13 -14 -12 -12 -11 -11 -11 -11 -13 -13 -12 -12 -12 -12 -12 -12 -11 -12 -12 -11 -11
-11 -11 -10 -10 -11 -10 -13 -13 -14 -14 -13 -13 -13 -12 -11 -11 -12 -11 -12 -12 -12 -12 -12 -11 -11 -11 -12 -12 -13 -14 -13 -12 -11 -11 -11 -10 -13 -12 -12 -12 -12 -12 -11 -12 -12 -12 -11 -11 -11
-12 -10 -9 -11 -11 -12 -13 -13 -14 -14 -13 -12 -12 -12 -11 -12 -12 -12 -12 -13 -12 -12 -12 -11 -11 -12 -12 -12 -13 -13 -14 -12 -12 -11 -11 -11 -12 -13 -12 -13 -12 -12 -12 -11 -12 -12 -12 -11 -11
-12 -10 -10 -11 -11 -12 -12 -14 -15 -14 -12 -12 -12 -11 -10 -11 -12 -12 -12 -13 -13 -13 -13 -12 -12 -11 -12 -12 -13 -13 -13 -12 -12 -12 -11 -12 -13 -12 -12 -12 -13 -12 -12 -12 -12 -12 -12 -12 -12
-12 -10 -12 -12 -12 -13 -13 -13 -14 -15 -14 -12 -13 -12 -11 -12 -12 -12 -13 -12 -12 -11 -12 -12 -12 -12 -12 -12 -12 -13 -12 -12 -12 -10 -12 -12 -12 -12 -13 -12 -13 -12 -12 -12 -13 -12 -12 -12 -12
-13 -13 -13 -12 -12 -14 -13 -12 -12 -13 -13 -13 -13 -13 -11 -13 -12 -12 -13 -13 -12 -12 -12 -12 -12 -12 -12 -12 -12 -13 -12 -12 -12 -12 -10 -11 -11 -13 -13 -12 -12 -13 -13 -12 -12 -12 -12 -12 -12
-14 -14 -13 -13 -13 -14 -14 -13 -12 -12 -13 -13 -13 -13 -13 -12 -13 -13 -13 -13 -12 -12 -12 -12 -12 -12 -12 -12 -12 -12 -12 -12 -11 -11 -11 -11 -12 -13 -13 -12 -12 -13 -12 -12 -12 -13 -12 -12 -12
-14 -14 -14 -13 -13 -14 -14 -13 -12 -12 -13 -13 -13 -13 -12 -12 -13 -13 -13 -13 -12 -12 -12 -12 -12 -12 -12 -12 -12 -12 -12 -12 -11 -11 -12 -12 -12 -13 -12 -13 -12 -12 -12 -12 -12 -13 -13 -12 -12
-15 -15 -14 -14 -13 -12 -14 -13 -12 -12 -13 -13 -13 -13 -11 -12 -13 -13 -13 -13 -13 -12 -12 -12 -12 -12 -12 -12 -11 -12 -12 -12 -12 -11 -12 -12 -12 -12 -12 -12 -12 -12 -12 -12 -12 -12 -12 -12 -12
-15 -15 -14 -14 -13 -12 -14 -12 -12 -13 -13 -13 -13 -12 -11 -12 -13 -13 -14 -13 -13 -12 -11 -11 -12 -11 -12 -12 -12 -12 -12 -12 -11 -12 -12 -12 -12 -12 -11 -12 -12 -12 -12 -12 -12 -12 -12 -12 -12
-15 -15 -15 -14 -14 -14 -14 -12 -13 -14 -13 -13 -12 -12 -12 -12 -13 -13 -14 -14 -12 -12 -12 -11 -11 -11 -11 -12 -12 -11 -11 -11 -11 -11 -11 -12 -11 -12 -12 -12 -12 -12 -12 -12 -12 -12 -13 -13 -13
-15 -15 -15 -15 -14 -14 -15 -14 -13 -14 -14 -13 -13 -13 -12 -11 -13 -12 -13 -13 -12 -12 -12 -11 -11 -11 -11 -11 -11 -11 -12 -11 -11 -11 -11 -11 -11 -12 -12 -12 -12 -12 -12 -12 -12 -12 -12 -12 -13
-16 -16 -15 -16 -15 -15 -15 -15 -14 -14 -15 -13 -12 -12 -13 -12 -12 -13 -13 -13 -13 -12 -12 -12 -11 -11 -11 -12 -11 -11 -12 -11 -12 -11 -11 -11 -12 -12 -12 -12 -12 -12 -12 -11 -12 -12 -12 -12 -12
-15 -15 -15 -15 -15 -15 -15 -15 -15 -14 -14 -13 -12 -12 -12 -12 -13 -13 -13 -13 -13 -13 -13 -12 -12 -12 -12 -12 -12 -12 -12 -11 -11 -12 -12 -12 -12 -12 -12 -12 -13 -13 -13 -13 -13 -13 -12 -12 -12
-15 -15 -15 -16 -15 -15 -15 -15 -15 -13 -14 -14 -13 -13 -13 -12 -12 -13 -13 -13 -12 -13 -13 -13 -12 -12 -12 -12 -12 -12 -12 -12 -12 -12 -12 -12 -12 -13 -12 -12 -13 -13 -13 -13 -13 -12 -12 -12 -13
-15 -16 -16 -17 -16 -15 -15 -14 -14 -15 -15 -14 -14 -13 -13 -13 -12 -13 -13 -13 -13 -13 -13 -13 -13 -13 -12 -12 -12 -12 -12 -13 -12 -12 -13 -13 -12 -12 -12 -12 -12 -12 -13 -13 -13 -13 -13 -12 -14
-16 -17 -16 -16 -16 -15 -14 -14 -13 -13 -13 -13 -14 -14 -14 -12 -12 -13 -13 -13 -13 -13 -13 -13 -13 -13 -13 -12 -12 -12 -12 -12 -12 -13 -13 -13 -13 -13 -13 -13 -13 -13 -13 -13 -13 -13 -12 -13 -13
-15 -16 -16 -15 -16 -15 -14 -13 -12 -13 -13 -14 -13 -15 -14 -12 -13 -13 -13 -13 -13 -13 -13 -13 -13 -13 -13 -13 -13 -12 -12 -12 -12 -13 -13 -13 -13 -12 -13 -13 -13 -14 -14 -13 -14 -13 -13 -14 -14
-16 -15 -16 -16 -16 -14 -14 -14 -12 -14 -14 -13 -14 -15 -13 -13 -13 -13 -13 -13 -13 -13 -13 -13 -13 -13 -13 -13 -13 -13 -12 -11 -11 -12 -13 -13 -12 -13 -13 -13 -13 -13 -13 -14 -14 -14 -14 -14 -14
-16 -16 -15 -16 -16 -15 -15 -13 -12 -14 -14 -14 -14 -14 -13 -13 -13 -13 -13 -13 -13 -13 -13 -14 -14 -14 -13 -13 -13 -13 -13 -13 -12 -12 -12 -13 -13 -13 -13 -13 -13 -12 -12 -13 -14 -14 -14 -14 -14
-16 -16 -16 -16 -16 -15 -14 -13 -15 -14 -14 -13 -14 -14 -14 -13 -13 -13 -13 -13 -13 -13 -13 -14 -14 -14 -13 -13 -13 -13 -13 -13 -13 -13 -13 -13 -13 -13 -13 -13 -13 -13 -13 -14 -14 -14 -14 -14 -15
-17 -17 -17 -16 -16 -15 -14 -14 -14 -14 -14 -13 -14 -14 -14 -13 -12 -13 -13 -13 -13 -13 -13 -14 -14 -14 -14 -13 -13 -13 -13 -13 -13 -13 -13 -13 -13 -13 -13 -13 -13 -13 -13 -13 -14 -14 -14 -15 -15
-18 -17 -17 -16 -15 -15 -14 -14 -14 -14 -14 -14 -14 -14 -13 -13 -13 -13 -13 -13 -14 -14 -14 -14 -14 -14 -14 -14 -14 -14 -14 -13 -14 -14 -14 -14 -13 -13 -13 -13 -14 -14 -14 -14 -14 -14 -14 -14 -14
-18 -17 -17 -16 -15 -15 -14 -14 -14 -14 -14 -14 -14 -14 -14 -13 -13 -13 -13 -13 -13 -14 -14 -14 -14 -14 -14 -14 -14 -14 -14 -14 -14 -14 -14 -14 -14 -14 -14 -14 -14 -14 -14 -14 -14 -14 -14 -15 -15

GFSSGP_500_temp_078.txt.gz
Temp
-8 -8 -8 -8 -9 -9 -9 -9 -9 -9 -9 -9 -9 -11 -11 -12 -12 -12 -11 -10 -11 -11 -11 -12 -11 -11 -11 -11 -11 -11 -11 -11 -11 -11 -11 -12 -11 -11 -11 -11 -11 -11 -11 -11 -11 -10 -10 -10 -10
-8 -8 -8 -8 -9 -9 -9 -9 -9 -9 -9 -9 -10 -11 -11 -12 -12 -11 -10 -11 -11 -11 -12 -12 -12 -12 -11 -12 -11 -11 -11 -12 -11 -11 -12 -12 -12 -12 -12 -11 -11 -11 -11 -11 -11 -11 -10 -10 -10
-8 -8 -8 -8 -9 -10 -10 -9 -9 -9 -10 -9 -10 -11 -11 -11 -11 -11 -10 -11 -11 -12 -12 -12 -12 -12 -11 -11 -12 -12 -12 -12 -12 -12 -12 -12 -13 -12 -12 -12 -11 -11 -11 -11 -11 -11 -11 -10 -10
-8 -8 -8 -8 -9 -10 -10 -10 -9 -9 -10 -9 -10 -12 -11 -11 -11 -11 -10 -10 -11 -12 -12 -12 -12 -12 -11 -11 -11 -12 -12 -12 -12 -12 -13 -13 -13 -12 -12 -13 -12 -12 -12 -11 -11 -11 -11 -10 -10
-8 -8 -8 -8 -10 -11 -10 -11 -9 -9 -10 -10 -9 -11 -11 -11 -11 -11 -11 -11 -11 -11 -12 -12 -12 -12 -11 -11 -12 -12 -12 -12 -12 -11 -12 -13 -13 -13 -13 -13 -13 -12 -12 -11 -11 -12 -11 -11 -11
-8 -8 -7 -8 -10 -11 -11 -10 -10 -10 -10 -11 -9 -11 -11 -12 -12 -11 -11 -11 -11 -11 -11 -12 -12 -12 -12 -11 -12 -12 -12 -12 -12 -12 -12 -11 -12 -13 -12 -13 -13 -12 -12 -12 -12 -12 -11 -11 -11
-9 -8 -7 -8 -9 -11 -11 -11 -11 -11 -11 -13 -12 -11 -11 -12 -11 -12 -12 -11 -11 -12 -12 -12 -12 -12 -11 -12 -12 -11 -12 -12 -10 -11 -12 -11 -11 -11 -13 -13 -13 -12 -12 -12 -12 -12 -11 -11 -12
-8 -8 -7 -7 -9 -10 -13 -11 -11 -11 -12 -12 -12 -10 -11 -12 -11 -12 -12 -12 -12 -12 -12 -12 -12 -11 -11 -12 -12 -12 -12 -12 -12 -12 -11 -11 -11 -11 -12 -13 -13 -12 -12 -12 -12 -12 -12 -11 -12
-8 -7 -7 -8 -11 -11 -13 -12 -11 -11 -12 -13 -12 -11 -11 -12 -13 -13 -13 -12 -12 -12 -12 -12 -11 -11 -11 -12 -12 -12 -12 -12 -12 -12 -11 -12 -12 -11 -11 -13 -13 -12 -12 -12 -12 -12 -11 -12 -12
-9 -8 -8 -11 -12 -12 -13 -12 -12 -11 -12 -12 -10 -11 -11 -12 -12 -12 -12 -12 -12 -12 -12 -12 -12 -12 -12 -12 -12 -12 -12 -13 -13 -12 -12 -12 -11 -11 -12 -13 -13 -12 -12 -12 -12 -11 -11 -12 -12
-9 -8 -10 -10 -12 -13 -13 -13 -13 -12 -12 -12 -12 -11 -11 -12 -12 -13 -12 -13 -12 -13 -13 -12 -12 -12 -12 -12 -12 -12 -13 -13 -12 -12 -12 -11 -11 -12 -11 -12 -12 -12 -12 -12 -12 -12 -12 -12 -13
-9 -9 -9 -11 -13 -13 -13 -14 -13 -12 -13 -12 -12 -12 -12 -12 -12 -13 -13 -13 -13 -13 -12 -12 -12 -12 -12 -12 -12 -12 -12 -12 -12 -13 -12 -11 -11 -12 -12 -12 -13 -13 -13 -12 -12 -12 -12 -12 -13
-10 -11 -12 -11 -12 -13 -14 -13 -14 -13 -13 -12 -13 -13 -13 -13 -13 -13 -13 -13 -13 -13 -13 -12 -12 -12 -13 -12 -12 -12 -12 -13 -12 -12 -12 -11 -11 -12 -13 -12 -13 -13 -13 -12 -12 -12 -12 -13 -13
-12 -11 -11 -12 -12 -14 -14 -14 -14 -13 -13 -13 -13 -14 -13 -13 -13 -13 -13 -14 -13 -13 -13 -12 -12 -12 -12 -13 -12 -12 -12 -12 -12 -12 -11 -11 -11 -12 -13 -12 -12 -12 -12 -13 -13 -13 -12 -12 -12
-12 -12 -13 -13 -14 -14 -15 -14 -14 -13 -12 -13 -14 -14 -14 -13 -13 -13 -13 -14 -14 -14 -13 -12 -12 -12 -12 -12 -12 -12 -12 -12 -12 -12 -11 -11 -11 -11 -12 -12 -13 -13 -13 -13 -13 -12 -12 -12 -12
-14 -13 -13 -13 -14 -15 -15 -14 -14 -13 -13 -13 -14 -14 -14 -13 -13 -13 -13 -14 -14 -14 -13 -12 -12 -12 -12 -12 -12 -12 -12 -12 -12 -11 -11 -11 -12 -12 -12 -13 -13 -13 -13 -13 -12 -12 -12 -12 -13
-14 -14 -14 -13 -15 -15 -16 -14 -14 -14 -14 -14 -14 -14 -14 -13 -12 -14 -14 -15 -14 -14 -13 -13 -12 -12 -11 -12 -12 -12 -12 -12 -12 -11 -11 -12 -12 -12 -12 -13 -13 -13 -13 -12 -13 -13 -13 -12 -13
-14 -14 -14 -13 -14 -16 -16 -15 -15 -14 -15 -14 -13 -13 -14 -13 -12 -14 -14 -14 -14 -13 -13 -13 -12 -11 -11 -12 -12 -12 -12 -12 -12 -12 -12 -12 -12 -12 -13 -12 -13 -12 -12 -13 -12 -12 -12 -13 -12
-14 -14 -14 -13 -15 -16 -15 -14 -14 -14 -14 -14 -13 -14 -13 -13 -13 -14 -14 -14 -13 -13 -13 -13 -13 -12 -12 -12 -11 -11 -12 -12 -12 -12 -12 -12 -12 -12 -12 -12 -12 -12 -13 -13 -12 -12 -12 -12 -11
-15 -15 -14 -14 -15 -16 -16 -15 -14 -14 -14 -13 -13 -13 -13 -13 -13 -15 -15 -14 -13 -13 -13 -13 -13 -12 -12 -12 -11 -12 -12 -12 -12 -12 -12 -12 -12 -12 -12 -12 -13 -13 -13 -13 -13 -12 -13 -12 -12
-15 -15 -14 -14 -16 -15 -15 -14 -15 -14 -13 -13 -14 -14 -14 -13 -13 -15 -15 -14 -13 -13 -13 -13 -13 -13 -13 -12 -12 -12 -12 -12 -12 -12 -12 -12 -12 -12 -12 -12 -12 -12 -12 -12 -12 -12 -12 -12 -13
-15 -15 -15 -15 -16 -15 -16 -13 -14 -14 -13 -13 -14 -14 -13 -13 -13 -15 -15 -14 -13 -12 -12 -13 -13 -13 -13 -13 -13 -12 -12 -12 -12 -12 -12 -12 -12 -12 -13 -12 -13 -12 -12 -12 -12 -12 -12 -12 -13
-15 -15 -15 -16 -16 -15 -16 -14 -14 -14 -13 -12 -13 -14 -13 -13 -13 -15 -15 -14 -13 -13 -13 -13 -14 -13 -13 -13 -13 -12 -12 -12 -13 -12 -12 -12 -12 -12 -12 -13 -12 -12 -13 -13 -12 -12 -12 -12 -14
-15 -15 -16 -16 -15 -14 -14 -14 -13 -14 -13 -13 -13 -13 -12 -13 -14 -15 -15 -14 -13 -13 -13 -13 -13 -13 -13 -13 -13 -13 -13 -12 -12 -13 -13 -13 -13 -13 -13 -13 -13 -13 -13 -13 -13 -14 -13 -13 -13
-15 -16 -16 -16 -16 -13 -15 -16 -12 -14 -14 -14 -13 -13 -13 -12 -14 -15 -15 -14 -14 -14 -13 -13 -14 -14 -13 -13 -13 -13 -13 -13 -12 -13 -13 -13 -13 -13 -13 -13 -13 -13 -13 -13 -14 -14 -14 -14 -14
-15 -16 -17 -16 -15 -14 -15 -15 -13 -14 -15 -14 -13 -13 -13 -13 -14 -14 -15 -14 -14 -14 -13 -14 -14 -14 -14 -13 -13 -13 -13 -13 -13 -13 -14 -14 -14 -13 -13 -13 -13 -14 -14 -14 -14 -13 -14 -14 -14
-16 -16 -16 -16 -16 -15 -15 -15 -15 -15 -15 -14 -13 -13 -13 -14 -14 -15 -14 -14 -14 -14 -14 -14 -14 -14 -14 -14 -13 -13 -13 -13 -13 -14 -14 -14 -14 -14 -14 -13 -13 -13 -13 -13 -13 -13 -14 -14 -14
-17 -18 -17 -17 -17 -16 -15 -15 -14 -15 -15 -14 -13 -13 -13 -14 -14 -15 -15 -14 -14 -14 -14 -14 -14 -14 -14 -14 -14 -14 -13 -13 -13 -13 -13 -14 -14 -14 -14 -14 -14 -14 -14 -13 -13 -14 -14 -14 -14
-18 -18 -17 -17 -17 -17 -16 -15 -15 -15 -14 -14 -15 -14 -14 -14 -14 -14 -14 -14 -14 -14 -14 -14 -14 -14 -14 -14 -14 -14 -14 -14 -13 -14 -13 -14 -14 -14 -14 -14 -14 -14 -14 -14 -14 -14 -14 -14 -14
-18 -18 -18 -18 -17 -17 -16 -16 -15 -14 -15 -14 -14 -15 -14 -14 -14 -14 -14 -14 -14 -14 -14 -14 -14 -14 -14 -14 -14 -14 -14 -14 -14 -14 -14 -14 -14 -14 -14 -14 -14 -14 -14 -14 -14 -14 -14 -14 -14

GFSSGP_500_temp_081.txt.gz
Temp
-8 -8 -8 -8 -8 -9 -9 -8 -8 -9 -9 -9 -9 -10 -10 -11 -12 -11 -11 -11 -11 -10 -10 -10 -10 -11 -11 -11 -11 -11 -11 -11 -11 -11 -11 -10 -12 -12 -12 -11 -11 -11 -11 -11 -10 -10 -11 -11 -11
-8 -8 -8 -8 -8 -9 -9 -8 -9 -9 -9 -9 -10 -9 -10 -11 -11 -11 -11 -11 -11 -10 -10 -10 -11 -11 -11 -12 -12 -12 -12 -12 -11 -11 -11 -11 -12 -12 -13 -12 -12 -11 -12 -11 -11 -11 -11 -11 -11
-8 -8 -8 -8 -8 -10 -10 -9 -9 -9 -9 -9 -9 -9 -9 -11 -10 -11 -11 -11 -11 -11 -10 -10 -11 -11 -11 -12 -12 -12 -12 -12 -12 -12 -11 -11 -12 -12 -12 -12 -12 -11 -11 -12 -11 -12 -11 -12 -11
-8 -8 -8 -7 -8 -10 -10 -10 -9 -9 -9 -9 -10 -10 -10 -10 -11 -10 -11 -11 -11 -11 -11 -11 -11 -11 -12 -12 -12 -12 -12 -12 -12 -11 -11 -11 -11 -12 -13 -13 -12 -11 -11 -11 -11 -12 -12 -12 -12
-8 -8 -7 -7 -8 -11 -11 -11 -10 -9 -9 -9 -10 -10 -10 -10 -10 -10 -11 -11 -12 -11 -11 -11 -11 -11 -12 -12 -12 -12 -12 -11 -11 -12 -12 -11 -11 -12 -13 -13 -13 -12 -11 -11 -11 -12 -12 -11 -12
-8 -8 -7 -7 -8 -11 -11 -11 -10 -9 -10 -10 -10 -10 -10 -10 -10 -10 -11 -12 -11 -11 -11 -11 -11 -12 -12 -12 -12 -12 -12 -12 -12 -12 -12 -12 -12 -12 -12 -12 -13 -12 -12 -12 -12 -12 -12 -12 -12
-8 -8 -7 -7 -7 -10 -12 -11 -10 -10 -10 -10 -10 -11 -10 -10 -10 -11 -11 -12 -11 -11 -11 -11 -12 -12 -12 -12 -12 -12 -12 -12 -12 -12 -12 -12 -12 -12 -12 -12 -12 -12 -12 -12 -12 -12 -12 -13 -13
-8 -8 -7 -7 -8 -10 -12 -11 -11 -10 -10 -10 -10 -10 -12 -11 -11 -12 -12 -12 -12 -12 -12 -12 -12 -12 -12 -12 -12 -12 -12 -12 -12 -12 -12 -11 -12 -12 -11 -11 -11 -11 -12 -12 -13 -12 -13 -13 -13
-8 -8 -7 -8 -9 -10 -13 -11 -12 -11 -10 -10 -11 -10 -12 -11 -10 -12 -13 -13 -13 -12 -12 -12 -12 -12 -12 -12 -12 -12 -12 -12 -12 -12 -12 -12 -12 -12 -12 -11 -11 -12 -12 -12 -13 -13 -13 -12 -13
-8 -8 -8 -9 -9 -9 -13 -11 -13 -11 -11 -11 -11 -11 -11 -10 -10 -12 -13 -13 -13 -12 -12 -12 -12 -12 -12 -12 -12 -12 -12 -12 -12 -12 -12 -12 -12 -12 -12 -12 -11 -12 -12 -12 -12 -12 -13 -12 -12
-9 -8 -9 -8 -9 -9 -11 -12 -13 -12 -12 -12 -12 -12 -12 -11 -11 -13 -13 -13 -13 -12 -13 -13 -12 -12 -12 -12 -13 -12 -13 -12 -12 -12 -12 -12 -12 -12 -11 -12 -12 -11 -13 -12 -12 -12 -13 -13 -13
-9 -9 -9 -9 -9 -9 -10 -13 -12 -12 -12 -13 -13 -12 -12 -11 -11 -12 -14 -14 -13 -13 -13 -13 -13 -13 -12 -12 -13 -12 -13 -12 -12 -12 -12 -12 -13 -12 -12 -12 -11 -12 -12 -13 -12 -12 -12 -12 -12
-9 -10 -9 -9 -9 -10 -11 -12 -13 -13 -13 -14 -13 -13 -12 -12 -12 -13 -13 -14 -14 -13 -13 -14 -13 -13 -13 -13 -13 -12 -12 -12 -12 -12 -12 -12 -12 -11 -12 -11 -12 -12 -12 -12 -12 -12 -12 -12 -13
-10 -9 -10 -10 -10 -11 -12 -11 -13 -12 -15 -14 -14 -13 -12 -12 -13 -13 -14 -14 -14 -14 -14 -13 -13 -13 -13 -13 -13 -12 -12 -13 -12 -12 -12 -12 -12 -12 -12 -12 -12 -12 -12 -12 -12 -13 -13 -13 -13
-10 -10 -10 -10 -12 -12 -13 -10 -11 -13 -15 -15 -14 -14 -13 -13 -13 -13 -14 -15 -14 -14 -14 -13 -13 -13 -13 -13 -12 -12 -12 -12 -12 -12 -12 -12 -12 -12 -12 -12 -12 -12 -13 -13 -12 -12 -13 -13 -13
-11 -10 -10 -11 -12 -13 -14 -10 -12 -14 -15 -14 -15 -15 -14 -14 -14 -14 -14 -14 -14 -13 -14 -14 -13 -13 -12 -12 -12 -12 -12 -12 -12 -12 -12 -12 -11 -12 -11 -12 -12 -12 -13 -13 -13 -13 -13 -13 -13
-12 -11 -11 -11 -12 -13 -14 -12 -12 -14 -15 -14 -14 -15 -15 -14 -14 -14 -15 -14 -13 -13 -14 -14 -13 -13 -12 -12 -12 -12 -12 -12 -12 -12 -12 -12 -12 -11 -12 -12 -13 -13 -13 -13 -13 -12 -13 -13 -13
-13 -12 -11 -11 -13 -14 -14 -13 -13 -14 -15 -15 -15 -15 -15 -14 -14 -15 -15 -13 -13 -14 -14 -14 -13 -13 -13 -12 -12 -12 -12 -12 -12 -12 -12 -12 -12 -12 -12 -12 -11 -12 -13 -13 -13 -13 -13 -13 -13
-13 -12 -12 -12 -13 -13 -14 -14 -13 -13 -15 -14 -15 -14 -14 -14 -14 -14 -15 -14 -13 -14 -14 -13 -13 -13 -13 -13 -13 -12 -12 -12 -12 -12 -12 -12 -12 -12 -12 -12 -12 -12 -13 -13 -13 -13 -13 -13 -13
-14 -13 -12 -13 -14 -14 -14 -13 -13 -14 -14 -14 -15 -14 -14 -14 -14 -14 -15 -15 -14 -14 -14 -13 -13 -13 -13 -13 -13 -13 -12 -12 -12 -12 -12 -12 -12 -12 -12 -12 -13 -13 -13 -13 -13 -13 -13 -13 -13
-14 -13 -13 -13 -13 -14 -15 -13 -13 -14 -14 -15 -15 -14 -14 -14 -14 -15 -15 -15 -14 -14 -13 -13 -13 -13 -13 -13 -13 -13 -12 -12 -12 -12 -12 -12 -12 -12 -12 -12 -12 -13 -13 -13 -13 -13 -12 -13 -12
-14 -15 -14 -14 -14 -14 -15 -13 -13 -13 -14 -15 -14 -14 -14 -14 -13 -15 -15 -15 -14 -14 -13 -13 -13 -13 -13 -13 -13 -13 -12 -12 -12 -12 -12 -12 -12 -12 -12 -12 -13 -13 -13 -13 -13 -13 -12 -13 -12
-15 -15 -15 -15 -14 -15 -14 -14 -12 -14 -14 -14 -15 -14 -14 -12 -13 -15 -16 -15 -14 -14 -13 -13 -13 -13 -13 -13 -13 -13 -12 -13 -12 -12 -12 -12 -12 -12 -12 -12 -13 -13 -13 -13 -13 -12 -12 -13 -13
-16 -16 -16 -16 -15 -15 -15 -14 -12 -14 -14 -15 -15 -15 -14 -13 -14 -15 -16 -15 -14 -14 -14 -13 -13 -13 -13 -13 -13 -13 -13 -13 -12 -12 -12 -12 -12 -12 -12 -13 -13 -13 -13 -13 -13 -13 -12 -13 -13
-16 -16 -16 -15 -15 -14 -14 -14 -12 -14 -14 -15 -15 -15 -15 -14 -14 -14 -15 -15 -15 -14 -14 -14 -14 -13 -14 -13 -13 -13 -13 -13 -13 -13 -12 -13 -12 -13 -12 -13 -13 -13 -13 -13 -13 -13 -13 -13 -13
-17 -16 -16 -16 -15 -14 -15 -14 -13 -15 -15 -15 -15 -15 -15 -14 -15 -14 -15 -15 -15 -15 -14 -14 -14 -14 -14 -14 -13 -13 -13 -12 -12 -13 -13 -13 -13 -13 -13 -13 -13 -13 -13 -13 -13 -14 -14 -13 -13
-17 -16 -16 -16 -15 -15 -15 -15 -16 -14 -15 -15 -15 -15 -14 -14 -14 -15 -15 -15 -15 -15 -15 -14 -14 -14 -14 -14 -14 -14 -13 -13 -12 -12 -13 -13 -13 -13 -14 -13 -13 -13 -13 -13 -14 -14 -13 -14 -14
-17 -17 -16 -16 -16 -17 -16 -16 -15 -14 -15 -14 -14 -14 -14 -14 -14 -15 -15 -15 -14 -15 -14 -14 -14 -14 -14 -14 -14 -14 -14 -13 -13 -13 -13 -14 -14 -14 -14 -14 -14 -15 -14 -14 -14 -14 -14 -15 -15
-17 -17 -16 -17 -17 -18 -17 -15 -15 -15 -14 -14 -14 -14 -15 -15 -15 -15 -15 -15 -15 -15 -14 -14 -14 -14 -14 -14 -14 -14 -14 -14 -14 -14 -14 -14 -14 -14 -14 -14 -14 -14 -14 -14 -14 -14 -14 -14 -15
-17 -18 -18 -18 -18 -18 -17 -16 -16 -15 -14 -13 -13 -14 -15 -14 -15 -15 -15 -15 -15 -15 -14 -14 -14 -14 -15 -15 -15 -15 -14 -14 -14 -14 -14 -14 -14 -14 -14 -14 -14 -14 -14 -14 -14 -14 -14 -14 -14

GFSSGP_500_temp_084.txt.gz
Temp
-8 -8 -8 -8 -8 -8 -9 -8 -8 -8 -9 -8 -9 -9 -9 -9 -10 -10 -10 -11 -11 -11 -11 -10 -10 -9 -9 -9 -9 -10 -10 -10 -11 -11 -11 -11 -11 -11 -12 -12 -12 -12 -11 -11 -11 -11 -11 -11 -11
-9 -8 -9 -8 -8 -9 -9 -9 -8 -8 -8 -8 -9 -9 -9 -10 -10 -10 -11 -11 -11 -11 -11 -11 -10 -10 -10 -10 -10 -10 -11 -11 -11 -12 -12 -12 -11 -11 -12 -12 -12 -12 -12 -11 -12 -12 -12 -12 -12
-9 -8 -8 -8 -8 -9 -9 -9 -8 -9 -8 -9 -9 -9 -10 -10 -11 -11 -11 -11 -11 -12 -12 -11 -10 -10 -10 -10 -10 -11 -11 -11 -11 -11 -12 -12 -11 -11 -12 -12 -12 -12 -12 -12 -12 -12 -12 -12 -12
-9 -8 -8 -7 -8 -10 -10 -9 -8 -9 -8 -8 -9 -9 -10 -10 -11 -11 -11 -11 -11 -12 -12 -11 -11 -11 -10 -11 -11 -11 -11 -11 -11 -11 -12 -12 -12 -12 -12 -11 -13 -12 -12 -12 -12 -13 -12 -12 -13
-8 -8 -7 -7 -7 -10 -10 -10 -8 -9 -8 -9 -9 -9 -9 -10 -11 -11 -10 -11 -11 -12 -12 -11 -11 -11 -11 -11 -11 -11 -11 -11 -12 -12 -12 -12 -12 -12 -12 -12 -12 -11 -12 -12 -12 -12 -12 -13 -13
-8 -8 -7 -7 -8 -10 -11 -10 -9 -9 -8 -9 -9 -8 -9 -10 -10 -11 -10 -11 -11 -12 -12 -12 -11 -11 -12 -11 -11 -11 -12 -12 -12 -12 -12 -12 -13 -12 -12 -12 -12 -12 -11 -12 -12 -12 -13 -13 -13
-8 -8 -7 -7 -7 -9 -11 -10 -10 -9 -9 -9 -9 -8 -9 -10 -10 -10 -10 -11 -12 -12 -12 -12 -11 -11 -12 -12 -12 -12 -12 -12 -12 -12 -12 -12 -13 -12 -12 -12 -12 -12 -12 -12 -12 -13 -13 -13 -13
-8 -8 -7 -7 -8 -10 -12 -11 -11 -9 -9 -9 -8 -8 -9 -10 -10 -10 -10 -12 -12 -12 -12 -12 -12 -12 -12 -12 -12 -12 -12 -12 -12 -12 -13 -13 -12 -12 -12 -12 -12 -12 -12 -13 -13 -13 -13 -13 -12
-9 -8 -7 -8 -10 -11 -12 -11 -11 -9 -9 -9 -9 -9 -10 -10 -10 -10 -11 -12 -12 -13 -12 -12 -12 -12 -12 -12 -12 -12 -12 -12 -12 -12 -12 -13 -12 -12 -12 -12 -12 -11 -11 -12 -13 -13 -13 -13 -12
-9 -8 -8 -9 -10 -10 -11 -10 -11 -9 -9 -9 -10 -10 -10 -10 -11 -11 -11 -12 -12 -13 -13 -12 -12 -12 -12 -12 -12 -12 -12 -12 -12 -12 -12 -12 -12 -12 -12 -12 -12 -12 -11 -12 -12 -13 -13 -13 -13
-9 -8 -9 -9 -10 -9 -9 -10 -11 -9 -9 -10 -10 -10 -10 -10 -11 -12 -12 -12 -12 -13 -13 -12 -12 -12 -12 -12 -12 -12 -13 -13 -12 -12 -12 -12 -12 -12 -12 -12 -12 -12 -12 -12 -13 -13 -13 -13 -14
-9 -9 -10 -10 -10 -9 -9 -9 -9 -10 -10 -11 -11 -11 -11 -11 -12 -12 -12 -13 -13 -13 -13 -13 -12 -13 -13 -13 -13 -12 -13 -13 -13 -12 -12 -12 -12 -12 -12 -12 -12 -12 -12 -12 -13 -13 -13 -13 -13
-9 -10 -10 -10 -10 -9 -9 -9 -10 -9 -11 -12 -12 -11 -12 -12 -13 -13 -13 -13 -13 -14 -13 -13 -12 -13 -13 -13 -13 -13 -12 -13 -12 -12 -13 -12 -12 -12 -12 -11 -12 -12 -12 -13 -13 -13 -13 -13 -13
-11 -10 -10 -10 -10 -10 -10 -10 -9 -11 -12 -12 -12 -12 -12 -13 -13 -13 -13 -14 -13 -14 -14 -13 -13 -14 -13 -14 -13 -13 -13 -13 -13 -12 -12 -13 -13 -13 -12 -11 -12 -12 -12 -13 -13 -13 -13 -12 -12
-11 -10 -10 -10 -11 -10 -11 -9 -10 -12 -12 -11 -12 -12 -14 -14 -14 -13 -13 -14 -14 -15 -14 -14 -13 -14 -14 -14 -13 -13 -12 -12 -12 -12 -12 -13 -13 -13 -12 -12 -12 -12 -12 -13 -12 -12 -13 -13 -12
-11 -11 -11 -12 -12 -11 -11 -9 -11 -12 -12 -12 -12 -13 -14 -15 -14 -14 -14 -14 -14 -15 -14 -14 -13 -14 -14 -14 -13 -13 -12 -12 -12 -12 -12 -13 -13 -13 -12 -12 -12 -12 -13 -13 -12 -13 -13 -13 -13
-12 -12 -12 -12 -12 -12 -11 -10 -10 -12 -12 -11 -13 -13 -15 -15 -15 -14 -14 -15 -15 -15 -14 -14 -13 -14 -14 -14 -13 -12 -11 -12 -12 -12 -12 -12 -12 -12 -12 -12 -12 -12 -12 -12 -12 -13 -13 -13 -13
-14 -12 -12 -12 -13 -13 -12 -10 -11 -11 -11 -11 -13 -14 -14 -15 -15 -15 -15 -15 -15 -15 -14 -14 -13 -14 -14 -14 -13 -12 -12 -13 -13 -12 -12 -12 -12 -12 -12 -12 -12 -12 -12 -12 -13 -13 -13 -13 -13
-13 -13 -12 -13 -13 -13 -12 -10 -10 -11 -11 -11 -14 -14 -15 -15 -15 -15 -15 -15 -15 -14 -14 -13 -14 -14 -14 -14 -13 -13 -13 -12 -14 -12 -12 -12 -12 -12 -12 -12 -11 -12 -13 -13 -13 -13 -13 -13 -13
-14 -13 -13 -13 -14 -13 -12 -11 -11 -11 -11 -13 -14 -14 -14 -14 -14 -14 -15 -15 -15 -14 -14 -13 -14 -14 -14 -14 -13 -13 -13 -12 -13 -13 -12 -12 -12 -12 -12 -11 -12 -12 -12 -12 -13 -13 -13 -13 -13
-15 -14 -14 -13 -14 -13 -13 -11 -12 -11 -11 -13 -13 -14 -14 -14 -14 -14 -15 -15 -15 -14 -14 -14 -14 -14 -14 -14 -13 -13 -12 -13 -12 -12 -12 -12 -12 -12 -12 -12 -12 -12 -12 -12 -13 -13 -13 -13 -13
-15 -15 -14 -14 -13 -13 -14 -12 -11 -11 -13 -13 -14 -14 -14 -14 -15 -15 -15 -15 -15 -14 -13 -14 -14 -14 -13 -14 -13 -13 -13 -13 -12 -12 -12 -12 -12 -12 -12 -12 -12 -12 -12 -13 -13 -12 -13 -13 -13
-15 -15 -15 -14 -14 -13 -13 -13 -11 -11 -13 -14 -14 -14 -15 -15 -15 -15 -15 -16 -15 -14 -14 -14 -14 -13 -14 -13 -13 -13 -13 -13 -12 -12 -12 -12 -12 -12 -12 -12 -13 -13 -13 -13 -13 -13 -13 -13 -13
-16 -16 -16 -15 -15 -13 -13 -14 -12 -13 -14 -14 -14 -15 -15 -15 -15 -15 -15 -16 -14 -14 -14 -14 -14 -14 -14 -14 -13 -13 -13 -13 -13 -12 -12 -12 -12 -12 -12 -12 -12 -12 -13 -13 -13 -13 -13 -13 -13
-16 -16 -16 -16 -15 -13 -15 -14 -13 -15 -15 -15 -16 -16 -16 -15 -15 -14 -15 -15 -14 -14 -14 -14 -14 -14 -14 -14 -13 -13 -13 -13 -13 -13 -12 -12 -12 -12 -12 -12 -13 -13 -13 -13 -13 -13 -13 -13 -13
-17 -16 -16 -16 -15 -14 -15 -14 -15 -15 -15 -14 -15 -15 -15 -15 -15 -14 -15 -16 -14 -14 -14 -14 -14 -14 -14 -14 -14 -14 -13 -13 -13 -12 -12 -12 -12 -12 -13 -13 -13 -13 -13 -13 -13 -13 -13 -13 -13
-17 -17 -17 -17 -16 -15 -14 -15 -15 -15 -15 -14 -14 -14 -14 -14 -15 -15 -15 -16 -14 -14 -14 -15 -14 -14 -14 -14 -14 -14 -14 -13 -13 -12 -12 -12 -13 -13 -13 -13 -13 -13 -13 -13 -13 -13 -14 -14 -14
-18 -17 -17 -17 -16 -16 -16 -16 -16 -15 -15 -15 -14 -14 -14 -14 -15 -15 -15 -16 -14 -14 -15 -15 -14 -14 -14 -14 -14 -14 -14 -14 -13 -13 -13 -13 -13 -13 -14 -14 -14 -14 -13 -14 -14 -14 -14 -14 -14
-18 -18 -18 -17 -17 -17 -16 -16 -16 -15 -15 -14 -14 -14 -14 -15 -15 -15 -16 -16 -15 -14 -15 -15 -15 -15 -14 -14 -14 -14 -14 -14 -14 -13 -13 -14 -14 -13 -13 -13 -13 -14 -14 -14 -14 -15 -14 -14 -14
-19 -18 -18 -18 -18 -17 -17 -16 -17 -16 -16 -15 -15 -15 -15 -15 -15 -15 -15 -15 -15 -15 -15 -15 -15 -14 -14 -14 -14 -14 -14 -14 -14 -14 -14 -14 -14 -14 -14 -14 -14 -14 -14 -14 -14 -14 -14 -14 -14

GFSSGP_500_temp_087.txt.gz
Temp
-8 -8 -8 -8 -8 -8 -9 -8 -8 -8 -8 -8 -8 -8 -9 -9 -10 -9 -9 -9 -9 -9 -9 -9 -9 -9 -9 -9 -9 -9 -9 -10 -10 -11 -11 -11 -11 -11 -11 -11 -11 -12 -11 -12 -12 -12 -12 -12 -12
-9 -9 -9 -9 -8 -8 -9 -9 -8 -8 -8 -8 -8 -8 -8 -9 -10 -10 -10 -9 -9 -9 -9 -9 -9 -9 -9 -9 -9 -9 -9 -10 -11 -11 -11 -12 -12 -12 -11 -11 -11 -12 -12 -12 -12 -13 -13 -12 -12
-9 -9 -9 -9 -8 -8 -9 -9 -8 -8 -8 -8 -8 -7 -9 -10 -10 -10 -10 -10 -10 -10 -10 -9 -10 -10 -10 -10 -9 -9 -10 -10 -11 -11 -11 -12 -12 -12 -12 -12 -12 -12 -12 -12 -12 -13 -13 -12 -12
-9 -9 -9 -8 -8 -9 -10 -9 -8 -8 -8 -8 -7 -8 -9 -10 -10 -11 -10 -10 -10 -10 -10 -10 -10 -10 -10 -10 -10 -10 -10 -11 -11 -11 -12 -12 -12 -12 -12 -12 -12 -12 -12 -12 -13 -13 -13 -12 -12
-9 -9 -9 -8 -8 -9 -10 -10 -9 -8 -8 -8 -7 -8 -9 -10 -10 -11 -10 -10 -10 -11 -10 -10 -10 -10 -10 -10 -10 -10 -11 -11 -11 -11 -12 -12 -13 -13 -13 -13 -12 -12 -12 -12 -12 -12 -13 -13 -12
-9 -9 -8 -8 -8 -10 -11 -11 -9 -9 -9 -8 -7 -8 -9 -10 -10 -10 -10 -11 -11 -11 -11 -11 -10 -10 -11 -11 -10 -11 -11 -11 -11 -12 -12 -12 -13 -13 -12 -13 -12 -12 -12 -12 -12 -13 -13 -13 -13
-9 -9 -8 -8 -8 -9 -11 -11 -9 -9 -9 -8 -8 -8 -9 -9 -9 -10 -10 -11 -11 -11 -12 -11 -11 -11 -11 -11 -11 -12 -12 -12 -12 -12 -12 -12 -12 -13 -13 -12 -12 -12 -12 -12 -13 -13 -13 -13 -13
-9 -9 -8 -8 -8 -9 -11 -10 -10 -9 -9 -8 -8 -8 -9 -9 -9 -10 -10 -11 -11 -12 -12 -12 -11 -11 -11 -11 -11 -12 -12 -12 -12 -12 -12 -12 -12 -13 -13 -12 -12 -12 -12 -12 -13 -12 -13 -13 -13
-9 -9 -8 -8 -9 -11 -12 -10 -9 -8 -8 -8 -8 -8 -9 -9 -9 -10 -11 -11 -12 -12 -12 -12 -12 -12 -12 -11 -11 -12 -12 -12 -12 -12 -12 -13 -12 -12 -12 -12 -12 -12 -12 -12 -13 -13 -13 -13 -13
-9 -9 -9 -9 -10 -11 -11 -9 -9 -9 -8 -8 -9 -9 -9 -9 -9 -10 -10 -11 -12 -12 -13 -13 -12 -12 -12 -11 -11 -12 -12 -12 -12 -12 -12 -12 -12 -13 -12 -12 -12 -12 -12 -11 -12 -12 -13 -13 -13
-10 -9 -10 -10 -11 -10 -10 -9 -10 -9 -9 -10 -9 -9 -9 -9 -9 -10 -11 -11 -12 -13 -13 -13 -13 -13 -12 -12 -12 -12 -12 -12 -12 -12 -13 -12 -13 -12 -12 -12 -12 -12 -12 -12 -12 -12 -13 -13 -13
-10 -10 -10 -10 -10 -10 -9 -10 -9 -10 -9 -11 -10 -10 -9 -10 -10 -10 -11 -12 -12 -13 -13 -14 -13 -13 -12 -12 -12 -12 -12 -12 -12 -12 -12 -12 -12 -12 -12 -13 -12 -12 -12 -12 -12 -12 -13 -13 -13
-10 -11 -11 -10 -10 -10 -10 -10 -11 -9 -10 -11 -11 -10 -10 -10 -10 -10 -11 -12 -13 -13 -14 -14 -14 -13 -12 -13 -13 -13 -13 -13 -13 -12 -12 -13 -12 -12 -13 -13 -13 -12 -12 -12 -12 -13 -13 -13 -13
-11 -11 -11 -11 -10 -11 -10 -10 -10 -10 -11 -11 -11 -11 -11 -11 -11 -11 -11 -12 -13 -14 -14 -15 -14 -13 -13 -13 -13 -13 -13 -13 -13 -12 -12 -12 -13 -12 -12 -12 -12 -12 -12 -12 -12 -13 -13 -13 -13
-12 -11 -11 -11 -12 -11 -11 -10 -10 -12 -12 -11 -11 -11 -11 -11 -11 -11 -12 -12 -13 -14 -14 -15 -15 -14 -13 -14 -14 -14 -13 -13 -13 -13 -12 -12 -12 -12 -12 -13 -12 -12 -12 -12 -12 -13 -13 -13 -13
-12 -12 -11 -12 -12 -12 -11 -10 -11 -11 -11 -11 -11 -11 -11 -11 -12 -12 -13 -13 -14 -15 -15 -15 -15 -14 -13 -14 -14 -14 -13 -13 -12 -12 -12 -12 -12 -13 -12 -12 -13 -12 -12 -12 -12 -13 -13 -13 -13
-13 -12 -12 -13 -13 -12 -11 -10 -10 -12 -12 -12 -12 -11 -11 -11 -12 -12 -14 -14 -14 -15 -15 -15 -15 -14 -14 -14 -14 -14 -13 -13 -12 -12 -12 -12 -12 -13 -12 -13 -12 -12 -12 -12 -12 -13 -13 -13 -13
-15 -14 -13 -12 -13 -13 -12 -10 -10 -11 -12 -11 -11 -12 -11 -11 -11 -13 -14 -14 -15 -15 -16 -15 -14 -14 -14 -14 -14 -14 -13 -13 -13 -13 -13 -12 -12 -12 -13 -13 -12 -12 -12 -12 -12 -12 -13 -13 -13
-15 -14 -13 -13 -14 -13 -12 -10 -11 -11 -11 -12 -12 -12 -12 -11 -12 -14 -14 -15 -15 -15 -16 -15 -15 -15 -14 -14 -14 -14 -14 -13 -13 -13 -13 -12 -12 -12 -12 -13 -12 -12 -12 -12 -13 -13 -13 -13 -13
-15 -15 -14 -14 -14 -13 -13 -11 -11 -12 -12 -12 -12 -12 -12 -12 -12 -13 -14 -15 -15 -15 -16 -15 -15 -14 -14 -13 -14 -14 -14 -13 -13 -13 -12 -12 -12 -12 -12 -12 -12 -12 -12 -12 -12 -13 -13 -12 -13
-16 -16 -15 -15 -15 -14 -13 -11 -12 -12 -13 -13 -12 -11 -12 -11 -13 -13 -14 -14 -14 -15 -15 -15 -15 -14 -14 -14 -14 -14 -14 -13 -13 -13 -13 -12 -12 -12 -12 -12 -12 -12 -12 -13 -13 -13 -13 -13 -13
-17 -16 -16 -16 -15 -14 -14 -12 -12 -12 -14 -13 -12 -11 -12 -12 -13 -14 -14 -14 -14 -15 -15 -15 -15 -14 -14 -14 -14 -14 -14 -14 -13 -13 -12 -12 -12 -12 -12 -12 -12 -12 -12 -12 -13 -13 -13 -13 -13
-17 -17 -16 -16 -15 -14 -14 -14 -12 -12 -13 -12 -12 -11 -12 -13 -13 -14 -15 -15 -15 -15 -15 -15 -14 -14 -14 -14 -14 -14 -14 -14 -13 -13 -12 -12 -12 -12 -12 -12 -12 -12 -12 -13 -13 -13 -13 -13 -13
-18 -17 -17 -16 -16 -14 -14 -14 -12 -14 -13 -13 -12 -12 -12 -13 -14 -14 -15 -15 -15 -15 -15 -15 -14 -14 -14 -14 -14 -13 -13 -13 -13 -13 -13 -12 -12 -12 -12 -11 -12 -12 -13 -13 -13 -13 -13 -13 -13
-18 -17 -17 -16 -16 -15 -15 -13 -13 -14 -13 -12 -13 -13 -14 -14 -14 -15 -15 -15 -15 -15 -15 -15 -14 -14 -14 -14 -14 -14 -13 -13 -13 -13 -13 -12 -12 -12 -12 -12 -12 -12 -13 -13 -13 -13 -13 -13 -13
-18 -17 -17 -17 -16 -16 -15 -14 -14 -14 -14 -14 -14 -14 -14 -14 -15 -14 -15 -15 -15 -15 -15 -14 -14 -14 -14 -14 -14 -14 -14 -13 -13 -13 -13 -13 -12 -12 -12 -12 -12 -12 -13 -13 -13 -13 -13 -13 -13
-18 -18 -17 -17 -17 -16 -15 -16 -15 -15 -14 -14 -14 -14 -14 -14 -15 -14 -15 -14 -15 -16 -15 -15 -14 -14 -14 -15 -15 -14 -14 -14 -13 -13 -12 -13 -12 -12 -13 -13 -13 -13 -13 -13 -13 -13 -13 -13 -13
-18 -18 -18 -18 -17 -16 -16 -16 -16 -15 -15 -15 -15 -15 -15 -16 -15 -15 -15 -15 -15 -16 -15 -15 -14 -14 -14 -15 -15 -14 -14 -14 -13 -13 -12 -13 -13 -13 -13 -13 -13 -13 -13 -13 -13 -13 -13 -13 -14
-19 -19 -18 -18 -17 -17 -16 -16 -16 -16 -15 -16 -16 -15 -15 -16 -16 -16 -15 -15 -15 -15 -15 -15 -14 -14 -14 -14 -14 -14 -14 -14 -14 -13 -13 -13 -13 -13 -13 -14 -14 -14 -14 -14 -14 -14 -14 -14 -14
-19 -19 -19 -18 -17 -17 -16 -16 -17 -17 -16 -16 -15 -15 -15 -16 -15 -15 -15 -15 -15 -16 -15 -15 -14 -14 -14 -14 -14 -14 -14 -14 -14 -14 -13 -13 -14 -14 -14 -14 -14 -14 -14 -14 -14 -14 -14 -14 -14

GFSSGP_500_temp_090.txt.gz
Temp
-8 -9 -9 -9 -8 -8 -8 -8 -8 -8 -8 -8 -8 -7 -8 -7 -8 -8 -8 -8 -8 -8 -8 -8 -8 -9 -9 -9 -9 -9 -9 -9 -9 -10 -10 -10 -11 -11 -11 -11 -11 -11 -11 -11 -11 -11 -11 -12 -12
-9 -9 -9 -9 -8 -8 -9 -9 -9 -8 -8 -8 -8 -7 -7 -8 -9 -8 -8 -8 -8 -8 -8 -8 -8 -9 -9 -9 -9 -9 -9 -9 -9 -10 -10 -11 -11 -12 -12 -12 -12 -12 -12 -12 -12 -11 -12 -12 -12
-9 -9 -9 -9 -8 -8 -9 -9 -9 -8 -8 -8 -8 -8 -8 -9 -9 -9 -8 -8 -8 -9 -8 -8 -9 -9 -9 -9 -9 -9 -9 -9 -10 -10 -10 -11 -11 -12 -12 -12 -12 -12 -12 -13 -12 -12 -12 -12 -12
-10 -10 -10 -9 -9 -9 -10 -10 -9 -9 -8 -8 -8 -8 -8 -10 -9 -9 -8 -8 -8 -9 -9 -9 -9 -10 -10 -10 -10 -10 -10 -10 -10 -10 -11 -11 -11 -11 -11 -12 -12 -13 -12 -13 -12 -12 -12 -12 -12
-10 -10 -10 -9 -9 -9 -10 -10 -9 -9 -8 -8 -8 -8 -9 -10 -10 -9 -8 -8 -8 -10 -9 -9 -10 -10 -10 -10 -10 -10 -10 -10 -10 -11 -11 -11 -11 -11 -12 -12 -13 -13 -13 -12 -12 -13 -12 -13 -12
-10 -10 -9 -9 -9 -9 -11 -11 -10 -9 -9 -8 -8 -8 -9 -10 -9 -9 -9 -8 -9 -10 -10 -10 -11 -11 -11 -10 -10 -10 -10 -10 -11 -11 -11 -12 -12 -12 -12 -13 -13 -13 -13 -13 -13 -13 -13 -13 -13
-10 -10 -9 -9 -9 -9 -11 -11 -10 -10 -9 -9 -7 -8 -8 -8 -9 -9 -9 -9 -9 -10 -10 -10 -11 -10 -11 -11 -11 -11 -11 -10 -11 -11 -12 -12 -13 -12 -12 -12 -13 -13 -12 -12 -12 -12 -13 -12 -13
-10 -10 -9 -9 -9 -9 -11 -11 -11 -10 -9 -8 -8 -8 -8 -8 -9 -9 -9 -9 -9 -10 -11 -11 -11 -11 -12 -11 -11 -11 -11 -11 -11 -12 -12 -12 -12 -12 -12 -13 -13 -13 -12 -12 -12 -12 -13 -13 -13
-10 -10 -9 -9 -9 -10 -12 -11 -10 -9 -9 -8 -8 -8 -8 -8 -8 -9 -9 -9 -10 -10 -11 -11 -11 -11 -12 -12 -12 -12 -12 -11 -12 -12 -12 -12 -12 -12 -12 -13 -12 -12 -12 -12 -12 -12 -12 -13 -13
-10 -10 -9 -10 -9 -11 -11 -11 -10 -9 -9 -8 -8 -8 -8 -8 -9 -9 -10 -10 -10 -11 -11 -12 -12 -12 -12 -12 -12 -12 -12 -12 -12 -12 -12 -12 -12 -12 -12 -13 -13 -12 -12 -12 -12 -12 -12 -13 -13
-10 -10 -10 -10 -10 -10 -11 -11 -11 -9 -9 -9 -9 -9 -8 -9 -9 -10 -10 -11 -11 -11 -11 -12 -12 -12 -13 -13 -13 -12 -12 -12 -13 -12 -12 -12 -12 -12 -12 -12 -12 -12 -12 -12 -12 -11 -11 -12 -13
-11 -10 -10 -10 -10 -10 -10 -11 -10 -9 -9 -9 -10 -10 -9 -9 -9 -10 -11 -11 -11 -10 -12 -13 -12 -13 -14 -13 -13 -13 -13 -13 -13 -13 -13 -12 -12 -12 -12 -12 -12 -12 -12 -12 -12 -11 -11 -12 -13
-12 -11 -11 -11 -10 -10 -10 -10 -10 -10 -10 -11 -11 -10 -9 -9 -9 -10 -11 -11 -11 -11 -12 -13 -13 -14 -14 -14 -13 -13 -13 -13 -13 -13 -13 -13 -12 -12 -12 -12 -12 -12 -12 -12 -12 -12 -12 -12 -13
-12 -12 -11 -11 -11 -11 -11 -11 -11 -10 -10 -11 -11 -10 -9 -9 -10 -10 -10 -11 -11 -12 -12 -13 -13 -14 -14 -14 -14 -13 -13 -13 -13 -13 -13 -13 -13 -13 -13 -12 -12 -12 -12 -12 -12 -12 -12 -12 -13
-13 -13 -12 -12 -11 -11 -12 -10 -11 -11 -11 -10 -10 -10 -10 -10 -10 -10 -11 -11 -11 -12 -13 -13 -14 -14 -15 -15 -14 -13 -14 -13 -14 -14 -13 -12 -12 -12 -13 -12 -12 -12 -12 -12 -12 -12 -12 -12 -13
-13 -12 -12 -12 -12 -12 -12 -11 -11 -11 -12 -11 -11 -11 -11 -11 -11 -11 -11 -11 -11 -12 -13 -14 -14 -15 -15 -15 -14 -14 -14 -14 -14 -13 -13 -12 -12 -12 -12 -12 -12 -12 -12 -12 -12 -12 -12 -12 -13
-14 -13 -13 -13 -13 -13 -13 -12 -11 -11 -12 -12 -12 -12 -11 -12 -11 -12 -12 -12 -11 -12 -13 -14 -15 -16 -15 -15 -15 -14 -14 -14 -13 -14 -13 -12 -11 -12 -12 -12 -12 -12 -12 -12 -12 -12 -12 -13 -13
-16 -15 -15 -14 -13 -13 -12 -12 -11 -11 -13 -12 -12 -12 -12 -12 -12 -12 -12 -12 -12 -12 -13 -14 -15 -16 -15 -15 -15 -14 -14 -14 -14 -14 -14 -13 -13 -13 -12 -12 -12 -13 -12 -12 -12 -12 -12 -13 -13
-17 -16 -15 -15 -14 -13 -13 -12 -11 -11 -13 -13 -13 -12 -12 -12 -12 -12 -12 -11 -12 -13 -14 -15 -15 -16 -16 -15 -15 -14 -14 -14 -14 -14 -14 -13 -13 -13 -12 -13 -13 -12 -13 -13 -12 -12 -12 -13 -12
-19 -18 -16 -15 -15 -14 -13 -12 -12 -12 -13 -13 -13 -12 -12 -11 -11 -11 -12 -11 -12 -13 -14 -15 -15 -15 -16 -15 -15 -14 -14 -14 -14 -13 -13 -13 -13 -12 -12 -12 -13 -12 -12 -12 -12 -12 -12 -12 -12
-19 -19 -18 -17 -16 -15 -14 -13 -13 -13 -14 -13 -12 -12 -11 -11 -11 -11 -11 -11 -12 -13 -14 -15 -15 -15 -16 -15 -14 -14 -14 -14 -14 -13 -13 -13 -12 -12 -12 -12 -13 -12 -12 -12 -12 -12 -12 -13 -13
-20 -19 -19 -18 -16 -16 -14 -13 -13 -13 -14 -14 -13 -12 -11 -11 -11 -11 -11 -12 -12 -14 -15 -15 -15 -15 -15 -15 -15 -14 -14 -14 -14 -14 -13 -13 -12 -12 -12 -12 -12 -12 -12 -12 -12 -12 -12 -13 -13
-20 -20 -19 -18 -17 -16 -15 -14 -14 -14 -14 -14 -13 -12 -12 -12 -11 -12 -11 -12 -13 -14 -14 -14 -14 -15 -15 -15 -14 -14 -14 -14 -14 -13 -13 -12 -12 -12 -12 -12 -12 -13 -12 -12 -13 -13 -12 -12 -13
-20 -19 -19 -18 -17 -16 -16 -15 -15 -14 -14 -14 -13 -12 -12 -12 -12 -11 -12 -13 -13 -14 -14 -14 -15 -15 -15 -14 -14 -14 -14 -13 -13 -13 -13 -13 -12 -12 -12 -12 -12 -13 -12 -12 -12 -13 -13 -12 -13
-20 -20 -19 -19 -18 -17 -16 -15 -15 -15 -14 -14 -13 -12 -12 -12 -12 -13 -14 -14 -14 -14 -14 -15 -15 -15 -15 -14 -14 -14 -14 -14 -13 -13 -13 -13 -12 -12 -12 -12 -12 -12 -13 -12 -13 -13 -13 -12 -13
-20 -20 -19 -19 -18 -17 -16 -15 -15 -15 -15 -14 -13 -13 -13 -12 -13 -14 -14 -14 -14 -15 -15 -15 -15 -15 -15 -14 -14 -14 -14 -14 -13 -13 -13 -13 -12 -12 -12 -12 -12 -12 -13 -13 -12 -12 -12 -13 -13
-20 -19 -19 -18 -18 -17 -17 -16 -15 -16 -15 -14 -14 -14 -13 -14 -14 -14 -14 -15 -15 -15 -15 -15 -15 -15 -15 -14 -14 -14 -14 -14 -14 -13 -13 -13 -13 -12 -12 -12 -12 -12 -12 -12 -12 -13 -13 -13 -13
-20 -19 -19 -18 -18 -18 -17 -17 -18 -15 -15 -15 -15 -14 -14 -14 -15 -15 -15 -15 -15 -15 -15 -15 -16 -15 -15 -14 -14 -15 -15 -14 -14 -13 -13 -12 -13 -12 -12 -13 -12 -13 -12 -12 -13 -13 -13 -13 -13
-20 -19 -19 -19 -18 -18 -17 -18 -16 -16 -16 -16 -15 -15 -14 -15 -15 -15 -15 -16 -16 -15 -15 -16 -16 -15 -15 -14 -14 -15 -15 -14 -14 -13 -13 -13 -13 -13 -13 -13 -13 -13 -13 -13 -13 -13 -13 -13 -13
-20 -20 -20 -19 -18 -18 -18 -17 -17 -17 -16 -16 -15 -16 -15 -15 -15 -16 -16 -15 -15 -15 -16 -16 -16 -15 -15 -14 -14 -15 -15 -15 -14 -14 -13 -14 -13 -13 -13 -13 -13 -13 -13 -13 -13 -13 -13 -14 -14

GFSSGP_500_temp_093.txt.gz
Temp
-9 -9 -9 -9 -8 -8 -8 -8 -10 -8 -8 -8 -8 -8 -8 -8 -8 -8 -7 -7 -7 -7 -7 -7 -8 -8 -8 -8 -8 -9 -9 -9 -9 -9 -9 -9 -9 -10 -10 -11 -11 -11 -11 -11 -11 -11 -11 -11 -11
-9 -9 -9 -9 -8 -8 -8 -10 -10 -9 -9 -8 -8 -8 -8 -8 -8 -8 -7 -7 -7 -7 -7 -8 -8 -8 -8 -9 -9 -9 -9 -9 -9 -9 -9 -9 -10 -10 -11 -11 -11 -12 -12 -12 -12 -12 -11 -11 -11
-10 -10 -9 -9 -9 -8 -9 -11 -11 -9 -8 -9 -8 -8 -8 -8 -8 -8 -7 -7 -7 -7 -8 -7 -8 -8 -9 -9 -9 -9 -9 -9 -9 -9 -9 -9 -10 -11 -11 -11 -11 -12 -12 -12 -12 -12 -12 -12 -12
-10 -10 -10 -9 -9 -9 -10 -11 -11 -10 -8 -9 -9 -8 -8 -8 -8 -8 -7 -8 -7 -8 -8 -8 -8 -9 -9 -9 -9 -9 -10 -9 -10 -10 -10 -10 -10 -11 -11 -12 -11 -12 -12 -13 -13 -13 -12 -12 -12
-10 -10 -10 -9 -9 -10 -10 -10 -10 -10 -9 -9 -9 -9 -9 -8 -8 -8 -7 -7 -7 -8 -9 -9 -9 -9 -9 -9 -9 -10 -10 -10 -10 -10 -10 -10 -11 -11 -11 -11 -12 -12 -12 -12 -13 -13 -12 -12 -12
-10 -11 -10 -9 -10 -10 -10 -11 -10 -10 -10 -9 -9 -9 -9 -8 -9 -8 -7 -8 -8 -8 -9 -9 -9 -9 -9 -9 -10 -10 -10 -10 -10 -10 -11 -11 -11 -12 -12 -12 -12 -13 -13 -12 -13 -13 -13 -13 -12
-10 -10 -10 -10 -10 -11 -13 -10 -10 -11 -10 -10 -10 -9 -9 -8 -8 -8 -8 -8 -8 -8 -9 -9 -9 -9 -10 -10 -10 -10 -10 -11 -11 -11 -11 -11 -12 -12 -12 -12 -12 -12 -12 -12 -13 -13 -13 -13 -12
-11 -11 -10 -10 -10 -10 -13 -10 -11 -11 -11 -11 -10 -9 -9 -8 -8 -9 -8 -8 -8 -9 -9 -9 -10 -10 -10 -10 -10 -11 -11 -11 -11 -11 -11 -11 -12 -12 -12 -12 -12 -12 -13 -13 -12 -13 -12 -13 -12
-11 -10 -10 -10 -11 -11 -11 -10 -11 -11 -11 -10 -10 -9 -9 -8 -8 -9 -9 -9 -9 -9 -9 -10 -10 -10 -10 -11 -11 -11 -11 -11 -12 -11 -11 -11 -12 -12 -12 -12 -12 -11 -12 -12 -12 -12 -12 -12 -13
-11 -10 -10 -11 -11 -11 -11 -11 -12 -11 -10 -11 -10 -9 -9 -8 -8 -8 -9 -9 -9 -9 -10 -10 -10 -10 -10 -11 -12 -12 -12 -12 -12 -12 -12 -12 -12 -12 -12 -12 -13 -12 -12 -12 -11 -11 -12 -12 -12
-12 -11 -11 -11 -11 -11 -10 -11 -12 -11 -10 -10 -10 -9 -9 -8 -8 -8 -9 -10 -10 -10 -9 -10 -10 -11 -11 -11 -11 -12 -12 -12 -13 -12 -12 -12 -12 -12 -12 -12 -12 -12 -12 -12 -12 -12 -11 -12 -12
-12 -12 -11 -11 -11 -10 -10 -11 -11 -11 -10 -10 -10 -10 -9 -9 -8 -9 -10 -10 -10 -10 -10 -10 -11 -11 -11 -11 -12 -12 -12 -13 -13 -13 -12 -12 -12 -13 -12 -12 -12 -12 -13 -12 -12 -12 -12 -12 -12
-12 -12 -12 -12 -11 -11 -10 -11 -11 -11 -11 -10 -10 -10 -9 -9 -9 -9 -10 -10 -11 -10 -10 -10 -11 -11 -11 -11 -12 -13 -13 -13 -13 -13 -13 -13 -13 -13 -12 -12 -12 -12 -12 -12 -12 -12 -12 -12 -12
-13 -12 -12 -13 -12 -12 -11 -11 -11 -11 -11 -11 -10 -10 -10 -10 -9 -9 -9 -10 -10 -11 -11 -10 -11 -11 -11 -12 -13 -13 -14 -14 -14 -14 -13 -13 -13 -13 -13 -13 -12 -12 -12 -12 -12 -12 -11 -12 -12
-14 -13 -13 -12 -13 -13 -12 -11 -11 -12 -12 -11 -11 -11 -10 -10 -10 -9 -10 -10 -11 -11 -11 -10 -11 -11 -12 -12 -14 -14 -14 -14 -14 -14 -13 -13 -13 -13 -13 -12 -12 -12 -12 -12 -12 -11 -12 -12 -12
-15 -15 -13 -13 -13 -13 -14 -12 -12 -13 -11 -11 -11 -11 -11 -10 -10 -11 -11 -11 -11 -11 -11 -11 -11 -12 -12 -13 -14 -15 -15 -14 -14 -14 -14 -14 -14 -13 -13 -12 -12 -13 -12 -12 -12 -12 -12 -12 -12
-16 -14 -16 -15 -14 -13 -14 -13 -13 -13 -11 -12 -11 -11 -11 -11 -11 -11 -11 -11 -11 -11 -11 -11 -11 -12 -13 -14 -15 -15 -15 -15 -14 -14 -14 -14 -13 -13 -12 -12 -12 -12 -12 -12 -12 -12 -12 -12 -12
-17 -16 -16 -17 -16 -14 -14 -13 -13 -13 -12 -12 -12 -11 -12 -12 -12 -12 -11 -12 -11 -11 -11 -11 -11 -12 -14 -15 -15 -15 -15 -15 -15 -14 -14 -14 -13 -14 -13 -12 -12 -12 -12 -12 -12 -12 -12 -12 -12
-18 -18 -16 -17 -17 -16 -14 -14 -13 -13 -12 -12 -13 -12 -12 -12 -12 -12 -11 -11 -11 -11 -11 -12 -12 -12 -14 -15 -16 -15 -15 -15 -15 -14 -14 -14 -14 -13 -13 -13 -12 -12 -13 -12 -12 -12 -12 -12 -12
-18 -18 -17 -18 -18 -17 -15 -14 -14 -13 -13 -13 -13 -13 -12 -12 -12 -11 -12 -11 -12 -11 -11 -12 -11 -12 -15 -16 -16 -15 -15 -15 -14 -14 -14 -14 -13 -13 -13 -13 -13 -13 -13 -13 -12 -12 -12 -12 -12
-17 -18 -19 -19 -19 -18 -16 -14 -14 -15 -13 -14 -13 -13 -13 -12 -12 -12 -12 -12 -12 -11 -11 -12 -12 -13 -15 -16 -15 -15 -15 -15 -14 -14 -14 -14 -14 -13 -13 -13 -13 -13 -13 -12 -12 -12 -12 -12 -12
-17 -19 -21 -21 -20 -18 -17 -16 -17 -16 -14 -14 -14 -14 -13 -12 -12 -12 -12 -12 -12 -11 -12 -12 -13 -13 -15 -15 -15 -15 -15 -14 -14 -14 -14 -14 -14 -13 -13 -13 -12 -12 -13 -13 -13 -12 -12 -12 -12
-18 -19 -20 -20 -19 -19 -19 -18 -16 -16 -16 -15 -14 -13 -13 -12 -12 -12 -12 -12 -12 -11 -12 -12 -13 -14 -14 -15 -15 -15 -15 -14 -14 -14 -14 -13 -14 -13 -13 -13 -12 -12 -13 -13 -12 -12 -12 -12 -12
-20 -19 -20 -20 -20 -19 -17 -18 -18 -17 -16 -15 -14 -14 -13 -12 -12 -12 -12 -12 -12 -12 -12 -13 -14 -14 -14 -15 -15 -15 -15 -14 -14 -14 -14 -13 -13 -13 -13 -12 -12 -12 -13 -12 -12 -12 -12 -12 -12
-20 -20 -20 -20 -19 -17 -19 -18 -18 -18 -17 -15 -14 -13 -13 -13 -12 -12 -12 -12 -12 -11 -13 -13 -14 -14 -15 -15 -16 -15 -15 -14 -14 -14 -13 -13 -13 -13 -12 -12 -12 -12 -12 -12 -13 -13 -13 -12 -12
-20 -20 -21 -20 -19 -19 -19 -18 -18 -18 -17 -16 -15 -14 -13 -12 -12 -12 -12 -12 -12 -12 -14 -14 -14 -14 -15 -15 -15 -15 -15 -14 -14 -14 -13 -13 -13 -13 -12 -12 -12 -12 -12 -12 -12 -12 -13 -12 -13
-21 -20 -20 -19 -18 -18 -17 -18 -18 -18 -16 -16 -15 -14 -13 -13 -13 -12 -13 -13 -13 -14 -14 -14 -15 -15 -15 -15 -15 -15 -14 -14 -14 -14 -14 -13 -13 -13 -12 -12 -12 -12 -12 -12 -13 -13 -13 -13 -13
-21 -21 -21 -20 -20 -20 -19 -18 -17 -17 -16 -16 -15 -14 -14 -13 -13 -13 -13 -14 -14 -14 -15 -15 -15 -15 -15 -15 -15 -15 -14 -15 -14 -14 -14 -13 -13 -13 -13 -12 -12 -12 -12 -12 -13 -13 -13 -13 -13
-20 -20 -20 -20 -20 -20 -18 -18 -18 -17 -17 -16 -15 -15 -15 -14 -14 -14 -14 -14 -14 -15 -16 -16 -15 -15 -15 -15 -15 -15 -15 -15 -14 -14 -14 -13 -13 -13 -12 -12 -12 -12 -12 -13 -13 -13 -14 -13 -13
-22 -21 -20 -20 -19 -20 -19 -17 -17 -17 -17 -16 -16 -15 -15 -14 -14 -14 -15 -15 -15 -16 -16 -16 -15 -15 -15 -16 -15 -15 -15 -15 -15 -14 -14 -13 -14 -13 -13 -13 -13 -13 -13 -13 -12 -13 -13 -13 -13

GFSSGP_500_temp_096.txt.gz
Temp
-9 -9 -9 -9 -9 -7 -7 -7 -8 -9 -10 -8 -8 -8 -8 -10 -9 -10 -7 -7 -7 -7 -7 -7 -7 -7 -8 -8 -8 -8 -8 -8 -8 -8 -8 -9 -9 -9 -9 -9 -10 -10 -11 -11 -11 -11 -11 -11 -11
-9 -9 -10 -10 -8 -8 -7 -9 -9 -10 -11 -8 -8 -9 -9 -10 -9 -9 -8 -7 -6 -7 -7 -7 -7 -7 -8 -8 -7 -8 -8 -8 -8 -8 -9 -9 -9 -9 -9 -10 -11 -11 -11 -11 -12 -12 -12 -12 -11
-10 -10 -10 -9 -9 -8 -8 -9 -11 -11 -11 -9 -8 -9 -9 -9 -10 -8 -8 -8 -7 -7 -7 -7 -7 -7 -7 -8 -8 -8 -8 -8 -8 -9 -9 -9 -10 -10 -10 -10 -11 -11 -11 -12 -12 -12 -13 -12 -12
-10 -10 -10 -9 -8 -9 -9 -10 -11 -12 -11 -9 -9 -9 -9 -9 -9 -9 -8 -7 -7 -7 -7 -8 -8 -8 -8 -8 -8 -8 -8 -8 -9 -9 -9 -10 -10 -10 -10 -11 -11 -11 -12 -12 -12 -12 -13 -13 -12
-11 -10 -10 -10 -9 -9 -10 -10 -12 -12 -11 -9 -9 -9 -10 -9 -9 -9 -8 -8 -8 -7 -8 -8 -8 -8 -8 -8 -8 -8 -8 -8 -9 -9 -10 -10 -10 -10 -11 -11 -11 -11 -12 -12 -13 -13 -13 -13 -13
-10 -11 -10 -9 -10 -10 -10 -11 -12 -12 -11 -11 -10 -10 -11 -10 -9 -9 -8 -8 -8 -7 -8 -9 -8 -8 -8 -8 -8 -8 -8 -9 -9 -10 -10 -10 -11 -11 -11 -11 -11 -12 -12 -12 -13 -13 -13 -13 -13
-11 -11 -10 -10 -10 -10 -11 -13 -13 -13 -11 -11 -11 -10 -10 -11 -9 -8 -9 -9 -9 -8 -8 -9 -9 -9 -8 -8 -8 -9 -9 -9 -9 -10 -10 -11 -11 -11 -11 -11 -12 -12 -13 -12 -13 -13 -13 -13 -13
-11 -11 -10 -10 -10 -10 -11 -12 -14 -13 -11 -11 -11 -11 -11 -10 -10 -9 -9 -9 -9 -8 -9 -9 -9 -9 -9 -9 -9 -9 -9 -9 -9 -10 -11 -11 -11 -11 -12 -12 -12 -12 -12 -13 -13 -12 -12 -12 -13
-11 -11 -10 -10 -11 -10 -11 -12 -13 -12 -10 -11 -11 -11 -12 -10 -9 -10 -9 -10 -9 -9 -9 -9 -9 -9 -9 -9 -9 -9 -9 -9 -10 -10 -11 -11 -11 -11 -12 -12 -12 -12 -12 -12 -12 -12 -12 -12 -12
-11 -11 -10 -11 -11 -11 -11 -13 -13 -12 -11 -11 -12 -11 -11 -10 -10 -9 -10 -10 -9 -10 -10 -9 -10 -10 -9 -9 -10 -10 -10 -10 -10 -10 -11 -11 -11 -11 -12 -12 -12 -12 -12 -13 -12 -12 -12 -12 -12
-12 -10 -11 -11 -11 -11 -11 -12 -12 -11 -11 -11 -11 -11 -11 -11 -10 -10 -9 -9 -10 -10 -10 -10 -10 -10 -10 -10 -10 -10 -10 -10 -11 -11 -11 -11 -12 -11 -12 -12 -12 -12 -12 -12 -12 -12 -12 -12 -12
-12 -12 -12 -12 -12 -12 -11 -12 -11 -10 -10 -11 -10 -10 -10 -9 -9 -9 -9 -9 -9 -10 -10 -10 -10 -10 -10 -10 -10 -10 -10 -11 -11 -11 -12 -12 -12 -12 -12 -12 -12 -12 -12 -12 -12 -11 -12 -12 -12
-13 -12 -12 -12 -12 -12 -12 -11 -11 -10 -11 -11 -11 -10 -10 -10 -10 -10 -9 -10 -10 -10 -10 -9 -10 -10 -10 -10 -10 -10 -10 -11 -11 -12 -13 -13 -13 -13 -13 -13 -13 -12 -12 -12 -12 -12 -12 -12 -12
-14 -14 -13 -13 -12 -12 -12 -12 -11 -11 -12 -12 -11 -10 -10 -10 -11 -10 -9 -10 -10 -10 -11 -9 -11 -10 -10 -11 -11 -11 -11 -11 -12 -13 -14 -14 -13 -13 -13 -13 -13 -13 -13 -12 -12 -12 -12 -12 -12
-14 -14 -14 -14 -13 -13 -13 -12 -12 -12 -13 -12 -12 -11 -11 -10 -10 -10 -10 -10 -10 -11 -11 -9 -10 -11 -11 -11 -11 -11 -11 -11 -12 -13 -14 -14 -14 -14 -13 -13 -13 -13 -13 -12 -12 -12 -12 -12 -12
-15 -15 -14 -14 -15 -14 -15 -11 -12 -13 -14 -14 -12 -11 -11 -11 -11 -11 -10 -10 -10 -11 -11 -10 -10 -11 -11 -11 -12 -12 -12 -13 -14 -15 -14 -14 -14 -14 -14 -14 -13 -13 -13 -13 -12 -12 -12 -12 -12
-15 -15 -15 -15 -16 -16 -18 -13 -13 -14 -14 -14 -13 -12 -11 -11 -11 -11 -11 -10 -11 -11 -11 -11 -10 -10 -12 -11 -11 -12 -12 -13 -15 -15 -15 -15 -14 -14 -14 -14 -13 -13 -12 -13 -12 -12 -12 -12 -12
-16 -17 -16 -16 -16 -16 -17 -14 -15 -15 -14 -14 -14 -13 -12 -12 -11 -11 -11 -11 -11 -11 -11 -11 -10 -10 -12 -11 -11 -12 -14 -15 -15 -15 -15 -15 -14 -14 -14 -14 -13 -13 -12 -12 -13 -12 -12 -12 -12
-17 -17 -17 -16 -17 -19 -19 -16 -16 -15 -15 -14 -14 -13 -13 -12 -12 -12 -11 -11 -11 -11 -11 -11 -10 -10 -12 -12 -11 -13 -14 -15 -15 -15 -15 -15 -15 -14 -14 -14 -13 -13 -12 -13 -13 -12 -12 -12 -12
-17 -17 -17 -17 -17 -18 -17 -16 -17 -16 -15 -15 -14 -14 -13 -13 -12 -12 -11 -11 -11 -11 -11 -11 -11 -10 -12 -12 -12 -13 -14 -15 -15 -15 -15 -15 -14 -14 -14 -14 -13 -13 -13 -12 -12 -13 -12 -12 -12
-18 -18 -17 -17 -18 -18 -18 -16 -16 -18 -18 -16 -16 -15 -14 -14 -13 -12 -12 -11 -11 -11 -11 -11 -11 -11 -12 -12 -13 -13 -14 -15 -15 -15 -15 -14 -14 -14 -14 -14 -13 -13 -13 -12 -13 -13 -12 -12 -12
-20 -20 -21 -18 -18 -17 -20 -17 -18 -18 -17 -16 -16 -15 -16 -15 -14 -12 -12 -11 -11 -11 -12 -12 -11 -12 -11 -12 -13 -13 -14 -15 -15 -15 -15 -14 -14 -14 -14 -14 -14 -13 -13 -13 -13 -13 -12 -12 -12
-22 -22 -21 -19 -18 -19 -18 -19 -17 -18 -17 -18 -16 -15 -16 -14 -13 -13 -12 -12 -12 -12 -11 -11 -11 -12 -11 -13 -13 -13 -14 -15 -15 -15 -14 -14 -14 -14 -14 -14 -14 -13 -13 -13 -13 -13 -13 -13 -12
-22 -21 -21 -20 -19 -18 -18 -19 -19 -18 -18 -18 -18 -16 -16 -15 -14 -13 -13 -13 -12 -12 -12 -11 -12 -12 -12 -13 -13 -13 -14 -15 -14 -15 -14 -14 -14 -14 -14 -13 -13 -13 -13 -13 -13 -13 -13 -13 -13
-22 -22 -21 -20 -19 -17 -19 -19 -19 -17 -18 -17 -17 -16 -16 -15 -14 -14 -13 -12 -12 -12 -12 -11 -12 -12 -12 -14 -14 -14 -15 -15 -15 -14 -14 -14 -14 -13 -13 -13 -13 -13 -13 -13 -13 -13 -13 -13 -13
-21 -21 -20 -20 -19 -19 -19 -18 -17 -18 -17 -17 -17 -17 -15 -14 -13 -13 -13 -13 -13 -12 -12 -12 -12 -12 -12 -14 -14 -14 -15 -15 -15 -14 -14 -14 -14 -14 -13 -13 -13 -13 -12 -12 -13 -13 -13 -13 -13
-21 -21 -20 -20 -19 -18 -18 -18 -17 -17 -16 -17 -18 -17 -15 -14 -14 -13 -13 -13 -13 -12 -12 -12 -12 -13 -14 -14 -14 -15 -15 -15 -15 -15 -14 -14 -14 -13 -13 -13 -13 -12 -12 -12 -13 -13 -12 -12 -13
-21 -21 -21 -20 -19 -18 -17 -18 -17 -17 -18 -18 -17 -17 -16 -15 -14 -14 -13 -13 -12 -12 -13 -12 -13 -14 -14 -15 -14 -15 -15 -15 -15 -15 -15 -14 -14 -13 -13 -12 -13 -12 -12 -12 -12 -12 -13 -13 -13
-21 -21 -20 -20 -19 -19 -18 -18 -17 -17 -17 -18 -17 -16 -16 -15 -15 -14 -13 -13 -12 -14 -13 -14 -14 -14 -15 -15 -15 -16 -16 -15 -15 -15 -15 -14 -14 -14 -13 -12 -13 -12 -12 -12 -12 -13 -13 -13 -13
-23 -21 -20 -20 -20 -19 -18 -18 -17 -17 -17 -18 -17 -16 -16 -15 -14 -14 -14 -13 -13 -15 -14 -14 -15 -15 -15 -15 -15 -16 -15 -15 -15 -15 -15 -14 -14 -13 -13 -13 -13 -13 -12 -12 -12 -13 -13 -13 -13

GFSSGP_500_temp_099.txt.gz
Temp
-9 -9 -9 -9 -8 -7 -7 -7 -8 -9 -10 -9 -10 -10 -10 -9 -9 -10 -8 -7 -7 -7 -7 -7 -7 -8 -8 -7 -7 -7 -7 -7 -7 -7 -7 -7 -8 -8 -9 -9 -9 -10 -10 -10 -10 -10 -11 -11 -11
-9 -9 -9 -9 -8 -8 -7 -9 -10 -10 -10 -10 -10 -11 -10 -10 -10 -9 -8 -8 -7 -7 -8 -8 -8 -8 -8 -8 -7 -7 -7 -7 -7 -7 -7 -8 -8 -8 -9 -9 -10 -10 -10 -11 -11 -11 -12 -12 -12
-10 -9 -9 -9 -8 -8 -8 -9 -10 -10 -10 -10 -11 -11 -11 -11 -11 -10 -9 -8 -8 -8 -8 -8 -8 -8 -8 -8 -8 -8 -8 -8 -8 -7 -8 -8 -8 -9 -9 -10 -10 -10 -11 -11 -12 -11 -12 -12 -12
-9 -9 -9 -9 -9 -9 -9 -9 -10 -12 -12 -10 -11 -11 -11 -11 -11 -10 -9 -9 -8 -9 -8 -8 -8 -8 -8 -8 -8 -8 -8 -8 -8 -8 -8 -8 -8 -9 -10 -10 -10 -11 -11 -12 -12 -12 -12 -12 -13
-9 -9 -9 -9 -9 -9 -9 -10 -10 -11 -11 -11 -10 -11 -11 -10 -10 -10 -9 -9 -9 -9 -9 -8 -8 -9 -8 -8 -8 -8 -8 -8 -8 -8 -8 -8 -9 -9 -10 -10 -11 -11 -11 -12 -12 -12 -13 -13 -13
-9 -10 -9 -9 -9 -10 -10 -10 -11 -12 -11 -11 -11 -10 -11 -11 -10 -10 -9 -9 -9 -9 -9 -9 -9 -9 -8 -8 -8 -8 -8 -8 -8 -8 -8 -8 -9 -10 -10 -10 -11 -11 -12 -12 -12 -13 -13 -13 -13
-11 -11 -9 -9 -9 -9 -10 -11 -11 -11 -11 -12 -12 -12 -12 -11 -11 -10 -9 -9 -9 -10 -9 -9 -9 -9 -9 -8 -8 -8 -8 -9 -9 -9 -9 -9 -9 -10 -11 -11 -11 -11 -12 -12 -12 -13 -13 -13 -13
-11 -11 -10 -10 -10 -10 -10 -10 -11 -11 -11 -11 -14 -12 -12 -11 -11 -10 -10 -9 -9 -10 -10 -9 -9 -9 -9 -9 -9 -8 -8 -9 -9 -9 -9 -9 -10 -10 -11 -11 -11 -12 -12 -12 -13 -12 -12 -12 -13
-11 -10 -9 -10 -11 -11 -11 -11 -12 -12 -12 -12 -14 -12 -12 -12 -11 -10 -10 -10 -9 -10 -10 -10 -10 -9 -10 -9 -9 -9 -9 -9 -9 -9 -9 -10 -10 -10 -11 -11 -11 -12 -12 -12 -12 -12 -12 -12 -12
-11 -10 -10 -11 -11 -11 -11 -11 -11 -12 -12 -12 -12 -13 -12 -12 -12 -11 -10 -10 -10 -10 -11 -11 -10 -10 -10 -10 -10 -9 -9 -9 -10 -10 -10 -10 -10 -10 -11 -11 -12 -12 -12 -12 -12 -13 -12 -13 -12
-11 -10 -11 -11 -11 -12 -11 -11 -11 -11 -11 -12 -11 -12 -13 -11 -12 -11 -11 -10 -10 -10 -10 -11 -11 -10 -10 -10 -10 -10 -9 -10 -10 -10 -10 -10 -10 -10 -11 -11 -12 -12 -12 -12 -12 -12 -12 -13 -12
-11 -12 -12 -11 -12 -12 -11 -12 -11 -11 -11 -11 -11 -11 -11 -11 -10 -10 -10 -9 -10 -9 -10 -11 -11 -11 -11 -10 -10 -10 -10 -10 -10 -10 -10 -11 -11 -11 -12 -12 -12 -12 -12 -12 -12 -12 -12 -13 -12
-11 -12 -12 -12 -12 -12 -12 -11 -11 -12 -12 -11 -11 -11 -11 -11 -11 -11 -10 -10 -9 -10 -10 -11 -11 -11 -11 -11 -11 -10 -10 -10 -10 -11 -11 -11 -11 -11 -12 -13 -13 -13 -13 -13 -13 -12 -12 -12 -12
-13 -13 -13 -13 -13 -13 -13 -12 -12 -12 -12 -12 -12 -12 -12 -11 -11 -11 -10 -10 -10 -11 -10 -10 -11 -12 -11 -11 -11 -11 -11 -10 -11 -11 -11 -11 -12 -13 -13 -14 -14 -13 -13 -13 -13 -13 -12 -12 -12
-14 -13 -13 -13 -13 -14 -15 -13 -12 -13 -14 -13 -13 -13 -13 -12 -12 -11 -11 -10 -10 -11 -11 -10 -10 -11 -11 -11 -11 -11 -11 -11 -11 -11 -11 -12 -13 -14 -15 -14 -14 -14 -13 -14 -13 -13 -12 -12 -12
-14 -15 -14 -14 -15 -15 -16 -14 -13 -14 -14 -13 -13 -13 -13 -13 -12 -12 -11 -11 -11 -11 -11 -10 -10 -10 -12 -11 -11 -11 -11 -11 -11 -11 -12 -13 -14 -15 -15 -14 -14 -14 -14 -14 -14 -13 -12 -12 -12
-15 -16 -16 -14 -15 -16 -16 -15 -14 -14 -14 -14 -13 -13 -13 -13 -13 -13 -11 -11 -11 -11 -11 -10 -10 -10 -11 -11 -11 -11 -11 -11 -11 -12 -13 -14 -15 -15 -15 -14 -14 -14 -14 -14 -14 -13 -13 -13 -12
-16 -16 -16 -16 -15 -17 -16 -16 -16 -15 -15 -14 -14 -14 -13 -13 -13 -13 -12 -11 -11 -11 -11 -11 -10 -10 -10 -11 -11 -11 -11 -12 -12 -12 -14 -15 -15 -15 -15 -15 -15 -14 -15 -14 -13 -12 -12 -12 -12
-16 -16 -17 -16 -17 -17 -17 -16 -16 -16 -16 -15 -15 -14 -14 -13 -13 -14 -13 -12 -11 -11 -11 -11 -10 -10 -10 -11 -12 -12 -12 -12 -13 -13 -14 -15 -15 -16 -15 -15 -14 -14 -15 -14 -14 -13 -13 -12 -12
-16 -17 -17 -18 -17 -18 -18 -17 -16 -16 -16 -15 -15 -15 -15 -15 -15 -14 -13 -13 -12 -12 -11 -11 -10 -10 -11 -12 -12 -12 -12 -12 -12 -13 -15 -16 -16 -15 -15 -14 -14 -14 -14 -14 -14 -13 -13 -12 -12
-18 -19 -19 -19 -18 -19 -18 -18 -17 -16 -17 -18 -16 -17 -16 -15 -15 -14 -13 -13 -13 -12 -12 -11 -11 -10 -11 -12 -13 -12 -12 -12 -12 -14 -15 -16 -15 -15 -15 -14 -14 -14 -14 -14 -14 -13 -14 -13 -13
-21 -20 -21 -21 -21 -20 -20 -18 -17 -16 -17 -18 -18 -18 -17 -15 -15 -14 -14 -13 -13 -12 -12 -11 -11 -11 -11 -12 -13 -12 -12 -12 -13 -14 -15 -15 -15 -15 -15 -14 -14 -14 -14 -14 -14 -13 -13 -13 -13
-22 -22 -21 -22 -22 -21 -20 -20 -16 -17 -18 -18 -18 -17 -17 -17 -15 -14 -13 -13 -13 -12 -12 -12 -11 -11 -11 -12 -13 -12 -12 -13 -13 -14 -15 -15 -15 -15 -14 -14 -14 -14 -14 -14 -14 -13 -13 -13 -13
-23 -22 -21 -21 -22 -21 -19 -20 -16 -17 -17 -18 -17 -17 -16 -16 -15 -15 -14 -14 -13 -12 -12 -12 -11 -11 -12 -12 -13 -12 -12 -13 -14 -14 -14 -15 -15 -15 -14 -14 -14 -14 -14 -14 -14 -13 -14 -13 -13
-23 -23 -22 -21 -21 -20 -20 -19 -16 -18 -17 -17 -17 -17 -16 -16 -16 -15 -15 -15 -14 -13 -12 -12 -12 -12 -12 -12 -13 -12 -12 -14 -14 -14 -15 -15 -15 -15 -14 -14 -14 -13 -14 -14 -13 -14 -13 -13 -13
-23 -23 -22 -21 -20 -19 -20 -16 -18 -19 -18 -15 -16 -16 -16 -16 -16 -16 -16 -15 -14 -13 -13 -13 -12 -12 -12 -13 -12 -12 -13 -14 -14 -14 -15 -15 -15 -15 -14 -14 -14 -13 -13 -13 -13 -13 -13 -13 -13
-23 -22 -21 -21 -21 -19 -19 -17 -18 -18 -18 -17 -16 -16 -16 -17 -16 -17 -16 -16 -14 -14 -13 -13 -12 -12 -12 -12 -12 -13 -14 -14 -14 -15 -15 -15 -15 -15 -14 -14 -14 -14 -13 -13 -13 -13 -13 -13 -13
-23 -22 -22 -21 -20 -19 -19 -18 -17 -17 -18 -17 -16 -17 -16 -17 -16 -16 -16 -16 -14 -15 -14 -13 -13 -12 -12 -13 -13 -14 -14 -14 -15 -15 -15 -14 -15 -15 -14 -14 -14 -13 -13 -13 -13 -13 -13 -12 -13
-22 -22 -21 -21 -20 -19 -18 -17 -18 -16 -17 -17 -17 -17 -17 -17 -17 -18 -16 -16 -15 -14 -14 -13 -13 -12 -13 -13 -14 -15 -15 -15 -15 -16 -15 -15 -15 -15 -15 -14 -13 -13 -13 -13 -13 -13 -13 -13 -13
-21 -21 -21 -20 -20 -19 -19 -18 -18 -17 -17 -17 -17 -18 -18 -18 -17 -18 -16 -15 -15 -14 -14 -13 -14 -14 -14 -14 -15 -15 -15 -15 -16 -15 -15 -16 -15 -15 -14 -14 -13 -13 -13 -13 -13 -13 -13 -13 -13

GFSSGP_500_temp_102.txt.gz
Temp
-8 -8 -8 -8 -8 -7 -7 -8 -9 -10 -10 -10 -9 -9 -10 -11 -10 -10 -9 -9 -9 -8 -8 -8 -9 -9 -8 -8 -8 -8 -8 -8 -8 -7 -7 -7 -7 -7 -8 -8 -8 -8 -9 -9 -10 -10 -10 -10 -10
-8 -8 -8 -8 -8 -8 -8 -8 -10 -10 -10 -9 -9 -10 -11 -11 -11 -11 -9 -9 -9 -8 -8 -8 -9 -9 -9 -8 -8 -8 -8 -8 -8 -8 -8 -7 -7 -8 -8 -8 -8 -9 -9 -10 -10 -11 -11 -11 -11
-8 -8 -8 -8 -8 -8 -8 -9 -9 -10 -11 -10 -9 -9 -11 -10 -11 -11 -10 -9 -9 -9 -8 -8 -9 -9 -9 -9 -8 -8 -8 -8 -8 -8 -8 -8 -8 -8 -8 -8 -9 -9 -10 -10 -11 -11 -11 -11 -11
-9 -8 -8 -7 -7 -9 -9 -9 -10 -11 -11 -11 -10 -9 -10 -10 -10 -11 -10 -10 -9 -9 -9 -9 -9 -9 -9 -10 -9 -8 -8 -8 -8 -8 -8 -8 -8 -8 -8 -8 -9 -10 -10 -11 -11 -11 -11 -12 -12
-9 -9 -8 -7 -7 -9 -9 -10 -10 -11 -11 -11 -11 -10 -10 -9 -10 -10 -10 -10 -10 -10 -10 -10 -10 -9 -9 -10 -9 -9 -9 -8 -8 -8 -8 -8 -8 -8 -8 -8 -10 -10 -11 -11 -12 -12 -12 -12 -12
-9 -9 -7 -7 -8 -9 -10 -10 -10 -11 -11 -11 -11 -11 -11 -10 -10 -10 -10 -10 -10 -10 -10 -10 -10 -10 -10 -9 -10 -9 -9 -8 -8 -8 -9 -9 -9 -9 -9 -9 -10 -11 -11 -11 -12 -12 -12 -13 -13
-9 -8 -7 -8 -8 -9 -10 -11 -10 -11 -11 -11 -11 -11 -11 -11 -11 -10 -10 -10 -10 -10 -10 -10 -10 -10 -10 -10 -10 -10 -9 -9 -9 -9 -9 -9 -9 -9 -9 -9 -10 -11 -11 -12 -12 -12 -13 -12 -13
-10 -8 -7 -8 -9 -9 -11 -11 -11 -11 -10 -11 -12 -12 -12 -12 -11 -10 -10 -10 -11 -11 -10 -10 -10 -10 -11 -10 -10 -10 -10 -9 -9 -9 -9 -9 -9 -9 -9 -10 -10 -11 -12 -12 -12 -12 -12 -12 -12
-10 -8 -8 -9 -10 -10 -11 -11 -12 -11 -11 -11 -12 -12 -13 -12 -11 -10 -10 -10 -11 -11 -11 -11 -10 -10 -10 -10 -10 -10 -10 -9 -9 -9 -9 -10 -10 -10 -10 -10 -11 -11 -11 -12 -12 -12 -12 -12 -12
-9 -8 -9 -10 -10 -10 -10 -11 -12 -12 -11 -11 -12 -12 -12 -13 -12 -10 -10 -10 -10 -10 -11 -11 -11 -11 -11 -11 -10 -10 -10 -10 -10 -10 -10 -10 -10 -10 -10 -10 -11 -11 -11 -12 -12 -12 -12 -12 -13
-10 -9 -10 -10 -11 -11 -10 -10 -11 -12 -12 -12 -12 -12 -12 -11 -12 -11 -10 -10 -10 -10 -10 -11 -12 -11 -11 -11 -11 -11 -11 -11 -10 -10 -10 -10 -10 -10 -10 -11 -11 -11 -11 -12 -12 -12 -13 -12 -12
-10 -11 -11 -11 -11 -11 -11 -11 -11 -11 -12 -12 -12 -12 -12 -12 -11 -11 -10 -10 -11 -10 -10 -10 -11 -11 -12 -12 -11 -11 -11 -11 -11 -10 -10 -10 -11 -11 -11 -11 -11 -11 -12 -12 -13 -13 -13 -12 -13
-11 -12 -11 -11 -11 -11 -12 -11 -12 -11 -12 -12 -13 -12 -12 -12 -12 -12 -11 -11 -11 -11 -10 -10 -12 -12 -12 -12 -11 -11 -11 -11 -11 -11 -11 -11 -11 -11 -11 -11 -12 -12 -13 -14 -14 -13 -13 -13 -13
-12 -11 -12 -12 -13 -13 -13 -13 -12 -11 -13 -13 -13 -14 -13 -13 -13 -13 -12 -12 -11 -11 -11 -12 -12 -12 -12 -12 -12 -12 -12 -11 -11 -11 -11 -11 -11 -11 -12 -12 -13 -13 -14 -14 -14 -14 -14 -14 -13
-13 -13 -12 -13 -13 -13 -15 -12 -11 -13 -13 -13 -13 -14 -15 -14 -14 -13 -13 -13 -12 -11 -10 -11 -12 -12 -12 -12 -12 -12 -11 -11 -11 -11 -11 -11 -11 -12 -12 -13 -14 -15 -15 -14 -14 -14 -14 -14 -14
-14 -14 -13 -13 -14 -14 -15 -13 -12 -14 -14 -13 -13 -13 -14 -14 -14 -14 -13 -12 -12 -12 -11 -11 -11 -12 -12 -12 -12 -12 -12 -11 -11 -11 -11 -11 -11 -12 -13 -14 -15 -16 -15 -14 -14 -15 -15 -14 -14
-15 -15 -15 -12 -15 -15 -16 -15 -13 -14 -15 -14 -14 -13 -13 -14 -14 -14 -14 -13 -13 -12 -12 -11 -11 -11 -12 -12 -12 -12 -11 -12 -11 -11 -11 -11 -12 -13 -13 -15 -16 -15 -15 -15 -15 -15 -15 -14 -14
-15 -15 -15 -15 -14 -16 -15 -15 -15 -15 -16 -15 -14 -14 -14 -13 -13 -14 -13 -13 -14 -13 -13 -13 -12 -11 -12 -12 -12 -11 -11 -11 -11 -12 -12 -12 -12 -13 -14 -15 -16 -15 -15 -15 -15 -14 -14 -14 -13
-16 -16 -16 -15 -15 -17 -15 -16 -16 -17 -16 -16 -16 -16 -16 -15 -14 -15 -14 -14 -14 -13 -13 -14 -12 -12 -12 -11 -12 -12 -11 -11 -12 -12 -12 -12 -12 -13 -14 -15 -15 -15 -15 -15 -15 -15 -14 -14 -13
-16 -16 -15 -16 -15 -18 -18 -18 -17 -18 -17 -17 -17 -16 -16 -16 -15 -15 -14 -14 -14 -13 -13 -13 -12 -12 -12 -11 -12 -11 -12 -12 -12 -12 -12 -12 -13 -14 -15 -15 -15 -15 -15 -14 -15 -15 -14 -14 -14
-16 -16 -17 -18 -17 -18 -19 -19 -18 -18 -18 -17 -17 -16 -16 -16 -15 -15 -15 -15 -15 -14 -14 -13 -13 -12 -12 -12 -12 -12 -12 -12 -12 -12 -12 -13 -14 -14 -15 -15 -15 -15 -14 -14 -15 -15 -14 -14 -14
-17 -18 -21 -21 -20 -21 -21 -20 -19 -19 -18 -17 -17 -17 -16 -16 -16 -17 -17 -16 -14 -13 -13 -14 -12 -13 -12 -12 -12 -12 -13 -12 -12 -13 -13 -13 -13 -14 -14 -14 -14 -15 -14 -14 -15 -15 -14 -14 -14
-19 -21 -21 -22 -22 -22 -21 -22 -18 -19 -18 -18 -18 -18 -17 -17 -17 -16 -16 -16 -14 -14 -13 -13 -12 -12 -12 -12 -13 -13 -12 -12 -12 -12 -13 -13 -14 -14 -15 -15 -15 -15 -14 -14 -14 -14 -14 -13 -13
-21 -22 -22 -23 -23 -22 -20 -21 -18 -19 -18 -18 -19 -17 -18 -17 -17 -17 -16 -16 -15 -14 -14 -13 -13 -13 -13 -12 -13 -13 -13 -13 -12 -12 -13 -13 -14 -14 -15 -15 -15 -15 -14 -14 -14 -14 -14 -14 -13
-23 -24 -23 -24 -23 -21 -21 -21 -19 -19 -19 -19 -19 -18 -18 -18 -17 -17 -16 -16 -15 -15 -15 -14 -14 -13 -13 -12 -12 -13 -13 -13 -12 -13 -13 -14 -14 -15 -15 -15 -15 -14 -14 -14 -14 -14 -14 -14 -14
-24 -24 -24 -23 -23 -21 -21 -20 -19 -18 -19 -18 -19 -18 -16 -17 -16 -17 -17 -17 -16 -15 -15 -14 -13 -13 -13 -13 -13 -12 -13 -13 -13 -13 -13 -14 -15 -15 -15 -15 -14 -14 -14 -14 -14 -13 -13 -14 -13
-23 -23 -23 -23 -22 -22 -21 -20 -20 -19 -19 -19 -18 -16 -16 -16 -16 -16 -18 -18 -17 -16 -15 -14 -14 -13 -13 -13 -12 -12 -13 -13 -13 -13 -14 -15 -15 -16 -16 -15 -14 -14 -14 -14 -14 -13 -13 -13 -14
-23 -23 -23 -23 -22 -22 -20 -19 -19 -18 -19 -18 -18 -16 -16 -16 -16 -17 -18 -17 -17 -16 -16 -15 -14 -14 -14 -14 -13 -13 -13 -13 -13 -14 -14 -15 -16 -16 -16 -15 -14 -14 -14 -14 -14 -13 -13 -13 -13
-23 -22 -23 -22 -22 -21 -20 -19 -19 -18 -18 -18 -17 -17 -16 -16 -17 -17 -17 -18 -17 -17 -16 -15 -15 -14 -14 -14 -14 -14 -13 -13 -14 -15 -15 -16 -16 -16 -16 -15 -15 -15 -15 -14 -14 -13 -14 -14 -13
-22 -22 -22 -22 -22 -21 -20 -20 -19 -18 -18 -18 -18 -17 -16 -17 -17 -17 -17 -16 -16 -17 -17 -15 -15 -14 -14 -14 -14 -14 -14 -14 -15 -15 -15 -15 -15 -16 -15 -15 -15 -15 -14 -14 -14 -14 -14 -13 -13

GFSSGP_500_temp_105.txt.gz
Temp
-8 -8 -8 -8 -8 -7 -8 -8 -9 -10 -9 -9 -9 -9 -9 -9 -9 -8 -8 -9 -9 -10 -9 -9 -9 -9 -9 -9 -9 -9 -8 -8 -8 -8 -8 -8 -8 -8 -8 -8 -8 -8 -8 -9 -9 -9 -10 -10 -10
-8 -8 -8 -8 -7 -7 -8 -9 -10 -10 -9 -10 -9 -9 -9 -9 -9 -8 -8 -9 -9 -10 -10 -9 -9 -9 -10 -10 -9 -9 -9 -9 -8 -8 -8 -8 -8 -8 -8 -8 -8 -8 -8 -9 -9 -10 -10 -11 -11
-9 -9 -8 -7 -7 -8 -9 -10 -10 -11 -10 -10 -10 -10 -9 -9 -9 -9 -8 -8 -9 -10 -10 -10 -10 -10 -10 -10 -9 -10 -9 -9 -9 -8 -8 -8 -8 -8 -8 -8 -8 -8 -8 -9 -10 -10 -10 -11 -11
-8 -8 -8 -7 -7 -9 -10 -10 -10 -11 -11 -11 -10 -10 -9 -10 -9 -9 -9 -8 -8 -9 -9 -10 -10 -10 -10 -10 -10 -10 -10 -9 -9 -9 -8 -8 -8 -8 -8 -8 -8 -9 -9 -9 -10 -10 -11 -11 -11
-8 -8 -8 -7 -8 -9 -10 -11 -11 -11 -11 -11 -10 -10 -9 -10 -10 -10 -9 -9 -9 -9 -9 -10 -10 -10 -10 -10 -10 -10 -10 -10 -9 -9 -9 -8 -8 -9 -9 -9 -9 -9 -9 -9 -10 -10 -11 -12 -12
-8 -8 -7 -7 -8 -9 -10 -11 -11 -11 -11 -11 -10 -10 -9 -9 -10 -10 -10 -10 -10 -10 -10 -10 -10 -11 -10 -11 -11 -10 -10 -10 -10 -9 -9 -9 -9 -9 -9 -9 -9 -9 -10 -10 -10 -11 -11 -12 -13
-8 -8 -7 -7 -7 -8 -10 -11 -11 -11 -11 -11 -11 -10 -10 -10 -10 -11 -11 -10 -10 -10 -10 -11 -11 -11 -11 -11 -11 -11 -11 -11 -10 -10 -10 -9 -9 -9 -9 -9 -10 -10 -10 -11 -10 -11 -11 -12 -12
-8 -8 -7 -7 -8 -8 -11 -11 -11 -12 -11 -11 -11 -11 -10 -10 -11 -11 -11 -11 -10 -10 -10 -11 -11 -11 -11 -11 -11 -11 -11 -11 -10 -10 -10 -10 -9 -9 -10 -10 -10 -10 -11 -11 -11 -11 -11 -12 -12
-8 -7 -7 -8 -9 -9 -10 -11 -12 -11 -11 -12 -12 -12 -11 -10 -11 -11 -11 -11 -11 -11 -11 -11 -11 -11 -11 -11 -11 -11 -11 -11 -11 -10 -10 -10 -10 -10 -10 -10 -10 -11 -11 -11 -12 -12 -12 -12 -12
-9 -8 -8 -9 -9 -9 -10 -10 -11 -10 -11 -12 -12 -12 -12 -11 -11 -11 -11 -11 -11 -11 -11 -11 -11 -11 -11 -12 -12 -12 -11 -12 -11 -10 -10 -10 -10 -10 -10 -10 -11 -11 -11 -11 -11 -12 -12 -12 -11
-9 -8 -9 -9 -10 -10 -9 -9 -10 -10 -11 -12 -13 -12 -12 -12 -11 -11 -11 -11 -11 -11 -11 -11 -11 -11 -11 -12 -12 -12 -11 -12 -11 -11 -10 -11 -10 -10 -10 -11 -11 -11 -11 -11 -11 -12 -12 -12 -12
-9 -10 -10 -10 -11 -10 -11 -10 -10 -10 -11 -13 -13 -13 -13 -13 -12 -12 -12 -12 -12 -12 -11 -11 -11 -11 -11 -12 -12 -12 -12 -12 -12 -12 -11 -11 -11 -10 -11 -11 -11 -11 -11 -12 -12 -12 -12 -12 -12
-10 -11 -11 -10 -11 -12 -12 -11 -10 -11 -12 -13 -13 -13 -13 -13 -13 -12 -12 -12 -12 -12 -12 -12 -12 -12 -12 -12 -13 -12 -12 -12 -12 -12 -12 -11 -11 -11 -11 -11 -11 -11 -11 -12 -13 -13 -14 -13 -13
-12 -11 -12 -12 -12 -13 -12 -11 -10 -12 -13 -12 -13 -13 -14 -14 -13 -13 -13 -13 -13 -13 -13 -13 -13 -13 -13 -13 -13 -12 -12 -13 -13 -13 -12 -12 -12 -11 -11 -11 -12 -12 -12 -12 -13 -14 -15 -15 -14
-13 -12 -12 -13 -13 -13 -13 -10 -12 -13 -13 -12 -13 -13 -13 -14 -14 -13 -14 -14 -14 -13 -14 -14 -14 -13 -13 -13 -13 -12 -12 -13 -13 -12 -12 -13 -12 -11 -11 -12 -12 -12 -13 -13 -14 -15 -15 -15 -14
-14 -13 -12 -13 -14 -15 -15 -11 -13 -14 -13 -13 -13 -13 -13 -13 -14 -13 -13 -14 -14 -14 -14 -14 -13 -12 -13 -13 -13 -13 -13 -13 -13 -12 -13 -13 -12 -11 -12 -12 -12 -12 -13 -14 -15 -15 -15 -15 -15
-15 -14 -13 -14 -14 -14 -15 -14 -12 -14 -14 -13 -13 -13 -13 -14 -13 -14 -14 -14 -14 -14 -14 -13 -13 -13 -12 -13 -13 -13 -13 -13 -13 -12 -12 -12 -12 -12 -12 -12 -13 -13 -14 -15 -15 -15 -15 -15 -15
-15 -15 -14 -13 -15 -15 -15 -15 -13 -13 -14 -14 -14 -13 -13 -14 -14 -14 -14 -15 -15 -15 -15 -14 -14 -13 -12 -13 -13 -13 -13 -13 -13 -13 -12 -12 -12 -12 -13 -13 -13 -13 -15 -15 -15 -15 -15 -15 -15
-15 -15 -15 -15 -15 -15 -15 -14 -15 -14 -14 -14 -14 -14 -14 -14 -15 -15 -14 -15 -15 -15 -15 -15 -14 -14 -13 -13 -14 -13 -12 -13 -13 -13 -13 -13 -12 -12 -13 -13 -13 -14 -15 -15 -15 -15 -15 -15 -15
-16 -16 -16 -15 -16 -16 -15 -15 -15 -14 -15 -15 -15 -15 -15 -15 -16 -16 -15 -15 -15 -16 -15 -15 -14 -14 -13 -13 -14 -13 -13 -13 -14 -14 -13 -13 -12 -12 -13 -13 -14 -14 -14 -15 -15 -15 -15 -15 -15
-16 -16 -16 -16 -15 -16 -16 -15 -14 -14 -16 -17 -17 -17 -18 -17 -16 -17 -17 -16 -16 -16 -15 -14 -14 -14 -13 -13 -14 -13 -13 -13 -13 -13 -12 -13 -13 -13 -13 -13 -14 -14 -14 -15 -15 -15 -15 -15 -15
-16 -17 -17 -17 -17 -15 -16 -14 -14 -17 -17 -19 -19 -20 -19 -18 -18 -17 -17 -16 -16 -16 -15 -15 -15 -14 -13 -14 -14 -13 -13 -13 -13 -14 -14 -14 -13 -13 -13 -13 -14 -14 -14 -15 -15 -15 -15 -15 -15
-16 -17 -17 -18 -18 -19 -15 -18 -18 -19 -20 -21 -22 -21 -19 -18 -18 -18 -17 -17 -16 -16 -15 -15 -15 -15 -14 -13 -13 -13 -13 -14 -14 -14 -13 -13 -13 -13 -13 -13 -13 -14 -15 -15 -15 -14 -15 -15 -15
-16 -17 -17 -19 -20 -20 -18 -21 -18 -20 -21 -21 -22 -20 -19 -18 -17 -17 -17 -17 -16 -16 -17 -16 -16 -15 -15 -14 -14 -13 -13 -14 -14 -14 -13 -13 -13 -13 -13 -13 -14 -14 -15 -15 -15 -14 -14 -14 -14
-17 -18 -18 -20 -21 -21 -21 -21 -20 -20 -20 -21 -21 -19 -18 -18 -17 -17 -17 -18 -17 -17 -16 -17 -16 -15 -15 -15 -14 -14 -14 -14 -14 -14 -13 -13 -13 -13 -13 -13 -14 -14 -14 -15 -15 -14 -14 -14 -14
-18 -21 -22 -23 -22 -22 -23 -21 -21 -20 -20 -20 -20 -19 -18 -17 -18 -18 -18 -17 -17 -17 -18 -18 -17 -15 -14 -15 -14 -14 -14 -13 -14 -14 -13 -13 -13 -13 -13 -14 -14 -15 -15 -15 -15 -14 -14 -14 -14
-20 -22 -24 -23 -23 -22 -21 -21 -21 -20 -19 -19 -19 -18 -18 -18 -17 -18 -17 -17 -17 -18 -18 -17 -17 -15 -15 -15 -14 -14 -14 -14 -14 -14 -14 -13 -13 -13 -14 -14 -14 -15 -15 -15 -14 -14 -14 -14 -14
-23 -25 -24 -24 -23 -22 -21 -22 -20 -20 -19 -18 -18 -18 -18 -17 -17 -17 -17 -17 -16 -17 -17 -16 -16 -16 -15 -15 -15 -15 -15 -14 -14 -14 -14 -13 -13 -14 -14 -14 -15 -15 -15 -15 -15 -14 -14 -14 -14
-23 -24 -23 -23 -23 -22 -22 -22 -21 -20 -20 -19 -18 -18 -17 -17 -18 -16 -16 -17 -17 -17 -17 -16 -16 -15 -15 -15 -14 -15 -15 -15 -15 -14 -14 -13 -14 -14 -14 -15 -15 -15 -15 -15 -15 -14 -14 -14 -14
-23 -23 -23 -23 -22 -22 -22 -21 -21 -20 -20 -19 -18 -18 -17 -17 -17 -16 -17 -17 -17 -17 -17 -17 -17 -15 -15 -15 -15 -15 -14 -14 -14 -14 -14 -14 -14 -15 -15 -15 -15 -16 -15 -15 -15 -15 -14 -14 -14

GFSSGP_500_temp_108.txt.gz
Temp
-8 -8 -8 -8 -8 -8 -8 -9 -10 -10 -9 -9 -9 -9 -9 -9 -8 -8 -8 -8 -8 -8 -9 -10 -10 -10 -9 -10 -10 -9 -9 -9 -9 -8 -8 -8 -8 -8 -8 -8 -8 -8 -8 -8 -8 -9 -10 -10 -11
-8 -8 -8 -8 -8 -8 -8 -10 -11 -10 -9 -9 -9 -9 -9 -9 -9 -8 -8 -8 -8 -8 -9 -10 -10 -10 -10 -10 -10 -10 -9 -9 -9 -9 -8 -8 -8 -8 -8 -8 -8 -8 -8 -9 -9 -9 -10 -10 -11
-8 -8 -8 -8 -7 -8 -9 -10 -11 -11 -10 -10 -10 -9 -9 -9 -9 -9 -9 -9 -9 -9 -9 -9 -10 -10 -10 -10 -10 -10 -10 -10 -9 -9 -9 -9 -8 -8 -8 -8 -8 -8 -9 -9 -9 -9 -10 -11 -11
-8 -8 -8 -8 -8 -9 -10 -11 -11 -11 -10 -10 -9 -10 -9 -10 -10 -9 -9 -9 -9 -9 -9 -9 -9 -10 -11 -10 -10 -10 -10 -10 -10 -9 -9 -9 -9 -9 -8 -8 -8 -9 -9 -9 -9 -10 -10 -11 -11
-8 -8 -8 -7 -8 -9 -10 -11 -11 -11 -11 -10 -10 -10 -10 -10 -10 -10 -10 -10 -10 -10 -10 -10 -10 -10 -11 -11 -11 -11 -10 -10 -10 -10 -9 -9 -9 -9 -9 -9 -9 -9 -9 -9 -10 -10 -11 -11 -11
-8 -8 -7 -7 -8 -9 -10 -10 -10 -11 -11 -11 -10 -10 -10 -10 -10 -10 -11 -11 -10 -10 -10 -10 -10 -11 -11 -11 -11 -11 -11 -10 -10 -10 -10 -10 -9 -9 -9 -9 -9 -9 -9 -9 -10 -10 -10 -11 -11
-8 -8 -7 -7 -7 -9 -10 -10 -10 -11 -11 -11 -11 -11 -11 -11 -11 -11 -11 -11 -11 -11 -11 -11 -11 -11 -11 -12 -12 -11 -11 -11 -10 -10 -10 -10 -10 -10 -9 -9 -9 -9 -10 -10 -10 -10 -10 -11 -11
-8 -8 -7 -7 -8 -9 -11 -10 -10 -10 -11 -11 -11 -10 -11 -11 -11 -11 -11 -11 -11 -11 -11 -11 -11 -11 -11 -12 -12 -12 -12 -12 -11 -11 -11 -10 -10 -10 -10 -10 -9 -10 -10 -10 -10 -10 -10 -11 -11
-9 -8 -8 -8 -9 -9 -10 -9 -10 -10 -9 -10 -11 -10 -11 -11 -11 -11 -11 -11 -12 -12 -11 -11 -11 -11 -12 -12 -12 -12 -12 -12 -12 -11 -11 -11 -10 -10 -10 -10 -10 -10 -10 -10 -10 -10 -10 -11 -11
-8 -8 -8 -9 -9 -9 -9 -9 -11 -10 -10 -10 -11 -11 -11 -11 -11 -11 -12 -12 -12 -12 -12 -11 -11 -11 -12 -12 -12 -13 -13 -12 -12 -12 -12 -11 -11 -11 -10 -10 -10 -10 -10 -10 -10 -11 -11 -11 -11
-9 -9 -10 -9 -10 -10 -9 -10 -10 -10 -10 -11 -11 -12 -11 -11 -11 -12 -12 -12 -12 -12 -12 -12 -12 -12 -12 -12 -12 -12 -13 -13 -13 -13 -13 -12 -11 -11 -11 -11 -11 -10 -11 -11 -11 -11 -11 -11 -12
-10 -10 -10 -10 -11 -10 -10 -10 -11 -11 -11 -12 -11 -12 -12 -11 -11 -12 -12 -12 -13 -13 -13 -12 -12 -12 -12 -12 -12 -12 -13 -13 -13 -13 -13 -13 -12 -12 -11 -11 -11 -11 -11 -11 -11 -11 -11 -12 -12
-10 -11 -11 -11 -12 -12 -11 -10 -11 -11 -12 -12 -12 -12 -12 -12 -12 -12 -12 -12 -13 -13 -14 -13 -13 -13 -13 -13 -13 -13 -14 -14 -13 -13 -13 -14 -13 -12 -12 -11 -11 -11 -11 -11 -11 -12 -12 -12 -12
-11 -11 -12 -12 -12 -12 -12 -12 -11 -12 -13 -12 -12 -12 -12 -12 -13 -13 -13 -13 -13 -14 -14 -14 -14 -13 -13 -13 -13 -14 -14 -13 -13 -13 -13 -14 -14 -13 -12 -12 -11 -11 -11 -11 -11 -12 -12 -13 -14
-12 -12 -12 -13 -13 -13 -12 -11 -12 -12 -12 -13 -13 -13 -13 -12 -12 -13 -14 -14 -14 -13 -14 -14 -14 -14 -14 -13 -14 -14 -14 -14 -13 -14 -14 -14 -14 -14 -13 -12 -12 -12 -12 -12 -12 -12 -13 -14 -14
-13 -13 -13 -14 -14 -14 -13 -11 -13 -13 -13 -13 -14 -14 -13 -13 -13 -13 -13 -13 -13 -13 -12 -13 -14 -14 -14 -14 -14 -14 -14 -14 -14 -14 -14 -14 -14 -15 -14 -13 -13 -12 -12 -12 -12 -13 -14 -15 -15
-14 -13 -13 -14 -14 -14 -14 -11 -12 -14 -14 -13 -13 -14 -14 -14 -14 -14 -14 -14 -13 -13 -13 -12 -13 -13 -14 -14 -14 -14 -15 -14 -14 -14 -14 -14 -14 -15 -15 -14 -13 -12 -12 -12 -13 -13 -14 -15 -14
-14 -14 -14 -14 -14 -15 -14 -13 -12 -13 -14 -14 -14 -14 -14 -15 -14 -15 -14 -14 -14 -14 -14 -13 -13 -13 -14 -14 -14 -14 -15 -14 -15 -14 -14 -14 -14 -14 -15 -14 -13 -13 -12 -13 -13 -14 -15 -15 -15
-15 -15 -14 -15 -15 -15 -15 -14 -13 -13 -14 -14 -14 -15 -15 -15 -14 -15 -15 -15 -14 -15 -14 -14 -14 -14 -14 -14 -14 -14 -14 -15 -15 -15 -15 -14 -14 -14 -15 -14 -13 -13 -13 -13 -13 -14 -15 -14 -15
-16 -15 -15 -15 -16 -16 -16 -14 -14 -13 -14 -14 -15 -15 -15 -14 -14 -14 -14 -15 -15 -15 -15 -14 -14 -14 -14 -15 -14 -14 -14 -14 -15 -15 -14 -14 -14 -15 -14 -14 -14 -13 -13 -13 -13 -14 -14 -14 -15
-17 -16 -16 -16 -16 -16 -16 -14 -14 -14 -14 -15 -15 -15 -14 -14 -14 -14 -14 -14 -15 -15 -16 -15 -14 -14 -14 -15 -15 -14 -14 -14 -15 -14 -14 -15 -14 -14 -14 -14 -14 -14 -13 -13 -13 -14 -14 -14 -15
-17 -17 -17 -17 -16 -16 -16 -15 -13 -15 -15 -15 -15 -15 -15 -15 -15 -15 -16 -16 -16 -17 -16 -15 -15 -14 -14 -15 -15 -15 -15 -14 -15 -15 -14 -15 -15 -14 -15 -14 -14 -14 -14 -13 -13 -14 -14 -15 -15
-18 -18 -17 -17 -17 -17 -15 -17 -15 -15 -14 -15 -16 -17 -18 -18 -18 -19 -19 -18 -18 -18 -18 -17 -15 -14 -14 -15 -15 -15 -15 -15 -15 -15 -14 -15 -15 -15 -15 -14 -14 -14 -14 -13 -13 -14 -14 -15 -15
-18 -18 -17 -17 -17 -17 -16 -18 -15 -17 -16 -18 -20 -21 -21 -21 -20 -20 -20 -19 -19 -18 -18 -17 -16 -15 -15 -16 -16 -15 -15 -15 -15 -14 -15 -15 -15 -14 -14 -14 -14 -14 -14 -14 -14 -14 -14 -15 -15
-18 -17 -17 -17 -17 -17 -18 -18 -18 -18 -20 -20 -20 -20 -20 -20 -20 -19 -19 -18 -18 -18 -18 -17 -17 -17 -16 -16 -16 -16 -15 -14 -15 -15 -15 -15 -15 -15 -14 -14 -14 -14 -14 -14 -14 -14 -15 -15 -15
-18 -19 -19 -19 -18 -18 -20 -20 -20 -21 -20 -20 -19 -20 -20 -19 -19 -18 -18 -18 -18 -18 -18 -17 -17 -17 -17 -17 -17 -16 -15 -15 -15 -15 -15 -15 -15 -15 -14 -13 -14 -14 -14 -14 -14 -14 -15 -15 -15
-17 -19 -20 -20 -20 -21 -21 -23 -20 -20 -21 -20 -19 -19 -19 -19 -18 -18 -18 -18 -17 -17 -17 -17 -17 -17 -17 -17 -17 -16 -16 -16 -16 -16 -15 -15 -15 -14 -14 -14 -14 -14 -14 -13 -14 -15 -15 -15 -15
-19 -21 -23 -23 -23 -23 -22 -22 -20 -21 -21 -20 -19 -19 -19 -19 -18 -18 -18 -18 -17 -17 -17 -17 -17 -17 -17 -17 -16 -17 -16 -16 -16 -15 -15 -15 -15 -14 -15 -14 -14 -14 -13 -14 -15 -15 -15 -15 -15
-23 -24 -24 -23 -23 -23 -22 -21 -21 -21 -21 -21 -20 -19 -19 -18 -18 -18 -17 -17 -17 -17 -17 -17 -17 -17 -17 -17 -17 -16 -16 -16 -15 -15 -15 -15 -15 -15 -15 -14 -14 -14 -14 -15 -15 -15 -15 -15 -15
-24 -24 -24 -23 -23 -22 -22 -20 -21 -21 -21 -21 -20 -19 -18 -18 -18 -18 -17 -17 -17 -17 -17 -17 -17 -17 -17 -17 -17 -16 -16 -16 -15 -15 -15 -15 -15 -15 -15 -14 -14 -14 -14 -15 -15 -15 -16 -16 -15

GFSSGP_500_temp_111.txt.gz
Temp
-8 -8 -8 -8 -8 -8 -8 -10 -10 -10 -9 -9 -9 -9 -9 -9 -8 -8 -8 -9 -9 -9 -9 -9 -9 -9 -9 -9 -9 -9 -9 -9 -9 -9 -9 -8 -8 -8 -8 -8 -8 -8 -8 -8 -9 -9 -9 -9 -10
-8 -8 -8 -8 -8 -8 -9 -10 -10 -10 -10 -10 -9 -10 -9 -9 -9 -9 -9 -9 -9 -9 -9 -9 -10 -10 -10 -9 -9 -9 -9 -9 -9 -9 -9 -9 -9 -8 -8 -8 -8 -8 -8 -9 -9 -9 -9 -10 -10
-8 -8 -8 -8 -8 -8 -9 -10 -10 -10 -10 -9 -9 -9 -10 -10 -9 -9 -9 -9 -9 -10 -10 -10 -10 -10 -10 -10 -10 -9 -9 -10 -9 -10 -10 -9 -9 -9 -9 -9 -9 -9 -9 -9 -9 -9 -9 -10 -10
-9 -8 -8 -8 -8 -8 -10 -10 -10 -10 -10 -10 -9 -9 -10 -10 -10 -10 -10 -10 -10 -10 -10 -10 -10 -10 -10 -10 -11 -11 -10 -10 -10 -10 -10 -10 -9 -9 -9 -9 -9 -9 -9 -9 -9 -9 -9 -10 -10
-9 -9 -8 -8 -8 -9 -10 -9 -9 -9 -9 -9 -9 -10 -10 -10 -10 -10 -10 -10 -10 -10 -11 -10 -10 -10 -10 -11 -11 -11 -11 -11 -10 -10 -10 -10 -10 -9 -9 -9 -9 -9 -9 -9 -9 -9 -9 -10 -10
-9 -9 -8 -8 -8 -9 -10 -9 -9 -9 -9 -9 -9 -10 -10 -10 -10 -10 -11 -11 -11 -11 -11 -11 -11 -11 -11 -11 -11 -11 -11 -11 -11 -10 -10 -10 -10 -10 -9 -9 -9 -9 -9 -10 -10 -10 -10 -10 -10
-9 -9 -8 -8 -8 -9 -10 -10 -9 -9 -9 -10 -9 -8 -10 -10 -10 -11 -11 -11 -11 -11 -11 -11 -11 -11 -11 -11 -12 -12 -12 -12 -11 -11 -11 -11 -11 -10 -10 -10 -9 -9 -10 -10 -10 -10 -10 -10 -10
-9 -9 -8 -9 -9 -9 -10 -9 -9 -9 -9 -9 -9 -9 -9 -10 -10 -10 -11 -11 -11 -11 -12 -12 -12 -12 -12 -12 -12 -12 -12 -12 -12 -11 -11 -11 -11 -11 -10 -10 -10 -10 -10 -10 -10 -10 -10 -10 -10
-9 -9 -8 -9 -9 -9 -9 -9 -10 -9 -9 -9 -10 -9 -9 -10 -10 -10 -10 -11 -12 -12 -12 -12 -12 -12 -12 -12 -12 -12 -12 -13 -12 -12 -12 -12 -11 -11 -11 -11 -10 -10 -10 -10 -10 -11 -11 -11 -11
-9 -9 -9 -9 -9 -9 -9 -10 -10 -9 -9 -10 -10 -11 -10 -10 -11 -11 -11 -11 -11 -12 -12 -12 -12 -12 -12 -12 -12 -12 -12 -13 -13 -13 -12 -12 -12 -12 -12 -11 -11 -11 -10 -10 -11 -11 -11 -11 -11
-10 -9 -10 -9 -10 -10 -10 -10 -10 -10 -10 -11 -11 -11 -11 -10 -10 -12 -12 -12 -12 -12 -12 -12 -12 -12 -12 -12 -12 -12 -12 -13 -13 -13 -13 -13 -13 -13 -12 -12 -12 -11 -11 -11 -11 -11 -11 -11 -12
-10 -10 -10 -10 -10 -10 -10 -10 -10 -10 -10 -11 -10 -11 -11 -11 -11 -11 -13 -12 -12 -12 -12 -13 -13 -13 -13 -12 -12 -13 -13 -13 -14 -14 -14 -13 -13 -13 -13 -13 -12 -12 -11 -11 -11 -11 -11 -12 -12
-10 -10 -10 -10 -11 -10 -10 -10 -10 -11 -12 -11 -11 -11 -11 -11 -11 -11 -12 -13 -13 -13 -13 -13 -13 -13 -13 -13 -13 -13 -13 -13 -14 -14 -14 -14 -13 -14 -13 -13 -13 -12 -12 -11 -11 -11 -11 -12 -12
-10 -10 -11 -11 -11 -11 -11 -11 -11 -12 -12 -12 -12 -12 -12 -12 -12 -12 -11 -12 -12 -13 -13 -13 -13 -13 -13 -13 -13 -13 -13 -14 -14 -14 -14 -14 -14 -14 -14 -14 -14 -13 -12 -12 -11 -11 -11 -12 -12
-11 -11 -11 -12 -11 -12 -11 -11 -12 -12 -13 -13 -13 -13 -13 -13 -12 -13 -13 -12 -13 -13 -14 -13 -14 -14 -14 -13 -14 -13 -14 -14 -14 -14 -14 -13 -14 -14 -14 -15 -14 -14 -13 -13 -12 -11 -12 -12 -12
-12 -12 -12 -12 -12 -12 -12 -11 -12 -13 -13 -13 -13 -13 -13 -13 -13 -13 -14 -13 -13 -13 -13 -13 -14 -13 -13 -14 -13 -14 -14 -14 -14 -14 -15 -14 -14 -14 -14 -15 -15 -15 -14 -13 -12 -12 -12 -12 -13
-12 -12 -12 -13 -13 -13 -13 -11 -13 -14 -14 -14 -14 -14 -14 -14 -14 -14 -14 -14 -14 -14 -13 -13 -13 -13 -13 -13 -13 -13 -14 -13 -14 -14 -15 -15 -14 -14 -14 -14 -15 -15 -15 -14 -13 -12 -13 -12 -13
-13 -13 -13 -13 -14 -14 -13 -12 -13 -14 -15 -14 -14 -15 -14 -14 -15 -15 -14 -14 -14 -14 -14 -14 -14 -13 -13 -13 -13 -13 -13 -14 -13 -14 -15 -15 -15 -14 -15 -14 -15 -15 -15 -14 -14 -13 -12 -13 -13
-13 -13 -13 -14 -15 -14 -14 -12 -13 -15 -15 -15 -15 -15 -15 -14 -14 -14 -15 -15 -15 -15 -15 -15 -14 -14 -14 -13 -13 -13 -12 -14 -14 -14 -15 -16 -16 -15 -15 -15 -15 -15 -15 -15 -14 -13 -13 -13 -13
-14 -14 -14 -15 -16 -15 -15 -12 -13 -15 -15 -15 -15 -15 -15 -15 -15 -14 -14 -15 -15 -15 -15 -15 -15 -15 -14 -14 -13 -13 -13 -14 -14 -15 -15 -15 -16 -15 -15 -15 -15 -15 -15 -15 -15 -14 -14 -13 -13
-16 -16 -17 -17 -17 -16 -16 -14 -14 -15 -15 -15 -15 -15 -15 -14 -14 -14 -14 -14 -15 -15 -15 -15 -15 -15 -15 -15 -14 -13 -13 -13 -14 -13 -14 -15 -16 -15 -16 -16 -15 -15 -15 -15 -15 -14 -14 -13 -14
-16 -18 -17 -17 -18 -17 -17 -16 -14 -15 -15 -15 -15 -15 -15 -15 -14 -14 -14 -14 -14 -14 -14 -14 -15 -15 -16 -16 -15 -14 -13 -13 -13 -14 -15 -15 -15 -15 -16 -15 -15 -15 -15 -15 -15 -15 -15 -14 -14
-18 -18 -18 -18 -19 -18 -18 -17 -14 -15 -15 -15 -15 -15 -15 -15 -14 -14 -14 -14 -15 -15 -16 -16 -17 -16 -17 -16 -16 -14 -14 -13 -14 -15 -15 -15 -16 -15 -15 -15 -15 -15 -15 -14 -14 -15 -14 -14 -14
-19 -19 -19 -19 -20 -19 -18 -18 -15 -16 -16 -15 -15 -15 -15 -16 -16 -17 -18 -19 -19 -19 -18 -18 -18 -18 -18 -18 -16 -15 -14 -14 -15 -15 -15 -15 -15 -15 -15 -16 -15 -14 -14 -14 -14 -15 -14 -14 -14
-19 -19 -20 -19 -19 -18 -17 -17 -17 -16 -16 -16 -16 -16 -17 -19 -20 -19 -19 -19 -19 -19 -20 -20 -19 -19 -19 -18 -17 -16 -15 -15 -15 -15 -15 -15 -15 -15 -15 -15 -15 -14 -15 -15 -15 -15 -14 -14 -14
-20 -20 -20 -19 -19 -18 -18 -18 -17 -17 -18 -20 -20 -20 -20 -19 -19 -19 -20 -19 -19 -19 -19 -19 -19 -19 -19 -18 -17 -17 -16 -16 -16 -15 -15 -15 -15 -15 -15 -16 -15 -15 -15 -14 -14 -14 -14 -14 -14
-20 -20 -19 -19 -19 -18 -19 -19 -19 -20 -20 -21 -20 -19 -19 -19 -19 -19 -19 -19 -18 -18 -19 -19 -19 -19 -18 -18 -18 -17 -17 -17 -16 -15 -15 -15 -15 -15 -16 -15 -15 -15 -15 -15 -15 -15 -14 -14 -14
-20 -20 -20 -20 -21 -21 -22 -22 -22 -21 -21 -21 -20 -19 -19 -18 -18 -18 -18 -17 -17 -18 -18 -18 -18 -18 -19 -18 -18 -18 -18 -17 -16 -16 -15 -15 -16 -16 -15 -15 -14 -15 -15 -15 -14 -14 -14 -14 -14
-21 -21 -22 -22 -22 -23 -22 -22 -21 -21 -21 -21 -20 -19 -20 -19 -19 -18 -18 -18 -18 -17 -17 -17 -18 -18 -18 -18 -17 -17 -17 -17 -17 -16 -16 -16 -16 -16 -16 -15 -15 -15 -15 -15 -14 -14 -14 -14 -15
-24 -24 -24 -23 -23 -23 -23 -22 -21 -21 -21 -20 -20 -20 -19 -19 -19 -18 -18 -17 -17 -17 -16 -17 -17 -17 -18 -17 -18 -17 -17 -17 -17 -17 -17 -16 -16 -16 -15 -15 -15 -15 -15 -15 -14 -15 -14 -15 -15

GFSSGP_500_temp_114.txt.gz
Temp
-8 -8 -8 -8 -8 -8 -9 -9 -9 -9 -8 -8 -8 -8 -9 -9 -8 -8 -9 -8 -9 -9 -9 -9 -10 -10 -9 -9 -9 -9 -9 -9 -9 -9 -9 -8 -8 -8 -8 -8 -8 -8 -8 -9 -9 -9 -8 -9 -9
-8 -8 -8 -8 -8 -8 -9 -9 -9 -8 -8 -8 -8 -9 -9 -9 -9 -9 -9 -9 -9 -10 -10 -10 -10 -10 -10 -10 -9 -9 -9 -9 -9 -9 -9 -9 -9 -9 -9 -9 -9 -9 -9 -9 -9 -9 -9 -9 -9
-8 -8 -8 -8 -8 -8 -9 -9 -9 -9 -8 -8 -8 -9 -9 -9 -9 -9 -9 -9 -9 -10 -10 -10 -10 -10 -10 -10 -10 -10 -10 -10 -10 -10 -9 -9 -9 -9 -9 -9 -9 -9 -9 -9 -9 -9 -9 -9 -9
-9 -9 -8 -8 -8 -9 -9 -9 -9 -9 -8 -8 -9 -9 -9 -9 -9 -10 -10 -10 -10 -10 -10 -10 -10 -11 -11 -11 -11 -11 -10 -10 -10 -10 -10 -10 -10 -9 -9 -9 -9 -9 -9 -9 -10 -9 -9 -9 -9
-9 -9 -8 -9 -9 -9 -9 -9 -9 -9 -8 -9 -9 -9 -9 -9 -9 -10 -10 -10 -10 -10 -10 -10 -11 -11 -11 -11 -11 -11 -11 -11 -11 -10 -10 -10 -10 -10 -10 -10 -9 -9 -9 -9 -10 -10 -9 -10 -10
-9 -9 -9 -9 -9 -9 -9 -9 -9 -9 -9 -9 -8 -9 -10 -9 -9 -10 -10 -10 -10 -10 -11 -11 -11 -11 -11 -11 -11 -11 -11 -11 -11 -11 -11 -11 -11 -11 -10 -10 -10 -10 -10 -10 -10 -10 -10 -10 -10
-9 -9 -9 -9 -9 -9 -10 -9 -9 -9 -9 -9 -8 -9 -9 -9 -9 -9 -10 -10 -10 -10 -11 -11 -11 -11 -11 -11 -11 -11 -12 -12 -12 -11 -11 -11 -11 -11 -11 -10 -10 -10 -10 -10 -10 -10 -10 -10 -10
-10 -9 -9 -9 -10 -9 -9 -9 -9 -9 -9 -9 -9 -8 -9 -9 -9 -10 -10 -10 -11 -11 -11 -11 -11 -11 -11 -11 -11 -11 -11 -12 -12 -12 -11 -11 -11 -11 -11 -11 -11 -11 -10 -10 -10 -10 -10 -10 -10
-10 -9 -9 -9 -10 -10 -10 -10 -10 -9 -10 -10 -10 -9 -9 -10 -10 -10 -10 -11 -11 -11 -11 -11 -12 -12 -12 -12 -12 -12 -12 -12 -12 -12 -12 -12 -12 -11 -11 -11 -11 -11 -11 -11 -11 -11 -11 -11 -11
-10 -10 -10 -10 -10 -10 -9 -10 -11 -10 -10 -10 -10 -10 -9 -9 -10 -10 -10 -10 -11 -11 -12 -12 -12 -12 -12 -12 -12 -12 -12 -12 -12 -12 -12 -12 -12 -12 -12 -12 -11 -11 -12 -11 -11 -11 -11 -11 -11
-10 -10 -10 -10 -10 -9 -10 -10 -9 -10 -10 -11 -10 -10 -9 -9 -9 -11 -11 -10 -11 -11 -12 -12 -12 -12 -12 -12 -12 -12 -12 -12 -12 -12 -13 -13 -13 -12 -12 -12 -12 -12 -12 -12 -12 -11 -11 -11 -11
-10 -10 -10 -10 -10 -10 -10 -9 -10 -10 -11 -11 -10 -10 -10 -10 -10 -10 -11 -12 -12 -12 -12 -12 -13 -12 -12 -12 -12 -12 -12 -13 -13 -13 -13 -13 -13 -13 -13 -12 -12 -12 -12 -12 -12 -12 -12 -11 -11
-10 -10 -10 -10 -10 -10 -10 -10 -10 -11 -11 -11 -11 -11 -11 -11 -11 -11 -11 -12 -12 -12 -12 -13 -13 -13 -13 -13 -12 -13 -13 -13 -13 -13 -13 -14 -14 -13 -13 -13 -12 -12 -12 -13 -13 -12 -12 -12 -11
-10 -10 -10 -10 -10 -10 -10 -11 -10 -11 -12 -12 -12 -11 -11 -11 -11 -12 -11 -11 -12 -12 -12 -12 -13 -13 -13 -13 -13 -13 -13 -13 -13 -13 -13 -14 -14 -14 -14 -13 -13 -12 -12 -13 -13 -13 -12 -12 -12
-11 -10 -10 -11 -11 -11 -11 -11 -11 -12 -12 -12 -12 -12 -12 -12 -12 -12 -12 -12 -12 -12 -13 -13 -13 -13 -13 -14 -13 -13 -14 -13 -13 -13 -13 -13 -14 -14 -14 -14 -14 -13 -13 -13 -13 -13 -13 -13 -12
-11 -11 -11 -11 -11 -11 -11 -11 -11 -12 -12 -12 -13 -13 -13 -13 -13 -13 -13 -13 -12 -12 -13 -13 -13 -13 -13 -13 -14 -14 -13 -13 -14 -14 -14 -13 -14 -14 -14 -14 -14 -14 -14 -14 -14 -13 -13 -13 -13
-11 -11 -11 -12 -11 -12 -12 -12 -12 -12 -13 -13 -13 -13 -13 -14 -14 -13 -13 -13 -13 -13 -13 -13 -13 -14 -14 -14 -14 -14 -14 -14 -14 -14 -14 -14 -14 -15 -15 -15 -15 -14 -14 -15 -15 -14 -14 -13 -13
-13 -12 -12 -12 -12 -12 -12 -12 -12 -12 -13 -13 -13 -14 -14 -14 -14 -14 -14 -14 -14 -14 -14 -14 -14 -13 -13 -13 -14 -14 -14 -14 -14 -14 -14 -14 -14 -14 -15 -14 -14 -15 -14 -15 -15 -14 -14 -14 -13
-13 -13 -13 -13 -13 -13 -13 -12 -13 -13 -13 -13 -14 -14 -15 -15 -14 -15 -14 -14 -14 -14 -14 -14 -14 -14 -14 -14 -14 -14 -14 -14 -15 -14 -14 -14 -14 -14 -15 -15 -14 -15 -15 -15 -15 -15 -14 -14 -14
-14 -14 -14 -14 -13 -13 -13 -11 -15 -14 -15 -15 -15 -15 -15 -15 -15 -15 -15 -15 -15 -15 -15 -15 -15 -15 -15 -14 -14 -14 -14 -14 -14 -14 -13 -14 -15 -15 -15 -16 -15 -15 -15 -15 -15 -15 -15 -14 -14
-15 -15 -16 -16 -15 -15 -15 -12 -16 -14 -14 -15 -15 -16 -16 -16 -15 -15 -15 -15 -15 -15 -15 -15 -15 -15 -15 -15 -15 -15 -14 -14 -13 -13 -13 -13 -14 -14 -15 -15 -15 -16 -16 -15 -15 -15 -14 -14 -14
-17 -17 -17 -17 -17 -16 -16 -14 -14 -16 -16 -15 -16 -16 -16 -16 -15 -15 -15 -15 -15 -15 -15 -15 -15 -15 -15 -15 -15 -15 -15 -14 -14 -14 -13 -14 -15 -15 -15 -15 -15 -16 -16 -15 -15 -15 -15 -14 -14
-18 -17 -18 -18 -18 -17 -16 -18 -13 -16 -16 -16 -16 -16 -16 -15 -15 -15 -15 -14 -14 -14 -14 -14 -14 -14 -15 -15 -15 -15 -15 -14 -14 -14 -14 -13 -14 -14 -14 -15 -15 -15 -15 -15 -15 -15 -15 -14 -14
-18 -18 -18 -19 -19 -18 -18 -19 -16 -17 -16 -17 -17 -16 -16 -15 -15 -15 -15 -14 -15 -15 -15 -14 -14 -14 -14 -14 -15 -15 -15 -15 -15 -14 -14 -14 -13 -14 -14 -14 -15 -15 -15 -15 -15 -15 -15 -14 -14
-19 -19 -20 -20 -20 -19 -18 -18 -18 -17 -17 -16 -16 -16 -16 -16 -15 -15 -16 -16 -17 -18 -18 -18 -18 -18 -18 -18 -17 -16 -16 -16 -16 -15 -15 -14 -14 -14 -14 -14 -14 -15 -15 -15 -15 -15 -15 -14 -14
-20 -20 -21 -20 -21 -22 -20 -18 -19 -18 -17 -17 -17 -17 -16 -16 -18 -18 -19 -18 -19 -18 -18 -18 -19 -18 -19 -19 -19 -19 -19 -18 -17 -16 -15 -14 -15 -15 -14 -15 -15 -15 -15 -15 -15 -15 -15 -14 -14
-20 -21 -21 -21 -21 -20 -19 -19 -19 -18 -18 -18 -18 -19 -20 -19 -19 -18 -18 -18 -18 -18 -17 -18 -18 -18 -19 -19 -19 -20 -20 -20 -18 -17 -16 -16 -16 -15 -15 -15 -15 -15 -15 -15 -15 -15 -15 -15 -14
-22 -21 -21 -20 -20 -20 -21 -20 -21 -20 -20 -20 -20 -20 -19 -19 -18 -17 -18 -18 -17 -17 -17 -18 -18 -18 -19 -19 -19 -20 -20 -19 -19 -18 -17 -17 -16 -16 -16 -15 -15 -15 -14 -15 -15 -15 -15 -15 -15
-21 -21 -20 -21 -21 -22 -22 -22 -23 -22 -21 -20 -20 -20 -19 -19 -18 -18 -18 -18 -17 -17 -17 -18 -17 -18 -19 -19 -19 -19 -19 -19 -19 -18 -18 -17 -17 -16 -16 -15 -15 -15 -15 -15 -15 -16 -15 -15 -15
-21 -22 -22 -23 -24 -23 -24 -22 -22 -21 -21 -21 -21 -20 -19 -19 -18 -18 -18 -18 -17 -17 -17 -17 -17 -17 -18 -18 -19 -19 -19 -19 -19 -19 -18 -17 -17 -16 -16 -16 -15 -15 -15 -15 -16 -15 -15 -15 -15

GFSSGP_500_temp_117.txt.gz
Temp
-8 -8 -8 -8 -8 -8 -9 -10 -9 -9 -8 -8 -8 -8 -8 -8 -9 -9 -8 -9 -8 -9 -9 -9 -9 -9 -9 -9 -9 -9 -9 -9 -9 -9 -9 -9 -8 -8 -8 -8 -8 -8 -9 -8 -9 -9 -9 -9 -9
-8 -8 -8 -8 -8 -9 -10 -11 -9 -9 -7 -8 -8 -8 -9 -8 -9 -9 -8 -9 -9 -9 -9 -10 -10 -10 -10 -10 -10 -9 -9 -9 -9 -9 -9 -9 -9 -9 -8 -8 -8 -9 -9 -9 -9 -9 -9 -9 -9
-8 -8 -8 -8 -9 -9 -10 -11 -9 -8 -8 -8 -8 -8 -9 -8 -8 -9 -9 -9 -9 -9 -10 -10 -10 -10 -10 -10 -10 -10 -10 -10 -10 -10 -10 -10 -10 -9 -9 -9 -9 -9 -9 -9 -9 -9 -9 -9 -9
-9 -9 -8 -8 -9 -9 -9 -9 -9 -9 -8 -8 -8 -9 -8 -8 -8 -9 -9 -9 -9 -9 -9 -10 -10 -10 -10 -10 -10 -10 -10 -10 -10 -10 -10 -10 -10 -10 -9 -9 -9 -9 -9 -9 -9 -9 -9 -9 -10
-9 -9 -9 -9 -9 -9 -9 -9 -8 -9 -9 -9 -8 -9 -9 -8 -9 -9 -10 -10 -10 -10 -9 -10 -10 -10 -10 -10 -10 -10 -10 -10 -10 -10 -10 -10 -10 -10 -10 -10 -10 -9 -9 -9 -9 -9 -9 -9 -10
-9 -9 -9 -9 -9 -9 -9 -9 -9 -9 -9 -9 -9 -9 -9 -8 -8 -9 -9 -9 -10 -10 -10 -10 -10 -10 -10 -10 -10 -10 -10 -10 -10 -11 -11 -11 -11 -10 -11 -10 -10 -10 -10 -10 -10 -10 -9 -10 -10
-10 -10 -9 -9 -9 -10 -10 -10 -9 -10 -9 -9 -8 -9 -10 -9 -8 -9 -9 -9 -10 -10 -10 -10 -11 -11 -11 -11 -11 -11 -11 -11 -11 -11 -11 -11 -11 -11 -11 -11 -10 -10 -10 -10 -10 -10 -10 -10 -10
-11 -10 -10 -10 -10 -10 -10 -10 -10 -9 -9 -9 -9 -9 -9 -9 -8 -10 -9 -10 -10 -10 -10 -10 -11 -11 -11 -11 -11 -11 -11 -11 -11 -11 -11 -11 -11 -11 -11 -11 -11 -11 -10 -11 -11 -10 -10 -10 -10
-10 -11 -10 -10 -10 -10 -10 -10 -10 -9 -10 -9 -9 -9 -9 -9 -9 -9 -9 -10 -10 -10 -10 -10 -11 -11 -11 -12 -12 -12 -11 -11 -11 -11 -12 -11 -11 -11 -11 -11 -11 -11 -11 -11 -11 -11 -11 -10 -10
-11 -11 -11 -11 -10 -10 -10 -10 -10 -10 -10 -10 -10 -10 -9 -9 -9 -9 -10 -10 -10 -11 -11 -11 -11 -12 -12 -12 -12 -12 -12 -12 -12 -12 -12 -12 -12 -12 -12 -12 -11 -11 -11 -11 -11 -11 -11 -11 -11
-11 -11 -11 -11 -10 -10 -10 -10 -10 -10 -10 -10 -10 -10 -10 -9 -10 -10 -10 -10 -10 -11 -11 -12 -12 -12 -12 -13 -13 -12 -12 -12 -12 -12 -12 -12 -12 -12 -12 -12 -12 -12 -12 -12 -12 -11 -11 -11 -11
-10 -11 -11 -11 -11 -11 -11 -11 -10 -11 -10 -11 -10 -10 -11 -10 -10 -10 -11 -11 -11 -11 -11 -12 -12 -12 -13 -13 -13 -13 -13 -13 -12 -12 -12 -12 -13 -13 -13 -12 -12 -12 -12 -12 -12 -12 -12 -12 -12
-10 -10 -11 -11 -11 -10 -10 -10 -10 -10 -11 -11 -11 -11 -11 -11 -11 -11 -11 -11 -11 -11 -11 -12 -12 -12 -13 -12 -12 -13 -13 -13 -13 -13 -13 -13 -13 -13 -13 -13 -12 -13 -12 -12 -12 -12 -12 -12 -12
-11 -11 -11 -11 -11 -10 -10 -10 -11 -11 -11 -11 -11 -11 -11 -11 -11 -11 -11 -11 -11 -12 -12 -12 -12 -12 -12 -13 -13 -13 -13 -13 -13 -13 -13 -13 -13 -13 -14 -13 -13 -13 -13 -13 -12 -13 -12 -12 -12
-11 -11 -11 -11 -11 -10 -10 -11 -11 -10 -10 -12 -12 -12 -12 -12 -12 -12 -12 -11 -11 -12 -12 -12 -12 -12 -12 -13 -13 -13 -13 -13 -13 -13 -13 -14 -14 -14 -14 -14 -14 -13 -13 -13 -13 -13 -13 -13 -13
-12 -12 -12 -12 -11 -11 -11 -11 -12 -10 -10 -12 -12 -12 -13 -13 -13 -13 -12 -12 -12 -12 -12 -12 -12 -13 -13 -13 -13 -13 -14 -14 -13 -14 -14 -13 -14 -14 -14 -15 -14 -14 -14 -14 -13 -13 -13 -13 -13
-13 -13 -13 -12 -12 -12 -12 -12 -12 -11 -11 -11 -13 -13 -13 -13 -13 -13 -12 -13 -13 -12 -12 -13 -13 -13 -13 -13 -14 -14 -14 -14 -14 -14 -14 -14 -14 -14 -14 -15 -15 -15 -14 -14 -14 -14 -14 -14 -13
-13 -13 -13 -13 -13 -13 -13 -12 -13 -13 -13 -12 -13 -14 -14 -14 -13 -13 -13 -13 -13 -14 -13 -13 -13 -13 -13 -13 -14 -14 -14 -14 -15 -14 -13 -14 -14 -15 -15 -15 -15 -15 -15 -15 -15 -14 -14 -14 -14
-13 -14 -14 -14 -14 -14 -13 -13 -13 -14 -14 -13 -13 -13 -14 -14 -14 -14 -14 -14 -14 -14 -14 -14 -14 -14 -13 -14 -14 -14 -14 -15 -14 -15 -14 -14 -15 -15 -15 -15 -15 -15 -16 -15 -15 -14 -15 -14 -14
-15 -15 -15 -15 -15 -14 -14 -14 -14 -14 -14 -14 -14 -14 -14 -14 -15 -15 -14 -14 -14 -14 -14 -14 -15 -14 -14 -14 -14 -14 -14 -14 -14 -15 -14 -14 -14 -14 -15 -16 -15 -16 -16 -16 -15 -15 -15 -14 -14
-15 -16 -16 -16 -15 -16 -15 -15 -16 -16 -15 -15 -14 -14 -15 -15 -15 -15 -15 -15 -14 -14 -15 -15 -15 -15 -15 -15 -15 -15 -15 -14 -14 -14 -14 -14 -14 -13 -14 -15 -16 -15 -16 -16 -15 -16 -15 -15 -15
-16 -17 -16 -16 -17 -16 -17 -16 -16 -17 -18 -18 -15 -14 -15 -15 -15 -15 -15 -15 -15 -15 -15 -15 -15 -15 -15 -15 -15 -15 -15 -15 -15 -14 -14 -14 -14 -13 -14 -14 -15 -15 -16 -16 -16 -16 -16 -16 -15
-17 -18 -18 -18 -18 -18 -16 -20 -16 -19 -20 -21 -16 -16 -17 -16 -16 -16 -16 -16 -16 -16 -15 -15 -15 -15 -15 -15 -15 -15 -15 -15 -15 -14 -14 -14 -14 -14 -14 -13 -14 -14 -16 -16 -16 -16 -16 -16 -16
-18 -19 -18 -19 -19 -18 -17 -20 -16 -19 -18 -20 -19 -18 -17 -17 -17 -16 -16 -16 -16 -16 -15 -15 -15 -15 -15 -15 -15 -15 -15 -15 -15 -14 -14 -14 -14 -14 -14 -13 -13 -14 -15 -16 -16 -16 -16 -16 -16
-19 -20 -19 -19 -22 -19 -20 -21 -21 -19 -18 -19 -20 -19 -18 -17 -16 -16 -16 -15 -15 -15 -14 -14 -14 -14 -14 -14 -14 -14 -14 -14 -14 -14 -14 -14 -14 -14 -14 -14 -13 -13 -14 -16 -16 -16 -16 -16 -15
-20 -20 -20 -20 -22 -22 -22 -20 -22 -19 -18 -18 -18 -18 -17 -17 -16 -16 -16 -16 -15 -15 -15 -15 -16 -16 -17 -17 -17 -17 -17 -16 -15 -14 -14 -14 -14 -15 -14 -14 -14 -13 -15 -15 -16 -16 -16 -15 -15
-20 -20 -21 -21 -21 -21 -20 -20 -22 -19 -19 -19 -18 -18 -17 -17 -17 -17 -18 -18 -18 -18 -17 -17 -18 -18 -18 -18 -18 -18 -18 -18 -18 -17 -16 -16 -15 -14 -15 -15 -14 -14 -15 -15 -16 -16 -15 -15 -15
-21 -22 -21 -21 -21 -22 -22 -22 -22 -21 -21 -20 -20 -20 -20 -20 -20 -19 -19 -18 -17 -17 -17 -16 -17 -17 -17 -18 -18 -18 -18 -18 -19 -19 -19 -19 -18 -16 -15 -15 -15 -14 -15 -15 -16 -15 -15 -15 -15
-21 -21 -22 -21 -21 -21 -23 -22 -21 -22 -23 -23 -22 -21 -21 -20 -19 -19 -18 -18 -17 -17 -17 -16 -17 -17 -17 -18 -18 -18 -18 -18 -19 -20 -21 -21 -19 -18 -17 -16 -16 -15 -15 -15 -15 -15 -15 -15 -15
-21 -21 -21 -21 -22 -24 -24 -23 -22 -23 -22 -22 -21 -21 -21 -20 -19 -19 -18 -18 -18 -18 -17 -16 -16 -17 -17 -17 -18 -18 -19 -19 -20 -21 -21 -20 -19 -18 -18 -17 -17 -16 -15 -15 -15 -15 -16 -16 -16